<?xml version="1.0" encoding="UTF-8"?>
<gpx version="1.1" creator="https://www.youtrack.es" xsi:schemaLocation="http://www.topografix.com/GPX/1/1 http://www.topografix.com/GPX/1/1/gpx.xsd http://www.garmin.com/xmlschemas/GpxExtensions/v3 http://www.garmin.com/xmlschemas/GpxExtensionsv3.xsd http://www.garmin.com/xmlschemas/TrackPointExtension/v1 http://www.garmin.com/xmlschemas/TrackPointExtensionv1.xsd" xmlns:gpxtpx="http://www.garmin.com/xmlschemas/TrackPointExtension/v1" xmlns:gpxx="http://www.garmin.com/xmlschemas/GpxExtensions/v3" xmlns:xsi="http://www.w3.org/2001/XMLSchema-instance">
  <metadata>
    <link href="https://www.youtrack.es">
      <text>YouTrack.es</text>
    </link>
    <time>2026-05-08T11:07:39Z</time>
  </metadata>
  <trk>
    <src>https://www.youtrack.es</src>
    <link href="https://www.youtrack.es/ruta/34672-monte-galapagos-ribatejada">
      <text>YouTrack.es</text>
    </link>
    <trkseg>
      <trkpt lat="40.6827610" lon="-3.4108750">
        <ele>826.7</ele>
        <time>2022-07-31T16:54:25Z</time>
      </trkpt>
      <trkpt lat="40.6828260" lon="-3.4108210">
        <ele>827.0</ele>
        <time>2022-07-31T16:54:26Z</time>
      </trkpt>
      <trkpt lat="40.6828140" lon="-3.4108150">
        <ele>827.0</ele>
        <time>2022-07-31T16:54:27Z</time>
      </trkpt>
      <trkpt lat="40.6828030" lon="-3.4108090">
        <ele>827.1</ele>
        <time>2022-07-31T16:54:28Z</time>
      </trkpt>
      <trkpt lat="40.6827920" lon="-3.4108030">
        <ele>827.1</ele>
        <time>2022-07-31T16:54:29Z</time>
      </trkpt>
      <trkpt lat="40.6827800" lon="-3.4107980">
        <ele>827.2</ele>
        <time>2022-07-31T16:54:30Z</time>
      </trkpt>
      <trkpt lat="40.6827690" lon="-3.4107920">
        <ele>827.2</ele>
        <time>2022-07-31T16:54:31Z</time>
      </trkpt>
      <trkpt lat="40.6827570" lon="-3.4107860">
        <ele>827.3</ele>
        <time>2022-07-31T16:54:32Z</time>
      </trkpt>
      <trkpt lat="40.6827460" lon="-3.4107810">
        <ele>827.3</ele>
        <time>2022-07-31T16:54:33Z</time>
      </trkpt>
      <trkpt lat="40.6827250" lon="-3.4107470">
        <ele>827.4</ele>
        <time>2022-07-31T16:54:34Z</time>
      </trkpt>
      <trkpt lat="40.6827180" lon="-3.4107360">
        <ele>827.5</ele>
        <time>2022-07-31T16:54:35Z</time>
      </trkpt>
      <trkpt lat="40.6826940" lon="-3.4107150">
        <ele>827.6</ele>
        <time>2022-07-31T16:54:36Z</time>
      </trkpt>
      <trkpt lat="40.6826670" lon="-3.4106910">
        <ele>827.7</ele>
        <time>2022-07-31T16:54:37Z</time>
      </trkpt>
      <trkpt lat="40.6826470" lon="-3.4106620">
        <ele>827.8</ele>
        <time>2022-07-31T16:54:38Z</time>
      </trkpt>
      <trkpt lat="40.6826170" lon="-3.4106440">
        <ele>828.0</ele>
        <time>2022-07-31T16:54:39Z</time>
      </trkpt>
      <trkpt lat="40.6825960" lon="-3.4106110">
        <ele>828.1</ele>
        <time>2022-07-31T16:54:40Z</time>
      </trkpt>
      <trkpt lat="40.6825730" lon="-3.4105760">
        <ele>828.2</ele>
        <time>2022-07-31T16:54:41Z</time>
      </trkpt>
      <trkpt lat="40.6825470" lon="-3.4105380">
        <ele>828.4</ele>
        <time>2022-07-31T16:54:42Z</time>
      </trkpt>
      <trkpt lat="40.6825180" lon="-3.4104980">
        <ele>828.6</ele>
        <time>2022-07-31T16:54:43Z</time>
      </trkpt>
      <trkpt lat="40.6824910" lon="-3.4104590">
        <ele>828.7</ele>
        <time>2022-07-31T16:54:44Z</time>
      </trkpt>
      <trkpt lat="40.6824660" lon="-3.4104200">
        <ele>828.9</ele>
        <time>2022-07-31T16:54:45Z</time>
      </trkpt>
      <trkpt lat="40.6824370" lon="-3.4103850">
        <ele>829.0</ele>
        <time>2022-07-31T16:54:46Z</time>
      </trkpt>
      <trkpt lat="40.6824100" lon="-3.4103580">
        <ele>829.2</ele>
        <time>2022-07-31T16:54:47Z</time>
      </trkpt>
      <trkpt lat="40.6823810" lon="-3.4102950">
        <ele>829.4</ele>
        <time>2022-07-31T16:54:48Z</time>
      </trkpt>
      <trkpt lat="40.6823670" lon="-3.4102440">
        <ele>829.5</ele>
        <time>2022-07-31T16:54:49Z</time>
      </trkpt>
      <trkpt lat="40.6823460" lon="-3.4101990">
        <ele>829.7</ele>
        <time>2022-07-31T16:54:50Z</time>
      </trkpt>
      <trkpt lat="40.6823200" lon="-3.4101550">
        <ele>829.9</ele>
        <time>2022-07-31T16:54:51Z</time>
      </trkpt>
      <trkpt lat="40.6823020" lon="-3.4101130">
        <ele>830.0</ele>
        <time>2022-07-31T16:54:52Z</time>
      </trkpt>
      <trkpt lat="40.6822810" lon="-3.4100800">
        <ele>830.1</ele>
        <time>2022-07-31T16:54:53Z</time>
      </trkpt>
      <trkpt lat="40.6822770" lon="-3.4100380">
        <ele>830.5</ele>
        <time>2022-07-31T16:54:54Z</time>
      </trkpt>
      <trkpt lat="40.6822780" lon="-3.4100240">
        <ele>830.4</ele>
        <time>2022-07-31T16:54:55Z</time>
      </trkpt>
      <trkpt lat="40.6822900" lon="-3.4100000">
        <ele>830.4</ele>
        <time>2022-07-31T16:54:56Z</time>
      </trkpt>
      <trkpt lat="40.6822960" lon="-3.4099930">
        <ele>830.4</ele>
        <time>2022-07-31T16:54:57Z</time>
      </trkpt>
      <trkpt lat="40.6823020" lon="-3.4099870">
        <ele>830.4</ele>
        <time>2022-07-31T16:54:58Z</time>
      </trkpt>
      <trkpt lat="40.6823040" lon="-3.4099820">
        <ele>830.4</ele>
        <time>2022-07-31T16:54:59Z</time>
      </trkpt>
      <trkpt lat="40.6823040" lon="-3.4099810">
        <ele>830.4</ele>
        <time>2022-07-31T16:55:00Z</time>
      </trkpt>
      <trkpt lat="40.6823010" lon="-3.4099820">
        <ele>830.3</ele>
        <time>2022-07-31T16:55:02Z</time>
      </trkpt>
      <trkpt lat="40.6823000" lon="-3.4099840">
        <ele>830.3</ele>
        <time>2022-07-31T16:55:03Z</time>
      </trkpt>
      <trkpt lat="40.6822990" lon="-3.4099820">
        <ele>830.3</ele>
        <time>2022-07-31T16:55:04Z</time>
      </trkpt>
      <trkpt lat="40.6823020" lon="-3.4099870">
        <ele>830.3</ele>
        <time>2022-07-31T16:55:05Z</time>
      </trkpt>
      <trkpt lat="40.6823070" lon="-3.4099950">
        <ele>830.3</ele>
        <time>2022-07-31T16:55:06Z</time>
      </trkpt>
      <trkpt lat="40.6823120" lon="-3.4099980">
        <ele>830.3</ele>
        <time>2022-07-31T16:55:07Z</time>
      </trkpt>
      <trkpt lat="40.6823150" lon="-3.4100010">
        <ele>830.3</ele>
        <time>2022-07-31T16:55:08Z</time>
      </trkpt>
      <trkpt lat="40.6823150" lon="-3.4100020">
        <ele>830.3</ele>
        <time>2022-07-31T16:55:09Z</time>
      </trkpt>
      <trkpt lat="40.6823200" lon="-3.4099980">
        <ele>830.3</ele>
        <time>2022-07-31T16:55:10Z</time>
      </trkpt>
      <trkpt lat="40.6823230" lon="-3.4099950">
        <ele>830.3</ele>
        <time>2022-07-31T16:55:11Z</time>
      </trkpt>
      <trkpt lat="40.6823270" lon="-3.4099980">
        <ele>830.3</ele>
        <time>2022-07-31T16:55:12Z</time>
      </trkpt>
      <trkpt lat="40.6823270" lon="-3.4099960">
        <ele>830.3</ele>
        <time>2022-07-31T16:55:13Z</time>
      </trkpt>
      <trkpt lat="40.6823270" lon="-3.4099960">
        <ele>830.3</ele>
        <time>2022-07-31T16:55:14Z</time>
      </trkpt>
      <trkpt lat="40.6823260" lon="-3.4099940">
        <ele>830.3</ele>
        <time>2022-07-31T16:55:15Z</time>
      </trkpt>
      <trkpt lat="40.6823240" lon="-3.4099950">
        <ele>830.3</ele>
        <time>2022-07-31T16:55:16Z</time>
      </trkpt>
      <trkpt lat="40.6823240" lon="-3.4099940">
        <ele>830.3</ele>
        <time>2022-07-31T16:55:17Z</time>
      </trkpt>
      <trkpt lat="40.6823190" lon="-3.4099880">
        <ele>830.3</ele>
        <time>2022-07-31T16:55:18Z</time>
      </trkpt>
      <trkpt lat="40.6823190" lon="-3.4099870">
        <ele>830.3</ele>
        <time>2022-07-31T16:55:19Z</time>
      </trkpt>
      <trkpt lat="40.6823320" lon="-3.4099640">
        <ele>830.2</ele>
        <time>2022-07-31T16:56:11Z</time>
      </trkpt>
      <trkpt lat="40.6823390" lon="-3.4099580">
        <ele>830.2</ele>
        <time>2022-07-31T16:56:12Z</time>
      </trkpt>
      <trkpt lat="40.6823440" lon="-3.4099500">
        <ele>830.2</ele>
        <time>2022-07-31T16:56:13Z</time>
      </trkpt>
      <trkpt lat="40.6823560" lon="-3.4099440">
        <ele>830.2</ele>
        <time>2022-07-31T16:56:14Z</time>
      </trkpt>
      <trkpt lat="40.6823830" lon="-3.4099290">
        <ele>830.2</ele>
        <time>2022-07-31T16:56:15Z</time>
      </trkpt>
      <trkpt lat="40.6823920" lon="-3.4099260">
        <ele>830.2</ele>
        <time>2022-07-31T16:56:16Z</time>
      </trkpt>
      <trkpt lat="40.6824200" lon="-3.4099170">
        <ele>830.2</ele>
        <time>2022-07-31T16:56:17Z</time>
      </trkpt>
      <trkpt lat="40.6824270" lon="-3.4099140">
        <ele>830.2</ele>
        <time>2022-07-31T16:56:18Z</time>
      </trkpt>
      <trkpt lat="40.6824350" lon="-3.4099110">
        <ele>830.2</ele>
        <time>2022-07-31T16:56:19Z</time>
      </trkpt>
      <trkpt lat="40.6824420" lon="-3.4099180">
        <ele>830.2</ele>
        <time>2022-07-31T16:56:20Z</time>
      </trkpt>
      <trkpt lat="40.6824430" lon="-3.4099170">
        <ele>830.2</ele>
        <time>2022-07-31T16:56:21Z</time>
      </trkpt>
      <trkpt lat="40.6824440" lon="-3.4099150">
        <ele>830.2</ele>
        <time>2022-07-31T16:56:22Z</time>
      </trkpt>
      <trkpt lat="40.6824440" lon="-3.4099170">
        <ele>830.2</ele>
        <time>2022-07-31T16:56:23Z</time>
      </trkpt>
      <trkpt lat="40.6824470" lon="-3.4099190">
        <ele>830.2</ele>
        <time>2022-07-31T16:56:24Z</time>
      </trkpt>
      <trkpt lat="40.6824490" lon="-3.4099220">
        <ele>830.2</ele>
        <time>2022-07-31T16:56:25Z</time>
      </trkpt>
      <trkpt lat="40.6824490" lon="-3.4099210">
        <ele>830.2</ele>
        <time>2022-07-31T16:56:26Z</time>
      </trkpt>
      <trkpt lat="40.6824570" lon="-3.4099260">
        <ele>830.2</ele>
        <time>2022-07-31T16:56:27Z</time>
      </trkpt>
      <trkpt lat="40.6824650" lon="-3.4099280">
        <ele>830.2</ele>
        <time>2022-07-31T16:56:28Z</time>
      </trkpt>
      <trkpt lat="40.6824660" lon="-3.4099280">
        <ele>830.2</ele>
        <time>2022-07-31T16:56:29Z</time>
      </trkpt>
      <trkpt lat="40.6824890" lon="-3.4099150">
        <ele>830.2</ele>
        <time>2022-07-31T16:56:35Z</time>
      </trkpt>
      <trkpt lat="40.6824940" lon="-3.4099120">
        <ele>830.2</ele>
        <time>2022-07-31T16:56:36Z</time>
      </trkpt>
      <trkpt lat="40.6825040" lon="-3.4099130">
        <ele>830.2</ele>
        <time>2022-07-31T16:56:37Z</time>
      </trkpt>
      <trkpt lat="40.6825080" lon="-3.4099060">
        <ele>830.2</ele>
        <time>2022-07-31T16:56:38Z</time>
      </trkpt>
      <trkpt lat="40.6825110" lon="-3.4099060">
        <ele>830.2</ele>
        <time>2022-07-31T16:56:39Z</time>
      </trkpt>
      <trkpt lat="40.6825200" lon="-3.4099090">
        <ele>830.2</ele>
        <time>2022-07-31T16:56:40Z</time>
      </trkpt>
      <trkpt lat="40.6825250" lon="-3.4099190">
        <ele>830.2</ele>
        <time>2022-07-31T16:56:41Z</time>
      </trkpt>
      <trkpt lat="40.6825370" lon="-3.4099220">
        <ele>830.2</ele>
        <time>2022-07-31T16:56:42Z</time>
      </trkpt>
      <trkpt lat="40.6825520" lon="-3.4099220">
        <ele>830.2</ele>
        <time>2022-07-31T16:56:43Z</time>
      </trkpt>
      <trkpt lat="40.6825690" lon="-3.4099200">
        <ele>830.2</ele>
        <time>2022-07-31T16:56:44Z</time>
      </trkpt>
      <trkpt lat="40.6825850" lon="-3.4099150">
        <ele>830.2</ele>
        <time>2022-07-31T16:56:45Z</time>
      </trkpt>
      <trkpt lat="40.6825970" lon="-3.4099130">
        <ele>830.2</ele>
        <time>2022-07-31T16:56:46Z</time>
      </trkpt>
      <trkpt lat="40.6826060" lon="-3.4099110">
        <ele>830.2</ele>
        <time>2022-07-31T16:56:47Z</time>
      </trkpt>
      <trkpt lat="40.6826110" lon="-3.4099130">
        <ele>830.2</ele>
        <time>2022-07-31T16:56:48Z</time>
      </trkpt>
      <trkpt lat="40.6826120" lon="-3.4099090">
        <ele>830.2</ele>
        <time>2022-07-31T16:56:49Z</time>
      </trkpt>
      <trkpt lat="40.6826140" lon="-3.4099090">
        <ele>830.2</ele>
        <time>2022-07-31T16:56:50Z</time>
      </trkpt>
      <trkpt lat="40.6826050" lon="-3.4099130">
        <ele>830.2</ele>
        <time>2022-07-31T16:56:51Z</time>
      </trkpt>
      <trkpt lat="40.6825980" lon="-3.4099170">
        <ele>830.2</ele>
        <time>2022-07-31T16:56:52Z</time>
      </trkpt>
      <trkpt lat="40.6825940" lon="-3.4099150">
        <ele>830.2</ele>
        <time>2022-07-31T16:56:53Z</time>
      </trkpt>
      <trkpt lat="40.6825940" lon="-3.4099150">
        <ele>830.2</ele>
        <time>2022-07-31T16:56:54Z</time>
      </trkpt>
      <trkpt lat="40.6825940" lon="-3.4099160">
        <ele>830.2</ele>
        <time>2022-07-31T16:56:55Z</time>
      </trkpt>
      <trkpt lat="40.6825900" lon="-3.4099170">
        <ele>830.2</ele>
        <time>2022-07-31T16:56:56Z</time>
      </trkpt>
      <trkpt lat="40.6825920" lon="-3.4099200">
        <ele>830.2</ele>
        <time>2022-07-31T16:56:57Z</time>
      </trkpt>
      <trkpt lat="40.6826120" lon="-3.4098890">
        <ele>830.2</ele>
        <time>2022-07-31T16:57:06Z</time>
      </trkpt>
      <trkpt lat="40.6826200" lon="-3.4098880">
        <ele>830.2</ele>
        <time>2022-07-31T16:57:07Z</time>
      </trkpt>
      <trkpt lat="40.6826300" lon="-3.4098900">
        <ele>830.2</ele>
        <time>2022-07-31T16:57:08Z</time>
      </trkpt>
      <trkpt lat="40.6826460" lon="-3.4098830">
        <ele>830.3</ele>
        <time>2022-07-31T16:57:09Z</time>
      </trkpt>
      <trkpt lat="40.6826680" lon="-3.4098870">
        <ele>830.3</ele>
        <time>2022-07-31T16:57:10Z</time>
      </trkpt>
      <trkpt lat="40.6826780" lon="-3.4098870">
        <ele>830.3</ele>
        <time>2022-07-31T16:57:11Z</time>
      </trkpt>
      <trkpt lat="40.6826880" lon="-3.4098870">
        <ele>830.3</ele>
        <time>2022-07-31T16:57:12Z</time>
      </trkpt>
      <trkpt lat="40.6827320" lon="-3.4098810">
        <ele>830.3</ele>
        <time>2022-07-31T16:57:13Z</time>
      </trkpt>
      <trkpt lat="40.6827490" lon="-3.4098750">
        <ele>830.3</ele>
        <time>2022-07-31T16:57:14Z</time>
      </trkpt>
      <trkpt lat="40.6827900" lon="-3.4098680">
        <ele>830.3</ele>
        <time>2022-07-31T16:57:15Z</time>
      </trkpt>
      <trkpt lat="40.6828360" lon="-3.4098620">
        <ele>830.3</ele>
        <time>2022-07-31T16:57:16Z</time>
      </trkpt>
      <trkpt lat="40.6828920" lon="-3.4098520">
        <ele>830.3</ele>
        <time>2022-07-31T16:57:17Z</time>
      </trkpt>
      <trkpt lat="40.6829370" lon="-3.4098500">
        <ele>830.3</ele>
        <time>2022-07-31T16:57:18Z</time>
      </trkpt>
      <trkpt lat="40.6829830" lon="-3.4098590">
        <ele>830.3</ele>
        <time>2022-07-31T16:57:19Z</time>
      </trkpt>
      <trkpt lat="40.6830280" lon="-3.4098610">
        <ele>830.3</ele>
        <time>2022-07-31T16:57:20Z</time>
      </trkpt>
      <trkpt lat="40.6830750" lon="-3.4098520">
        <ele>830.3</ele>
        <time>2022-07-31T16:57:21Z</time>
      </trkpt>
      <trkpt lat="40.6831290" lon="-3.4098490">
        <ele>830.3</ele>
        <time>2022-07-31T16:57:22Z</time>
      </trkpt>
      <trkpt lat="40.6831780" lon="-3.4098500">
        <ele>830.3</ele>
        <time>2022-07-31T16:57:23Z</time>
      </trkpt>
      <trkpt lat="40.6832330" lon="-3.4098530">
        <ele>830.3</ele>
        <time>2022-07-31T16:57:24Z</time>
      </trkpt>
      <trkpt lat="40.6832890" lon="-3.4098480">
        <ele>830.3</ele>
        <time>2022-07-31T16:57:25Z</time>
      </trkpt>
      <trkpt lat="40.6833370" lon="-3.4098530">
        <ele>830.4</ele>
        <time>2022-07-31T16:57:26Z</time>
      </trkpt>
      <trkpt lat="40.6833850" lon="-3.4098500">
        <ele>830.4</ele>
        <time>2022-07-31T16:57:27Z</time>
      </trkpt>
      <trkpt lat="40.6834460" lon="-3.4098480">
        <ele>830.4</ele>
        <time>2022-07-31T16:57:28Z</time>
      </trkpt>
      <trkpt lat="40.6834920" lon="-3.4098350">
        <ele>830.4</ele>
        <time>2022-07-31T16:57:29Z</time>
      </trkpt>
      <trkpt lat="40.6835370" lon="-3.4098340">
        <ele>830.4</ele>
        <time>2022-07-31T16:57:30Z</time>
      </trkpt>
      <trkpt lat="40.6835860" lon="-3.4098370">
        <ele>830.4</ele>
        <time>2022-07-31T16:57:31Z</time>
      </trkpt>
      <trkpt lat="40.6836360" lon="-3.4098360">
        <ele>830.4</ele>
        <time>2022-07-31T16:57:32Z</time>
      </trkpt>
      <trkpt lat="40.6836840" lon="-3.4098350">
        <ele>830.5</ele>
        <time>2022-07-31T16:57:33Z</time>
      </trkpt>
      <trkpt lat="40.6837340" lon="-3.4098300">
        <ele>830.5</ele>
        <time>2022-07-31T16:57:34Z</time>
      </trkpt>
      <trkpt lat="40.6837850" lon="-3.4098330">
        <ele>830.5</ele>
        <time>2022-07-31T16:57:35Z</time>
      </trkpt>
      <trkpt lat="40.6838310" lon="-3.4098290">
        <ele>830.6</ele>
        <time>2022-07-31T16:57:36Z</time>
      </trkpt>
      <trkpt lat="40.6838790" lon="-3.4098300">
        <ele>830.6</ele>
        <time>2022-07-31T16:57:37Z</time>
      </trkpt>
      <trkpt lat="40.6839250" lon="-3.4098310">
        <ele>830.6</ele>
        <time>2022-07-31T16:57:38Z</time>
      </trkpt>
      <trkpt lat="40.6839700" lon="-3.4098280">
        <ele>830.7</ele>
        <time>2022-07-31T16:57:39Z</time>
      </trkpt>
      <trkpt lat="40.6840190" lon="-3.4098180">
        <ele>830.7</ele>
        <time>2022-07-31T16:57:40Z</time>
      </trkpt>
      <trkpt lat="40.6840650" lon="-3.4098100">
        <ele>830.7</ele>
        <time>2022-07-31T16:57:41Z</time>
      </trkpt>
      <trkpt lat="40.6841110" lon="-3.4097950">
        <ele>830.7</ele>
        <time>2022-07-31T16:57:42Z</time>
      </trkpt>
      <trkpt lat="40.6841560" lon="-3.4097860">
        <ele>830.8</ele>
        <time>2022-07-31T16:57:43Z</time>
      </trkpt>
      <trkpt lat="40.6842100" lon="-3.4097770">
        <ele>830.8</ele>
        <time>2022-07-31T16:57:44Z</time>
      </trkpt>
      <trkpt lat="40.6842610" lon="-3.4097760">
        <ele>830.8</ele>
        <time>2022-07-31T16:57:45Z</time>
      </trkpt>
      <trkpt lat="40.6843130" lon="-3.4097690">
        <ele>830.8</ele>
        <time>2022-07-31T16:57:46Z</time>
      </trkpt>
      <trkpt lat="40.6843580" lon="-3.4097730">
        <ele>830.8</ele>
        <time>2022-07-31T16:57:47Z</time>
      </trkpt>
      <trkpt lat="40.6844020" lon="-3.4097760">
        <ele>830.8</ele>
        <time>2022-07-31T16:57:48Z</time>
      </trkpt>
      <trkpt lat="40.6844510" lon="-3.4097770">
        <ele>830.8</ele>
        <time>2022-07-31T16:57:49Z</time>
      </trkpt>
      <trkpt lat="40.6844940" lon="-3.4097910">
        <ele>830.8</ele>
        <time>2022-07-31T16:57:50Z</time>
      </trkpt>
      <trkpt lat="40.6845350" lon="-3.4097950">
        <ele>830.8</ele>
        <time>2022-07-31T16:57:51Z</time>
      </trkpt>
      <trkpt lat="40.6845680" lon="-3.4097860">
        <ele>830.8</ele>
        <time>2022-07-31T16:57:52Z</time>
      </trkpt>
      <trkpt lat="40.6845960" lon="-3.4097670">
        <ele>830.7</ele>
        <time>2022-07-31T16:57:53Z</time>
      </trkpt>
      <trkpt lat="40.6846010" lon="-3.4097550">
        <ele>830.6</ele>
        <time>2022-07-31T16:57:54Z</time>
      </trkpt>
      <trkpt lat="40.6846160" lon="-3.4097170">
        <ele>830.4</ele>
        <time>2022-07-31T16:57:55Z</time>
      </trkpt>
      <trkpt lat="40.6846410" lon="-3.4096820">
        <ele>830.0</ele>
        <time>2022-07-31T16:57:56Z</time>
      </trkpt>
      <trkpt lat="40.6846670" lon="-3.4096590">
        <ele>829.9</ele>
        <time>2022-07-31T16:57:57Z</time>
      </trkpt>
      <trkpt lat="40.6847000" lon="-3.4096390">
        <ele>829.8</ele>
        <time>2022-07-31T16:57:58Z</time>
      </trkpt>
      <trkpt lat="40.6847350" lon="-3.4096340">
        <ele>829.6</ele>
        <time>2022-07-31T16:57:59Z</time>
      </trkpt>
      <trkpt lat="40.6847810" lon="-3.4096320">
        <ele>829.7</ele>
        <time>2022-07-31T16:58:00Z</time>
      </trkpt>
      <trkpt lat="40.6848300" lon="-3.4096130">
        <ele>829.8</ele>
        <time>2022-07-31T16:58:01Z</time>
      </trkpt>
      <trkpt lat="40.6848760" lon="-3.4096070">
        <ele>829.8</ele>
        <time>2022-07-31T16:58:02Z</time>
      </trkpt>
      <trkpt lat="40.6849240" lon="-3.4095910">
        <ele>829.9</ele>
        <time>2022-07-31T16:58:03Z</time>
      </trkpt>
      <trkpt lat="40.6849650" lon="-3.4095760">
        <ele>829.9</ele>
        <time>2022-07-31T16:58:04Z</time>
      </trkpt>
      <trkpt lat="40.6850090" lon="-3.4095660">
        <ele>830.0</ele>
        <time>2022-07-31T16:58:05Z</time>
      </trkpt>
      <trkpt lat="40.6850590" lon="-3.4095540">
        <ele>830.1</ele>
        <time>2022-07-31T16:58:06Z</time>
      </trkpt>
      <trkpt lat="40.6851030" lon="-3.4095410">
        <ele>830.1</ele>
        <time>2022-07-31T16:58:07Z</time>
      </trkpt>
      <trkpt lat="40.6851540" lon="-3.4095220">
        <ele>830.2</ele>
        <time>2022-07-31T16:58:08Z</time>
      </trkpt>
      <trkpt lat="40.6851950" lon="-3.4095190">
        <ele>830.2</ele>
        <time>2022-07-31T16:58:09Z</time>
      </trkpt>
      <trkpt lat="40.6852470" lon="-3.4095120">
        <ele>830.2</ele>
        <time>2022-07-31T16:58:10Z</time>
      </trkpt>
      <trkpt lat="40.6852950" lon="-3.4095000">
        <ele>830.2</ele>
        <time>2022-07-31T16:58:11Z</time>
      </trkpt>
      <trkpt lat="40.6853390" lon="-3.4094870">
        <ele>830.2</ele>
        <time>2022-07-31T16:58:12Z</time>
      </trkpt>
      <trkpt lat="40.6853830" lon="-3.4094700">
        <ele>830.2</ele>
        <time>2022-07-31T16:58:13Z</time>
      </trkpt>
      <trkpt lat="40.6854320" lon="-3.4094640">
        <ele>830.3</ele>
        <time>2022-07-31T16:58:14Z</time>
      </trkpt>
      <trkpt lat="40.6854830" lon="-3.4094530">
        <ele>830.3</ele>
        <time>2022-07-31T16:58:15Z</time>
      </trkpt>
      <trkpt lat="40.6855310" lon="-3.4094450">
        <ele>830.3</ele>
        <time>2022-07-31T16:58:16Z</time>
      </trkpt>
      <trkpt lat="40.6855850" lon="-3.4094370">
        <ele>830.4</ele>
        <time>2022-07-31T16:58:17Z</time>
      </trkpt>
      <trkpt lat="40.6856360" lon="-3.4094330">
        <ele>830.4</ele>
        <time>2022-07-31T16:58:18Z</time>
      </trkpt>
      <trkpt lat="40.6856840" lon="-3.4094270">
        <ele>830.4</ele>
        <time>2022-07-31T16:58:19Z</time>
      </trkpt>
      <trkpt lat="40.6857330" lon="-3.4094110">
        <ele>830.4</ele>
        <time>2022-07-31T16:58:20Z</time>
      </trkpt>
      <trkpt lat="40.6857890" lon="-3.4094020">
        <ele>830.4</ele>
        <time>2022-07-31T16:58:21Z</time>
      </trkpt>
      <trkpt lat="40.6858370" lon="-3.4094000">
        <ele>830.4</ele>
        <time>2022-07-31T16:58:22Z</time>
      </trkpt>
      <trkpt lat="40.6858890" lon="-3.4093880">
        <ele>830.4</ele>
        <time>2022-07-31T16:58:23Z</time>
      </trkpt>
      <trkpt lat="40.6859370" lon="-3.4093720">
        <ele>830.4</ele>
        <time>2022-07-31T16:58:24Z</time>
      </trkpt>
      <trkpt lat="40.6859890" lon="-3.4093660">
        <ele>830.4</ele>
        <time>2022-07-31T16:58:25Z</time>
      </trkpt>
      <trkpt lat="40.6860390" lon="-3.4093510">
        <ele>830.4</ele>
        <time>2022-07-31T16:58:26Z</time>
      </trkpt>
      <trkpt lat="40.6860900" lon="-3.4093420">
        <ele>830.4</ele>
        <time>2022-07-31T16:58:27Z</time>
      </trkpt>
      <trkpt lat="40.6861480" lon="-3.4093430">
        <ele>830.3</ele>
        <time>2022-07-31T16:58:28Z</time>
      </trkpt>
      <trkpt lat="40.6862020" lon="-3.4093380">
        <ele>830.3</ele>
        <time>2022-07-31T16:58:29Z</time>
      </trkpt>
      <trkpt lat="40.6862600" lon="-3.4093300">
        <ele>830.3</ele>
        <time>2022-07-31T16:58:30Z</time>
      </trkpt>
      <trkpt lat="40.6863150" lon="-3.4093240">
        <ele>830.2</ele>
        <time>2022-07-31T16:58:31Z</time>
      </trkpt>
      <trkpt lat="40.6863660" lon="-3.4093220">
        <ele>830.2</ele>
        <time>2022-07-31T16:58:32Z</time>
      </trkpt>
      <trkpt lat="40.6864230" lon="-3.4093200">
        <ele>830.2</ele>
        <time>2022-07-31T16:58:33Z</time>
      </trkpt>
      <trkpt lat="40.6864730" lon="-3.4093130">
        <ele>830.1</ele>
        <time>2022-07-31T16:58:34Z</time>
      </trkpt>
      <trkpt lat="40.6865270" lon="-3.4092990">
        <ele>830.1</ele>
        <time>2022-07-31T16:58:35Z</time>
      </trkpt>
      <trkpt lat="40.6865830" lon="-3.4092930">
        <ele>830.0</ele>
        <time>2022-07-31T16:58:36Z</time>
      </trkpt>
      <trkpt lat="40.6866390" lon="-3.4092810">
        <ele>830.0</ele>
        <time>2022-07-31T16:58:37Z</time>
      </trkpt>
      <trkpt lat="40.6866930" lon="-3.4092670">
        <ele>829.9</ele>
        <time>2022-07-31T16:58:38Z</time>
      </trkpt>
      <trkpt lat="40.6867480" lon="-3.4092560">
        <ele>829.9</ele>
        <time>2022-07-31T16:58:39Z</time>
      </trkpt>
      <trkpt lat="40.6868020" lon="-3.4092400">
        <ele>829.8</ele>
        <time>2022-07-31T16:58:40Z</time>
      </trkpt>
      <trkpt lat="40.6868590" lon="-3.4092310">
        <ele>829.8</ele>
        <time>2022-07-31T16:58:41Z</time>
      </trkpt>
      <trkpt lat="40.6869190" lon="-3.4092140">
        <ele>829.7</ele>
        <time>2022-07-31T16:58:42Z</time>
      </trkpt>
      <trkpt lat="40.6869730" lon="-3.4092000">
        <ele>829.6</ele>
        <time>2022-07-31T16:58:43Z</time>
      </trkpt>
      <trkpt lat="40.6870250" lon="-3.4091810">
        <ele>829.5</ele>
        <time>2022-07-31T16:58:44Z</time>
      </trkpt>
      <trkpt lat="40.6870820" lon="-3.4091620">
        <ele>829.4</ele>
        <time>2022-07-31T16:58:45Z</time>
      </trkpt>
      <trkpt lat="40.6871360" lon="-3.4091400">
        <ele>829.3</ele>
        <time>2022-07-31T16:58:46Z</time>
      </trkpt>
      <trkpt lat="40.6871930" lon="-3.4091190">
        <ele>829.1</ele>
        <time>2022-07-31T16:58:47Z</time>
      </trkpt>
      <trkpt lat="40.6872470" lon="-3.4091060">
        <ele>829.0</ele>
        <time>2022-07-31T16:58:48Z</time>
      </trkpt>
      <trkpt lat="40.6872990" lon="-3.4090950">
        <ele>828.9</ele>
        <time>2022-07-31T16:58:49Z</time>
      </trkpt>
      <trkpt lat="40.6873550" lon="-3.4090850">
        <ele>828.7</ele>
        <time>2022-07-31T16:58:50Z</time>
      </trkpt>
      <trkpt lat="40.6874160" lon="-3.4090770">
        <ele>828.5</ele>
        <time>2022-07-31T16:58:51Z</time>
      </trkpt>
      <trkpt lat="40.6874760" lon="-3.4090720">
        <ele>828.3</ele>
        <time>2022-07-31T16:58:52Z</time>
      </trkpt>
      <trkpt lat="40.6875330" lon="-3.4090780">
        <ele>828.0</ele>
        <time>2022-07-31T16:58:53Z</time>
      </trkpt>
      <trkpt lat="40.6876010" lon="-3.4090870">
        <ele>827.7</ele>
        <time>2022-07-31T16:58:54Z</time>
      </trkpt>
      <trkpt lat="40.6876660" lon="-3.4091030">
        <ele>827.3</ele>
        <time>2022-07-31T16:58:55Z</time>
      </trkpt>
      <trkpt lat="40.6877320" lon="-3.4091250">
        <ele>826.8</ele>
        <time>2022-07-31T16:58:56Z</time>
      </trkpt>
      <trkpt lat="40.6877910" lon="-3.4091710">
        <ele>826.4</ele>
        <time>2022-07-31T16:58:57Z</time>
      </trkpt>
      <trkpt lat="40.6878540" lon="-3.4092100">
        <ele>825.9</ele>
        <time>2022-07-31T16:58:58Z</time>
      </trkpt>
      <trkpt lat="40.6879220" lon="-3.4092540">
        <ele>825.5</ele>
        <time>2022-07-31T16:58:59Z</time>
      </trkpt>
      <trkpt lat="40.6880020" lon="-3.4093030">
        <ele>825.2</ele>
        <time>2022-07-31T16:59:00Z</time>
      </trkpt>
      <trkpt lat="40.6880770" lon="-3.4093480">
        <ele>824.9</ele>
        <time>2022-07-31T16:59:01Z</time>
      </trkpt>
      <trkpt lat="40.6881470" lon="-3.4094000">
        <ele>824.7</ele>
        <time>2022-07-31T16:59:02Z</time>
      </trkpt>
      <trkpt lat="40.6882100" lon="-3.4094410">
        <ele>824.6</ele>
        <time>2022-07-31T16:59:03Z</time>
      </trkpt>
      <trkpt lat="40.6882740" lon="-3.4094720">
        <ele>824.6</ele>
        <time>2022-07-31T16:59:04Z</time>
      </trkpt>
      <trkpt lat="40.6883390" lon="-3.4095010">
        <ele>824.7</ele>
        <time>2022-07-31T16:59:05Z</time>
      </trkpt>
      <trkpt lat="40.6884010" lon="-3.4095400">
        <ele>824.8</ele>
        <time>2022-07-31T16:59:06Z</time>
      </trkpt>
      <trkpt lat="40.6884620" lon="-3.4095800">
        <ele>825.0</ele>
        <time>2022-07-31T16:59:07Z</time>
      </trkpt>
      <trkpt lat="40.6885180" lon="-3.4096220">
        <ele>825.3</ele>
        <time>2022-07-31T16:59:08Z</time>
      </trkpt>
      <trkpt lat="40.6885760" lon="-3.4096380">
        <ele>825.5</ele>
        <time>2022-07-31T16:59:09Z</time>
      </trkpt>
      <trkpt lat="40.6886230" lon="-3.4096750">
        <ele>825.8</ele>
        <time>2022-07-31T16:59:10Z</time>
      </trkpt>
      <trkpt lat="40.6886690" lon="-3.4096990">
        <ele>826.0</ele>
        <time>2022-07-31T16:59:11Z</time>
      </trkpt>
      <trkpt lat="40.6887120" lon="-3.4097280">
        <ele>826.3</ele>
        <time>2022-07-31T16:59:12Z</time>
      </trkpt>
      <trkpt lat="40.6887510" lon="-3.4097560">
        <ele>826.5</ele>
        <time>2022-07-31T16:59:13Z</time>
      </trkpt>
      <trkpt lat="40.6887840" lon="-3.4097830">
        <ele>826.7</ele>
        <time>2022-07-31T16:59:14Z</time>
      </trkpt>
      <trkpt lat="40.6888250" lon="-3.4097890">
        <ele>826.9</ele>
        <time>2022-07-31T16:59:15Z</time>
      </trkpt>
      <trkpt lat="40.6888640" lon="-3.4097980">
        <ele>827.1</ele>
        <time>2022-07-31T16:59:16Z</time>
      </trkpt>
      <trkpt lat="40.6889050" lon="-3.4098090">
        <ele>827.4</ele>
        <time>2022-07-31T16:59:17Z</time>
      </trkpt>
      <trkpt lat="40.6889340" lon="-3.4098480">
        <ele>827.6</ele>
        <time>2022-07-31T16:59:18Z</time>
      </trkpt>
      <trkpt lat="40.6889730" lon="-3.4098660">
        <ele>827.8</ele>
        <time>2022-07-31T16:59:19Z</time>
      </trkpt>
      <trkpt lat="40.6890050" lon="-3.4098830">
        <ele>828.0</ele>
        <time>2022-07-31T16:59:20Z</time>
      </trkpt>
      <trkpt lat="40.6890360" lon="-3.4099000">
        <ele>828.2</ele>
        <time>2022-07-31T16:59:21Z</time>
      </trkpt>
      <trkpt lat="40.6890600" lon="-3.4099200">
        <ele>828.4</ele>
        <time>2022-07-31T16:59:22Z</time>
      </trkpt>
      <trkpt lat="40.6890910" lon="-3.4099370">
        <ele>828.5</ele>
        <time>2022-07-31T16:59:23Z</time>
      </trkpt>
      <trkpt lat="40.6891230" lon="-3.4099610">
        <ele>828.7</ele>
        <time>2022-07-31T16:59:24Z</time>
      </trkpt>
      <trkpt lat="40.6891590" lon="-3.4099680">
        <ele>828.9</ele>
        <time>2022-07-31T16:59:25Z</time>
      </trkpt>
      <trkpt lat="40.6891980" lon="-3.4099840">
        <ele>829.0</ele>
        <time>2022-07-31T16:59:26Z</time>
      </trkpt>
      <trkpt lat="40.6892390" lon="-3.4099940">
        <ele>829.2</ele>
        <time>2022-07-31T16:59:27Z</time>
      </trkpt>
      <trkpt lat="40.6892720" lon="-3.4100020">
        <ele>829.3</ele>
        <time>2022-07-31T16:59:28Z</time>
      </trkpt>
      <trkpt lat="40.6893110" lon="-3.4100150">
        <ele>829.4</ele>
        <time>2022-07-31T16:59:29Z</time>
      </trkpt>
      <trkpt lat="40.6893510" lon="-3.4100270">
        <ele>829.5</ele>
        <time>2022-07-31T16:59:30Z</time>
      </trkpt>
      <trkpt lat="40.6893920" lon="-3.4100350">
        <ele>829.6</ele>
        <time>2022-07-31T16:59:31Z</time>
      </trkpt>
      <trkpt lat="40.6894380" lon="-3.4100430">
        <ele>829.8</ele>
        <time>2022-07-31T16:59:32Z</time>
      </trkpt>
      <trkpt lat="40.6894830" lon="-3.4100530">
        <ele>829.8</ele>
        <time>2022-07-31T16:59:33Z</time>
      </trkpt>
      <trkpt lat="40.6895220" lon="-3.4100710">
        <ele>829.9</ele>
        <time>2022-07-31T16:59:34Z</time>
      </trkpt>
      <trkpt lat="40.6895670" lon="-3.4100820">
        <ele>830.0</ele>
        <time>2022-07-31T16:59:35Z</time>
      </trkpt>
      <trkpt lat="40.6896090" lon="-3.4100850">
        <ele>830.0</ele>
        <time>2022-07-31T16:59:36Z</time>
      </trkpt>
      <trkpt lat="40.6896490" lon="-3.4100900">
        <ele>830.1</ele>
        <time>2022-07-31T16:59:37Z</time>
      </trkpt>
      <trkpt lat="40.6896900" lon="-3.4100880">
        <ele>830.1</ele>
        <time>2022-07-31T16:59:38Z</time>
      </trkpt>
      <trkpt lat="40.6897350" lon="-3.4100880">
        <ele>830.2</ele>
        <time>2022-07-31T16:59:39Z</time>
      </trkpt>
      <trkpt lat="40.6897750" lon="-3.4100970">
        <ele>830.2</ele>
        <time>2022-07-31T16:59:40Z</time>
      </trkpt>
      <trkpt lat="40.6898200" lon="-3.4101060">
        <ele>830.3</ele>
        <time>2022-07-31T16:59:41Z</time>
      </trkpt>
      <trkpt lat="40.6898680" lon="-3.4101100">
        <ele>830.3</ele>
        <time>2022-07-31T16:59:42Z</time>
      </trkpt>
      <trkpt lat="40.6899190" lon="-3.4101130">
        <ele>830.4</ele>
        <time>2022-07-31T16:59:43Z</time>
      </trkpt>
      <trkpt lat="40.6899670" lon="-3.4101260">
        <ele>830.4</ele>
        <time>2022-07-31T16:59:44Z</time>
      </trkpt>
      <trkpt lat="40.6900110" lon="-3.4101340">
        <ele>830.5</ele>
        <time>2022-07-31T16:59:45Z</time>
      </trkpt>
      <trkpt lat="40.6900550" lon="-3.4101400">
        <ele>830.5</ele>
        <time>2022-07-31T16:59:46Z</time>
      </trkpt>
      <trkpt lat="40.6901020" lon="-3.4101470">
        <ele>830.6</ele>
        <time>2022-07-31T16:59:47Z</time>
      </trkpt>
      <trkpt lat="40.6901430" lon="-3.4101580">
        <ele>830.6</ele>
        <time>2022-07-31T16:59:48Z</time>
      </trkpt>
      <trkpt lat="40.6901880" lon="-3.4101630">
        <ele>830.6</ele>
        <time>2022-07-31T16:59:49Z</time>
      </trkpt>
      <trkpt lat="40.6902360" lon="-3.4101630">
        <ele>830.6</ele>
        <time>2022-07-31T16:59:50Z</time>
      </trkpt>
      <trkpt lat="40.6902810" lon="-3.4101640">
        <ele>830.6</ele>
        <time>2022-07-31T16:59:51Z</time>
      </trkpt>
      <trkpt lat="40.6903320" lon="-3.4101710">
        <ele>830.6</ele>
        <time>2022-07-31T16:59:52Z</time>
      </trkpt>
      <trkpt lat="40.6903790" lon="-3.4101760">
        <ele>830.6</ele>
        <time>2022-07-31T16:59:53Z</time>
      </trkpt>
      <trkpt lat="40.6904330" lon="-3.4101800">
        <ele>830.6</ele>
        <time>2022-07-31T16:59:54Z</time>
      </trkpt>
      <trkpt lat="40.6904850" lon="-3.4101790">
        <ele>830.6</ele>
        <time>2022-07-31T16:59:55Z</time>
      </trkpt>
      <trkpt lat="40.6905390" lon="-3.4101840">
        <ele>830.6</ele>
        <time>2022-07-31T16:59:56Z</time>
      </trkpt>
      <trkpt lat="40.6905890" lon="-3.4101990">
        <ele>830.6</ele>
        <time>2022-07-31T16:59:57Z</time>
      </trkpt>
      <trkpt lat="40.6906440" lon="-3.4102020">
        <ele>830.5</ele>
        <time>2022-07-31T16:59:58Z</time>
      </trkpt>
      <trkpt lat="40.6907000" lon="-3.4102100">
        <ele>830.5</ele>
        <time>2022-07-31T16:59:59Z</time>
      </trkpt>
      <trkpt lat="40.6907490" lon="-3.4102170">
        <ele>830.4</ele>
        <time>2022-07-31T17:00:00Z</time>
      </trkpt>
      <trkpt lat="40.6908050" lon="-3.4102240">
        <ele>830.4</ele>
        <time>2022-07-31T17:00:01Z</time>
      </trkpt>
      <trkpt lat="40.6908560" lon="-3.4102340">
        <ele>830.4</ele>
        <time>2022-07-31T17:00:02Z</time>
      </trkpt>
      <trkpt lat="40.6909090" lon="-3.4102380">
        <ele>830.3</ele>
        <time>2022-07-31T17:00:03Z</time>
      </trkpt>
      <trkpt lat="40.6909610" lon="-3.4102320">
        <ele>830.3</ele>
        <time>2022-07-31T17:00:04Z</time>
      </trkpt>
      <trkpt lat="40.6910150" lon="-3.4102340">
        <ele>830.2</ele>
        <time>2022-07-31T17:00:05Z</time>
      </trkpt>
      <trkpt lat="40.6910650" lon="-3.4102410">
        <ele>830.2</ele>
        <time>2022-07-31T17:00:06Z</time>
      </trkpt>
      <trkpt lat="40.6911220" lon="-3.4102270">
        <ele>830.2</ele>
        <time>2022-07-31T17:00:07Z</time>
      </trkpt>
      <trkpt lat="40.6911800" lon="-3.4102310">
        <ele>830.1</ele>
        <time>2022-07-31T17:00:08Z</time>
      </trkpt>
      <trkpt lat="40.6912320" lon="-3.4102410">
        <ele>830.1</ele>
        <time>2022-07-31T17:00:09Z</time>
      </trkpt>
      <trkpt lat="40.6912880" lon="-3.4102530">
        <ele>830.1</ele>
        <time>2022-07-31T17:00:10Z</time>
      </trkpt>
      <trkpt lat="40.6913410" lon="-3.4102520">
        <ele>830.1</ele>
        <time>2022-07-31T17:00:11Z</time>
      </trkpt>
      <trkpt lat="40.6913940" lon="-3.4102580">
        <ele>830.1</ele>
        <time>2022-07-31T17:00:12Z</time>
      </trkpt>
      <trkpt lat="40.6914480" lon="-3.4102570">
        <ele>830.1</ele>
        <time>2022-07-31T17:00:13Z</time>
      </trkpt>
      <trkpt lat="40.6914990" lon="-3.4102580">
        <ele>830.1</ele>
        <time>2022-07-31T17:00:14Z</time>
      </trkpt>
      <trkpt lat="40.6915500" lon="-3.4102670">
        <ele>830.1</ele>
        <time>2022-07-31T17:00:15Z</time>
      </trkpt>
      <trkpt lat="40.6916030" lon="-3.4102800">
        <ele>830.1</ele>
        <time>2022-07-31T17:00:16Z</time>
      </trkpt>
      <trkpt lat="40.6916580" lon="-3.4102820">
        <ele>830.2</ele>
        <time>2022-07-31T17:00:17Z</time>
      </trkpt>
      <trkpt lat="40.6917140" lon="-3.4102810">
        <ele>830.2</ele>
        <time>2022-07-31T17:00:18Z</time>
      </trkpt>
      <trkpt lat="40.6917670" lon="-3.4102820">
        <ele>830.3</ele>
        <time>2022-07-31T17:00:19Z</time>
      </trkpt>
      <trkpt lat="40.6918170" lon="-3.4102880">
        <ele>830.4</ele>
        <time>2022-07-31T17:00:20Z</time>
      </trkpt>
      <trkpt lat="40.6918690" lon="-3.4102970">
        <ele>830.4</ele>
        <time>2022-07-31T17:00:21Z</time>
      </trkpt>
      <trkpt lat="40.6919160" lon="-3.4103060">
        <ele>830.5</ele>
        <time>2022-07-31T17:00:22Z</time>
      </trkpt>
      <trkpt lat="40.6919640" lon="-3.4103170">
        <ele>830.6</ele>
        <time>2022-07-31T17:00:23Z</time>
      </trkpt>
      <trkpt lat="40.6920130" lon="-3.4103290">
        <ele>830.7</ele>
        <time>2022-07-31T17:00:24Z</time>
      </trkpt>
      <trkpt lat="40.6920660" lon="-3.4103320">
        <ele>830.8</ele>
        <time>2022-07-31T17:00:25Z</time>
      </trkpt>
      <trkpt lat="40.6921180" lon="-3.4103410">
        <ele>830.9</ele>
        <time>2022-07-31T17:00:26Z</time>
      </trkpt>
      <trkpt lat="40.6921630" lon="-3.4103400">
        <ele>831.0</ele>
        <time>2022-07-31T17:00:27Z</time>
      </trkpt>
      <trkpt lat="40.6922030" lon="-3.4103410">
        <ele>831.1</ele>
        <time>2022-07-31T17:00:28Z</time>
      </trkpt>
      <trkpt lat="40.6922410" lon="-3.4103210">
        <ele>831.2</ele>
        <time>2022-07-31T17:00:29Z</time>
      </trkpt>
      <trkpt lat="40.6922590" lon="-3.4102880">
        <ele>831.2</ele>
        <time>2022-07-31T17:00:30Z</time>
      </trkpt>
      <trkpt lat="40.6922570" lon="-3.4102470">
        <ele>831.3</ele>
        <time>2022-07-31T17:00:31Z</time>
      </trkpt>
      <trkpt lat="40.6922420" lon="-3.4101940">
        <ele>831.3</ele>
        <time>2022-07-31T17:00:32Z</time>
      </trkpt>
      <trkpt lat="40.6922220" lon="-3.4101410">
        <ele>831.3</ele>
        <time>2022-07-31T17:00:33Z</time>
      </trkpt>
      <trkpt lat="40.6921970" lon="-3.4100770">
        <ele>831.4</ele>
        <time>2022-07-31T17:00:34Z</time>
      </trkpt>
      <trkpt lat="40.6921650" lon="-3.4100110">
        <ele>831.4</ele>
        <time>2022-07-31T17:00:35Z</time>
      </trkpt>
      <trkpt lat="40.6921490" lon="-3.4099530">
        <ele>831.3</ele>
        <time>2022-07-31T17:00:36Z</time>
      </trkpt>
      <trkpt lat="40.6921380" lon="-3.4098870">
        <ele>831.3</ele>
        <time>2022-07-31T17:00:37Z</time>
      </trkpt>
      <trkpt lat="40.6921160" lon="-3.4098240">
        <ele>831.3</ele>
        <time>2022-07-31T17:00:38Z</time>
      </trkpt>
      <trkpt lat="40.6921000" lon="-3.4097580">
        <ele>831.3</ele>
        <time>2022-07-31T17:00:39Z</time>
      </trkpt>
      <trkpt lat="40.6920790" lon="-3.4096960">
        <ele>831.3</ele>
        <time>2022-07-31T17:00:40Z</time>
      </trkpt>
      <trkpt lat="40.6920630" lon="-3.4096300">
        <ele>831.3</ele>
        <time>2022-07-31T17:00:41Z</time>
      </trkpt>
      <trkpt lat="40.6920390" lon="-3.4095580">
        <ele>831.3</ele>
        <time>2022-07-31T17:00:42Z</time>
      </trkpt>
      <trkpt lat="40.6920220" lon="-3.4094870">
        <ele>831.3</ele>
        <time>2022-07-31T17:00:43Z</time>
      </trkpt>
      <trkpt lat="40.6920020" lon="-3.4094190">
        <ele>831.2</ele>
        <time>2022-07-31T17:00:44Z</time>
      </trkpt>
      <trkpt lat="40.6919880" lon="-3.4093520">
        <ele>831.2</ele>
        <time>2022-07-31T17:00:45Z</time>
      </trkpt>
      <trkpt lat="40.6919700" lon="-3.4092750">
        <ele>831.1</ele>
        <time>2022-07-31T17:00:46Z</time>
      </trkpt>
      <trkpt lat="40.6919490" lon="-3.4092000">
        <ele>831.1</ele>
        <time>2022-07-31T17:00:47Z</time>
      </trkpt>
      <trkpt lat="40.6919320" lon="-3.4091280">
        <ele>831.1</ele>
        <time>2022-07-31T17:00:48Z</time>
      </trkpt>
      <trkpt lat="40.6919080" lon="-3.4090550">
        <ele>831.0</ele>
        <time>2022-07-31T17:00:49Z</time>
      </trkpt>
      <trkpt lat="40.6918870" lon="-3.4089860">
        <ele>831.0</ele>
        <time>2022-07-31T17:00:50Z</time>
      </trkpt>
      <trkpt lat="40.6918690" lon="-3.4089120">
        <ele>831.0</ele>
        <time>2022-07-31T17:00:51Z</time>
      </trkpt>
      <trkpt lat="40.6918460" lon="-3.4088380">
        <ele>831.0</ele>
        <time>2022-07-31T17:00:52Z</time>
      </trkpt>
      <trkpt lat="40.6918320" lon="-3.4087630">
        <ele>831.0</ele>
        <time>2022-07-31T17:00:53Z</time>
      </trkpt>
      <trkpt lat="40.6918170" lon="-3.4086850">
        <ele>831.0</ele>
        <time>2022-07-31T17:00:54Z</time>
      </trkpt>
      <trkpt lat="40.6918000" lon="-3.4086110">
        <ele>831.1</ele>
        <time>2022-07-31T17:00:55Z</time>
      </trkpt>
      <trkpt lat="40.6917740" lon="-3.4085380">
        <ele>831.1</ele>
        <time>2022-07-31T17:00:56Z</time>
      </trkpt>
      <trkpt lat="40.6917570" lon="-3.4084670">
        <ele>831.1</ele>
        <time>2022-07-31T17:00:57Z</time>
      </trkpt>
      <trkpt lat="40.6917340" lon="-3.4083980">
        <ele>831.1</ele>
        <time>2022-07-31T17:00:58Z</time>
      </trkpt>
      <trkpt lat="40.6917200" lon="-3.4083300">
        <ele>831.1</ele>
        <time>2022-07-31T17:00:59Z</time>
      </trkpt>
      <trkpt lat="40.6917020" lon="-3.4082550">
        <ele>831.2</ele>
        <time>2022-07-31T17:01:00Z</time>
      </trkpt>
      <trkpt lat="40.6916900" lon="-3.4081840">
        <ele>831.2</ele>
        <time>2022-07-31T17:01:01Z</time>
      </trkpt>
      <trkpt lat="40.6916740" lon="-3.4081120">
        <ele>831.2</ele>
        <time>2022-07-31T17:01:02Z</time>
      </trkpt>
      <trkpt lat="40.6916590" lon="-3.4080390">
        <ele>831.2</ele>
        <time>2022-07-31T17:01:03Z</time>
      </trkpt>
      <trkpt lat="40.6916380" lon="-3.4079690">
        <ele>831.3</ele>
        <time>2022-07-31T17:01:04Z</time>
      </trkpt>
      <trkpt lat="40.6916170" lon="-3.4079030">
        <ele>831.3</ele>
        <time>2022-07-31T17:01:05Z</time>
      </trkpt>
      <trkpt lat="40.6916010" lon="-3.4078310">
        <ele>831.4</ele>
        <time>2022-07-31T17:01:06Z</time>
      </trkpt>
      <trkpt lat="40.6915800" lon="-3.4077640">
        <ele>831.4</ele>
        <time>2022-07-31T17:01:07Z</time>
      </trkpt>
      <trkpt lat="40.6915610" lon="-3.4076900">
        <ele>831.4</ele>
        <time>2022-07-31T17:01:08Z</time>
      </trkpt>
      <trkpt lat="40.6915410" lon="-3.4076140">
        <ele>831.5</ele>
        <time>2022-07-31T17:01:09Z</time>
      </trkpt>
      <trkpt lat="40.6915240" lon="-3.4075380">
        <ele>831.5</ele>
        <time>2022-07-31T17:01:10Z</time>
      </trkpt>
      <trkpt lat="40.6915050" lon="-3.4074660">
        <ele>831.5</ele>
        <time>2022-07-31T17:01:11Z</time>
      </trkpt>
      <trkpt lat="40.6914860" lon="-3.4073960">
        <ele>831.6</ele>
        <time>2022-07-31T17:01:12Z</time>
      </trkpt>
      <trkpt lat="40.6914700" lon="-3.4073230">
        <ele>831.6</ele>
        <time>2022-07-31T17:01:13Z</time>
      </trkpt>
      <trkpt lat="40.6914430" lon="-3.4072480">
        <ele>831.6</ele>
        <time>2022-07-31T17:01:14Z</time>
      </trkpt>
      <trkpt lat="40.6914240" lon="-3.4071760">
        <ele>831.6</ele>
        <time>2022-07-31T17:01:15Z</time>
      </trkpt>
      <trkpt lat="40.6914030" lon="-3.4071010">
        <ele>831.6</ele>
        <time>2022-07-31T17:01:16Z</time>
      </trkpt>
      <trkpt lat="40.6913860" lon="-3.4070280">
        <ele>831.7</ele>
        <time>2022-07-31T17:01:17Z</time>
      </trkpt>
      <trkpt lat="40.6913630" lon="-3.4069560">
        <ele>831.7</ele>
        <time>2022-07-31T17:01:18Z</time>
      </trkpt>
      <trkpt lat="40.6913480" lon="-3.4068810">
        <ele>831.7</ele>
        <time>2022-07-31T17:01:19Z</time>
      </trkpt>
      <trkpt lat="40.6913320" lon="-3.4068120">
        <ele>831.7</ele>
        <time>2022-07-31T17:01:20Z</time>
      </trkpt>
      <trkpt lat="40.6913160" lon="-3.4067440">
        <ele>831.7</ele>
        <time>2022-07-31T17:01:21Z</time>
      </trkpt>
      <trkpt lat="40.6912990" lon="-3.4066680">
        <ele>831.7</ele>
        <time>2022-07-31T17:01:22Z</time>
      </trkpt>
      <trkpt lat="40.6912830" lon="-3.4065810">
        <ele>831.7</ele>
        <time>2022-07-31T17:01:23Z</time>
      </trkpt>
      <trkpt lat="40.6912660" lon="-3.4065010">
        <ele>831.7</ele>
        <time>2022-07-31T17:01:24Z</time>
      </trkpt>
      <trkpt lat="40.6912490" lon="-3.4064200">
        <ele>831.7</ele>
        <time>2022-07-31T17:01:25Z</time>
      </trkpt>
      <trkpt lat="40.6912280" lon="-3.4063440">
        <ele>831.7</ele>
        <time>2022-07-31T17:01:26Z</time>
      </trkpt>
      <trkpt lat="40.6912110" lon="-3.4062760">
        <ele>831.7</ele>
        <time>2022-07-31T17:01:27Z</time>
      </trkpt>
      <trkpt lat="40.6911920" lon="-3.4062030">
        <ele>831.7</ele>
        <time>2022-07-31T17:01:28Z</time>
      </trkpt>
      <trkpt lat="40.6911760" lon="-3.4061290">
        <ele>831.6</ele>
        <time>2022-07-31T17:01:29Z</time>
      </trkpt>
      <trkpt lat="40.6911570" lon="-3.4060590">
        <ele>831.6</ele>
        <time>2022-07-31T17:01:30Z</time>
      </trkpt>
      <trkpt lat="40.6911400" lon="-3.4059910">
        <ele>831.6</ele>
        <time>2022-07-31T17:01:31Z</time>
      </trkpt>
      <trkpt lat="40.6911230" lon="-3.4059260">
        <ele>831.5</ele>
        <time>2022-07-31T17:01:32Z</time>
      </trkpt>
      <trkpt lat="40.6911070" lon="-3.4058530">
        <ele>831.5</ele>
        <time>2022-07-31T17:01:33Z</time>
      </trkpt>
      <trkpt lat="40.6910870" lon="-3.4057820">
        <ele>831.5</ele>
        <time>2022-07-31T17:01:34Z</time>
      </trkpt>
      <trkpt lat="40.6910710" lon="-3.4057110">
        <ele>831.5</ele>
        <time>2022-07-31T17:01:35Z</time>
      </trkpt>
      <trkpt lat="40.6910510" lon="-3.4056340">
        <ele>831.5</ele>
        <time>2022-07-31T17:01:36Z</time>
      </trkpt>
      <trkpt lat="40.6910300" lon="-3.4055600">
        <ele>831.4</ele>
        <time>2022-07-31T17:01:37Z</time>
      </trkpt>
      <trkpt lat="40.6910160" lon="-3.4054880">
        <ele>831.4</ele>
        <time>2022-07-31T17:01:38Z</time>
      </trkpt>
      <trkpt lat="40.6910050" lon="-3.4054180">
        <ele>831.4</ele>
        <time>2022-07-31T17:01:39Z</time>
      </trkpt>
      <trkpt lat="40.6909870" lon="-3.4053400">
        <ele>831.4</ele>
        <time>2022-07-31T17:01:40Z</time>
      </trkpt>
      <trkpt lat="40.6909720" lon="-3.4052650">
        <ele>831.4</ele>
        <time>2022-07-31T17:01:41Z</time>
      </trkpt>
      <trkpt lat="40.6909500" lon="-3.4051910">
        <ele>831.4</ele>
        <time>2022-07-31T17:01:42Z</time>
      </trkpt>
      <trkpt lat="40.6909300" lon="-3.4051180">
        <ele>831.4</ele>
        <time>2022-07-31T17:01:43Z</time>
      </trkpt>
      <trkpt lat="40.6909150" lon="-3.4050460">
        <ele>831.4</ele>
        <time>2022-07-31T17:01:44Z</time>
      </trkpt>
      <trkpt lat="40.6908930" lon="-3.4049690">
        <ele>831.4</ele>
        <time>2022-07-31T17:01:45Z</time>
      </trkpt>
      <trkpt lat="40.6908700" lon="-3.4048940">
        <ele>831.4</ele>
        <time>2022-07-31T17:01:46Z</time>
      </trkpt>
      <trkpt lat="40.6908480" lon="-3.4048180">
        <ele>831.4</ele>
        <time>2022-07-31T17:01:47Z</time>
      </trkpt>
      <trkpt lat="40.6908290" lon="-3.4047420">
        <ele>831.4</ele>
        <time>2022-07-31T17:01:48Z</time>
      </trkpt>
      <trkpt lat="40.6908100" lon="-3.4046700">
        <ele>831.4</ele>
        <time>2022-07-31T17:01:49Z</time>
      </trkpt>
      <trkpt lat="40.6907900" lon="-3.4045980">
        <ele>831.4</ele>
        <time>2022-07-31T17:01:50Z</time>
      </trkpt>
      <trkpt lat="40.6907780" lon="-3.4045210">
        <ele>831.4</ele>
        <time>2022-07-31T17:01:51Z</time>
      </trkpt>
      <trkpt lat="40.6907570" lon="-3.4044350">
        <ele>831.4</ele>
        <time>2022-07-31T17:01:52Z</time>
      </trkpt>
      <trkpt lat="40.6907430" lon="-3.4043640">
        <ele>831.4</ele>
        <time>2022-07-31T17:01:53Z</time>
      </trkpt>
      <trkpt lat="40.6907210" lon="-3.4042880">
        <ele>831.4</ele>
        <time>2022-07-31T17:01:54Z</time>
      </trkpt>
      <trkpt lat="40.6907010" lon="-3.4042240">
        <ele>831.4</ele>
        <time>2022-07-31T17:01:55Z</time>
      </trkpt>
      <trkpt lat="40.6906840" lon="-3.4041660">
        <ele>831.4</ele>
        <time>2022-07-31T17:01:56Z</time>
      </trkpt>
      <trkpt lat="40.6906720" lon="-3.4041100">
        <ele>831.4</ele>
        <time>2022-07-31T17:01:57Z</time>
      </trkpt>
      <trkpt lat="40.6906560" lon="-3.4040420">
        <ele>831.4</ele>
        <time>2022-07-31T17:01:58Z</time>
      </trkpt>
      <trkpt lat="40.6906400" lon="-3.4039650">
        <ele>831.4</ele>
        <time>2022-07-31T17:01:59Z</time>
      </trkpt>
      <trkpt lat="40.6906190" lon="-3.4038920">
        <ele>831.4</ele>
        <time>2022-07-31T17:02:00Z</time>
      </trkpt>
      <trkpt lat="40.6905950" lon="-3.4038210">
        <ele>831.4</ele>
        <time>2022-07-31T17:02:01Z</time>
      </trkpt>
      <trkpt lat="40.6905680" lon="-3.4037490">
        <ele>831.4</ele>
        <time>2022-07-31T17:02:02Z</time>
      </trkpt>
      <trkpt lat="40.6905540" lon="-3.4036790">
        <ele>831.4</ele>
        <time>2022-07-31T17:02:03Z</time>
      </trkpt>
      <trkpt lat="40.6905320" lon="-3.4036080">
        <ele>831.4</ele>
        <time>2022-07-31T17:02:04Z</time>
      </trkpt>
      <trkpt lat="40.6905160" lon="-3.4035360">
        <ele>831.4</ele>
        <time>2022-07-31T17:02:05Z</time>
      </trkpt>
      <trkpt lat="40.6904960" lon="-3.4034740">
        <ele>831.4</ele>
        <time>2022-07-31T17:02:06Z</time>
      </trkpt>
      <trkpt lat="40.6904780" lon="-3.4034010">
        <ele>831.4</ele>
        <time>2022-07-31T17:02:07Z</time>
      </trkpt>
      <trkpt lat="40.6904600" lon="-3.4033340">
        <ele>831.4</ele>
        <time>2022-07-31T17:02:08Z</time>
      </trkpt>
      <trkpt lat="40.6904430" lon="-3.4032610">
        <ele>831.4</ele>
        <time>2022-07-31T17:02:09Z</time>
      </trkpt>
      <trkpt lat="40.6904250" lon="-3.4031940">
        <ele>831.4</ele>
        <time>2022-07-31T17:02:10Z</time>
      </trkpt>
      <trkpt lat="40.6904060" lon="-3.4031350">
        <ele>831.5</ele>
        <time>2022-07-31T17:02:11Z</time>
      </trkpt>
      <trkpt lat="40.6903840" lon="-3.4030610">
        <ele>831.5</ele>
        <time>2022-07-31T17:02:12Z</time>
      </trkpt>
      <trkpt lat="40.6903680" lon="-3.4029820">
        <ele>831.5</ele>
        <time>2022-07-31T17:02:13Z</time>
      </trkpt>
      <trkpt lat="40.6903540" lon="-3.4029240">
        <ele>831.5</ele>
        <time>2022-07-31T17:02:14Z</time>
      </trkpt>
      <trkpt lat="40.6903330" lon="-3.4028540">
        <ele>831.6</ele>
        <time>2022-07-31T17:02:15Z</time>
      </trkpt>
      <trkpt lat="40.6903090" lon="-3.4027800">
        <ele>831.6</ele>
        <time>2022-07-31T17:02:16Z</time>
      </trkpt>
      <trkpt lat="40.6902890" lon="-3.4027060">
        <ele>831.6</ele>
        <time>2022-07-31T17:02:17Z</time>
      </trkpt>
      <trkpt lat="40.6902710" lon="-3.4026330">
        <ele>831.6</ele>
        <time>2022-07-31T17:02:18Z</time>
      </trkpt>
      <trkpt lat="40.6902520" lon="-3.4025660">
        <ele>831.6</ele>
        <time>2022-07-31T17:02:19Z</time>
      </trkpt>
      <trkpt lat="40.6902320" lon="-3.4024960">
        <ele>831.6</ele>
        <time>2022-07-31T17:02:20Z</time>
      </trkpt>
      <trkpt lat="40.6902150" lon="-3.4024340">
        <ele>831.6</ele>
        <time>2022-07-31T17:02:21Z</time>
      </trkpt>
      <trkpt lat="40.6901960" lon="-3.4023640">
        <ele>831.7</ele>
        <time>2022-07-31T17:02:22Z</time>
      </trkpt>
      <trkpt lat="40.6901800" lon="-3.4023050">
        <ele>831.7</ele>
        <time>2022-07-31T17:02:23Z</time>
      </trkpt>
      <trkpt lat="40.6901620" lon="-3.4022350">
        <ele>831.7</ele>
        <time>2022-07-31T17:02:24Z</time>
      </trkpt>
      <trkpt lat="40.6901430" lon="-3.4021640">
        <ele>831.7</ele>
        <time>2022-07-31T17:02:25Z</time>
      </trkpt>
      <trkpt lat="40.6901280" lon="-3.4020970">
        <ele>831.7</ele>
        <time>2022-07-31T17:02:26Z</time>
      </trkpt>
      <trkpt lat="40.6901130" lon="-3.4020330">
        <ele>831.7</ele>
        <time>2022-07-31T17:02:27Z</time>
      </trkpt>
      <trkpt lat="40.6900990" lon="-3.4019620">
        <ele>831.7</ele>
        <time>2022-07-31T17:02:28Z</time>
      </trkpt>
      <trkpt lat="40.6900830" lon="-3.4018900">
        <ele>831.7</ele>
        <time>2022-07-31T17:02:29Z</time>
      </trkpt>
      <trkpt lat="40.6900630" lon="-3.4018200">
        <ele>831.7</ele>
        <time>2022-07-31T17:02:30Z</time>
      </trkpt>
      <trkpt lat="40.6900450" lon="-3.4017530">
        <ele>831.6</ele>
        <time>2022-07-31T17:02:31Z</time>
      </trkpt>
      <trkpt lat="40.6900230" lon="-3.4016870">
        <ele>831.6</ele>
        <time>2022-07-31T17:02:32Z</time>
      </trkpt>
      <trkpt lat="40.6900130" lon="-3.4016130">
        <ele>831.6</ele>
        <time>2022-07-31T17:02:33Z</time>
      </trkpt>
      <trkpt lat="40.6900000" lon="-3.4015390">
        <ele>831.5</ele>
        <time>2022-07-31T17:02:34Z</time>
      </trkpt>
      <trkpt lat="40.6899850" lon="-3.4014660">
        <ele>831.5</ele>
        <time>2022-07-31T17:02:35Z</time>
      </trkpt>
      <trkpt lat="40.6899710" lon="-3.4014120">
        <ele>831.5</ele>
        <time>2022-07-31T17:02:36Z</time>
      </trkpt>
      <trkpt lat="40.6899510" lon="-3.4013440">
        <ele>831.4</ele>
        <time>2022-07-31T17:02:37Z</time>
      </trkpt>
      <trkpt lat="40.6899350" lon="-3.4012710">
        <ele>831.4</ele>
        <time>2022-07-31T17:02:38Z</time>
      </trkpt>
      <trkpt lat="40.6899180" lon="-3.4011960">
        <ele>831.4</ele>
        <time>2022-07-31T17:02:39Z</time>
      </trkpt>
      <trkpt lat="40.6898990" lon="-3.4011210">
        <ele>831.4</ele>
        <time>2022-07-31T17:02:40Z</time>
      </trkpt>
      <trkpt lat="40.6898770" lon="-3.4010520">
        <ele>831.3</ele>
        <time>2022-07-31T17:02:41Z</time>
      </trkpt>
      <trkpt lat="40.6898540" lon="-3.4009870">
        <ele>831.3</ele>
        <time>2022-07-31T17:02:42Z</time>
      </trkpt>
      <trkpt lat="40.6898280" lon="-3.4009290">
        <ele>831.3</ele>
        <time>2022-07-31T17:02:43Z</time>
      </trkpt>
      <trkpt lat="40.6897910" lon="-3.4008910">
        <ele>831.3</ele>
        <time>2022-07-31T17:02:44Z</time>
      </trkpt>
      <trkpt lat="40.6897530" lon="-3.4008740">
        <ele>831.3</ele>
        <time>2022-07-31T17:02:45Z</time>
      </trkpt>
      <trkpt lat="40.6897190" lon="-3.4008520">
        <ele>831.1</ele>
        <time>2022-07-31T17:02:46Z</time>
      </trkpt>
      <trkpt lat="40.6897050" lon="-3.4008140">
        <ele>831.0</ele>
        <time>2022-07-31T17:02:47Z</time>
      </trkpt>
      <trkpt lat="40.6896960" lon="-3.4007710">
        <ele>830.9</ele>
        <time>2022-07-31T17:02:48Z</time>
      </trkpt>
      <trkpt lat="40.6897090" lon="-3.4007250">
        <ele>830.7</ele>
        <time>2022-07-31T17:02:49Z</time>
      </trkpt>
      <trkpt lat="40.6897250" lon="-3.4006670">
        <ele>830.5</ele>
        <time>2022-07-31T17:02:50Z</time>
      </trkpt>
      <trkpt lat="40.6897390" lon="-3.4006120">
        <ele>830.2</ele>
        <time>2022-07-31T17:02:51Z</time>
      </trkpt>
      <trkpt lat="40.6897470" lon="-3.4005580">
        <ele>830.0</ele>
        <time>2022-07-31T17:02:52Z</time>
      </trkpt>
      <trkpt lat="40.6897380" lon="-3.4005050">
        <ele>829.7</ele>
        <time>2022-07-31T17:02:53Z</time>
      </trkpt>
      <trkpt lat="40.6897180" lon="-3.4004490">
        <ele>829.4</ele>
        <time>2022-07-31T17:02:54Z</time>
      </trkpt>
      <trkpt lat="40.6896940" lon="-3.4003920">
        <ele>829.1</ele>
        <time>2022-07-31T17:02:55Z</time>
      </trkpt>
      <trkpt lat="40.6896790" lon="-3.4003390">
        <ele>828.8</ele>
        <time>2022-07-31T17:02:56Z</time>
      </trkpt>
      <trkpt lat="40.6896690" lon="-3.4002840">
        <ele>828.5</ele>
        <time>2022-07-31T17:02:57Z</time>
      </trkpt>
      <trkpt lat="40.6896540" lon="-3.4002360">
        <ele>828.1</ele>
        <time>2022-07-31T17:02:58Z</time>
      </trkpt>
      <trkpt lat="40.6896170" lon="-3.4001860">
        <ele>827.6</ele>
        <time>2022-07-31T17:02:59Z</time>
      </trkpt>
      <trkpt lat="40.6895590" lon="-3.4001640">
        <ele>827.0</ele>
        <time>2022-07-31T17:03:00Z</time>
      </trkpt>
      <trkpt lat="40.6895060" lon="-3.4001650">
        <ele>826.5</ele>
        <time>2022-07-31T17:03:01Z</time>
      </trkpt>
      <trkpt lat="40.6894460" lon="-3.4001670">
        <ele>825.9</ele>
        <time>2022-07-31T17:03:02Z</time>
      </trkpt>
      <trkpt lat="40.6893940" lon="-3.4001660">
        <ele>825.4</ele>
        <time>2022-07-31T17:03:03Z</time>
      </trkpt>
      <trkpt lat="40.6893450" lon="-3.4001740">
        <ele>824.9</ele>
        <time>2022-07-31T17:03:04Z</time>
      </trkpt>
      <trkpt lat="40.6892850" lon="-3.4001790">
        <ele>824.4</ele>
        <time>2022-07-31T17:03:05Z</time>
      </trkpt>
      <trkpt lat="40.6892220" lon="-3.4001890">
        <ele>823.8</ele>
        <time>2022-07-31T17:03:06Z</time>
      </trkpt>
      <trkpt lat="40.6891660" lon="-3.4001860">
        <ele>823.3</ele>
        <time>2022-07-31T17:03:07Z</time>
      </trkpt>
      <trkpt lat="40.6891210" lon="-3.4001870">
        <ele>823.0</ele>
        <time>2022-07-31T17:03:08Z</time>
      </trkpt>
      <trkpt lat="40.6890730" lon="-3.4001800">
        <ele>822.6</ele>
        <time>2022-07-31T17:03:09Z</time>
      </trkpt>
      <trkpt lat="40.6890180" lon="-3.4001700">
        <ele>822.2</ele>
        <time>2022-07-31T17:03:10Z</time>
      </trkpt>
      <trkpt lat="40.6889650" lon="-3.4001680">
        <ele>821.9</ele>
        <time>2022-07-31T17:03:11Z</time>
      </trkpt>
      <trkpt lat="40.6889200" lon="-3.4001640">
        <ele>821.6</ele>
        <time>2022-07-31T17:03:12Z</time>
      </trkpt>
      <trkpt lat="40.6888640" lon="-3.4001490">
        <ele>821.3</ele>
        <time>2022-07-31T17:03:13Z</time>
      </trkpt>
      <trkpt lat="40.6888280" lon="-3.4001370">
        <ele>821.1</ele>
        <time>2022-07-31T17:03:14Z</time>
      </trkpt>
      <trkpt lat="40.6887850" lon="-3.4001170">
        <ele>820.8</ele>
        <time>2022-07-31T17:03:15Z</time>
      </trkpt>
      <trkpt lat="40.6887230" lon="-3.4000930">
        <ele>820.5</ele>
        <time>2022-07-31T17:03:16Z</time>
      </trkpt>
      <trkpt lat="40.6886850" lon="-3.4000790">
        <ele>820.3</ele>
        <time>2022-07-31T17:03:17Z</time>
      </trkpt>
      <trkpt lat="40.6886410" lon="-3.4000670">
        <ele>820.1</ele>
        <time>2022-07-31T17:03:18Z</time>
      </trkpt>
      <trkpt lat="40.6885980" lon="-3.4000580">
        <ele>819.8</ele>
        <time>2022-07-31T17:03:19Z</time>
      </trkpt>
      <trkpt lat="40.6885570" lon="-3.4000740">
        <ele>819.6</ele>
        <time>2022-07-31T17:03:20Z</time>
      </trkpt>
      <trkpt lat="40.6885010" lon="-3.4000880">
        <ele>819.3</ele>
        <time>2022-07-31T17:03:21Z</time>
      </trkpt>
      <trkpt lat="40.6884430" lon="-3.4000860">
        <ele>819.0</ele>
        <time>2022-07-31T17:03:22Z</time>
      </trkpt>
      <trkpt lat="40.6883900" lon="-3.4000770">
        <ele>818.8</ele>
        <time>2022-07-31T17:03:23Z</time>
      </trkpt>
      <trkpt lat="40.6883370" lon="-3.4000550">
        <ele>818.5</ele>
        <time>2022-07-31T17:03:24Z</time>
      </trkpt>
      <trkpt lat="40.6882850" lon="-3.4000410">
        <ele>818.2</ele>
        <time>2022-07-31T17:03:25Z</time>
      </trkpt>
      <trkpt lat="40.6882290" lon="-3.4000280">
        <ele>817.9</ele>
        <time>2022-07-31T17:03:26Z</time>
      </trkpt>
      <trkpt lat="40.6881760" lon="-3.4000240">
        <ele>817.6</ele>
        <time>2022-07-31T17:03:27Z</time>
      </trkpt>
      <trkpt lat="40.6881200" lon="-3.4000170">
        <ele>817.3</ele>
        <time>2022-07-31T17:03:28Z</time>
      </trkpt>
      <trkpt lat="40.6880650" lon="-3.4000070">
        <ele>817.0</ele>
        <time>2022-07-31T17:03:29Z</time>
      </trkpt>
      <trkpt lat="40.6880020" lon="-3.3999790">
        <ele>816.6</ele>
        <time>2022-07-31T17:03:30Z</time>
      </trkpt>
      <trkpt lat="40.6879460" lon="-3.3999440">
        <ele>816.2</ele>
        <time>2022-07-31T17:03:31Z</time>
      </trkpt>
      <trkpt lat="40.6879100" lon="-3.3998880">
        <ele>815.9</ele>
        <time>2022-07-31T17:03:32Z</time>
      </trkpt>
      <trkpt lat="40.6878770" lon="-3.3998230">
        <ele>815.6</ele>
        <time>2022-07-31T17:03:33Z</time>
      </trkpt>
      <trkpt lat="40.6878410" lon="-3.3997590">
        <ele>815.2</ele>
        <time>2022-07-31T17:03:34Z</time>
      </trkpt>
      <trkpt lat="40.6877980" lon="-3.3997120">
        <ele>814.9</ele>
        <time>2022-07-31T17:03:35Z</time>
      </trkpt>
      <trkpt lat="40.6877580" lon="-3.3996490">
        <ele>814.5</ele>
        <time>2022-07-31T17:03:36Z</time>
      </trkpt>
      <trkpt lat="40.6877070" lon="-3.3995790">
        <ele>814.0</ele>
        <time>2022-07-31T17:03:37Z</time>
      </trkpt>
      <trkpt lat="40.6876830" lon="-3.3995010">
        <ele>813.6</ele>
        <time>2022-07-31T17:03:38Z</time>
      </trkpt>
      <trkpt lat="40.6876650" lon="-3.3994390">
        <ele>813.3</ele>
        <time>2022-07-31T17:03:39Z</time>
      </trkpt>
      <trkpt lat="40.6876240" lon="-3.3993690">
        <ele>812.9</ele>
        <time>2022-07-31T17:03:40Z</time>
      </trkpt>
      <trkpt lat="40.6875920" lon="-3.3992980">
        <ele>812.6</ele>
        <time>2022-07-31T17:03:41Z</time>
      </trkpt>
      <trkpt lat="40.6875650" lon="-3.3992340">
        <ele>812.3</ele>
        <time>2022-07-31T17:03:42Z</time>
      </trkpt>
      <trkpt lat="40.6875360" lon="-3.3991680">
        <ele>812.0</ele>
        <time>2022-07-31T17:03:43Z</time>
      </trkpt>
      <trkpt lat="40.6874970" lon="-3.3991010">
        <ele>811.7</ele>
        <time>2022-07-31T17:03:44Z</time>
      </trkpt>
      <trkpt lat="40.6874490" lon="-3.3990360">
        <ele>811.4</ele>
        <time>2022-07-31T17:03:45Z</time>
      </trkpt>
      <trkpt lat="40.6874150" lon="-3.3989720">
        <ele>811.2</ele>
        <time>2022-07-31T17:03:46Z</time>
      </trkpt>
      <trkpt lat="40.6873960" lon="-3.3988860">
        <ele>810.9</ele>
        <time>2022-07-31T17:03:47Z</time>
      </trkpt>
      <trkpt lat="40.6873760" lon="-3.3988060">
        <ele>810.7</ele>
        <time>2022-07-31T17:03:48Z</time>
      </trkpt>
      <trkpt lat="40.6873520" lon="-3.3987420">
        <ele>810.5</ele>
        <time>2022-07-31T17:03:49Z</time>
      </trkpt>
      <trkpt lat="40.6873140" lon="-3.3986570">
        <ele>810.2</ele>
        <time>2022-07-31T17:03:50Z</time>
      </trkpt>
      <trkpt lat="40.6872720" lon="-3.3985760">
        <ele>809.8</ele>
        <time>2022-07-31T17:03:51Z</time>
      </trkpt>
      <trkpt lat="40.6872150" lon="-3.3985150">
        <ele>809.5</ele>
        <time>2022-07-31T17:03:52Z</time>
      </trkpt>
      <trkpt lat="40.6871590" lon="-3.3984420">
        <ele>809.2</ele>
        <time>2022-07-31T17:03:53Z</time>
      </trkpt>
      <trkpt lat="40.6871090" lon="-3.3983680">
        <ele>808.9</ele>
        <time>2022-07-31T17:03:54Z</time>
      </trkpt>
      <trkpt lat="40.6870600" lon="-3.3982830">
        <ele>808.7</ele>
        <time>2022-07-31T17:03:55Z</time>
      </trkpt>
      <trkpt lat="40.6870140" lon="-3.3982030">
        <ele>808.5</ele>
        <time>2022-07-31T17:03:56Z</time>
      </trkpt>
      <trkpt lat="40.6869790" lon="-3.3981300">
        <ele>808.4</ele>
        <time>2022-07-31T17:03:57Z</time>
      </trkpt>
      <trkpt lat="40.6869700" lon="-3.3980500">
        <ele>808.3</ele>
        <time>2022-07-31T17:03:58Z</time>
      </trkpt>
      <trkpt lat="40.6869910" lon="-3.3979590">
        <ele>808.1</ele>
        <time>2022-07-31T17:03:59Z</time>
      </trkpt>
      <trkpt lat="40.6870180" lon="-3.3978940">
        <ele>807.9</ele>
        <time>2022-07-31T17:04:00Z</time>
      </trkpt>
      <trkpt lat="40.6870240" lon="-3.3978430">
        <ele>807.7</ele>
        <time>2022-07-31T17:04:01Z</time>
      </trkpt>
      <trkpt lat="40.6869970" lon="-3.3977820">
        <ele>807.4</ele>
        <time>2022-07-31T17:04:02Z</time>
      </trkpt>
      <trkpt lat="40.6869360" lon="-3.3977210">
        <ele>807.0</ele>
        <time>2022-07-31T17:04:03Z</time>
      </trkpt>
      <trkpt lat="40.6868810" lon="-3.3976780">
        <ele>806.7</ele>
        <time>2022-07-31T17:04:04Z</time>
      </trkpt>
      <trkpt lat="40.6868260" lon="-3.3976210">
        <ele>806.4</ele>
        <time>2022-07-31T17:04:05Z</time>
      </trkpt>
      <trkpt lat="40.6867850" lon="-3.3975740">
        <ele>806.2</ele>
        <time>2022-07-31T17:04:06Z</time>
      </trkpt>
      <trkpt lat="40.6867400" lon="-3.3975130">
        <ele>805.9</ele>
        <time>2022-07-31T17:04:07Z</time>
      </trkpt>
      <trkpt lat="40.6866970" lon="-3.3974500">
        <ele>805.7</ele>
        <time>2022-07-31T17:04:08Z</time>
      </trkpt>
      <trkpt lat="40.6866640" lon="-3.3973960">
        <ele>805.5</ele>
        <time>2022-07-31T17:04:09Z</time>
      </trkpt>
      <trkpt lat="40.6866270" lon="-3.3973360">
        <ele>805.3</ele>
        <time>2022-07-31T17:04:10Z</time>
      </trkpt>
      <trkpt lat="40.6865780" lon="-3.3972740">
        <ele>805.1</ele>
        <time>2022-07-31T17:04:11Z</time>
      </trkpt>
      <trkpt lat="40.6865270" lon="-3.3972080">
        <ele>804.9</ele>
        <time>2022-07-31T17:04:12Z</time>
      </trkpt>
      <trkpt lat="40.6864750" lon="-3.3971430">
        <ele>804.6</ele>
        <time>2022-07-31T17:04:13Z</time>
      </trkpt>
      <trkpt lat="40.6864060" lon="-3.3970950">
        <ele>804.3</ele>
        <time>2022-07-31T17:04:14Z</time>
      </trkpt>
      <trkpt lat="40.6863380" lon="-3.3970640">
        <ele>803.9</ele>
        <time>2022-07-31T17:04:15Z</time>
      </trkpt>
      <trkpt lat="40.6862540" lon="-3.3970330">
        <ele>803.5</ele>
        <time>2022-07-31T17:04:16Z</time>
      </trkpt>
      <trkpt lat="40.6861750" lon="-3.3969930">
        <ele>803.0</ele>
        <time>2022-07-31T17:04:17Z</time>
      </trkpt>
      <trkpt lat="40.6860940" lon="-3.3969550">
        <ele>802.5</ele>
        <time>2022-07-31T17:04:18Z</time>
      </trkpt>
      <trkpt lat="40.6860130" lon="-3.3969090">
        <ele>802.0</ele>
        <time>2022-07-31T17:04:19Z</time>
      </trkpt>
      <trkpt lat="40.6859460" lon="-3.3968560">
        <ele>801.6</ele>
        <time>2022-07-31T17:04:20Z</time>
      </trkpt>
      <trkpt lat="40.6858830" lon="-3.3967910">
        <ele>801.1</ele>
        <time>2022-07-31T17:04:21Z</time>
      </trkpt>
      <trkpt lat="40.6858260" lon="-3.3967290">
        <ele>800.7</ele>
        <time>2022-07-31T17:04:22Z</time>
      </trkpt>
      <trkpt lat="40.6857560" lon="-3.3966750">
        <ele>800.1</ele>
        <time>2022-07-31T17:04:23Z</time>
      </trkpt>
      <trkpt lat="40.6856860" lon="-3.3966240">
        <ele>799.6</ele>
        <time>2022-07-31T17:04:24Z</time>
      </trkpt>
      <trkpt lat="40.6856250" lon="-3.3965500">
        <ele>799.2</ele>
        <time>2022-07-31T17:04:25Z</time>
      </trkpt>
      <trkpt lat="40.6855580" lon="-3.3964680">
        <ele>798.7</ele>
        <time>2022-07-31T17:04:26Z</time>
      </trkpt>
      <trkpt lat="40.6854900" lon="-3.3963960">
        <ele>798.3</ele>
        <time>2022-07-31T17:04:27Z</time>
      </trkpt>
      <trkpt lat="40.6854210" lon="-3.3963290">
        <ele>797.9</ele>
        <time>2022-07-31T17:04:28Z</time>
      </trkpt>
      <trkpt lat="40.6853560" lon="-3.3962650">
        <ele>797.6</ele>
        <time>2022-07-31T17:04:29Z</time>
      </trkpt>
      <trkpt lat="40.6852940" lon="-3.3962100">
        <ele>797.3</ele>
        <time>2022-07-31T17:04:30Z</time>
      </trkpt>
      <trkpt lat="40.6852290" lon="-3.3961410">
        <ele>797.0</ele>
        <time>2022-07-31T17:04:31Z</time>
      </trkpt>
      <trkpt lat="40.6851710" lon="-3.3960920">
        <ele>796.7</ele>
        <time>2022-07-31T17:04:32Z</time>
      </trkpt>
      <trkpt lat="40.6851060" lon="-3.3960500">
        <ele>796.4</ele>
        <time>2022-07-31T17:04:33Z</time>
      </trkpt>
      <trkpt lat="40.6850240" lon="-3.3960300">
        <ele>796.0</ele>
        <time>2022-07-31T17:04:34Z</time>
      </trkpt>
      <trkpt lat="40.6849430" lon="-3.3960090">
        <ele>795.6</ele>
        <time>2022-07-31T17:04:35Z</time>
      </trkpt>
      <trkpt lat="40.6848590" lon="-3.3959910">
        <ele>795.2</ele>
        <time>2022-07-31T17:04:36Z</time>
      </trkpt>
      <trkpt lat="40.6847730" lon="-3.3959620">
        <ele>794.9</ele>
        <time>2022-07-31T17:04:37Z</time>
      </trkpt>
      <trkpt lat="40.6846960" lon="-3.3959180">
        <ele>794.6</ele>
        <time>2022-07-31T17:04:38Z</time>
      </trkpt>
      <trkpt lat="40.6846360" lon="-3.3958560">
        <ele>794.4</ele>
        <time>2022-07-31T17:04:39Z</time>
      </trkpt>
      <trkpt lat="40.6846010" lon="-3.3957860">
        <ele>794.2</ele>
        <time>2022-07-31T17:04:40Z</time>
      </trkpt>
      <trkpt lat="40.6845560" lon="-3.3957130">
        <ele>793.9</ele>
        <time>2022-07-31T17:04:41Z</time>
      </trkpt>
      <trkpt lat="40.6845010" lon="-3.3956660">
        <ele>793.6</ele>
        <time>2022-07-31T17:04:42Z</time>
      </trkpt>
      <trkpt lat="40.6844380" lon="-3.3956450">
        <ele>793.3</ele>
        <time>2022-07-31T17:04:43Z</time>
      </trkpt>
      <trkpt lat="40.6843740" lon="-3.3956410">
        <ele>793.0</ele>
        <time>2022-07-31T17:04:44Z</time>
      </trkpt>
      <trkpt lat="40.6843050" lon="-3.3956420">
        <ele>792.6</ele>
        <time>2022-07-31T17:04:45Z</time>
      </trkpt>
      <trkpt lat="40.6842370" lon="-3.3956720">
        <ele>792.2</ele>
        <time>2022-07-31T17:04:46Z</time>
      </trkpt>
      <trkpt lat="40.6841650" lon="-3.3957020">
        <ele>791.8</ele>
        <time>2022-07-31T17:04:47Z</time>
      </trkpt>
      <trkpt lat="40.6841030" lon="-3.3957290">
        <ele>791.6</ele>
        <time>2022-07-31T17:04:48Z</time>
      </trkpt>
      <trkpt lat="40.6840400" lon="-3.3957430">
        <ele>791.3</ele>
        <time>2022-07-31T17:04:49Z</time>
      </trkpt>
      <trkpt lat="40.6839780" lon="-3.3957530">
        <ele>791.0</ele>
        <time>2022-07-31T17:04:50Z</time>
      </trkpt>
      <trkpt lat="40.6839190" lon="-3.3957510">
        <ele>790.7</ele>
        <time>2022-07-31T17:04:51Z</time>
      </trkpt>
      <trkpt lat="40.6838600" lon="-3.3957530">
        <ele>790.4</ele>
        <time>2022-07-31T17:04:52Z</time>
      </trkpt>
      <trkpt lat="40.6837990" lon="-3.3957480">
        <ele>790.1</ele>
        <time>2022-07-31T17:04:53Z</time>
      </trkpt>
      <trkpt lat="40.6837350" lon="-3.3957500">
        <ele>789.9</ele>
        <time>2022-07-31T17:04:54Z</time>
      </trkpt>
      <trkpt lat="40.6836700" lon="-3.3957590">
        <ele>789.6</ele>
        <time>2022-07-31T17:04:55Z</time>
      </trkpt>
      <trkpt lat="40.6836030" lon="-3.3957720">
        <ele>789.5</ele>
        <time>2022-07-31T17:04:56Z</time>
      </trkpt>
      <trkpt lat="40.6835380" lon="-3.3957890">
        <ele>789.3</ele>
        <time>2022-07-31T17:04:57Z</time>
      </trkpt>
      <trkpt lat="40.6834730" lon="-3.3957980">
        <ele>789.2</ele>
        <time>2022-07-31T17:04:58Z</time>
      </trkpt>
      <trkpt lat="40.6834090" lon="-3.3958060">
        <ele>789.1</ele>
        <time>2022-07-31T17:04:59Z</time>
      </trkpt>
      <trkpt lat="40.6833460" lon="-3.3958080">
        <ele>789.0</ele>
        <time>2022-07-31T17:05:00Z</time>
      </trkpt>
      <trkpt lat="40.6832840" lon="-3.3957990">
        <ele>789.0</ele>
        <time>2022-07-31T17:05:01Z</time>
      </trkpt>
      <trkpt lat="40.6832230" lon="-3.3957920">
        <ele>788.9</ele>
        <time>2022-07-31T17:05:02Z</time>
      </trkpt>
      <trkpt lat="40.6831630" lon="-3.3957830">
        <ele>788.7</ele>
        <time>2022-07-31T17:05:03Z</time>
      </trkpt>
      <trkpt lat="40.6830920" lon="-3.3957730">
        <ele>788.5</ele>
        <time>2022-07-31T17:05:04Z</time>
      </trkpt>
      <trkpt lat="40.6830250" lon="-3.3957710">
        <ele>788.3</ele>
        <time>2022-07-31T17:05:05Z</time>
      </trkpt>
      <trkpt lat="40.6829510" lon="-3.3957760">
        <ele>788.1</ele>
        <time>2022-07-31T17:05:06Z</time>
      </trkpt>
      <trkpt lat="40.6828830" lon="-3.3957900">
        <ele>787.9</ele>
        <time>2022-07-31T17:05:07Z</time>
      </trkpt>
      <trkpt lat="40.6828100" lon="-3.3958190">
        <ele>787.6</ele>
        <time>2022-07-31T17:05:08Z</time>
      </trkpt>
      <trkpt lat="40.6827370" lon="-3.3958440">
        <ele>787.4</ele>
        <time>2022-07-31T17:05:09Z</time>
      </trkpt>
      <trkpt lat="40.6826700" lon="-3.3958750">
        <ele>787.1</ele>
        <time>2022-07-31T17:05:10Z</time>
      </trkpt>
      <trkpt lat="40.6826080" lon="-3.3959060">
        <ele>786.9</ele>
        <time>2022-07-31T17:05:11Z</time>
      </trkpt>
      <trkpt lat="40.6825280" lon="-3.3959190">
        <ele>786.6</ele>
        <time>2022-07-31T17:05:12Z</time>
      </trkpt>
      <trkpt lat="40.6824540" lon="-3.3959240">
        <ele>786.3</ele>
        <time>2022-07-31T17:05:13Z</time>
      </trkpt>
      <trkpt lat="40.6823740" lon="-3.3959200">
        <ele>786.0</ele>
        <time>2022-07-31T17:05:14Z</time>
      </trkpt>
      <trkpt lat="40.6822930" lon="-3.3959110">
        <ele>785.7</ele>
        <time>2022-07-31T17:05:15Z</time>
      </trkpt>
      <trkpt lat="40.6822210" lon="-3.3958970">
        <ele>785.4</ele>
        <time>2022-07-31T17:05:16Z</time>
      </trkpt>
      <trkpt lat="40.6821650" lon="-3.3958920">
        <ele>785.2</ele>
        <time>2022-07-31T17:05:17Z</time>
      </trkpt>
      <trkpt lat="40.6821000" lon="-3.3958860">
        <ele>784.9</ele>
        <time>2022-07-31T17:05:18Z</time>
      </trkpt>
      <trkpt lat="40.6820360" lon="-3.3958760">
        <ele>784.5</ele>
        <time>2022-07-31T17:05:19Z</time>
      </trkpt>
      <trkpt lat="40.6819790" lon="-3.3958610">
        <ele>784.2</ele>
        <time>2022-07-31T17:05:20Z</time>
      </trkpt>
      <trkpt lat="40.6819160" lon="-3.3958540">
        <ele>783.9</ele>
        <time>2022-07-31T17:05:21Z</time>
      </trkpt>
      <trkpt lat="40.6818480" lon="-3.3958580">
        <ele>783.6</ele>
        <time>2022-07-31T17:05:22Z</time>
      </trkpt>
      <trkpt lat="40.6817850" lon="-3.3958690">
        <ele>783.3</ele>
        <time>2022-07-31T17:05:23Z</time>
      </trkpt>
      <trkpt lat="40.6817270" lon="-3.3959070">
        <ele>783.2</ele>
        <time>2022-07-31T17:05:24Z</time>
      </trkpt>
      <trkpt lat="40.6816680" lon="-3.3959750">
        <ele>783.1</ele>
        <time>2022-07-31T17:05:25Z</time>
      </trkpt>
      <trkpt lat="40.6816050" lon="-3.3960270">
        <ele>783.1</ele>
        <time>2022-07-31T17:05:26Z</time>
      </trkpt>
      <trkpt lat="40.6815390" lon="-3.3960430">
        <ele>783.1</ele>
        <time>2022-07-31T17:05:27Z</time>
      </trkpt>
      <trkpt lat="40.6814820" lon="-3.3960490">
        <ele>783.3</ele>
        <time>2022-07-31T17:05:28Z</time>
      </trkpt>
      <trkpt lat="40.6814320" lon="-3.3960130">
        <ele>783.4</ele>
        <time>2022-07-31T17:05:29Z</time>
      </trkpt>
      <trkpt lat="40.6813850" lon="-3.3959860">
        <ele>783.5</ele>
        <time>2022-07-31T17:05:30Z</time>
      </trkpt>
      <trkpt lat="40.6813430" lon="-3.3959600">
        <ele>783.6</ele>
        <time>2022-07-31T17:05:31Z</time>
      </trkpt>
      <trkpt lat="40.6813000" lon="-3.3959490">
        <ele>783.7</ele>
        <time>2022-07-31T17:05:32Z</time>
      </trkpt>
      <trkpt lat="40.6812610" lon="-3.3959340">
        <ele>783.8</ele>
        <time>2022-07-31T17:05:33Z</time>
      </trkpt>
      <trkpt lat="40.6812210" lon="-3.3959140">
        <ele>784.0</ele>
        <time>2022-07-31T17:05:34Z</time>
      </trkpt>
      <trkpt lat="40.6811820" lon="-3.3958930">
        <ele>784.2</ele>
        <time>2022-07-31T17:05:35Z</time>
      </trkpt>
      <trkpt lat="40.6811520" lon="-3.3958590">
        <ele>784.4</ele>
        <time>2022-07-31T17:05:36Z</time>
      </trkpt>
      <trkpt lat="40.6811240" lon="-3.3958250">
        <ele>784.6</ele>
        <time>2022-07-31T17:05:37Z</time>
      </trkpt>
      <trkpt lat="40.6810940" lon="-3.3957990">
        <ele>784.8</ele>
        <time>2022-07-31T17:05:38Z</time>
      </trkpt>
      <trkpt lat="40.6810590" lon="-3.3957700">
        <ele>785.0</ele>
        <time>2022-07-31T17:05:39Z</time>
      </trkpt>
      <trkpt lat="40.6810190" lon="-3.3957350">
        <ele>785.3</ele>
        <time>2022-07-31T17:05:40Z</time>
      </trkpt>
      <trkpt lat="40.6809920" lon="-3.3957020">
        <ele>785.6</ele>
        <time>2022-07-31T17:05:41Z</time>
      </trkpt>
      <trkpt lat="40.6809610" lon="-3.3956680">
        <ele>785.9</ele>
        <time>2022-07-31T17:05:42Z</time>
      </trkpt>
      <trkpt lat="40.6809490" lon="-3.3956540">
        <ele>786.0</ele>
        <time>2022-07-31T17:05:43Z</time>
      </trkpt>
      <trkpt lat="40.6809310" lon="-3.3956210">
        <ele>786.2</ele>
        <time>2022-07-31T17:05:44Z</time>
      </trkpt>
      <trkpt lat="40.6809040" lon="-3.3955940">
        <ele>786.5</ele>
        <time>2022-07-31T17:05:45Z</time>
      </trkpt>
      <trkpt lat="40.6808740" lon="-3.3955600">
        <ele>786.8</ele>
        <time>2022-07-31T17:05:46Z</time>
      </trkpt>
      <trkpt lat="40.6808620" lon="-3.3955490">
        <ele>786.9</ele>
        <time>2022-07-31T17:05:47Z</time>
      </trkpt>
      <trkpt lat="40.6808340" lon="-3.3955250">
        <ele>787.2</ele>
        <time>2022-07-31T17:05:48Z</time>
      </trkpt>
      <trkpt lat="40.6808100" lon="-3.3954920">
        <ele>787.5</ele>
        <time>2022-07-31T17:05:49Z</time>
      </trkpt>
      <trkpt lat="40.6808020" lon="-3.3954820">
        <ele>787.6</ele>
        <time>2022-07-31T17:05:50Z</time>
      </trkpt>
      <trkpt lat="40.6807770" lon="-3.3954550">
        <ele>787.9</ele>
        <time>2022-07-31T17:05:51Z</time>
      </trkpt>
      <trkpt lat="40.6807690" lon="-3.3954480">
        <ele>788.0</ele>
        <time>2022-07-31T17:05:52Z</time>
      </trkpt>
      <trkpt lat="40.6807500" lon="-3.3954220">
        <ele>788.3</ele>
        <time>2022-07-31T17:05:53Z</time>
      </trkpt>
      <trkpt lat="40.6807180" lon="-3.3953990">
        <ele>788.6</ele>
        <time>2022-07-31T17:05:54Z</time>
      </trkpt>
      <trkpt lat="40.6807080" lon="-3.3953960">
        <ele>788.7</ele>
        <time>2022-07-31T17:05:55Z</time>
      </trkpt>
      <trkpt lat="40.6806760" lon="-3.3953950">
        <ele>788.9</ele>
        <time>2022-07-31T17:05:56Z</time>
      </trkpt>
      <trkpt lat="40.6806640" lon="-3.3953970">
        <ele>789.0</ele>
        <time>2022-07-31T17:05:57Z</time>
      </trkpt>
      <trkpt lat="40.6806330" lon="-3.3953990">
        <ele>789.3</ele>
        <time>2022-07-31T17:05:58Z</time>
      </trkpt>
      <trkpt lat="40.6805980" lon="-3.3953980">
        <ele>789.6</ele>
        <time>2022-07-31T17:05:59Z</time>
      </trkpt>
      <trkpt lat="40.6805590" lon="-3.3953950">
        <ele>789.9</ele>
        <time>2022-07-31T17:06:00Z</time>
      </trkpt>
      <trkpt lat="40.6805430" lon="-3.3953920">
        <ele>790.0</ele>
        <time>2022-07-31T17:06:01Z</time>
      </trkpt>
      <trkpt lat="40.6805090" lon="-3.3953950">
        <ele>790.2</ele>
        <time>2022-07-31T17:06:02Z</time>
      </trkpt>
      <trkpt lat="40.6804980" lon="-3.3953990">
        <ele>790.3</ele>
        <time>2022-07-31T17:06:03Z</time>
      </trkpt>
      <trkpt lat="40.6804680" lon="-3.3954160">
        <ele>790.5</ele>
        <time>2022-07-31T17:06:04Z</time>
      </trkpt>
      <trkpt lat="40.6804600" lon="-3.3954210">
        <ele>790.5</ele>
        <time>2022-07-31T17:06:05Z</time>
      </trkpt>
      <trkpt lat="40.6804200" lon="-3.3954360">
        <ele>790.7</ele>
        <time>2022-07-31T17:06:06Z</time>
      </trkpt>
      <trkpt lat="40.6804040" lon="-3.3954410">
        <ele>790.8</ele>
        <time>2022-07-31T17:06:07Z</time>
      </trkpt>
      <trkpt lat="40.6803600" lon="-3.3954470">
        <ele>791.0</ele>
        <time>2022-07-31T17:06:08Z</time>
      </trkpt>
      <trkpt lat="40.6803290" lon="-3.3954480">
        <ele>791.2</ele>
        <time>2022-07-31T17:06:09Z</time>
      </trkpt>
      <trkpt lat="40.6802950" lon="-3.3954480">
        <ele>791.3</ele>
        <time>2022-07-31T17:06:10Z</time>
      </trkpt>
      <trkpt lat="40.6802600" lon="-3.3954510">
        <ele>791.4</ele>
        <time>2022-07-31T17:06:11Z</time>
      </trkpt>
      <trkpt lat="40.6802190" lon="-3.3954530">
        <ele>791.5</ele>
        <time>2022-07-31T17:06:12Z</time>
      </trkpt>
      <trkpt lat="40.6801800" lon="-3.3954610">
        <ele>791.6</ele>
        <time>2022-07-31T17:06:13Z</time>
      </trkpt>
      <trkpt lat="40.6801420" lon="-3.3954750">
        <ele>791.6</ele>
        <time>2022-07-31T17:06:14Z</time>
      </trkpt>
      <trkpt lat="40.6800960" lon="-3.3954890">
        <ele>791.7</ele>
        <time>2022-07-31T17:06:15Z</time>
      </trkpt>
      <trkpt lat="40.6800550" lon="-3.3955070">
        <ele>791.8</ele>
        <time>2022-07-31T17:06:16Z</time>
      </trkpt>
      <trkpt lat="40.6800110" lon="-3.3955310">
        <ele>791.8</ele>
        <time>2022-07-31T17:06:17Z</time>
      </trkpt>
      <trkpt lat="40.6799700" lon="-3.3955530">
        <ele>791.9</ele>
        <time>2022-07-31T17:06:18Z</time>
      </trkpt>
      <trkpt lat="40.6799350" lon="-3.3955830">
        <ele>792.0</ele>
        <time>2022-07-31T17:06:19Z</time>
      </trkpt>
      <trkpt lat="40.6799010" lon="-3.3956070">
        <ele>792.1</ele>
        <time>2022-07-31T17:06:20Z</time>
      </trkpt>
      <trkpt lat="40.6798670" lon="-3.3956280">
        <ele>792.1</ele>
        <time>2022-07-31T17:06:21Z</time>
      </trkpt>
      <trkpt lat="40.6798300" lon="-3.3956480">
        <ele>792.2</ele>
        <time>2022-07-31T17:06:22Z</time>
      </trkpt>
      <trkpt lat="40.6797890" lon="-3.3956740">
        <ele>792.4</ele>
        <time>2022-07-31T17:06:23Z</time>
      </trkpt>
      <trkpt lat="40.6797500" lon="-3.3956940">
        <ele>792.5</ele>
        <time>2022-07-31T17:06:24Z</time>
      </trkpt>
      <trkpt lat="40.6797050" lon="-3.3957130">
        <ele>792.6</ele>
        <time>2022-07-31T17:06:25Z</time>
      </trkpt>
      <trkpt lat="40.6796660" lon="-3.3957270">
        <ele>792.7</ele>
        <time>2022-07-31T17:06:26Z</time>
      </trkpt>
      <trkpt lat="40.6796180" lon="-3.3957310">
        <ele>792.8</ele>
        <time>2022-07-31T17:06:27Z</time>
      </trkpt>
      <trkpt lat="40.6795820" lon="-3.3957300">
        <ele>792.9</ele>
        <time>2022-07-31T17:06:28Z</time>
      </trkpt>
      <trkpt lat="40.6795390" lon="-3.3957240">
        <ele>793.0</ele>
        <time>2022-07-31T17:06:29Z</time>
      </trkpt>
      <trkpt lat="40.6795010" lon="-3.3957160">
        <ele>793.1</ele>
        <time>2022-07-31T17:06:30Z</time>
      </trkpt>
      <trkpt lat="40.6794600" lon="-3.3957080">
        <ele>793.2</ele>
        <time>2022-07-31T17:06:31Z</time>
      </trkpt>
      <trkpt lat="40.6794170" lon="-3.3956890">
        <ele>793.4</ele>
        <time>2022-07-31T17:06:32Z</time>
      </trkpt>
      <trkpt lat="40.6793860" lon="-3.3956710">
        <ele>793.5</ele>
        <time>2022-07-31T17:06:33Z</time>
      </trkpt>
      <trkpt lat="40.6793560" lon="-3.3956490">
        <ele>793.7</ele>
        <time>2022-07-31T17:06:34Z</time>
      </trkpt>
      <trkpt lat="40.6793240" lon="-3.3956310">
        <ele>793.8</ele>
        <time>2022-07-31T17:06:35Z</time>
      </trkpt>
      <trkpt lat="40.6792910" lon="-3.3956040">
        <ele>794.0</ele>
        <time>2022-07-31T17:06:36Z</time>
      </trkpt>
      <trkpt lat="40.6792620" lon="-3.3955850">
        <ele>794.2</ele>
        <time>2022-07-31T17:06:37Z</time>
      </trkpt>
      <trkpt lat="40.6792320" lon="-3.3955640">
        <ele>794.4</ele>
        <time>2022-07-31T17:06:38Z</time>
      </trkpt>
      <trkpt lat="40.6792040" lon="-3.3955450">
        <ele>794.6</ele>
        <time>2022-07-31T17:06:39Z</time>
      </trkpt>
      <trkpt lat="40.6791760" lon="-3.3955260">
        <ele>794.8</ele>
        <time>2022-07-31T17:06:40Z</time>
      </trkpt>
      <trkpt lat="40.6791470" lon="-3.3955020">
        <ele>795.0</ele>
        <time>2022-07-31T17:06:41Z</time>
      </trkpt>
      <trkpt lat="40.6791170" lon="-3.3954810">
        <ele>795.2</ele>
        <time>2022-07-31T17:06:42Z</time>
      </trkpt>
      <trkpt lat="40.6790850" lon="-3.3954490">
        <ele>795.4</ele>
        <time>2022-07-31T17:06:43Z</time>
      </trkpt>
      <trkpt lat="40.6790740" lon="-3.3954380">
        <ele>795.5</ele>
        <time>2022-07-31T17:06:44Z</time>
      </trkpt>
      <trkpt lat="40.6790440" lon="-3.3954130">
        <ele>795.8</ele>
        <time>2022-07-31T17:06:45Z</time>
      </trkpt>
      <trkpt lat="40.6790350" lon="-3.3954030">
        <ele>795.9</ele>
        <time>2022-07-31T17:06:46Z</time>
      </trkpt>
      <trkpt lat="40.6790090" lon="-3.3953790">
        <ele>796.1</ele>
        <time>2022-07-31T17:06:47Z</time>
      </trkpt>
      <trkpt lat="40.6789850" lon="-3.3953510">
        <ele>796.3</ele>
        <time>2022-07-31T17:06:48Z</time>
      </trkpt>
      <trkpt lat="40.6789600" lon="-3.3953320">
        <ele>796.5</ele>
        <time>2022-07-31T17:06:49Z</time>
      </trkpt>
      <trkpt lat="40.6789330" lon="-3.3953190">
        <ele>796.7</ele>
        <time>2022-07-31T17:06:50Z</time>
      </trkpt>
      <trkpt lat="40.6789060" lon="-3.3953040">
        <ele>796.8</ele>
        <time>2022-07-31T17:06:51Z</time>
      </trkpt>
      <trkpt lat="40.6788790" lon="-3.3952860">
        <ele>797.0</ele>
        <time>2022-07-31T17:06:52Z</time>
      </trkpt>
      <trkpt lat="40.6788540" lon="-3.3952610">
        <ele>797.1</ele>
        <time>2022-07-31T17:06:53Z</time>
      </trkpt>
      <trkpt lat="40.6788290" lon="-3.3952320">
        <ele>797.2</ele>
        <time>2022-07-31T17:06:54Z</time>
      </trkpt>
      <trkpt lat="40.6788080" lon="-3.3951930">
        <ele>797.2</ele>
        <time>2022-07-31T17:06:55Z</time>
      </trkpt>
      <trkpt lat="40.6787760" lon="-3.3951490">
        <ele>797.2</ele>
        <time>2022-07-31T17:06:56Z</time>
      </trkpt>
      <trkpt lat="40.6787410" lon="-3.3950990">
        <ele>797.1</ele>
        <time>2022-07-31T17:06:57Z</time>
      </trkpt>
      <trkpt lat="40.6787140" lon="-3.3950420">
        <ele>797.0</ele>
        <time>2022-07-31T17:06:58Z</time>
      </trkpt>
      <trkpt lat="40.6786790" lon="-3.3949960">
        <ele>796.9</ele>
        <time>2022-07-31T17:06:59Z</time>
      </trkpt>
      <trkpt lat="40.6786420" lon="-3.3949480">
        <ele>796.7</ele>
        <time>2022-07-31T17:07:00Z</time>
      </trkpt>
      <trkpt lat="40.6786000" lon="-3.3949070">
        <ele>796.5</ele>
        <time>2022-07-31T17:07:01Z</time>
      </trkpt>
      <trkpt lat="40.6785550" lon="-3.3948660">
        <ele>796.3</ele>
        <time>2022-07-31T17:07:02Z</time>
      </trkpt>
      <trkpt lat="40.6785110" lon="-3.3948270">
        <ele>796.1</ele>
        <time>2022-07-31T17:07:03Z</time>
      </trkpt>
      <trkpt lat="40.6784670" lon="-3.3947780">
        <ele>795.9</ele>
        <time>2022-07-31T17:07:04Z</time>
      </trkpt>
      <trkpt lat="40.6784190" lon="-3.3947280">
        <ele>795.5</ele>
        <time>2022-07-31T17:07:05Z</time>
      </trkpt>
      <trkpt lat="40.6783660" lon="-3.3946830">
        <ele>795.1</ele>
        <time>2022-07-31T17:07:06Z</time>
      </trkpt>
      <trkpt lat="40.6783180" lon="-3.3946290">
        <ele>794.6</ele>
        <time>2022-07-31T17:07:07Z</time>
      </trkpt>
      <trkpt lat="40.6782680" lon="-3.3945700">
        <ele>794.1</ele>
        <time>2022-07-31T17:07:08Z</time>
      </trkpt>
      <trkpt lat="40.6782120" lon="-3.3945070">
        <ele>793.4</ele>
        <time>2022-07-31T17:07:09Z</time>
      </trkpt>
      <trkpt lat="40.6781640" lon="-3.3944540">
        <ele>792.9</ele>
        <time>2022-07-31T17:07:10Z</time>
      </trkpt>
      <trkpt lat="40.6781000" lon="-3.3943930">
        <ele>792.2</ele>
        <time>2022-07-31T17:07:11Z</time>
      </trkpt>
      <trkpt lat="40.6780390" lon="-3.3943210">
        <ele>791.5</ele>
        <time>2022-07-31T17:07:12Z</time>
      </trkpt>
      <trkpt lat="40.6779720" lon="-3.3942580">
        <ele>790.8</ele>
        <time>2022-07-31T17:07:13Z</time>
      </trkpt>
      <trkpt lat="40.6779050" lon="-3.3942010">
        <ele>790.2</ele>
        <time>2022-07-31T17:07:14Z</time>
      </trkpt>
      <trkpt lat="40.6778350" lon="-3.3941470">
        <ele>789.7</ele>
        <time>2022-07-31T17:07:15Z</time>
      </trkpt>
      <trkpt lat="40.6777710" lon="-3.3940790">
        <ele>789.3</ele>
        <time>2022-07-31T17:07:16Z</time>
      </trkpt>
      <trkpt lat="40.6777050" lon="-3.3940130">
        <ele>789.0</ele>
        <time>2022-07-31T17:07:17Z</time>
      </trkpt>
      <trkpt lat="40.6776390" lon="-3.3939610">
        <ele>788.9</ele>
        <time>2022-07-31T17:07:18Z</time>
      </trkpt>
      <trkpt lat="40.6775750" lon="-3.3939140">
        <ele>788.9</ele>
        <time>2022-07-31T17:07:19Z</time>
      </trkpt>
      <trkpt lat="40.6775170" lon="-3.3938700">
        <ele>789.0</ele>
        <time>2022-07-31T17:07:20Z</time>
      </trkpt>
      <trkpt lat="40.6774610" lon="-3.3938260">
        <ele>789.1</ele>
        <time>2022-07-31T17:07:21Z</time>
      </trkpt>
      <trkpt lat="40.6774080" lon="-3.3937910">
        <ele>789.3</ele>
        <time>2022-07-31T17:07:22Z</time>
      </trkpt>
      <trkpt lat="40.6773660" lon="-3.3937440">
        <ele>789.5</ele>
        <time>2022-07-31T17:07:23Z</time>
      </trkpt>
      <trkpt lat="40.6773240" lon="-3.3937070">
        <ele>789.8</ele>
        <time>2022-07-31T17:07:24Z</time>
      </trkpt>
      <trkpt lat="40.6772850" lon="-3.3936690">
        <ele>790.0</ele>
        <time>2022-07-31T17:07:25Z</time>
      </trkpt>
      <trkpt lat="40.6772530" lon="-3.3936310">
        <ele>790.4</ele>
        <time>2022-07-31T17:07:26Z</time>
      </trkpt>
      <trkpt lat="40.6772220" lon="-3.3936000">
        <ele>790.7</ele>
        <time>2022-07-31T17:07:27Z</time>
      </trkpt>
      <trkpt lat="40.6771940" lon="-3.3935680">
        <ele>791.0</ele>
        <time>2022-07-31T17:07:28Z</time>
      </trkpt>
      <trkpt lat="40.6771680" lon="-3.3935360">
        <ele>791.3</ele>
        <time>2022-07-31T17:07:29Z</time>
      </trkpt>
      <trkpt lat="40.6771390" lon="-3.3935190">
        <ele>791.6</ele>
        <time>2022-07-31T17:07:30Z</time>
      </trkpt>
      <trkpt lat="40.6771120" lon="-3.3934970">
        <ele>791.9</ele>
        <time>2022-07-31T17:07:31Z</time>
      </trkpt>
      <trkpt lat="40.6770890" lon="-3.3934770">
        <ele>792.1</ele>
        <time>2022-07-31T17:07:32Z</time>
      </trkpt>
      <trkpt lat="40.6770590" lon="-3.3934580">
        <ele>792.5</ele>
        <time>2022-07-31T17:07:33Z</time>
      </trkpt>
      <trkpt lat="40.6770340" lon="-3.3934350">
        <ele>792.7</ele>
        <time>2022-07-31T17:07:34Z</time>
      </trkpt>
      <trkpt lat="40.6770070" lon="-3.3934230">
        <ele>793.0</ele>
        <time>2022-07-31T17:07:35Z</time>
      </trkpt>
      <trkpt lat="40.6769890" lon="-3.3933950">
        <ele>793.3</ele>
        <time>2022-07-31T17:07:36Z</time>
      </trkpt>
      <trkpt lat="40.6769630" lon="-3.3933760">
        <ele>793.5</ele>
        <time>2022-07-31T17:07:37Z</time>
      </trkpt>
      <trkpt lat="40.6769360" lon="-3.3933520">
        <ele>793.8</ele>
        <time>2022-07-31T17:07:38Z</time>
      </trkpt>
      <trkpt lat="40.6769110" lon="-3.3933220">
        <ele>794.1</ele>
        <time>2022-07-31T17:07:39Z</time>
      </trkpt>
      <trkpt lat="40.6768990" lon="-3.3932860">
        <ele>794.3</ele>
        <time>2022-07-31T17:07:40Z</time>
      </trkpt>
      <trkpt lat="40.6768780" lon="-3.3932560">
        <ele>794.6</ele>
        <time>2022-07-31T17:07:41Z</time>
      </trkpt>
      <trkpt lat="40.6768540" lon="-3.3932280">
        <ele>794.9</ele>
        <time>2022-07-31T17:07:42Z</time>
      </trkpt>
      <trkpt lat="40.6768330" lon="-3.3932040">
        <ele>795.1</ele>
        <time>2022-07-31T17:07:43Z</time>
      </trkpt>
      <trkpt lat="40.6768180" lon="-3.3931700">
        <ele>795.3</ele>
        <time>2022-07-31T17:07:44Z</time>
      </trkpt>
      <trkpt lat="40.6768110" lon="-3.3931570">
        <ele>795.4</ele>
        <time>2022-07-31T17:07:45Z</time>
      </trkpt>
      <trkpt lat="40.6767930" lon="-3.3931300">
        <ele>795.6</ele>
        <time>2022-07-31T17:07:46Z</time>
      </trkpt>
      <trkpt lat="40.6767640" lon="-3.3930970">
        <ele>795.9</ele>
        <time>2022-07-31T17:07:47Z</time>
      </trkpt>
      <trkpt lat="40.6767550" lon="-3.3930820">
        <ele>796.0</ele>
        <time>2022-07-31T17:07:48Z</time>
      </trkpt>
      <trkpt lat="40.6767320" lon="-3.3930550">
        <ele>796.3</ele>
        <time>2022-07-31T17:07:49Z</time>
      </trkpt>
      <trkpt lat="40.6767140" lon="-3.3930150">
        <ele>796.5</ele>
        <time>2022-07-31T17:07:50Z</time>
      </trkpt>
      <trkpt lat="40.6766850" lon="-3.3929890">
        <ele>796.7</ele>
        <time>2022-07-31T17:07:51Z</time>
      </trkpt>
      <trkpt lat="40.6766640" lon="-3.3929570">
        <ele>796.9</ele>
        <time>2022-07-31T17:07:52Z</time>
      </trkpt>
      <trkpt lat="40.6766500" lon="-3.3929080">
        <ele>797.2</ele>
        <time>2022-07-31T17:07:53Z</time>
      </trkpt>
      <trkpt lat="40.6766440" lon="-3.3928910">
        <ele>797.2</ele>
        <time>2022-07-31T17:07:54Z</time>
      </trkpt>
      <trkpt lat="40.6766370" lon="-3.3928450">
        <ele>797.4</ele>
        <time>2022-07-31T17:07:55Z</time>
      </trkpt>
      <trkpt lat="40.6766400" lon="-3.3928240">
        <ele>797.5</ele>
        <time>2022-07-31T17:07:56Z</time>
      </trkpt>
      <trkpt lat="40.6766630" lon="-3.3927870">
        <ele>797.6</ele>
        <time>2022-07-31T17:07:57Z</time>
      </trkpt>
      <trkpt lat="40.6766920" lon="-3.3927490">
        <ele>797.9</ele>
        <time>2022-07-31T17:07:58Z</time>
      </trkpt>
      <trkpt lat="40.6767190" lon="-3.3927190">
        <ele>798.0</ele>
        <time>2022-07-31T17:07:59Z</time>
      </trkpt>
      <trkpt lat="40.6767480" lon="-3.3926870">
        <ele>798.2</ele>
        <time>2022-07-31T17:08:00Z</time>
      </trkpt>
      <trkpt lat="40.6767610" lon="-3.3926760">
        <ele>798.3</ele>
        <time>2022-07-31T17:08:01Z</time>
      </trkpt>
      <trkpt lat="40.6767850" lon="-3.3926540">
        <ele>798.5</ele>
        <time>2022-07-31T17:08:02Z</time>
      </trkpt>
      <trkpt lat="40.6768110" lon="-3.3926270">
        <ele>798.7</ele>
        <time>2022-07-31T17:08:03Z</time>
      </trkpt>
      <trkpt lat="40.6768170" lon="-3.3926180">
        <ele>798.7</ele>
        <time>2022-07-31T17:08:04Z</time>
      </trkpt>
      <trkpt lat="40.6768300" lon="-3.3925780">
        <ele>798.9</ele>
        <time>2022-07-31T17:08:05Z</time>
      </trkpt>
      <trkpt lat="40.6768330" lon="-3.3925620">
        <ele>799.0</ele>
        <time>2022-07-31T17:08:06Z</time>
      </trkpt>
      <trkpt lat="40.6768390" lon="-3.3925440">
        <ele>799.1</ele>
        <time>2022-07-31T17:08:07Z</time>
      </trkpt>
      <trkpt lat="40.6768300" lon="-3.3925330">
        <ele>799.2</ele>
        <time>2022-07-31T17:08:08Z</time>
      </trkpt>
      <trkpt lat="40.6768280" lon="-3.3925280">
        <ele>799.2</ele>
        <time>2022-07-31T17:08:09Z</time>
      </trkpt>
      <trkpt lat="40.6768190" lon="-3.3925390">
        <ele>799.3</ele>
        <time>2022-07-31T17:08:10Z</time>
      </trkpt>
      <trkpt lat="40.6768160" lon="-3.3925540">
        <ele>799.4</ele>
        <time>2022-07-31T17:08:11Z</time>
      </trkpt>
      <trkpt lat="40.6768140" lon="-3.3925690">
        <ele>799.5</ele>
        <time>2022-07-31T17:08:12Z</time>
      </trkpt>
      <trkpt lat="40.6768120" lon="-3.3925850">
        <ele>799.6</ele>
        <time>2022-07-31T17:08:13Z</time>
      </trkpt>
      <trkpt lat="40.6767940" lon="-3.3926300">
        <ele>799.9</ele>
        <time>2022-07-31T17:08:14Z</time>
      </trkpt>
      <trkpt lat="40.6767860" lon="-3.3926440">
        <ele>800.0</ele>
        <time>2022-07-31T17:08:15Z</time>
      </trkpt>
      <trkpt lat="40.6767760" lon="-3.3926760">
        <ele>800.2</ele>
        <time>2022-07-31T17:08:16Z</time>
      </trkpt>
      <trkpt lat="40.6767750" lon="-3.3926920">
        <ele>800.3</ele>
        <time>2022-07-31T17:08:17Z</time>
      </trkpt>
      <trkpt lat="40.6767770" lon="-3.3927450">
        <ele>800.7</ele>
        <time>2022-07-31T17:08:18Z</time>
      </trkpt>
      <trkpt lat="40.6767790" lon="-3.3927650">
        <ele>800.8</ele>
        <time>2022-07-31T17:08:19Z</time>
      </trkpt>
      <trkpt lat="40.6768090" lon="-3.3927950">
        <ele>801.1</ele>
        <time>2022-07-31T17:08:20Z</time>
      </trkpt>
      <trkpt lat="40.6768220" lon="-3.3927980">
        <ele>801.2</ele>
        <time>2022-07-31T17:08:21Z</time>
      </trkpt>
      <trkpt lat="40.6768570" lon="-3.3927940">
        <ele>801.5</ele>
        <time>2022-07-31T17:08:22Z</time>
      </trkpt>
      <trkpt lat="40.6768890" lon="-3.3927970">
        <ele>801.8</ele>
        <time>2022-07-31T17:08:23Z</time>
      </trkpt>
      <trkpt lat="40.6769230" lon="-3.3928060">
        <ele>802.0</ele>
        <time>2022-07-31T17:08:24Z</time>
      </trkpt>
      <trkpt lat="40.6769520" lon="-3.3928170">
        <ele>802.3</ele>
        <time>2022-07-31T17:08:25Z</time>
      </trkpt>
      <trkpt lat="40.6769880" lon="-3.3928170">
        <ele>802.6</ele>
        <time>2022-07-31T17:08:26Z</time>
      </trkpt>
      <trkpt lat="40.6770210" lon="-3.3928220">
        <ele>802.9</ele>
        <time>2022-07-31T17:08:27Z</time>
      </trkpt>
      <trkpt lat="40.6770320" lon="-3.3928200">
        <ele>803.0</ele>
        <time>2022-07-31T17:08:28Z</time>
      </trkpt>
      <trkpt lat="40.6770590" lon="-3.3928160">
        <ele>803.2</ele>
        <time>2022-07-31T17:08:29Z</time>
      </trkpt>
      <trkpt lat="40.6770950" lon="-3.3928120">
        <ele>803.5</ele>
        <time>2022-07-31T17:08:30Z</time>
      </trkpt>
      <trkpt lat="40.6771090" lon="-3.3928100">
        <ele>803.6</ele>
        <time>2022-07-31T17:08:31Z</time>
      </trkpt>
      <trkpt lat="40.6771360" lon="-3.3928140">
        <ele>803.9</ele>
        <time>2022-07-31T17:08:32Z</time>
      </trkpt>
      <trkpt lat="40.6771640" lon="-3.3928210">
        <ele>804.1</ele>
        <time>2022-07-31T17:08:33Z</time>
      </trkpt>
      <trkpt lat="40.6771940" lon="-3.3928190">
        <ele>804.3</ele>
        <time>2022-07-31T17:08:34Z</time>
      </trkpt>
      <trkpt lat="40.6772230" lon="-3.3928150">
        <ele>804.5</ele>
        <time>2022-07-31T17:08:35Z</time>
      </trkpt>
      <trkpt lat="40.6772540" lon="-3.3928100">
        <ele>804.7</ele>
        <time>2022-07-31T17:08:36Z</time>
      </trkpt>
      <trkpt lat="40.6772930" lon="-3.3928190">
        <ele>805.0</ele>
        <time>2022-07-31T17:08:37Z</time>
      </trkpt>
      <trkpt lat="40.6773080" lon="-3.3928220">
        <ele>805.1</ele>
        <time>2022-07-31T17:08:38Z</time>
      </trkpt>
      <trkpt lat="40.6773440" lon="-3.3928380">
        <ele>805.3</ele>
        <time>2022-07-31T17:08:39Z</time>
      </trkpt>
      <trkpt lat="40.6773570" lon="-3.3928460">
        <ele>805.4</ele>
        <time>2022-07-31T17:08:40Z</time>
      </trkpt>
      <trkpt lat="40.6773870" lon="-3.3928470">
        <ele>805.5</ele>
        <time>2022-07-31T17:08:41Z</time>
      </trkpt>
      <trkpt lat="40.6774130" lon="-3.3928600">
        <ele>805.7</ele>
        <time>2022-07-31T17:08:42Z</time>
      </trkpt>
      <trkpt lat="40.6774470" lon="-3.3928670">
        <ele>806.0</ele>
        <time>2022-07-31T17:08:43Z</time>
      </trkpt>
      <trkpt lat="40.6774580" lon="-3.3928660">
        <ele>806.0</ele>
        <time>2022-07-31T17:08:44Z</time>
      </trkpt>
      <trkpt lat="40.6774910" lon="-3.3928790">
        <ele>806.3</ele>
        <time>2022-07-31T17:08:45Z</time>
      </trkpt>
      <trkpt lat="40.6775080" lon="-3.3928790">
        <ele>806.4</ele>
        <time>2022-07-31T17:08:46Z</time>
      </trkpt>
      <trkpt lat="40.6775390" lon="-3.3928930">
        <ele>806.6</ele>
        <time>2022-07-31T17:08:47Z</time>
      </trkpt>
      <trkpt lat="40.6775770" lon="-3.3929000">
        <ele>807.0</ele>
        <time>2022-07-31T17:08:48Z</time>
      </trkpt>
      <trkpt lat="40.6776130" lon="-3.3929090">
        <ele>807.3</ele>
        <time>2022-07-31T17:08:49Z</time>
      </trkpt>
      <trkpt lat="40.6776460" lon="-3.3929120">
        <ele>807.6</ele>
        <time>2022-07-31T17:08:50Z</time>
      </trkpt>
      <trkpt lat="40.6776550" lon="-3.3929130">
        <ele>807.7</ele>
        <time>2022-07-31T17:08:51Z</time>
      </trkpt>
      <trkpt lat="40.6776830" lon="-3.3929110">
        <ele>807.9</ele>
        <time>2022-07-31T17:08:52Z</time>
      </trkpt>
      <trkpt lat="40.6777200" lon="-3.3929050">
        <ele>808.2</ele>
        <time>2022-07-31T17:08:53Z</time>
      </trkpt>
      <trkpt lat="40.6777340" lon="-3.3929050">
        <ele>808.3</ele>
        <time>2022-07-31T17:08:54Z</time>
      </trkpt>
      <trkpt lat="40.6777620" lon="-3.3929030">
        <ele>808.6</ele>
        <time>2022-07-31T17:08:55Z</time>
      </trkpt>
      <trkpt lat="40.6777900" lon="-3.3928980">
        <ele>808.8</ele>
        <time>2022-07-31T17:08:56Z</time>
      </trkpt>
      <trkpt lat="40.6778210" lon="-3.3928870">
        <ele>809.1</ele>
        <time>2022-07-31T17:08:57Z</time>
      </trkpt>
      <trkpt lat="40.6778300" lon="-3.3928810">
        <ele>809.2</ele>
        <time>2022-07-31T17:08:58Z</time>
      </trkpt>
      <trkpt lat="40.6778640" lon="-3.3928650">
        <ele>809.5</ele>
        <time>2022-07-31T17:08:59Z</time>
      </trkpt>
      <trkpt lat="40.6778730" lon="-3.3928600">
        <ele>809.5</ele>
        <time>2022-07-31T17:09:00Z</time>
      </trkpt>
      <trkpt lat="40.6779060" lon="-3.3928410">
        <ele>809.8</ele>
        <time>2022-07-31T17:09:01Z</time>
      </trkpt>
      <trkpt lat="40.6779180" lon="-3.3928350">
        <ele>809.9</ele>
        <time>2022-07-31T17:09:02Z</time>
      </trkpt>
      <trkpt lat="40.6779480" lon="-3.3928210">
        <ele>810.2</ele>
        <time>2022-07-31T17:09:03Z</time>
      </trkpt>
      <trkpt lat="40.6779590" lon="-3.3928160">
        <ele>810.3</ele>
        <time>2022-07-31T17:09:04Z</time>
      </trkpt>
      <trkpt lat="40.6779910" lon="-3.3928040">
        <ele>810.5</ele>
        <time>2022-07-31T17:09:05Z</time>
      </trkpt>
      <trkpt lat="40.6780020" lon="-3.3928030">
        <ele>810.6</ele>
        <time>2022-07-31T17:09:06Z</time>
      </trkpt>
      <trkpt lat="40.6780320" lon="-3.3927870">
        <ele>810.9</ele>
        <time>2022-07-31T17:09:07Z</time>
      </trkpt>
      <trkpt lat="40.6780430" lon="-3.3927820">
        <ele>811.0</ele>
        <time>2022-07-31T17:09:08Z</time>
      </trkpt>
      <trkpt lat="40.6780730" lon="-3.3927630">
        <ele>811.3</ele>
        <time>2022-07-31T17:09:09Z</time>
      </trkpt>
      <trkpt lat="40.6781020" lon="-3.3927520">
        <ele>811.5</ele>
        <time>2022-07-31T17:09:10Z</time>
      </trkpt>
      <trkpt lat="40.6781330" lon="-3.3927510">
        <ele>811.8</ele>
        <time>2022-07-31T17:09:11Z</time>
      </trkpt>
      <trkpt lat="40.6781460" lon="-3.3927470">
        <ele>811.9</ele>
        <time>2022-07-31T17:09:12Z</time>
      </trkpt>
      <trkpt lat="40.6781800" lon="-3.3927450">
        <ele>812.2</ele>
        <time>2022-07-31T17:09:13Z</time>
      </trkpt>
      <trkpt lat="40.6781910" lon="-3.3927480">
        <ele>812.3</ele>
        <time>2022-07-31T17:09:14Z</time>
      </trkpt>
      <trkpt lat="40.6782300" lon="-3.3927450">
        <ele>812.6</ele>
        <time>2022-07-31T17:09:15Z</time>
      </trkpt>
      <trkpt lat="40.6782430" lon="-3.3927470">
        <ele>812.7</ele>
        <time>2022-07-31T17:09:16Z</time>
      </trkpt>
      <trkpt lat="40.6782710" lon="-3.3927420">
        <ele>812.9</ele>
        <time>2022-07-31T17:09:17Z</time>
      </trkpt>
      <trkpt lat="40.6783120" lon="-3.3927450">
        <ele>813.3</ele>
        <time>2022-07-31T17:09:18Z</time>
      </trkpt>
      <trkpt lat="40.6783280" lon="-3.3927440">
        <ele>813.4</ele>
        <time>2022-07-31T17:09:19Z</time>
      </trkpt>
      <trkpt lat="40.6783680" lon="-3.3927350">
        <ele>813.7</ele>
        <time>2022-07-31T17:09:20Z</time>
      </trkpt>
      <trkpt lat="40.6783830" lon="-3.3927310">
        <ele>813.9</ele>
        <time>2022-07-31T17:09:21Z</time>
      </trkpt>
      <trkpt lat="40.6784180" lon="-3.3927180">
        <ele>814.2</ele>
        <time>2022-07-31T17:09:22Z</time>
      </trkpt>
      <trkpt lat="40.6784310" lon="-3.3927110">
        <ele>814.3</ele>
        <time>2022-07-31T17:09:23Z</time>
      </trkpt>
      <trkpt lat="40.6784630" lon="-3.3926920">
        <ele>814.6</ele>
        <time>2022-07-31T17:09:24Z</time>
      </trkpt>
      <trkpt lat="40.6784720" lon="-3.3926860">
        <ele>814.7</ele>
        <time>2022-07-31T17:09:25Z</time>
      </trkpt>
      <trkpt lat="40.6785010" lon="-3.3926770">
        <ele>814.9</ele>
        <time>2022-07-31T17:09:26Z</time>
      </trkpt>
      <trkpt lat="40.6785130" lon="-3.3926720">
        <ele>815.0</ele>
        <time>2022-07-31T17:09:27Z</time>
      </trkpt>
      <trkpt lat="40.6785430" lon="-3.3926660">
        <ele>815.3</ele>
        <time>2022-07-31T17:09:28Z</time>
      </trkpt>
      <trkpt lat="40.6785700" lon="-3.3926480">
        <ele>815.5</ele>
        <time>2022-07-31T17:09:29Z</time>
      </trkpt>
      <trkpt lat="40.6785780" lon="-3.3926410">
        <ele>815.6</ele>
        <time>2022-07-31T17:09:30Z</time>
      </trkpt>
      <trkpt lat="40.6786050" lon="-3.3926190">
        <ele>815.9</ele>
        <time>2022-07-31T17:09:31Z</time>
      </trkpt>
      <trkpt lat="40.6786180" lon="-3.3926140">
        <ele>816.1</ele>
        <time>2022-07-31T17:09:32Z</time>
      </trkpt>
      <trkpt lat="40.6786470" lon="-3.3926030">
        <ele>816.3</ele>
        <time>2022-07-31T17:09:33Z</time>
      </trkpt>
      <trkpt lat="40.6786690" lon="-3.3925780">
        <ele>816.6</ele>
        <time>2022-07-31T17:09:34Z</time>
      </trkpt>
      <trkpt lat="40.6787050" lon="-3.3925580">
        <ele>817.0</ele>
        <time>2022-07-31T17:09:35Z</time>
      </trkpt>
      <trkpt lat="40.6787180" lon="-3.3925520">
        <ele>817.2</ele>
        <time>2022-07-31T17:09:36Z</time>
      </trkpt>
      <trkpt lat="40.6787450" lon="-3.3925450">
        <ele>817.5</ele>
        <time>2022-07-31T17:09:37Z</time>
      </trkpt>
      <trkpt lat="40.6787540" lon="-3.3925390">
        <ele>817.6</ele>
        <time>2022-07-31T17:09:38Z</time>
      </trkpt>
      <trkpt lat="40.6787840" lon="-3.3925280">
        <ele>818.0</ele>
        <time>2022-07-31T17:09:39Z</time>
      </trkpt>
      <trkpt lat="40.6787930" lon="-3.3925200">
        <ele>818.1</ele>
        <time>2022-07-31T17:09:40Z</time>
      </trkpt>
      <trkpt lat="40.6788270" lon="-3.3925040">
        <ele>818.5</ele>
        <time>2022-07-31T17:09:41Z</time>
      </trkpt>
      <trkpt lat="40.6788370" lon="-3.3925010">
        <ele>818.6</ele>
        <time>2022-07-31T17:09:42Z</time>
      </trkpt>
      <trkpt lat="40.6788660" lon="-3.3924850">
        <ele>818.9</ele>
        <time>2022-07-31T17:09:43Z</time>
      </trkpt>
      <trkpt lat="40.6788770" lon="-3.3924760">
        <ele>819.1</ele>
        <time>2022-07-31T17:09:44Z</time>
      </trkpt>
      <trkpt lat="40.6789090" lon="-3.3924650">
        <ele>819.4</ele>
        <time>2022-07-31T17:09:45Z</time>
      </trkpt>
      <trkpt lat="40.6789160" lon="-3.3924640">
        <ele>819.5</ele>
        <time>2022-07-31T17:09:46Z</time>
      </trkpt>
      <trkpt lat="40.6789490" lon="-3.3924610">
        <ele>819.8</ele>
        <time>2022-07-31T17:09:47Z</time>
      </trkpt>
      <trkpt lat="40.6789590" lon="-3.3924630">
        <ele>819.9</ele>
        <time>2022-07-31T17:09:48Z</time>
      </trkpt>
      <trkpt lat="40.6789740" lon="-3.3924620">
        <ele>820.1</ele>
        <time>2022-07-31T17:09:49Z</time>
      </trkpt>
      <trkpt lat="40.6789890" lon="-3.3924670">
        <ele>820.2</ele>
        <time>2022-07-31T17:09:50Z</time>
      </trkpt>
      <trkpt lat="40.6790210" lon="-3.3924610">
        <ele>820.5</ele>
        <time>2022-07-31T17:09:51Z</time>
      </trkpt>
      <trkpt lat="40.6790270" lon="-3.3924560">
        <ele>820.6</ele>
        <time>2022-07-31T17:09:52Z</time>
      </trkpt>
      <trkpt lat="40.6790520" lon="-3.3924350">
        <ele>820.9</ele>
        <time>2022-07-31T17:09:53Z</time>
      </trkpt>
      <trkpt lat="40.6790590" lon="-3.3924270">
        <ele>820.9</ele>
        <time>2022-07-31T17:09:54Z</time>
      </trkpt>
      <trkpt lat="40.6790910" lon="-3.3924160">
        <ele>821.2</ele>
        <time>2022-07-31T17:09:55Z</time>
      </trkpt>
      <trkpt lat="40.6791020" lon="-3.3924140">
        <ele>821.3</ele>
        <time>2022-07-31T17:09:56Z</time>
      </trkpt>
      <trkpt lat="40.6791350" lon="-3.3924140">
        <ele>821.6</ele>
        <time>2022-07-31T17:09:57Z</time>
      </trkpt>
      <trkpt lat="40.6791460" lon="-3.3924150">
        <ele>821.7</ele>
        <time>2022-07-31T17:09:58Z</time>
      </trkpt>
      <trkpt lat="40.6791730" lon="-3.3924060">
        <ele>821.9</ele>
        <time>2022-07-31T17:09:59Z</time>
      </trkpt>
      <trkpt lat="40.6791910" lon="-3.3924140">
        <ele>822.1</ele>
        <time>2022-07-31T17:10:00Z</time>
      </trkpt>
      <trkpt lat="40.6792080" lon="-3.3924020">
        <ele>822.3</ele>
        <time>2022-07-31T17:10:01Z</time>
      </trkpt>
      <trkpt lat="40.6792320" lon="-3.3923800">
        <ele>822.5</ele>
        <time>2022-07-31T17:10:02Z</time>
      </trkpt>
      <trkpt lat="40.6792400" lon="-3.3923750">
        <ele>822.6</ele>
        <time>2022-07-31T17:10:03Z</time>
      </trkpt>
      <trkpt lat="40.6792710" lon="-3.3923620">
        <ele>822.8</ele>
        <time>2022-07-31T17:10:04Z</time>
      </trkpt>
      <trkpt lat="40.6792800" lon="-3.3923600">
        <ele>822.9</ele>
        <time>2022-07-31T17:10:05Z</time>
      </trkpt>
      <trkpt lat="40.6793140" lon="-3.3923590">
        <ele>823.2</ele>
        <time>2022-07-31T17:10:06Z</time>
      </trkpt>
      <trkpt lat="40.6793240" lon="-3.3923550">
        <ele>823.3</ele>
        <time>2022-07-31T17:10:07Z</time>
      </trkpt>
      <trkpt lat="40.6793560" lon="-3.3923440">
        <ele>823.5</ele>
        <time>2022-07-31T17:10:08Z</time>
      </trkpt>
      <trkpt lat="40.6793640" lon="-3.3923370">
        <ele>823.6</ele>
        <time>2022-07-31T17:10:09Z</time>
      </trkpt>
      <trkpt lat="40.6793910" lon="-3.3923300">
        <ele>823.8</ele>
        <time>2022-07-31T17:10:10Z</time>
      </trkpt>
      <trkpt lat="40.6794000" lon="-3.3923250">
        <ele>823.9</ele>
        <time>2022-07-31T17:10:11Z</time>
      </trkpt>
      <trkpt lat="40.6794150" lon="-3.3923280">
        <ele>824.0</ele>
        <time>2022-07-31T17:10:12Z</time>
      </trkpt>
      <trkpt lat="40.6794320" lon="-3.3923130">
        <ele>824.1</ele>
        <time>2022-07-31T17:10:13Z</time>
      </trkpt>
      <trkpt lat="40.6794580" lon="-3.3923150">
        <ele>824.3</ele>
        <time>2022-07-31T17:10:14Z</time>
      </trkpt>
      <trkpt lat="40.6794690" lon="-3.3923160">
        <ele>824.4</ele>
        <time>2022-07-31T17:10:15Z</time>
      </trkpt>
      <trkpt lat="40.6794930" lon="-3.3922970">
        <ele>824.6</ele>
        <time>2022-07-31T17:10:16Z</time>
      </trkpt>
      <trkpt lat="40.6795250" lon="-3.3922990">
        <ele>824.9</ele>
        <time>2022-07-31T17:10:17Z</time>
      </trkpt>
      <trkpt lat="40.6795320" lon="-3.3922980">
        <ele>825.0</ele>
        <time>2022-07-31T17:10:18Z</time>
      </trkpt>
      <trkpt lat="40.6795440" lon="-3.3922980">
        <ele>825.1</ele>
        <time>2022-07-31T17:10:19Z</time>
      </trkpt>
      <trkpt lat="40.6795520" lon="-3.3923030">
        <ele>825.1</ele>
        <time>2022-07-31T17:10:20Z</time>
      </trkpt>
      <trkpt lat="40.6795580" lon="-3.3923110">
        <ele>825.2</ele>
        <time>2022-07-31T17:10:21Z</time>
      </trkpt>
      <trkpt lat="40.6795750" lon="-3.3923200">
        <ele>825.3</ele>
        <time>2022-07-31T17:10:22Z</time>
      </trkpt>
      <trkpt lat="40.6795850" lon="-3.3923220">
        <ele>825.4</ele>
        <time>2022-07-31T17:10:23Z</time>
      </trkpt>
      <trkpt lat="40.6795950" lon="-3.3923230">
        <ele>825.5</ele>
        <time>2022-07-31T17:10:24Z</time>
      </trkpt>
      <trkpt lat="40.6796250" lon="-3.3923350">
        <ele>825.8</ele>
        <time>2022-07-31T17:10:25Z</time>
      </trkpt>
      <trkpt lat="40.6796350" lon="-3.3923380">
        <ele>825.8</ele>
        <time>2022-07-31T17:10:26Z</time>
      </trkpt>
      <trkpt lat="40.6796670" lon="-3.3923560">
        <ele>826.1</ele>
        <time>2022-07-31T17:10:27Z</time>
      </trkpt>
      <trkpt lat="40.6796760" lon="-3.3923620">
        <ele>826.2</ele>
        <time>2022-07-31T17:10:28Z</time>
      </trkpt>
      <trkpt lat="40.6797030" lon="-3.3923830">
        <ele>826.4</ele>
        <time>2022-07-31T17:10:29Z</time>
      </trkpt>
      <trkpt lat="40.6797100" lon="-3.3923880">
        <ele>826.5</ele>
        <time>2022-07-31T17:10:30Z</time>
      </trkpt>
      <trkpt lat="40.6797500" lon="-3.3923870">
        <ele>826.8</ele>
        <time>2022-07-31T17:10:31Z</time>
      </trkpt>
      <trkpt lat="40.6797640" lon="-3.3923870">
        <ele>826.9</ele>
        <time>2022-07-31T17:10:32Z</time>
      </trkpt>
      <trkpt lat="40.6797890" lon="-3.3923900">
        <ele>827.1</ele>
        <time>2022-07-31T17:10:33Z</time>
      </trkpt>
      <trkpt lat="40.6797970" lon="-3.3923840">
        <ele>827.1</ele>
        <time>2022-07-31T17:10:34Z</time>
      </trkpt>
      <trkpt lat="40.6798140" lon="-3.3923810">
        <ele>827.2</ele>
        <time>2022-07-31T17:10:35Z</time>
      </trkpt>
      <trkpt lat="40.6798330" lon="-3.3923820">
        <ele>827.4</ele>
        <time>2022-07-31T17:10:36Z</time>
      </trkpt>
      <trkpt lat="40.6798510" lon="-3.3923810">
        <ele>827.5</ele>
        <time>2022-07-31T17:10:37Z</time>
      </trkpt>
      <trkpt lat="40.6798670" lon="-3.3923810">
        <ele>827.6</ele>
        <time>2022-07-31T17:10:38Z</time>
      </trkpt>
      <trkpt lat="40.6798960" lon="-3.3923850">
        <ele>827.8</ele>
        <time>2022-07-31T17:10:39Z</time>
      </trkpt>
      <trkpt lat="40.6799060" lon="-3.3923900">
        <ele>827.8</ele>
        <time>2022-07-31T17:10:40Z</time>
      </trkpt>
      <trkpt lat="40.6799190" lon="-3.3923920">
        <ele>827.9</ele>
        <time>2022-07-31T17:10:41Z</time>
      </trkpt>
      <trkpt lat="40.6799360" lon="-3.3923960">
        <ele>828.0</ele>
        <time>2022-07-31T17:10:42Z</time>
      </trkpt>
      <trkpt lat="40.6799520" lon="-3.3923970">
        <ele>828.1</ele>
        <time>2022-07-31T17:10:43Z</time>
      </trkpt>
      <trkpt lat="40.6799710" lon="-3.3923920">
        <ele>828.2</ele>
        <time>2022-07-31T17:10:44Z</time>
      </trkpt>
      <trkpt lat="40.6800030" lon="-3.3923920">
        <ele>828.3</ele>
        <time>2022-07-31T17:10:45Z</time>
      </trkpt>
      <trkpt lat="40.6800120" lon="-3.3923980">
        <ele>828.4</ele>
        <time>2022-07-31T17:10:46Z</time>
      </trkpt>
      <trkpt lat="40.6800300" lon="-3.3923910">
        <ele>828.5</ele>
        <time>2022-07-31T17:10:47Z</time>
      </trkpt>
      <trkpt lat="40.6800470" lon="-3.3923960">
        <ele>828.5</ele>
        <time>2022-07-31T17:10:48Z</time>
      </trkpt>
      <trkpt lat="40.6800650" lon="-3.3923920">
        <ele>828.6</ele>
        <time>2022-07-31T17:10:49Z</time>
      </trkpt>
      <trkpt lat="40.6800820" lon="-3.3923950">
        <ele>828.7</ele>
        <time>2022-07-31T17:10:50Z</time>
      </trkpt>
      <trkpt lat="40.6801080" lon="-3.3923990">
        <ele>828.8</ele>
        <time>2022-07-31T17:10:51Z</time>
      </trkpt>
      <trkpt lat="40.6801180" lon="-3.3923990">
        <ele>828.8</ele>
        <time>2022-07-31T17:10:52Z</time>
      </trkpt>
      <trkpt lat="40.6801470" lon="-3.3923980">
        <ele>828.9</ele>
        <time>2022-07-31T17:10:53Z</time>
      </trkpt>
      <trkpt lat="40.6801560" lon="-3.3923980">
        <ele>829.0</ele>
        <time>2022-07-31T17:10:54Z</time>
      </trkpt>
      <trkpt lat="40.6801880" lon="-3.3923960">
        <ele>829.1</ele>
        <time>2022-07-31T17:10:55Z</time>
      </trkpt>
      <trkpt lat="40.6801990" lon="-3.3923940">
        <ele>829.1</ele>
        <time>2022-07-31T17:10:56Z</time>
      </trkpt>
      <trkpt lat="40.6802300" lon="-3.3923910">
        <ele>829.2</ele>
        <time>2022-07-31T17:10:57Z</time>
      </trkpt>
      <trkpt lat="40.6802420" lon="-3.3923930">
        <ele>829.2</ele>
        <time>2022-07-31T17:10:58Z</time>
      </trkpt>
      <trkpt lat="40.6802750" lon="-3.3923780">
        <ele>829.3</ele>
        <time>2022-07-31T17:10:59Z</time>
      </trkpt>
      <trkpt lat="40.6802830" lon="-3.3923720">
        <ele>829.3</ele>
        <time>2022-07-31T17:11:00Z</time>
      </trkpt>
      <trkpt lat="40.6803160" lon="-3.3923520">
        <ele>829.4</ele>
        <time>2022-07-31T17:11:01Z</time>
      </trkpt>
      <trkpt lat="40.6803270" lon="-3.3923470">
        <ele>829.4</ele>
        <time>2022-07-31T17:11:02Z</time>
      </trkpt>
      <trkpt lat="40.6803620" lon="-3.3923440">
        <ele>829.5</ele>
        <time>2022-07-31T17:11:03Z</time>
      </trkpt>
      <trkpt lat="40.6803730" lon="-3.3923480">
        <ele>829.5</ele>
        <time>2022-07-31T17:11:04Z</time>
      </trkpt>
      <trkpt lat="40.6804030" lon="-3.3923440">
        <ele>829.6</ele>
        <time>2022-07-31T17:11:05Z</time>
      </trkpt>
      <trkpt lat="40.6804320" lon="-3.3923400">
        <ele>829.6</ele>
        <time>2022-07-31T17:11:06Z</time>
      </trkpt>
      <trkpt lat="40.6804730" lon="-3.3923290">
        <ele>829.6</ele>
        <time>2022-07-31T17:11:07Z</time>
      </trkpt>
      <trkpt lat="40.6804890" lon="-3.3923260">
        <ele>829.7</ele>
        <time>2022-07-31T17:11:08Z</time>
      </trkpt>
      <trkpt lat="40.6805220" lon="-3.3923310">
        <ele>829.7</ele>
        <time>2022-07-31T17:11:09Z</time>
      </trkpt>
      <trkpt lat="40.6805540" lon="-3.3923280">
        <ele>829.7</ele>
        <time>2022-07-31T17:11:10Z</time>
      </trkpt>
      <trkpt lat="40.6805830" lon="-3.3923150">
        <ele>829.8</ele>
        <time>2022-07-31T17:11:11Z</time>
      </trkpt>
      <trkpt lat="40.6806260" lon="-3.3923200">
        <ele>829.8</ele>
        <time>2022-07-31T17:11:12Z</time>
      </trkpt>
      <trkpt lat="40.6806440" lon="-3.3923170">
        <ele>829.8</ele>
        <time>2022-07-31T17:11:13Z</time>
      </trkpt>
      <trkpt lat="40.6806770" lon="-3.3923110">
        <ele>829.8</ele>
        <time>2022-07-31T17:11:14Z</time>
      </trkpt>
      <trkpt lat="40.6807130" lon="-3.3923040">
        <ele>829.9</ele>
        <time>2022-07-31T17:11:15Z</time>
      </trkpt>
      <trkpt lat="40.6807400" lon="-3.3923050">
        <ele>829.9</ele>
        <time>2022-07-31T17:11:16Z</time>
      </trkpt>
      <trkpt lat="40.6807740" lon="-3.3922900">
        <ele>829.9</ele>
        <time>2022-07-31T17:11:17Z</time>
      </trkpt>
      <trkpt lat="40.6808140" lon="-3.3922620">
        <ele>829.9</ele>
        <time>2022-07-31T17:11:18Z</time>
      </trkpt>
      <trkpt lat="40.6808490" lon="-3.3922370">
        <ele>830.0</ele>
        <time>2022-07-31T17:11:19Z</time>
      </trkpt>
      <trkpt lat="40.6808860" lon="-3.3922270">
        <ele>830.0</ele>
        <time>2022-07-31T17:11:20Z</time>
      </trkpt>
      <trkpt lat="40.6809220" lon="-3.3922190">
        <ele>830.0</ele>
        <time>2022-07-31T17:11:21Z</time>
      </trkpt>
      <trkpt lat="40.6809600" lon="-3.3922110">
        <ele>830.0</ele>
        <time>2022-07-31T17:11:22Z</time>
      </trkpt>
      <trkpt lat="40.6809960" lon="-3.3922110">
        <ele>830.0</ele>
        <time>2022-07-31T17:11:23Z</time>
      </trkpt>
      <trkpt lat="40.6810300" lon="-3.3922130">
        <ele>830.1</ele>
        <time>2022-07-31T17:11:24Z</time>
      </trkpt>
      <trkpt lat="40.6810650" lon="-3.3922110">
        <ele>830.1</ele>
        <time>2022-07-31T17:11:25Z</time>
      </trkpt>
      <trkpt lat="40.6811030" lon="-3.3922170">
        <ele>830.1</ele>
        <time>2022-07-31T17:11:26Z</time>
      </trkpt>
      <trkpt lat="40.6811430" lon="-3.3922210">
        <ele>830.1</ele>
        <time>2022-07-31T17:11:27Z</time>
      </trkpt>
      <trkpt lat="40.6811900" lon="-3.3922220">
        <ele>830.1</ele>
        <time>2022-07-31T17:11:28Z</time>
      </trkpt>
      <trkpt lat="40.6812230" lon="-3.3922110">
        <ele>830.2</ele>
        <time>2022-07-31T17:11:29Z</time>
      </trkpt>
      <trkpt lat="40.6812620" lon="-3.3922040">
        <ele>830.2</ele>
        <time>2022-07-31T17:11:30Z</time>
      </trkpt>
      <trkpt lat="40.6813030" lon="-3.3921980">
        <ele>830.2</ele>
        <time>2022-07-31T17:11:31Z</time>
      </trkpt>
      <trkpt lat="40.6813400" lon="-3.3921940">
        <ele>830.2</ele>
        <time>2022-07-31T17:11:32Z</time>
      </trkpt>
      <trkpt lat="40.6813730" lon="-3.3921990">
        <ele>830.3</ele>
        <time>2022-07-31T17:11:33Z</time>
      </trkpt>
      <trkpt lat="40.6814080" lon="-3.3921980">
        <ele>830.3</ele>
        <time>2022-07-31T17:11:34Z</time>
      </trkpt>
      <trkpt lat="40.6814440" lon="-3.3921880">
        <ele>830.3</ele>
        <time>2022-07-31T17:11:35Z</time>
      </trkpt>
      <trkpt lat="40.6814750" lon="-3.3921870">
        <ele>830.4</ele>
        <time>2022-07-31T17:11:36Z</time>
      </trkpt>
      <trkpt lat="40.6815110" lon="-3.3921830">
        <ele>830.4</ele>
        <time>2022-07-31T17:11:37Z</time>
      </trkpt>
      <trkpt lat="40.6815460" lon="-3.3921810">
        <ele>830.4</ele>
        <time>2022-07-31T17:11:38Z</time>
      </trkpt>
      <trkpt lat="40.6815820" lon="-3.3921720">
        <ele>830.5</ele>
        <time>2022-07-31T17:11:39Z</time>
      </trkpt>
      <trkpt lat="40.6816230" lon="-3.3921680">
        <ele>830.5</ele>
        <time>2022-07-31T17:11:40Z</time>
      </trkpt>
      <trkpt lat="40.6816660" lon="-3.3921620">
        <ele>830.5</ele>
        <time>2022-07-31T17:11:41Z</time>
      </trkpt>
      <trkpt lat="40.6817060" lon="-3.3921500">
        <ele>830.6</ele>
        <time>2022-07-31T17:11:42Z</time>
      </trkpt>
      <trkpt lat="40.6817490" lon="-3.3921380">
        <ele>830.6</ele>
        <time>2022-07-31T17:11:43Z</time>
      </trkpt>
      <trkpt lat="40.6817950" lon="-3.3921320">
        <ele>830.6</ele>
        <time>2022-07-31T17:11:44Z</time>
      </trkpt>
      <trkpt lat="40.6818360" lon="-3.3921220">
        <ele>830.6</ele>
        <time>2022-07-31T17:11:45Z</time>
      </trkpt>
      <trkpt lat="40.6818750" lon="-3.3921210">
        <ele>830.6</ele>
        <time>2022-07-31T17:11:46Z</time>
      </trkpt>
      <trkpt lat="40.6819240" lon="-3.3921030">
        <ele>830.6</ele>
        <time>2022-07-31T17:11:47Z</time>
      </trkpt>
      <trkpt lat="40.6819600" lon="-3.3920920">
        <ele>830.6</ele>
        <time>2022-07-31T17:11:48Z</time>
      </trkpt>
      <trkpt lat="40.6820020" lon="-3.3920830">
        <ele>830.7</ele>
        <time>2022-07-31T17:11:49Z</time>
      </trkpt>
      <trkpt lat="40.6820480" lon="-3.3920710">
        <ele>830.7</ele>
        <time>2022-07-31T17:11:50Z</time>
      </trkpt>
      <trkpt lat="40.6820860" lon="-3.3920580">
        <ele>830.7</ele>
        <time>2022-07-31T17:11:51Z</time>
      </trkpt>
      <trkpt lat="40.6821260" lon="-3.3920530">
        <ele>830.7</ele>
        <time>2022-07-31T17:11:52Z</time>
      </trkpt>
      <trkpt lat="40.6821690" lon="-3.3920460">
        <ele>830.7</ele>
        <time>2022-07-31T17:11:53Z</time>
      </trkpt>
      <trkpt lat="40.6822170" lon="-3.3920470">
        <ele>830.7</ele>
        <time>2022-07-31T17:11:54Z</time>
      </trkpt>
      <trkpt lat="40.6822610" lon="-3.3920500">
        <ele>830.7</ele>
        <time>2022-07-31T17:11:55Z</time>
      </trkpt>
      <trkpt lat="40.6823060" lon="-3.3920600">
        <ele>830.7</ele>
        <time>2022-07-31T17:11:56Z</time>
      </trkpt>
      <trkpt lat="40.6823600" lon="-3.3920450">
        <ele>830.7</ele>
        <time>2022-07-31T17:11:57Z</time>
      </trkpt>
      <trkpt lat="40.6824120" lon="-3.3920390">
        <ele>830.7</ele>
        <time>2022-07-31T17:11:58Z</time>
      </trkpt>
      <trkpt lat="40.6824620" lon="-3.3920380">
        <ele>830.7</ele>
        <time>2022-07-31T17:11:59Z</time>
      </trkpt>
      <trkpt lat="40.6825080" lon="-3.3920270">
        <ele>830.7</ele>
        <time>2022-07-31T17:12:00Z</time>
      </trkpt>
      <trkpt lat="40.6825570" lon="-3.3920160">
        <ele>830.7</ele>
        <time>2022-07-31T17:12:01Z</time>
      </trkpt>
      <trkpt lat="40.6826010" lon="-3.3919980">
        <ele>830.7</ele>
        <time>2022-07-31T17:12:02Z</time>
      </trkpt>
      <trkpt lat="40.6826480" lon="-3.3919850">
        <ele>830.7</ele>
        <time>2022-07-31T17:12:03Z</time>
      </trkpt>
      <trkpt lat="40.6826920" lon="-3.3919760">
        <ele>830.7</ele>
        <time>2022-07-31T17:12:04Z</time>
      </trkpt>
      <trkpt lat="40.6827330" lon="-3.3919750">
        <ele>830.7</ele>
        <time>2022-07-31T17:12:05Z</time>
      </trkpt>
      <trkpt lat="40.6827820" lon="-3.3919700">
        <ele>830.7</ele>
        <time>2022-07-31T17:12:06Z</time>
      </trkpt>
      <trkpt lat="40.6828290" lon="-3.3919600">
        <ele>830.7</ele>
        <time>2022-07-31T17:12:07Z</time>
      </trkpt>
      <trkpt lat="40.6828730" lon="-3.3919500">
        <ele>830.8</ele>
        <time>2022-07-31T17:12:08Z</time>
      </trkpt>
      <trkpt lat="40.6829240" lon="-3.3919340">
        <ele>830.8</ele>
        <time>2022-07-31T17:12:09Z</time>
      </trkpt>
      <trkpt lat="40.6829710" lon="-3.3919190">
        <ele>830.9</ele>
        <time>2022-07-31T17:12:10Z</time>
      </trkpt>
      <trkpt lat="40.6830200" lon="-3.3919070">
        <ele>830.9</ele>
        <time>2022-07-31T17:12:11Z</time>
      </trkpt>
      <trkpt lat="40.6830660" lon="-3.3918950">
        <ele>830.9</ele>
        <time>2022-07-31T17:12:12Z</time>
      </trkpt>
      <trkpt lat="40.6831100" lon="-3.3918900">
        <ele>831.0</ele>
        <time>2022-07-31T17:12:13Z</time>
      </trkpt>
      <trkpt lat="40.6831510" lon="-3.3918870">
        <ele>831.0</ele>
        <time>2022-07-31T17:12:14Z</time>
      </trkpt>
      <trkpt lat="40.6831900" lon="-3.3918820">
        <ele>831.0</ele>
        <time>2022-07-31T17:12:15Z</time>
      </trkpt>
      <trkpt lat="40.6832330" lon="-3.3918740">
        <ele>831.0</ele>
        <time>2022-07-31T17:12:16Z</time>
      </trkpt>
      <trkpt lat="40.6832660" lon="-3.3918950">
        <ele>830.9</ele>
        <time>2022-07-31T17:12:17Z</time>
      </trkpt>
      <trkpt lat="40.6833010" lon="-3.3919000">
        <ele>830.9</ele>
        <time>2022-07-31T17:12:18Z</time>
      </trkpt>
      <trkpt lat="40.6833450" lon="-3.3919030">
        <ele>830.9</ele>
        <time>2022-07-31T17:12:19Z</time>
      </trkpt>
      <trkpt lat="40.6833920" lon="-3.3918970">
        <ele>830.9</ele>
        <time>2022-07-31T17:12:20Z</time>
      </trkpt>
      <trkpt lat="40.6834320" lon="-3.3918970">
        <ele>830.9</ele>
        <time>2022-07-31T17:12:21Z</time>
      </trkpt>
      <trkpt lat="40.6834760" lon="-3.3918820">
        <ele>830.9</ele>
        <time>2022-07-31T17:12:22Z</time>
      </trkpt>
      <trkpt lat="40.6835140" lon="-3.3918560">
        <ele>830.8</ele>
        <time>2022-07-31T17:12:23Z</time>
      </trkpt>
      <trkpt lat="40.6835430" lon="-3.3918060">
        <ele>830.8</ele>
        <time>2022-07-31T17:12:24Z</time>
      </trkpt>
      <trkpt lat="40.6835830" lon="-3.3917750">
        <ele>830.7</ele>
        <time>2022-07-31T17:12:25Z</time>
      </trkpt>
      <trkpt lat="40.6836170" lon="-3.3917420">
        <ele>830.7</ele>
        <time>2022-07-31T17:12:26Z</time>
      </trkpt>
      <trkpt lat="40.6836550" lon="-3.3917030">
        <ele>830.6</ele>
        <time>2022-07-31T17:12:27Z</time>
      </trkpt>
      <trkpt lat="40.6836960" lon="-3.3916710">
        <ele>830.5</ele>
        <time>2022-07-31T17:12:28Z</time>
      </trkpt>
      <trkpt lat="40.6837400" lon="-3.3916400">
        <ele>830.4</ele>
        <time>2022-07-31T17:12:29Z</time>
      </trkpt>
      <trkpt lat="40.6837880" lon="-3.3916100">
        <ele>830.4</ele>
        <time>2022-07-31T17:12:30Z</time>
      </trkpt>
      <trkpt lat="40.6838360" lon="-3.3915750">
        <ele>830.3</ele>
        <time>2022-07-31T17:12:31Z</time>
      </trkpt>
      <trkpt lat="40.6838860" lon="-3.3915370">
        <ele>830.2</ele>
        <time>2022-07-31T17:12:32Z</time>
      </trkpt>
      <trkpt lat="40.6839440" lon="-3.3914990">
        <ele>830.2</ele>
        <time>2022-07-31T17:12:33Z</time>
      </trkpt>
      <trkpt lat="40.6839930" lon="-3.3914610">
        <ele>830.2</ele>
        <time>2022-07-31T17:12:34Z</time>
      </trkpt>
      <trkpt lat="40.6840450" lon="-3.3914350">
        <ele>830.1</ele>
        <time>2022-07-31T17:12:35Z</time>
      </trkpt>
      <trkpt lat="40.6840970" lon="-3.3914080">
        <ele>830.2</ele>
        <time>2022-07-31T17:12:36Z</time>
      </trkpt>
      <trkpt lat="40.6841500" lon="-3.3913910">
        <ele>830.2</ele>
        <time>2022-07-31T17:12:37Z</time>
      </trkpt>
      <trkpt lat="40.6842050" lon="-3.3913630">
        <ele>830.3</ele>
        <time>2022-07-31T17:12:38Z</time>
      </trkpt>
      <trkpt lat="40.6842580" lon="-3.3913310">
        <ele>830.3</ele>
        <time>2022-07-31T17:12:39Z</time>
      </trkpt>
      <trkpt lat="40.6842970" lon="-3.3912960">
        <ele>830.4</ele>
        <time>2022-07-31T17:12:40Z</time>
      </trkpt>
      <trkpt lat="40.6843430" lon="-3.3912770">
        <ele>830.4</ele>
        <time>2022-07-31T17:12:41Z</time>
      </trkpt>
      <trkpt lat="40.6843840" lon="-3.3912490">
        <ele>830.5</ele>
        <time>2022-07-31T17:12:42Z</time>
      </trkpt>
      <trkpt lat="40.6844200" lon="-3.3912090">
        <ele>830.6</ele>
        <time>2022-07-31T17:12:43Z</time>
      </trkpt>
      <trkpt lat="40.6844600" lon="-3.3911740">
        <ele>830.7</ele>
        <time>2022-07-31T17:12:44Z</time>
      </trkpt>
      <trkpt lat="40.6844990" lon="-3.3911500">
        <ele>830.8</ele>
        <time>2022-07-31T17:12:45Z</time>
      </trkpt>
      <trkpt lat="40.6845410" lon="-3.3911210">
        <ele>830.9</ele>
        <time>2022-07-31T17:12:46Z</time>
      </trkpt>
      <trkpt lat="40.6845800" lon="-3.3910940">
        <ele>831.0</ele>
        <time>2022-07-31T17:12:47Z</time>
      </trkpt>
      <trkpt lat="40.6846230" lon="-3.3910660">
        <ele>831.2</ele>
        <time>2022-07-31T17:12:48Z</time>
      </trkpt>
      <trkpt lat="40.6846680" lon="-3.3910430">
        <ele>831.3</ele>
        <time>2022-07-31T17:12:49Z</time>
      </trkpt>
      <trkpt lat="40.6847050" lon="-3.3910130">
        <ele>831.4</ele>
        <time>2022-07-31T17:12:50Z</time>
      </trkpt>
      <trkpt lat="40.6847440" lon="-3.3909710">
        <ele>831.5</ele>
        <time>2022-07-31T17:12:51Z</time>
      </trkpt>
      <trkpt lat="40.6847750" lon="-3.3909340">
        <ele>831.6</ele>
        <time>2022-07-31T17:12:52Z</time>
      </trkpt>
      <trkpt lat="40.6848050" lon="-3.3909070">
        <ele>831.6</ele>
        <time>2022-07-31T17:12:53Z</time>
      </trkpt>
      <trkpt lat="40.6848480" lon="-3.3908900">
        <ele>831.6</ele>
        <time>2022-07-31T17:12:54Z</time>
      </trkpt>
      <trkpt lat="40.6848900" lon="-3.3908630">
        <ele>831.7</ele>
        <time>2022-07-31T17:12:55Z</time>
      </trkpt>
      <trkpt lat="40.6849250" lon="-3.3908470">
        <ele>831.7</ele>
        <time>2022-07-31T17:12:56Z</time>
      </trkpt>
      <trkpt lat="40.6849590" lon="-3.3908250">
        <ele>831.7</ele>
        <time>2022-07-31T17:12:57Z</time>
      </trkpt>
      <trkpt lat="40.6849940" lon="-3.3908000">
        <ele>831.8</ele>
        <time>2022-07-31T17:12:58Z</time>
      </trkpt>
      <trkpt lat="40.6850300" lon="-3.3907730">
        <ele>831.8</ele>
        <time>2022-07-31T17:12:59Z</time>
      </trkpt>
      <trkpt lat="40.6850690" lon="-3.3907470">
        <ele>831.8</ele>
        <time>2022-07-31T17:13:00Z</time>
      </trkpt>
      <trkpt lat="40.6851080" lon="-3.3907220">
        <ele>831.9</ele>
        <time>2022-07-31T17:13:01Z</time>
      </trkpt>
      <trkpt lat="40.6851420" lon="-3.3907040">
        <ele>831.9</ele>
        <time>2022-07-31T17:13:02Z</time>
      </trkpt>
      <trkpt lat="40.6851830" lon="-3.3906720">
        <ele>832.0</ele>
        <time>2022-07-31T17:13:03Z</time>
      </trkpt>
      <trkpt lat="40.6852260" lon="-3.3906460">
        <ele>832.0</ele>
        <time>2022-07-31T17:13:04Z</time>
      </trkpt>
      <trkpt lat="40.6852670" lon="-3.3906250">
        <ele>832.1</ele>
        <time>2022-07-31T17:13:05Z</time>
      </trkpt>
      <trkpt lat="40.6853050" lon="-3.3905960">
        <ele>832.1</ele>
        <time>2022-07-31T17:13:06Z</time>
      </trkpt>
      <trkpt lat="40.6853390" lon="-3.3905850">
        <ele>832.2</ele>
        <time>2022-07-31T17:13:07Z</time>
      </trkpt>
      <trkpt lat="40.6853820" lon="-3.3905650">
        <ele>832.2</ele>
        <time>2022-07-31T17:13:08Z</time>
      </trkpt>
      <trkpt lat="40.6854240" lon="-3.3905320">
        <ele>832.2</ele>
        <time>2022-07-31T17:13:09Z</time>
      </trkpt>
      <trkpt lat="40.6854680" lon="-3.3905060">
        <ele>832.2</ele>
        <time>2022-07-31T17:13:10Z</time>
      </trkpt>
      <trkpt lat="40.6855110" lon="-3.3904760">
        <ele>832.1</ele>
        <time>2022-07-31T17:13:11Z</time>
      </trkpt>
      <trkpt lat="40.6855570" lon="-3.3904580">
        <ele>832.1</ele>
        <time>2022-07-31T17:13:12Z</time>
      </trkpt>
      <trkpt lat="40.6856000" lon="-3.3904390">
        <ele>832.1</ele>
        <time>2022-07-31T17:13:13Z</time>
      </trkpt>
      <trkpt lat="40.6856430" lon="-3.3904220">
        <ele>832.0</ele>
        <time>2022-07-31T17:13:14Z</time>
      </trkpt>
      <trkpt lat="40.6856880" lon="-3.3903910">
        <ele>832.0</ele>
        <time>2022-07-31T17:13:15Z</time>
      </trkpt>
      <trkpt lat="40.6857360" lon="-3.3903630">
        <ele>832.0</ele>
        <time>2022-07-31T17:13:16Z</time>
      </trkpt>
      <trkpt lat="40.6857800" lon="-3.3903310">
        <ele>831.9</ele>
        <time>2022-07-31T17:13:17Z</time>
      </trkpt>
      <trkpt lat="40.6858280" lon="-3.3903020">
        <ele>831.9</ele>
        <time>2022-07-31T17:13:18Z</time>
      </trkpt>
      <trkpt lat="40.6858680" lon="-3.3902740">
        <ele>831.9</ele>
        <time>2022-07-31T17:13:19Z</time>
      </trkpt>
      <trkpt lat="40.6859100" lon="-3.3902400">
        <ele>831.9</ele>
        <time>2022-07-31T17:13:20Z</time>
      </trkpt>
      <trkpt lat="40.6859530" lon="-3.3902150">
        <ele>831.9</ele>
        <time>2022-07-31T17:13:21Z</time>
      </trkpt>
      <trkpt lat="40.6859980" lon="-3.3901840">
        <ele>831.8</ele>
        <time>2022-07-31T17:13:22Z</time>
      </trkpt>
      <trkpt lat="40.6860420" lon="-3.3901510">
        <ele>831.8</ele>
        <time>2022-07-31T17:13:23Z</time>
      </trkpt>
      <trkpt lat="40.6860840" lon="-3.3901260">
        <ele>831.8</ele>
        <time>2022-07-31T17:13:24Z</time>
      </trkpt>
      <trkpt lat="40.6861260" lon="-3.3901010">
        <ele>831.8</ele>
        <time>2022-07-31T17:13:25Z</time>
      </trkpt>
      <trkpt lat="40.6861690" lon="-3.3900830">
        <ele>831.8</ele>
        <time>2022-07-31T17:13:26Z</time>
      </trkpt>
      <trkpt lat="40.6862140" lon="-3.3900570">
        <ele>831.8</ele>
        <time>2022-07-31T17:13:27Z</time>
      </trkpt>
      <trkpt lat="40.6862600" lon="-3.3900270">
        <ele>831.8</ele>
        <time>2022-07-31T17:13:28Z</time>
      </trkpt>
      <trkpt lat="40.6863000" lon="-3.3899950">
        <ele>831.8</ele>
        <time>2022-07-31T17:13:29Z</time>
      </trkpt>
      <trkpt lat="40.6863410" lon="-3.3899580">
        <ele>831.8</ele>
        <time>2022-07-31T17:13:30Z</time>
      </trkpt>
      <trkpt lat="40.6863840" lon="-3.3899280">
        <ele>831.8</ele>
        <time>2022-07-31T17:13:31Z</time>
      </trkpt>
      <trkpt lat="40.6864250" lon="-3.3899010">
        <ele>831.9</ele>
        <time>2022-07-31T17:13:32Z</time>
      </trkpt>
      <trkpt lat="40.6864740" lon="-3.3898740">
        <ele>831.9</ele>
        <time>2022-07-31T17:13:33Z</time>
      </trkpt>
      <trkpt lat="40.6865100" lon="-3.3898560">
        <ele>831.9</ele>
        <time>2022-07-31T17:13:34Z</time>
      </trkpt>
      <trkpt lat="40.6865510" lon="-3.3898320">
        <ele>831.9</ele>
        <time>2022-07-31T17:13:35Z</time>
      </trkpt>
      <trkpt lat="40.6865980" lon="-3.3898030">
        <ele>832.0</ele>
        <time>2022-07-31T17:13:36Z</time>
      </trkpt>
      <trkpt lat="40.6866410" lon="-3.3897840">
        <ele>832.0</ele>
        <time>2022-07-31T17:13:37Z</time>
      </trkpt>
      <trkpt lat="40.6866870" lon="-3.3897620">
        <ele>832.0</ele>
        <time>2022-07-31T17:13:38Z</time>
      </trkpt>
      <trkpt lat="40.6867350" lon="-3.3897380">
        <ele>832.0</ele>
        <time>2022-07-31T17:13:39Z</time>
      </trkpt>
      <trkpt lat="40.6867770" lon="-3.3897170">
        <ele>832.1</ele>
        <time>2022-07-31T17:13:40Z</time>
      </trkpt>
      <trkpt lat="40.6868270" lon="-3.3896930">
        <ele>832.1</ele>
        <time>2022-07-31T17:13:41Z</time>
      </trkpt>
      <trkpt lat="40.6868670" lon="-3.3896730">
        <ele>832.1</ele>
        <time>2022-07-31T17:13:42Z</time>
      </trkpt>
      <trkpt lat="40.6869100" lon="-3.3896550">
        <ele>832.1</ele>
        <time>2022-07-31T17:13:43Z</time>
      </trkpt>
      <trkpt lat="40.6869570" lon="-3.3896270">
        <ele>832.2</ele>
        <time>2022-07-31T17:13:44Z</time>
      </trkpt>
      <trkpt lat="40.6869930" lon="-3.3896100">
        <ele>832.2</ele>
        <time>2022-07-31T17:13:45Z</time>
      </trkpt>
      <trkpt lat="40.6870370" lon="-3.3895920">
        <ele>832.2</ele>
        <time>2022-07-31T17:13:46Z</time>
      </trkpt>
      <trkpt lat="40.6870810" lon="-3.3895670">
        <ele>832.3</ele>
        <time>2022-07-31T17:13:47Z</time>
      </trkpt>
      <trkpt lat="40.6871300" lon="-3.3895360">
        <ele>832.3</ele>
        <time>2022-07-31T17:13:48Z</time>
      </trkpt>
      <trkpt lat="40.6871790" lon="-3.3895010">
        <ele>832.4</ele>
        <time>2022-07-31T17:13:49Z</time>
      </trkpt>
      <trkpt lat="40.6872300" lon="-3.3894670">
        <ele>832.3</ele>
        <time>2022-07-31T17:13:50Z</time>
      </trkpt>
      <trkpt lat="40.6872720" lon="-3.3894390">
        <ele>832.3</ele>
        <time>2022-07-31T17:13:51Z</time>
      </trkpt>
      <trkpt lat="40.6873090" lon="-3.3894120">
        <ele>832.3</ele>
        <time>2022-07-31T17:13:52Z</time>
      </trkpt>
      <trkpt lat="40.6873540" lon="-3.3893910">
        <ele>832.3</ele>
        <time>2022-07-31T17:13:53Z</time>
      </trkpt>
      <trkpt lat="40.6873890" lon="-3.3893590">
        <ele>832.3</ele>
        <time>2022-07-31T17:13:54Z</time>
      </trkpt>
      <trkpt lat="40.6874020" lon="-3.3893250">
        <ele>832.3</ele>
        <time>2022-07-31T17:13:55Z</time>
      </trkpt>
      <trkpt lat="40.6873960" lon="-3.3892900">
        <ele>832.3</ele>
        <time>2022-07-31T17:13:56Z</time>
      </trkpt>
      <trkpt lat="40.6873890" lon="-3.3892790">
        <ele>832.3</ele>
        <time>2022-07-31T17:13:57Z</time>
      </trkpt>
      <trkpt lat="40.6873840" lon="-3.3892700">
        <ele>832.3</ele>
        <time>2022-07-31T17:13:58Z</time>
      </trkpt>
      <trkpt lat="40.6873790" lon="-3.3892600">
        <ele>832.3</ele>
        <time>2022-07-31T17:13:59Z</time>
      </trkpt>
      <trkpt lat="40.6873860" lon="-3.3892620">
        <ele>832.3</ele>
        <time>2022-07-31T17:14:00Z</time>
      </trkpt>
      <trkpt lat="40.6873900" lon="-3.3892710">
        <ele>832.3</ele>
        <time>2022-07-31T17:14:01Z</time>
      </trkpt>
      <trkpt lat="40.6873900" lon="-3.3892690">
        <ele>832.3</ele>
        <time>2022-07-31T17:14:02Z</time>
      </trkpt>
      <trkpt lat="40.6873900" lon="-3.3892660">
        <ele>832.3</ele>
        <time>2022-07-31T17:14:03Z</time>
      </trkpt>
      <trkpt lat="40.6873870" lon="-3.3892640">
        <ele>832.3</ele>
        <time>2022-07-31T17:14:04Z</time>
      </trkpt>
      <trkpt lat="40.6873880" lon="-3.3892670">
        <ele>832.3</ele>
        <time>2022-07-31T17:14:05Z</time>
      </trkpt>
      <trkpt lat="40.6873860" lon="-3.3892720">
        <ele>832.3</ele>
        <time>2022-07-31T17:14:06Z</time>
      </trkpt>
      <trkpt lat="40.6873870" lon="-3.3892720">
        <ele>832.3</ele>
        <time>2022-07-31T17:14:07Z</time>
      </trkpt>
      <trkpt lat="40.6873870" lon="-3.3892730">
        <ele>832.3</ele>
        <time>2022-07-31T17:14:08Z</time>
      </trkpt>
      <trkpt lat="40.6873870" lon="-3.3892720">
        <ele>832.3</ele>
        <time>2022-07-31T17:14:09Z</time>
      </trkpt>
      <trkpt lat="40.6873880" lon="-3.3892720">
        <ele>832.3</ele>
        <time>2022-07-31T17:14:10Z</time>
      </trkpt>
      <trkpt lat="40.6873890" lon="-3.3892720">
        <ele>832.3</ele>
        <time>2022-07-31T17:14:11Z</time>
      </trkpt>
      <trkpt lat="40.6873650" lon="-3.3892380">
        <ele>832.3</ele>
        <time>2022-07-31T17:14:18Z</time>
      </trkpt>
      <trkpt lat="40.6873490" lon="-3.3892060">
        <ele>832.3</ele>
        <time>2022-07-31T17:14:19Z</time>
      </trkpt>
      <trkpt lat="40.6873210" lon="-3.3891840">
        <ele>832.3</ele>
        <time>2022-07-31T17:14:20Z</time>
      </trkpt>
      <trkpt lat="40.6872830" lon="-3.3891500">
        <ele>832.3</ele>
        <time>2022-07-31T17:14:21Z</time>
      </trkpt>
      <trkpt lat="40.6872480" lon="-3.3891160">
        <ele>832.3</ele>
        <time>2022-07-31T17:14:22Z</time>
      </trkpt>
      <trkpt lat="40.6872150" lon="-3.3890750">
        <ele>832.3</ele>
        <time>2022-07-31T17:14:23Z</time>
      </trkpt>
      <trkpt lat="40.6871800" lon="-3.3890370">
        <ele>832.3</ele>
        <time>2022-07-31T17:14:24Z</time>
      </trkpt>
      <trkpt lat="40.6871500" lon="-3.3889910">
        <ele>832.3</ele>
        <time>2022-07-31T17:14:25Z</time>
      </trkpt>
      <trkpt lat="40.6871270" lon="-3.3889490">
        <ele>832.3</ele>
        <time>2022-07-31T17:14:26Z</time>
      </trkpt>
      <trkpt lat="40.6870970" lon="-3.3888910">
        <ele>832.4</ele>
        <time>2022-07-31T17:14:27Z</time>
      </trkpt>
      <trkpt lat="40.6870640" lon="-3.3888510">
        <ele>832.4</ele>
        <time>2022-07-31T17:14:28Z</time>
      </trkpt>
      <trkpt lat="40.6870330" lon="-3.3888100">
        <ele>832.4</ele>
        <time>2022-07-31T17:14:29Z</time>
      </trkpt>
      <trkpt lat="40.6870040" lon="-3.3887590">
        <ele>832.4</ele>
        <time>2022-07-31T17:14:30Z</time>
      </trkpt>
      <trkpt lat="40.6869720" lon="-3.3887070">
        <ele>832.4</ele>
        <time>2022-07-31T17:14:31Z</time>
      </trkpt>
      <trkpt lat="40.6869420" lon="-3.3886540">
        <ele>832.4</ele>
        <time>2022-07-31T17:14:32Z</time>
      </trkpt>
      <trkpt lat="40.6869100" lon="-3.3886030">
        <ele>832.4</ele>
        <time>2022-07-31T17:14:33Z</time>
      </trkpt>
      <trkpt lat="40.6868800" lon="-3.3885510">
        <ele>832.4</ele>
        <time>2022-07-31T17:14:34Z</time>
      </trkpt>
      <trkpt lat="40.6868560" lon="-3.3884970">
        <ele>832.4</ele>
        <time>2022-07-31T17:14:35Z</time>
      </trkpt>
      <trkpt lat="40.6868230" lon="-3.3884350">
        <ele>832.4</ele>
        <time>2022-07-31T17:14:36Z</time>
      </trkpt>
      <trkpt lat="40.6867970" lon="-3.3883730">
        <ele>832.4</ele>
        <time>2022-07-31T17:14:37Z</time>
      </trkpt>
      <trkpt lat="40.6867680" lon="-3.3883110">
        <ele>832.4</ele>
        <time>2022-07-31T17:14:38Z</time>
      </trkpt>
      <trkpt lat="40.6867460" lon="-3.3882550">
        <ele>832.4</ele>
        <time>2022-07-31T17:14:39Z</time>
      </trkpt>
      <trkpt lat="40.6867140" lon="-3.3882000">
        <ele>832.4</ele>
        <time>2022-07-31T17:14:40Z</time>
      </trkpt>
      <trkpt lat="40.6866840" lon="-3.3881380">
        <ele>832.4</ele>
        <time>2022-07-31T17:14:41Z</time>
      </trkpt>
      <trkpt lat="40.6866460" lon="-3.3880780">
        <ele>832.3</ele>
        <time>2022-07-31T17:14:42Z</time>
      </trkpt>
      <trkpt lat="40.6866130" lon="-3.3880180">
        <ele>832.3</ele>
        <time>2022-07-31T17:14:43Z</time>
      </trkpt>
      <trkpt lat="40.6865810" lon="-3.3879550">
        <ele>832.3</ele>
        <time>2022-07-31T17:14:44Z</time>
      </trkpt>
      <trkpt lat="40.6865510" lon="-3.3878870">
        <ele>832.3</ele>
        <time>2022-07-31T17:14:45Z</time>
      </trkpt>
      <trkpt lat="40.6865210" lon="-3.3878300">
        <ele>832.2</ele>
        <time>2022-07-31T17:14:46Z</time>
      </trkpt>
      <trkpt lat="40.6864880" lon="-3.3877710">
        <ele>832.2</ele>
        <time>2022-07-31T17:14:47Z</time>
      </trkpt>
      <trkpt lat="40.6864550" lon="-3.3877080">
        <ele>832.2</ele>
        <time>2022-07-31T17:14:48Z</time>
      </trkpt>
      <trkpt lat="40.6864170" lon="-3.3876510">
        <ele>832.1</ele>
        <time>2022-07-31T17:14:49Z</time>
      </trkpt>
      <trkpt lat="40.6863800" lon="-3.3875920">
        <ele>832.1</ele>
        <time>2022-07-31T17:14:50Z</time>
      </trkpt>
      <trkpt lat="40.6863450" lon="-3.3875210">
        <ele>832.1</ele>
        <time>2022-07-31T17:14:51Z</time>
      </trkpt>
      <trkpt lat="40.6863090" lon="-3.3874520">
        <ele>832.0</ele>
        <time>2022-07-31T17:14:52Z</time>
      </trkpt>
      <trkpt lat="40.6862770" lon="-3.3873830">
        <ele>832.0</ele>
        <time>2022-07-31T17:14:53Z</time>
      </trkpt>
      <trkpt lat="40.6862400" lon="-3.3873140">
        <ele>831.9</ele>
        <time>2022-07-31T17:14:54Z</time>
      </trkpt>
      <trkpt lat="40.6862030" lon="-3.3872380">
        <ele>831.8</ele>
        <time>2022-07-31T17:14:55Z</time>
      </trkpt>
      <trkpt lat="40.6861670" lon="-3.3871720">
        <ele>831.8</ele>
        <time>2022-07-31T17:14:56Z</time>
      </trkpt>
      <trkpt lat="40.6861270" lon="-3.3871080">
        <ele>831.7</ele>
        <time>2022-07-31T17:14:57Z</time>
      </trkpt>
      <trkpt lat="40.6860930" lon="-3.3870440">
        <ele>831.6</ele>
        <time>2022-07-31T17:14:58Z</time>
      </trkpt>
      <trkpt lat="40.6860470" lon="-3.3869740">
        <ele>831.4</ele>
        <time>2022-07-31T17:14:59Z</time>
      </trkpt>
      <trkpt lat="40.6859980" lon="-3.3869180">
        <ele>831.3</ele>
        <time>2022-07-31T17:15:00Z</time>
      </trkpt>
      <trkpt lat="40.6859460" lon="-3.3868620">
        <ele>831.1</ele>
        <time>2022-07-31T17:15:01Z</time>
      </trkpt>
      <trkpt lat="40.6858970" lon="-3.3868100">
        <ele>830.8</ele>
        <time>2022-07-31T17:15:02Z</time>
      </trkpt>
      <trkpt lat="40.6858400" lon="-3.3867600">
        <ele>830.5</ele>
        <time>2022-07-31T17:15:03Z</time>
      </trkpt>
      <trkpt lat="40.6857730" lon="-3.3867010">
        <ele>830.1</ele>
        <time>2022-07-31T17:15:04Z</time>
      </trkpt>
      <trkpt lat="40.6857100" lon="-3.3866580">
        <ele>829.7</ele>
        <time>2022-07-31T17:15:05Z</time>
      </trkpt>
      <trkpt lat="40.6856480" lon="-3.3866260">
        <ele>829.3</ele>
        <time>2022-07-31T17:15:06Z</time>
      </trkpt>
      <trkpt lat="40.6855790" lon="-3.3865880">
        <ele>828.8</ele>
        <time>2022-07-31T17:15:07Z</time>
      </trkpt>
      <trkpt lat="40.6855090" lon="-3.3865540">
        <ele>828.3</ele>
        <time>2022-07-31T17:15:08Z</time>
      </trkpt>
      <trkpt lat="40.6854330" lon="-3.3865170">
        <ele>827.7</ele>
        <time>2022-07-31T17:15:09Z</time>
      </trkpt>
      <trkpt lat="40.6853550" lon="-3.3864740">
        <ele>827.1</ele>
        <time>2022-07-31T17:15:10Z</time>
      </trkpt>
      <trkpt lat="40.6852730" lon="-3.3864310">
        <ele>826.5</ele>
        <time>2022-07-31T17:15:11Z</time>
      </trkpt>
      <trkpt lat="40.6851960" lon="-3.3863890">
        <ele>825.9</ele>
        <time>2022-07-31T17:15:12Z</time>
      </trkpt>
      <trkpt lat="40.6851170" lon="-3.3863530">
        <ele>825.3</ele>
        <time>2022-07-31T17:15:13Z</time>
      </trkpt>
      <trkpt lat="40.6850340" lon="-3.3863060">
        <ele>824.6</ele>
        <time>2022-07-31T17:15:14Z</time>
      </trkpt>
      <trkpt lat="40.6849430" lon="-3.3862620">
        <ele>823.9</ele>
        <time>2022-07-31T17:15:15Z</time>
      </trkpt>
      <trkpt lat="40.6848490" lon="-3.3862170">
        <ele>823.2</ele>
        <time>2022-07-31T17:15:16Z</time>
      </trkpt>
      <trkpt lat="40.6847560" lon="-3.3861720">
        <ele>822.5</ele>
        <time>2022-07-31T17:15:17Z</time>
      </trkpt>
      <trkpt lat="40.6846630" lon="-3.3861220">
        <ele>821.8</ele>
        <time>2022-07-31T17:15:18Z</time>
      </trkpt>
      <trkpt lat="40.6845700" lon="-3.3860720">
        <ele>821.1</ele>
        <time>2022-07-31T17:15:19Z</time>
      </trkpt>
      <trkpt lat="40.6844760" lon="-3.3860240">
        <ele>820.4</ele>
        <time>2022-07-31T17:15:20Z</time>
      </trkpt>
      <trkpt lat="40.6843810" lon="-3.3859740">
        <ele>819.7</ele>
        <time>2022-07-31T17:15:21Z</time>
      </trkpt>
      <trkpt lat="40.6842850" lon="-3.3859250">
        <ele>819.0</ele>
        <time>2022-07-31T17:15:22Z</time>
      </trkpt>
      <trkpt lat="40.6841870" lon="-3.3858750">
        <ele>818.3</ele>
        <time>2022-07-31T17:15:23Z</time>
      </trkpt>
      <trkpt lat="40.6840920" lon="-3.3858170">
        <ele>817.6</ele>
        <time>2022-07-31T17:15:24Z</time>
      </trkpt>
      <trkpt lat="40.6840040" lon="-3.3857440">
        <ele>816.9</ele>
        <time>2022-07-31T17:15:25Z</time>
      </trkpt>
      <trkpt lat="40.6839320" lon="-3.3856450">
        <ele>816.2</ele>
        <time>2022-07-31T17:15:26Z</time>
      </trkpt>
      <trkpt lat="40.6838710" lon="-3.3855310">
        <ele>815.5</ele>
        <time>2022-07-31T17:15:27Z</time>
      </trkpt>
      <trkpt lat="40.6838170" lon="-3.3854090">
        <ele>814.9</ele>
        <time>2022-07-31T17:15:28Z</time>
      </trkpt>
      <trkpt lat="40.6837740" lon="-3.3852780">
        <ele>814.1</ele>
        <time>2022-07-31T17:15:29Z</time>
      </trkpt>
      <trkpt lat="40.6837430" lon="-3.3851400">
        <ele>813.4</ele>
        <time>2022-07-31T17:15:30Z</time>
      </trkpt>
      <trkpt lat="40.6837150" lon="-3.3849960">
        <ele>812.7</ele>
        <time>2022-07-31T17:15:31Z</time>
      </trkpt>
      <trkpt lat="40.6836840" lon="-3.3848520">
        <ele>811.9</ele>
        <time>2022-07-31T17:15:32Z</time>
      </trkpt>
      <trkpt lat="40.6836480" lon="-3.3847060">
        <ele>811.0</ele>
        <time>2022-07-31T17:15:33Z</time>
      </trkpt>
      <trkpt lat="40.6836160" lon="-3.3845560">
        <ele>810.2</ele>
        <time>2022-07-31T17:15:34Z</time>
      </trkpt>
      <trkpt lat="40.6835850" lon="-3.3844050">
        <ele>809.3</ele>
        <time>2022-07-31T17:15:35Z</time>
      </trkpt>
      <trkpt lat="40.6835540" lon="-3.3842540">
        <ele>808.4</ele>
        <time>2022-07-31T17:15:36Z</time>
      </trkpt>
      <trkpt lat="40.6835240" lon="-3.3841070">
        <ele>807.5</ele>
        <time>2022-07-31T17:15:37Z</time>
      </trkpt>
      <trkpt lat="40.6834960" lon="-3.3839640">
        <ele>806.9</ele>
        <time>2022-07-31T17:15:38Z</time>
      </trkpt>
      <trkpt lat="40.6834790" lon="-3.3838240">
        <ele>806.8</ele>
        <time>2022-07-31T17:15:39Z</time>
      </trkpt>
      <trkpt lat="40.6834890" lon="-3.3836880">
        <ele>806.4</ele>
        <time>2022-07-31T17:15:40Z</time>
      </trkpt>
      <trkpt lat="40.6835100" lon="-3.3835580">
        <ele>805.9</ele>
        <time>2022-07-31T17:15:41Z</time>
      </trkpt>
      <trkpt lat="40.6835370" lon="-3.3834330">
        <ele>805.5</ele>
        <time>2022-07-31T17:15:42Z</time>
      </trkpt>
      <trkpt lat="40.6835610" lon="-3.3833170">
        <ele>805.1</ele>
        <time>2022-07-31T17:15:43Z</time>
      </trkpt>
      <trkpt lat="40.6835780" lon="-3.3832140">
        <ele>804.7</ele>
        <time>2022-07-31T17:15:44Z</time>
      </trkpt>
      <trkpt lat="40.6835900" lon="-3.3831140">
        <ele>804.2</ele>
        <time>2022-07-31T17:15:45Z</time>
      </trkpt>
      <trkpt lat="40.6835880" lon="-3.3830180">
        <ele>803.9</ele>
        <time>2022-07-31T17:15:46Z</time>
      </trkpt>
      <trkpt lat="40.6835790" lon="-3.3829240">
        <ele>804.2</ele>
        <time>2022-07-31T17:15:47Z</time>
      </trkpt>
      <trkpt lat="40.6835730" lon="-3.3828350">
        <ele>803.2</ele>
        <time>2022-07-31T17:15:48Z</time>
      </trkpt>
      <trkpt lat="40.6835760" lon="-3.3827580">
        <ele>802.3</ele>
        <time>2022-07-31T17:15:49Z</time>
      </trkpt>
      <trkpt lat="40.6835900" lon="-3.3826940">
        <ele>801.5</ele>
        <time>2022-07-31T17:15:50Z</time>
      </trkpt>
      <trkpt lat="40.6836180" lon="-3.3826550">
        <ele>800.9</ele>
        <time>2022-07-31T17:15:51Z</time>
      </trkpt>
      <trkpt lat="40.6836430" lon="-3.3826280">
        <ele>800.8</ele>
        <time>2022-07-31T17:15:52Z</time>
      </trkpt>
      <trkpt lat="40.6836680" lon="-3.3825960">
        <ele>800.7</ele>
        <time>2022-07-31T17:15:53Z</time>
      </trkpt>
      <trkpt lat="40.6836760" lon="-3.3825870">
        <ele>800.7</ele>
        <time>2022-07-31T17:15:54Z</time>
      </trkpt>
      <trkpt lat="40.6836910" lon="-3.3825790">
        <ele>800.7</ele>
        <time>2022-07-31T17:15:55Z</time>
      </trkpt>
      <trkpt lat="40.6836980" lon="-3.3825680">
        <ele>800.7</ele>
        <time>2022-07-31T17:15:56Z</time>
      </trkpt>
      <trkpt lat="40.6837010" lon="-3.3825610">
        <ele>800.6</ele>
        <time>2022-07-31T17:15:57Z</time>
      </trkpt>
      <trkpt lat="40.6837130" lon="-3.3825500">
        <ele>800.6</ele>
        <time>2022-07-31T17:15:58Z</time>
      </trkpt>
      <trkpt lat="40.6837240" lon="-3.3825440">
        <ele>800.6</ele>
        <time>2022-07-31T17:15:59Z</time>
      </trkpt>
      <trkpt lat="40.6837350" lon="-3.3825380">
        <ele>800.6</ele>
        <time>2022-07-31T17:16:00Z</time>
      </trkpt>
      <trkpt lat="40.6837470" lon="-3.3825330">
        <ele>800.5</ele>
        <time>2022-07-31T17:16:01Z</time>
      </trkpt>
      <trkpt lat="40.6837830" lon="-3.3825290">
        <ele>800.5</ele>
        <time>2022-07-31T17:16:02Z</time>
      </trkpt>
      <trkpt lat="40.6838240" lon="-3.3825570">
        <ele>800.5</ele>
        <time>2022-07-31T17:16:03Z</time>
      </trkpt>
      <trkpt lat="40.6838620" lon="-3.3825860">
        <ele>800.5</ele>
        <time>2022-07-31T17:16:04Z</time>
      </trkpt>
      <trkpt lat="40.6838810" lon="-3.3826390">
        <ele>800.4</ele>
        <time>2022-07-31T17:16:05Z</time>
      </trkpt>
      <trkpt lat="40.6838960" lon="-3.3826910">
        <ele>800.4</ele>
        <time>2022-07-31T17:16:06Z</time>
      </trkpt>
      <trkpt lat="40.6839110" lon="-3.3827410">
        <ele>800.5</ele>
        <time>2022-07-31T17:16:07Z</time>
      </trkpt>
      <trkpt lat="40.6839260" lon="-3.3827890">
        <ele>800.5</ele>
        <time>2022-07-31T17:16:08Z</time>
      </trkpt>
      <trkpt lat="40.6839380" lon="-3.3828410">
        <ele>800.6</ele>
        <time>2022-07-31T17:16:09Z</time>
      </trkpt>
      <trkpt lat="40.6839590" lon="-3.3828900">
        <ele>800.6</ele>
        <time>2022-07-31T17:16:10Z</time>
      </trkpt>
      <trkpt lat="40.6839680" lon="-3.3829410">
        <ele>800.6</ele>
        <time>2022-07-31T17:16:11Z</time>
      </trkpt>
      <trkpt lat="40.6839770" lon="-3.3829920">
        <ele>800.6</ele>
        <time>2022-07-31T17:16:12Z</time>
      </trkpt>
      <trkpt lat="40.6839980" lon="-3.3830410">
        <ele>800.6</ele>
        <time>2022-07-31T17:16:13Z</time>
      </trkpt>
      <trkpt lat="40.6840230" lon="-3.3830930">
        <ele>800.5</ele>
        <time>2022-07-31T17:16:14Z</time>
      </trkpt>
      <trkpt lat="40.6840630" lon="-3.3831450">
        <ele>800.5</ele>
        <time>2022-07-31T17:16:15Z</time>
      </trkpt>
      <trkpt lat="40.6841030" lon="-3.3831830">
        <ele>800.4</ele>
        <time>2022-07-31T17:16:16Z</time>
      </trkpt>
      <trkpt lat="40.6841590" lon="-3.3832070">
        <ele>799.7</ele>
        <time>2022-07-31T17:16:17Z</time>
      </trkpt>
      <trkpt lat="40.6842330" lon="-3.3832140">
        <ele>798.9</ele>
        <time>2022-07-31T17:16:18Z</time>
      </trkpt>
      <trkpt lat="40.6843190" lon="-3.3832140">
        <ele>798.0</ele>
        <time>2022-07-31T17:16:19Z</time>
      </trkpt>
      <trkpt lat="40.6844300" lon="-3.3832050">
        <ele>796.9</ele>
        <time>2022-07-31T17:16:20Z</time>
      </trkpt>
      <trkpt lat="40.6845230" lon="-3.3831950">
        <ele>796.1</ele>
        <time>2022-07-31T17:16:21Z</time>
      </trkpt>
      <trkpt lat="40.6846240" lon="-3.3831770">
        <ele>795.3</ele>
        <time>2022-07-31T17:16:22Z</time>
      </trkpt>
      <trkpt lat="40.6847210" lon="-3.3831520">
        <ele>794.5</ele>
        <time>2022-07-31T17:16:23Z</time>
      </trkpt>
      <trkpt lat="40.6848340" lon="-3.3831220">
        <ele>793.5</ele>
        <time>2022-07-31T17:16:24Z</time>
      </trkpt>
      <trkpt lat="40.6849590" lon="-3.3830890">
        <ele>792.4</ele>
        <time>2022-07-31T17:16:25Z</time>
      </trkpt>
      <trkpt lat="40.6850740" lon="-3.3830560">
        <ele>791.3</ele>
        <time>2022-07-31T17:16:26Z</time>
      </trkpt>
      <trkpt lat="40.6851900" lon="-3.3830340">
        <ele>790.2</ele>
        <time>2022-07-31T17:16:27Z</time>
      </trkpt>
      <trkpt lat="40.6852990" lon="-3.3830080">
        <ele>789.2</ele>
        <time>2022-07-31T17:16:28Z</time>
      </trkpt>
      <trkpt lat="40.6854140" lon="-3.3829780">
        <ele>788.1</ele>
        <time>2022-07-31T17:16:29Z</time>
      </trkpt>
      <trkpt lat="40.6855270" lon="-3.3829430">
        <ele>787.0</ele>
        <time>2022-07-31T17:16:30Z</time>
      </trkpt>
      <trkpt lat="40.6856470" lon="-3.3829080">
        <ele>785.8</ele>
        <time>2022-07-31T17:16:31Z</time>
      </trkpt>
      <trkpt lat="40.6857660" lon="-3.3828740">
        <ele>784.7</ele>
        <time>2022-07-31T17:16:32Z</time>
      </trkpt>
      <trkpt lat="40.6858850" lon="-3.3828300">
        <ele>783.6</ele>
        <time>2022-07-31T17:16:33Z</time>
      </trkpt>
      <trkpt lat="40.6860080" lon="-3.3827780">
        <ele>782.7</ele>
        <time>2022-07-31T17:16:34Z</time>
      </trkpt>
      <trkpt lat="40.6861310" lon="-3.3827160">
        <ele>782.1</ele>
        <time>2022-07-31T17:16:35Z</time>
      </trkpt>
      <trkpt lat="40.6862480" lon="-3.3826460">
        <ele>781.6</ele>
        <time>2022-07-31T17:16:36Z</time>
      </trkpt>
      <trkpt lat="40.6863590" lon="-3.3825680">
        <ele>781.3</ele>
        <time>2022-07-31T17:16:37Z</time>
      </trkpt>
      <trkpt lat="40.6864670" lon="-3.3824920">
        <ele>781.0</ele>
        <time>2022-07-31T17:16:38Z</time>
      </trkpt>
      <trkpt lat="40.6865710" lon="-3.3824180">
        <ele>780.7</ele>
        <time>2022-07-31T17:16:39Z</time>
      </trkpt>
      <trkpt lat="40.6866680" lon="-3.3823380">
        <ele>780.3</ele>
        <time>2022-07-31T17:16:40Z</time>
      </trkpt>
      <trkpt lat="40.6867650" lon="-3.3822670">
        <ele>779.7</ele>
        <time>2022-07-31T17:16:41Z</time>
      </trkpt>
      <trkpt lat="40.6868610" lon="-3.3821990">
        <ele>778.9</ele>
        <time>2022-07-31T17:16:42Z</time>
      </trkpt>
      <trkpt lat="40.6869600" lon="-3.3821320">
        <ele>777.9</ele>
        <time>2022-07-31T17:16:43Z</time>
      </trkpt>
      <trkpt lat="40.6870570" lon="-3.3820530">
        <ele>776.6</ele>
        <time>2022-07-31T17:16:44Z</time>
      </trkpt>
      <trkpt lat="40.6871570" lon="-3.3819740">
        <ele>775.1</ele>
        <time>2022-07-31T17:16:45Z</time>
      </trkpt>
      <trkpt lat="40.6872590" lon="-3.3818900">
        <ele>773.5</ele>
        <time>2022-07-31T17:16:46Z</time>
      </trkpt>
      <trkpt lat="40.6873650" lon="-3.3818020">
        <ele>771.7</ele>
        <time>2022-07-31T17:16:47Z</time>
      </trkpt>
      <trkpt lat="40.6874770" lon="-3.3817130">
        <ele>769.8</ele>
        <time>2022-07-31T17:16:48Z</time>
      </trkpt>
      <trkpt lat="40.6875960" lon="-3.3816220">
        <ele>767.8</ele>
        <time>2022-07-31T17:16:49Z</time>
      </trkpt>
      <trkpt lat="40.6877180" lon="-3.3815220">
        <ele>765.7</ele>
        <time>2022-07-31T17:16:50Z</time>
      </trkpt>
      <trkpt lat="40.6878400" lon="-3.3814180">
        <ele>763.6</ele>
        <time>2022-07-31T17:16:51Z</time>
      </trkpt>
      <trkpt lat="40.6879670" lon="-3.3813130">
        <ele>761.7</ele>
        <time>2022-07-31T17:16:52Z</time>
      </trkpt>
      <trkpt lat="40.6880900" lon="-3.3811990">
        <ele>760.2</ele>
        <time>2022-07-31T17:16:53Z</time>
      </trkpt>
      <trkpt lat="40.6882100" lon="-3.3810780">
        <ele>759.1</ele>
        <time>2022-07-31T17:16:54Z</time>
      </trkpt>
      <trkpt lat="40.6883300" lon="-3.3809550">
        <ele>758.4</ele>
        <time>2022-07-31T17:16:55Z</time>
      </trkpt>
      <trkpt lat="40.6884180" lon="-3.3807880">
        <ele>757.9</ele>
        <time>2022-07-31T17:16:56Z</time>
      </trkpt>
      <trkpt lat="40.6885240" lon="-3.3806770">
        <ele>757.5</ele>
        <time>2022-07-31T17:16:57Z</time>
      </trkpt>
      <trkpt lat="40.6886170" lon="-3.3805410">
        <ele>757.2</ele>
        <time>2022-07-31T17:16:58Z</time>
      </trkpt>
      <trkpt lat="40.6886740" lon="-3.3803860">
        <ele>756.8</ele>
        <time>2022-07-31T17:16:59Z</time>
      </trkpt>
      <trkpt lat="40.6887120" lon="-3.3802340">
        <ele>756.3</ele>
        <time>2022-07-31T17:17:00Z</time>
      </trkpt>
      <trkpt lat="40.6887740" lon="-3.3800890">
        <ele>755.9</ele>
        <time>2022-07-31T17:17:01Z</time>
      </trkpt>
      <trkpt lat="40.6888530" lon="-3.3799600">
        <ele>755.4</ele>
        <time>2022-07-31T17:17:02Z</time>
      </trkpt>
      <trkpt lat="40.6889520" lon="-3.3798510">
        <ele>755.0</ele>
        <time>2022-07-31T17:17:03Z</time>
      </trkpt>
      <trkpt lat="40.6890390" lon="-3.3797290">
        <ele>754.5</ele>
        <time>2022-07-31T17:17:04Z</time>
      </trkpt>
      <trkpt lat="40.6891340" lon="-3.3796230">
        <ele>754.0</ele>
        <time>2022-07-31T17:17:05Z</time>
      </trkpt>
      <trkpt lat="40.6892160" lon="-3.3795050">
        <ele>753.4</ele>
        <time>2022-07-31T17:17:06Z</time>
      </trkpt>
      <trkpt lat="40.6892840" lon="-3.3793780">
        <ele>752.7</ele>
        <time>2022-07-31T17:17:07Z</time>
      </trkpt>
      <trkpt lat="40.6893810" lon="-3.3792780">
        <ele>752.0</ele>
        <time>2022-07-31T17:17:08Z</time>
      </trkpt>
      <trkpt lat="40.6894520" lon="-3.3791670">
        <ele>751.2</ele>
        <time>2022-07-31T17:17:09Z</time>
      </trkpt>
      <trkpt lat="40.6895330" lon="-3.3790570">
        <ele>750.4</ele>
        <time>2022-07-31T17:17:10Z</time>
      </trkpt>
      <trkpt lat="40.6895940" lon="-3.3789260">
        <ele>749.7</ele>
        <time>2022-07-31T17:17:11Z</time>
      </trkpt>
      <trkpt lat="40.6896770" lon="-3.3787910">
        <ele>748.9</ele>
        <time>2022-07-31T17:17:12Z</time>
      </trkpt>
      <trkpt lat="40.6897650" lon="-3.3786730">
        <ele>748.1</ele>
        <time>2022-07-31T17:17:13Z</time>
      </trkpt>
      <trkpt lat="40.6898300" lon="-3.3785470">
        <ele>747.3</ele>
        <time>2022-07-31T17:17:14Z</time>
      </trkpt>
      <trkpt lat="40.6898980" lon="-3.3784320">
        <ele>746.4</ele>
        <time>2022-07-31T17:17:15Z</time>
      </trkpt>
      <trkpt lat="40.6899660" lon="-3.3782930">
        <ele>745.3</ele>
        <time>2022-07-31T17:17:16Z</time>
      </trkpt>
      <trkpt lat="40.6899710" lon="-3.3781500">
        <ele>744.2</ele>
        <time>2022-07-31T17:17:17Z</time>
      </trkpt>
      <trkpt lat="40.6900120" lon="-3.3780110">
        <ele>742.9</ele>
        <time>2022-07-31T17:17:18Z</time>
      </trkpt>
      <trkpt lat="40.6900470" lon="-3.3778720">
        <ele>741.5</ele>
        <time>2022-07-31T17:17:19Z</time>
      </trkpt>
      <trkpt lat="40.6900870" lon="-3.3777220">
        <ele>740.1</ele>
        <time>2022-07-31T17:17:20Z</time>
      </trkpt>
      <trkpt lat="40.6901150" lon="-3.3775580">
        <ele>738.8</ele>
        <time>2022-07-31T17:17:21Z</time>
      </trkpt>
      <trkpt lat="40.6901560" lon="-3.3774020">
        <ele>737.9</ele>
        <time>2022-07-31T17:17:22Z</time>
      </trkpt>
      <trkpt lat="40.6902000" lon="-3.3772500">
        <ele>737.4</ele>
        <time>2022-07-31T17:17:23Z</time>
      </trkpt>
      <trkpt lat="40.6902550" lon="-3.3771070">
        <ele>737.5</ele>
        <time>2022-07-31T17:17:24Z</time>
      </trkpt>
      <trkpt lat="40.6903250" lon="-3.3769920">
        <ele>737.9</ele>
        <time>2022-07-31T17:17:25Z</time>
      </trkpt>
      <trkpt lat="40.6904030" lon="-3.3769130">
        <ele>738.3</ele>
        <time>2022-07-31T17:17:26Z</time>
      </trkpt>
      <trkpt lat="40.6904960" lon="-3.3768690">
        <ele>738.7</ele>
        <time>2022-07-31T17:17:27Z</time>
      </trkpt>
      <trkpt lat="40.6905800" lon="-3.3768350">
        <ele>739.1</ele>
        <time>2022-07-31T17:17:28Z</time>
      </trkpt>
      <trkpt lat="40.6906590" lon="-3.3767930">
        <ele>739.4</ele>
        <time>2022-07-31T17:17:29Z</time>
      </trkpt>
      <trkpt lat="40.6907440" lon="-3.3767510">
        <ele>739.8</ele>
        <time>2022-07-31T17:17:30Z</time>
      </trkpt>
      <trkpt lat="40.6908200" lon="-3.3767140">
        <ele>740.3</ele>
        <time>2022-07-31T17:17:31Z</time>
      </trkpt>
      <trkpt lat="40.6908910" lon="-3.3766450">
        <ele>740.8</ele>
        <time>2022-07-31T17:17:32Z</time>
      </trkpt>
      <trkpt lat="40.6909610" lon="-3.3766360">
        <ele>741.3</ele>
        <time>2022-07-31T17:17:33Z</time>
      </trkpt>
      <trkpt lat="40.6910180" lon="-3.3765820">
        <ele>742.3</ele>
        <time>2022-07-31T17:17:34Z</time>
      </trkpt>
      <trkpt lat="40.6910530" lon="-3.3765580">
        <ele>742.8</ele>
        <time>2022-07-31T17:17:35Z</time>
      </trkpt>
      <trkpt lat="40.6910840" lon="-3.3765430">
        <ele>743.3</ele>
        <time>2022-07-31T17:17:36Z</time>
      </trkpt>
      <trkpt lat="40.6911090" lon="-3.3764970">
        <ele>744.0</ele>
        <time>2022-07-31T17:17:37Z</time>
      </trkpt>
      <trkpt lat="40.6911380" lon="-3.3764750">
        <ele>744.5</ele>
        <time>2022-07-31T17:17:38Z</time>
      </trkpt>
      <trkpt lat="40.6911640" lon="-3.3764520">
        <ele>745.0</ele>
        <time>2022-07-31T17:17:39Z</time>
      </trkpt>
      <trkpt lat="40.6911800" lon="-3.3764430">
        <ele>745.2</ele>
        <time>2022-07-31T17:17:40Z</time>
      </trkpt>
      <trkpt lat="40.6911930" lon="-3.3764450">
        <ele>745.4</ele>
        <time>2022-07-31T17:17:41Z</time>
      </trkpt>
      <trkpt lat="40.6912200" lon="-3.3764230">
        <ele>745.9</ele>
        <time>2022-07-31T17:17:42Z</time>
      </trkpt>
      <trkpt lat="40.6912250" lon="-3.3764060">
        <ele>746.1</ele>
        <time>2022-07-31T17:17:43Z</time>
      </trkpt>
      <trkpt lat="40.6912840" lon="-3.3764360">
        <ele>747.0</ele>
        <time>2022-07-31T17:17:44Z</time>
      </trkpt>
      <trkpt lat="40.6913080" lon="-3.3763960">
        <ele>747.5</ele>
        <time>2022-07-31T17:17:45Z</time>
      </trkpt>
      <trkpt lat="40.6913160" lon="-3.3763820">
        <ele>747.6</ele>
        <time>2022-07-31T17:17:46Z</time>
      </trkpt>
      <trkpt lat="40.6913420" lon="-3.3763650">
        <ele>748.0</ele>
        <time>2022-07-31T17:17:47Z</time>
      </trkpt>
      <trkpt lat="40.6913530" lon="-3.3763600">
        <ele>748.1</ele>
        <time>2022-07-31T17:17:48Z</time>
      </trkpt>
      <trkpt lat="40.6913830" lon="-3.3763470">
        <ele>748.5</ele>
        <time>2022-07-31T17:17:49Z</time>
      </trkpt>
      <trkpt lat="40.6913960" lon="-3.3763310">
        <ele>748.7</ele>
        <time>2022-07-31T17:17:50Z</time>
      </trkpt>
      <trkpt lat="40.6914100" lon="-3.3763200">
        <ele>748.9</ele>
        <time>2022-07-31T17:17:51Z</time>
      </trkpt>
      <trkpt lat="40.6914230" lon="-3.3763160">
        <ele>749.1</ele>
        <time>2022-07-31T17:17:52Z</time>
      </trkpt>
      <trkpt lat="40.6914330" lon="-3.3762970">
        <ele>749.3</ele>
        <time>2022-07-31T17:17:53Z</time>
      </trkpt>
      <trkpt lat="40.6914540" lon="-3.3762730">
        <ele>749.6</ele>
        <time>2022-07-31T17:17:54Z</time>
      </trkpt>
      <trkpt lat="40.6914790" lon="-3.3762490">
        <ele>750.0</ele>
        <time>2022-07-31T17:17:55Z</time>
      </trkpt>
      <trkpt lat="40.6914910" lon="-3.3762430">
        <ele>750.1</ele>
        <time>2022-07-31T17:17:56Z</time>
      </trkpt>
      <trkpt lat="40.6915200" lon="-3.3762440">
        <ele>750.5</ele>
        <time>2022-07-31T17:17:57Z</time>
      </trkpt>
      <trkpt lat="40.6915550" lon="-3.3762200">
        <ele>750.9</ele>
        <time>2022-07-31T17:17:58Z</time>
      </trkpt>
      <trkpt lat="40.6915670" lon="-3.3762140">
        <ele>751.1</ele>
        <time>2022-07-31T17:17:59Z</time>
      </trkpt>
      <trkpt lat="40.6915650" lon="-3.3762220">
        <ele>751.1</ele>
        <time>2022-07-31T17:18:00Z</time>
      </trkpt>
      <trkpt lat="40.6915700" lon="-3.3762080">
        <ele>751.3</ele>
        <time>2022-07-31T17:18:01Z</time>
      </trkpt>
      <trkpt lat="40.6915880" lon="-3.3761900">
        <ele>751.5</ele>
        <time>2022-07-31T17:18:02Z</time>
      </trkpt>
      <trkpt lat="40.6916090" lon="-3.3761610">
        <ele>751.9</ele>
        <time>2022-07-31T17:18:03Z</time>
      </trkpt>
      <trkpt lat="40.6916100" lon="-3.3761450">
        <ele>752.3</ele>
        <time>2022-07-31T17:18:04Z</time>
      </trkpt>
      <trkpt lat="40.6916460" lon="-3.3761200">
        <ele>752.9</ele>
        <time>2022-07-31T17:18:05Z</time>
      </trkpt>
      <trkpt lat="40.6916620" lon="-3.3760900">
        <ele>753.4</ele>
        <time>2022-07-31T17:18:06Z</time>
      </trkpt>
      <trkpt lat="40.6916680" lon="-3.3760780">
        <ele>753.6</ele>
        <time>2022-07-31T17:18:07Z</time>
      </trkpt>
      <trkpt lat="40.6916820" lon="-3.3760420">
        <ele>754.1</ele>
        <time>2022-07-31T17:18:08Z</time>
      </trkpt>
      <trkpt lat="40.6916830" lon="-3.3760300">
        <ele>754.2</ele>
        <time>2022-07-31T17:18:09Z</time>
      </trkpt>
      <trkpt lat="40.6917080" lon="-3.3760060">
        <ele>754.7</ele>
        <time>2022-07-31T17:18:10Z</time>
      </trkpt>
      <trkpt lat="40.6917160" lon="-3.3760010">
        <ele>754.8</ele>
        <time>2022-07-31T17:18:11Z</time>
      </trkpt>
      <trkpt lat="40.6917490" lon="-3.3759780">
        <ele>755.4</ele>
        <time>2022-07-31T17:18:12Z</time>
      </trkpt>
      <trkpt lat="40.6917650" lon="-3.3759500">
        <ele>755.8</ele>
        <time>2022-07-31T17:18:13Z</time>
      </trkpt>
      <trkpt lat="40.6917710" lon="-3.3759390">
        <ele>755.9</ele>
        <time>2022-07-31T17:18:14Z</time>
      </trkpt>
      <trkpt lat="40.6917790" lon="-3.3759320">
        <ele>756.0</ele>
        <time>2022-07-31T17:18:15Z</time>
      </trkpt>
      <trkpt lat="40.6917910" lon="-3.3759110">
        <ele>756.3</ele>
        <time>2022-07-31T17:18:16Z</time>
      </trkpt>
      <trkpt lat="40.6918020" lon="-3.3758900">
        <ele>756.5</ele>
        <time>2022-07-31T17:18:17Z</time>
      </trkpt>
      <trkpt lat="40.6918230" lon="-3.3758660">
        <ele>756.8</ele>
        <time>2022-07-31T17:18:18Z</time>
      </trkpt>
      <trkpt lat="40.6918420" lon="-3.3758410">
        <ele>757.1</ele>
        <time>2022-07-31T17:18:19Z</time>
      </trkpt>
      <trkpt lat="40.6918590" lon="-3.3758100">
        <ele>757.4</ele>
        <time>2022-07-31T17:18:20Z</time>
      </trkpt>
      <trkpt lat="40.6918630" lon="-3.3757940">
        <ele>757.5</ele>
        <time>2022-07-31T17:18:21Z</time>
      </trkpt>
      <trkpt lat="40.6918690" lon="-3.3757740">
        <ele>757.6</ele>
        <time>2022-07-31T17:18:22Z</time>
      </trkpt>
      <trkpt lat="40.6918880" lon="-3.3757620">
        <ele>757.9</ele>
        <time>2022-07-31T17:18:23Z</time>
      </trkpt>
      <trkpt lat="40.6919130" lon="-3.3757390">
        <ele>758.1</ele>
        <time>2022-07-31T17:18:24Z</time>
      </trkpt>
      <trkpt lat="40.6919210" lon="-3.3757310">
        <ele>758.2</ele>
        <time>2022-07-31T17:18:25Z</time>
      </trkpt>
      <trkpt lat="40.6919300" lon="-3.3757090">
        <ele>758.4</ele>
        <time>2022-07-31T17:18:26Z</time>
      </trkpt>
      <trkpt lat="40.6919400" lon="-3.3756920">
        <ele>758.6</ele>
        <time>2022-07-31T17:18:27Z</time>
      </trkpt>
      <trkpt lat="40.6919540" lon="-3.3756560">
        <ele>758.9</ele>
        <time>2022-07-31T17:18:28Z</time>
      </trkpt>
      <trkpt lat="40.6919590" lon="-3.3756440">
        <ele>758.9</ele>
        <time>2022-07-31T17:18:29Z</time>
      </trkpt>
      <trkpt lat="40.6919710" lon="-3.3756280">
        <ele>759.1</ele>
        <time>2022-07-31T17:18:30Z</time>
      </trkpt>
      <trkpt lat="40.6919800" lon="-3.3756050">
        <ele>759.3</ele>
        <time>2022-07-31T17:18:31Z</time>
      </trkpt>
      <trkpt lat="40.6919790" lon="-3.3755900">
        <ele>759.4</ele>
        <time>2022-07-31T17:18:32Z</time>
      </trkpt>
      <trkpt lat="40.6919860" lon="-3.3755690">
        <ele>759.5</ele>
        <time>2022-07-31T17:18:33Z</time>
      </trkpt>
      <trkpt lat="40.6920020" lon="-3.3755370">
        <ele>759.8</ele>
        <time>2022-07-31T17:18:34Z</time>
      </trkpt>
      <trkpt lat="40.6920090" lon="-3.3755290">
        <ele>759.9</ele>
        <time>2022-07-31T17:18:35Z</time>
      </trkpt>
      <trkpt lat="40.6920360" lon="-3.3754940">
        <ele>760.3</ele>
        <time>2022-07-31T17:18:36Z</time>
      </trkpt>
      <trkpt lat="40.6920460" lon="-3.3754800">
        <ele>760.4</ele>
        <time>2022-07-31T17:18:37Z</time>
      </trkpt>
      <trkpt lat="40.6920720" lon="-3.3754610">
        <ele>760.7</ele>
        <time>2022-07-31T17:18:38Z</time>
      </trkpt>
      <trkpt lat="40.6920960" lon="-3.3754320">
        <ele>761.0</ele>
        <time>2022-07-31T17:18:39Z</time>
      </trkpt>
      <trkpt lat="40.6921050" lon="-3.3754250">
        <ele>761.1</ele>
        <time>2022-07-31T17:18:40Z</time>
      </trkpt>
      <trkpt lat="40.6921230" lon="-3.3753990">
        <ele>761.3</ele>
        <time>2022-07-31T17:18:41Z</time>
      </trkpt>
      <trkpt lat="40.6921290" lon="-3.3753890">
        <ele>761.4</ele>
        <time>2022-07-31T17:18:42Z</time>
      </trkpt>
      <trkpt lat="40.6921410" lon="-3.3753630">
        <ele>761.6</ele>
        <time>2022-07-31T17:18:43Z</time>
      </trkpt>
      <trkpt lat="40.6921490" lon="-3.3753550">
        <ele>761.7</ele>
        <time>2022-07-31T17:18:44Z</time>
      </trkpt>
      <trkpt lat="40.6921570" lon="-3.3753470">
        <ele>761.8</ele>
        <time>2022-07-31T17:18:45Z</time>
      </trkpt>
      <trkpt lat="40.6921700" lon="-3.3753130">
        <ele>762.1</ele>
        <time>2022-07-31T17:18:46Z</time>
      </trkpt>
      <trkpt lat="40.6921760" lon="-3.3753070">
        <ele>762.2</ele>
        <time>2022-07-31T17:18:47Z</time>
      </trkpt>
      <trkpt lat="40.6921940" lon="-3.3752790">
        <ele>762.4</ele>
        <time>2022-07-31T17:18:48Z</time>
      </trkpt>
      <trkpt lat="40.6922000" lon="-3.3752690">
        <ele>762.5</ele>
        <time>2022-07-31T17:18:49Z</time>
      </trkpt>
      <trkpt lat="40.6922110" lon="-3.3752510">
        <ele>762.7</ele>
        <time>2022-07-31T17:18:50Z</time>
      </trkpt>
      <trkpt lat="40.6922220" lon="-3.3752380">
        <ele>762.8</ele>
        <time>2022-07-31T17:18:51Z</time>
      </trkpt>
      <trkpt lat="40.6922430" lon="-3.3752120">
        <ele>763.1</ele>
        <time>2022-07-31T17:18:52Z</time>
      </trkpt>
      <trkpt lat="40.6922490" lon="-3.3752030">
        <ele>763.2</ele>
        <time>2022-07-31T17:18:53Z</time>
      </trkpt>
      <trkpt lat="40.6922570" lon="-3.3751860">
        <ele>763.4</ele>
        <time>2022-07-31T17:18:54Z</time>
      </trkpt>
      <trkpt lat="40.6922720" lon="-3.3751680">
        <ele>763.6</ele>
        <time>2022-07-31T17:18:55Z</time>
      </trkpt>
      <trkpt lat="40.6922940" lon="-3.3751390">
        <ele>763.9</ele>
        <time>2022-07-31T17:18:56Z</time>
      </trkpt>
      <trkpt lat="40.6923110" lon="-3.3751220">
        <ele>764.1</ele>
        <time>2022-07-31T17:18:57Z</time>
      </trkpt>
      <trkpt lat="40.6923190" lon="-3.3751080">
        <ele>764.2</ele>
        <time>2022-07-31T17:18:58Z</time>
      </trkpt>
      <trkpt lat="40.6923420" lon="-3.3750830">
        <ele>764.5</ele>
        <time>2022-07-31T17:18:59Z</time>
      </trkpt>
      <trkpt lat="40.6923520" lon="-3.3750720">
        <ele>764.6</ele>
        <time>2022-07-31T17:19:00Z</time>
      </trkpt>
      <trkpt lat="40.6923560" lon="-3.3750530">
        <ele>764.7</ele>
        <time>2022-07-31T17:19:01Z</time>
      </trkpt>
      <trkpt lat="40.6923650" lon="-3.3750340">
        <ele>764.9</ele>
        <time>2022-07-31T17:19:02Z</time>
      </trkpt>
      <trkpt lat="40.6923830" lon="-3.3750050">
        <ele>765.2</ele>
        <time>2022-07-31T17:19:03Z</time>
      </trkpt>
      <trkpt lat="40.6923900" lon="-3.3749960">
        <ele>765.3</ele>
        <time>2022-07-31T17:19:04Z</time>
      </trkpt>
      <trkpt lat="40.6924160" lon="-3.3749800">
        <ele>765.5</ele>
        <time>2022-07-31T17:19:05Z</time>
      </trkpt>
      <trkpt lat="40.6924240" lon="-3.3749740">
        <ele>765.6</ele>
        <time>2022-07-31T17:19:06Z</time>
      </trkpt>
      <trkpt lat="40.6924390" lon="-3.3749580">
        <ele>765.8</ele>
        <time>2022-07-31T17:19:07Z</time>
      </trkpt>
      <trkpt lat="40.6924530" lon="-3.3749470">
        <ele>765.9</ele>
        <time>2022-07-31T17:19:08Z</time>
      </trkpt>
      <trkpt lat="40.6924750" lon="-3.3749210">
        <ele>766.2</ele>
        <time>2022-07-31T17:19:09Z</time>
      </trkpt>
      <trkpt lat="40.6924810" lon="-3.3749100">
        <ele>766.3</ele>
        <time>2022-07-31T17:19:10Z</time>
      </trkpt>
      <trkpt lat="40.6925040" lon="-3.3748860">
        <ele>766.6</ele>
        <time>2022-07-31T17:19:11Z</time>
      </trkpt>
      <trkpt lat="40.6925130" lon="-3.3748790">
        <ele>766.6</ele>
        <time>2022-07-31T17:19:12Z</time>
      </trkpt>
      <trkpt lat="40.6925210" lon="-3.3748620">
        <ele>766.8</ele>
        <time>2022-07-31T17:19:13Z</time>
      </trkpt>
      <trkpt lat="40.6925330" lon="-3.3748490">
        <ele>766.9</ele>
        <time>2022-07-31T17:19:14Z</time>
      </trkpt>
      <trkpt lat="40.6925630" lon="-3.3748370">
        <ele>767.2</ele>
        <time>2022-07-31T17:19:15Z</time>
      </trkpt>
      <trkpt lat="40.6925720" lon="-3.3748320">
        <ele>767.3</ele>
        <time>2022-07-31T17:19:16Z</time>
      </trkpt>
      <trkpt lat="40.6925990" lon="-3.3748090">
        <ele>767.5</ele>
        <time>2022-07-31T17:19:17Z</time>
      </trkpt>
      <trkpt lat="40.6926020" lon="-3.3748010">
        <ele>767.6</ele>
        <time>2022-07-31T17:19:18Z</time>
      </trkpt>
      <trkpt lat="40.6926130" lon="-3.3747870">
        <ele>767.7</ele>
        <time>2022-07-31T17:19:19Z</time>
      </trkpt>
      <trkpt lat="40.6926210" lon="-3.3747700">
        <ele>767.8</ele>
        <time>2022-07-31T17:19:20Z</time>
      </trkpt>
      <trkpt lat="40.6926480" lon="-3.3747660">
        <ele>768.1</ele>
        <time>2022-07-31T17:19:21Z</time>
      </trkpt>
      <trkpt lat="40.6926620" lon="-3.3747520">
        <ele>768.2</ele>
        <time>2022-07-31T17:19:22Z</time>
      </trkpt>
      <trkpt lat="40.6926750" lon="-3.3747390">
        <ele>768.3</ele>
        <time>2022-07-31T17:19:23Z</time>
      </trkpt>
      <trkpt lat="40.6926940" lon="-3.3747080">
        <ele>768.6</ele>
        <time>2022-07-31T17:19:24Z</time>
      </trkpt>
      <trkpt lat="40.6927000" lon="-3.3746950">
        <ele>768.7</ele>
        <time>2022-07-31T17:19:25Z</time>
      </trkpt>
      <trkpt lat="40.6927250" lon="-3.3746660">
        <ele>769.0</ele>
        <time>2022-07-31T17:19:26Z</time>
      </trkpt>
      <trkpt lat="40.6927340" lon="-3.3746570">
        <ele>769.1</ele>
        <time>2022-07-31T17:19:27Z</time>
      </trkpt>
      <trkpt lat="40.6927460" lon="-3.3746430">
        <ele>769.2</ele>
        <time>2022-07-31T17:19:28Z</time>
      </trkpt>
      <trkpt lat="40.6927640" lon="-3.3746350">
        <ele>769.3</ele>
        <time>2022-07-31T17:19:29Z</time>
      </trkpt>
      <trkpt lat="40.6927890" lon="-3.3746000">
        <ele>769.6</ele>
        <time>2022-07-31T17:19:30Z</time>
      </trkpt>
      <trkpt lat="40.6928000" lon="-3.3745940">
        <ele>769.7</ele>
        <time>2022-07-31T17:19:31Z</time>
      </trkpt>
      <trkpt lat="40.6928040" lon="-3.3745780">
        <ele>769.8</ele>
        <time>2022-07-31T17:19:32Z</time>
      </trkpt>
      <trkpt lat="40.6928200" lon="-3.3745640">
        <ele>770.0</ele>
        <time>2022-07-31T17:19:33Z</time>
      </trkpt>
      <trkpt lat="40.6928340" lon="-3.3745510">
        <ele>770.1</ele>
        <time>2022-07-31T17:19:34Z</time>
      </trkpt>
      <trkpt lat="40.6928390" lon="-3.3745330">
        <ele>770.2</ele>
        <time>2022-07-31T17:19:35Z</time>
      </trkpt>
      <trkpt lat="40.6928550" lon="-3.3745240">
        <ele>770.3</ele>
        <time>2022-07-31T17:19:36Z</time>
      </trkpt>
      <trkpt lat="40.6928710" lon="-3.3745150">
        <ele>770.4</ele>
        <time>2022-07-31T17:19:37Z</time>
      </trkpt>
      <trkpt lat="40.6928990" lon="-3.3744920">
        <ele>770.6</ele>
        <time>2022-07-31T17:19:38Z</time>
      </trkpt>
      <trkpt lat="40.6929080" lon="-3.3744850">
        <ele>770.7</ele>
        <time>2022-07-31T17:19:39Z</time>
      </trkpt>
      <trkpt lat="40.6929240" lon="-3.3744580">
        <ele>770.9</ele>
        <time>2022-07-31T17:19:40Z</time>
      </trkpt>
      <trkpt lat="40.6929320" lon="-3.3744450">
        <ele>770.9</ele>
        <time>2022-07-31T17:19:41Z</time>
      </trkpt>
      <trkpt lat="40.6929440" lon="-3.3744310">
        <ele>771.0</ele>
        <time>2022-07-31T17:19:42Z</time>
      </trkpt>
      <trkpt lat="40.6929570" lon="-3.3744180">
        <ele>771.1</ele>
        <time>2022-07-31T17:19:43Z</time>
      </trkpt>
      <trkpt lat="40.6929820" lon="-3.3744010">
        <ele>771.2</ele>
        <time>2022-07-31T17:19:44Z</time>
      </trkpt>
      <trkpt lat="40.6929930" lon="-3.3743970">
        <ele>771.3</ele>
        <time>2022-07-31T17:19:45Z</time>
      </trkpt>
      <trkpt lat="40.6930230" lon="-3.3743750">
        <ele>771.4</ele>
        <time>2022-07-31T17:19:46Z</time>
      </trkpt>
      <trkpt lat="40.6930340" lon="-3.3743690">
        <ele>771.5</ele>
        <time>2022-07-31T17:19:47Z</time>
      </trkpt>
      <trkpt lat="40.6930660" lon="-3.3743490">
        <ele>771.6</ele>
        <time>2022-07-31T17:19:48Z</time>
      </trkpt>
      <trkpt lat="40.6930760" lon="-3.3743440">
        <ele>771.6</ele>
        <time>2022-07-31T17:19:49Z</time>
      </trkpt>
      <trkpt lat="40.6931020" lon="-3.3743080">
        <ele>771.8</ele>
        <time>2022-07-31T17:19:50Z</time>
      </trkpt>
      <trkpt lat="40.6931130" lon="-3.3742960">
        <ele>771.8</ele>
        <time>2022-07-31T17:19:51Z</time>
      </trkpt>
      <trkpt lat="40.6931440" lon="-3.3742600">
        <ele>772.0</ele>
        <time>2022-07-31T17:19:52Z</time>
      </trkpt>
      <trkpt lat="40.6931570" lon="-3.3742410">
        <ele>772.0</ele>
        <time>2022-07-31T17:19:53Z</time>
      </trkpt>
      <trkpt lat="40.6931820" lon="-3.3742190">
        <ele>772.1</ele>
        <time>2022-07-31T17:19:54Z</time>
      </trkpt>
      <trkpt lat="40.6931940" lon="-3.3742080">
        <ele>772.1</ele>
        <time>2022-07-31T17:19:55Z</time>
      </trkpt>
      <trkpt lat="40.6932180" lon="-3.3741780">
        <ele>772.2</ele>
        <time>2022-07-31T17:19:56Z</time>
      </trkpt>
      <trkpt lat="40.6932400" lon="-3.3741560">
        <ele>772.2</ele>
        <time>2022-07-31T17:19:57Z</time>
      </trkpt>
      <trkpt lat="40.6932640" lon="-3.3741280">
        <ele>772.3</ele>
        <time>2022-07-31T17:19:58Z</time>
      </trkpt>
      <trkpt lat="40.6932820" lon="-3.3740940">
        <ele>772.4</ele>
        <time>2022-07-31T17:19:59Z</time>
      </trkpt>
      <trkpt lat="40.6933050" lon="-3.3740520">
        <ele>772.5</ele>
        <time>2022-07-31T17:20:00Z</time>
      </trkpt>
      <trkpt lat="40.6933120" lon="-3.3740320">
        <ele>772.5</ele>
        <time>2022-07-31T17:20:01Z</time>
      </trkpt>
      <trkpt lat="40.6933380" lon="-3.3739950">
        <ele>772.7</ele>
        <time>2022-07-31T17:20:02Z</time>
      </trkpt>
      <trkpt lat="40.6933600" lon="-3.3739600">
        <ele>772.8</ele>
        <time>2022-07-31T17:20:03Z</time>
      </trkpt>
      <trkpt lat="40.6933860" lon="-3.3739260">
        <ele>772.9</ele>
        <time>2022-07-31T17:20:04Z</time>
      </trkpt>
      <trkpt lat="40.6934080" lon="-3.3738930">
        <ele>773.1</ele>
        <time>2022-07-31T17:20:05Z</time>
      </trkpt>
      <trkpt lat="40.6934390" lon="-3.3738600">
        <ele>773.3</ele>
        <time>2022-07-31T17:20:06Z</time>
      </trkpt>
      <trkpt lat="40.6934520" lon="-3.3738250">
        <ele>773.4</ele>
        <time>2022-07-31T17:20:07Z</time>
      </trkpt>
      <trkpt lat="40.6934770" lon="-3.3737930">
        <ele>773.7</ele>
        <time>2022-07-31T17:20:08Z</time>
      </trkpt>
      <trkpt lat="40.6935080" lon="-3.3737690">
        <ele>773.9</ele>
        <time>2022-07-31T17:20:09Z</time>
      </trkpt>
      <trkpt lat="40.6935420" lon="-3.3737330">
        <ele>774.2</ele>
        <time>2022-07-31T17:20:10Z</time>
      </trkpt>
      <trkpt lat="40.6935710" lon="-3.3736930">
        <ele>774.6</ele>
        <time>2022-07-31T17:20:11Z</time>
      </trkpt>
      <trkpt lat="40.6935910" lon="-3.3736590">
        <ele>774.9</ele>
        <time>2022-07-31T17:20:12Z</time>
      </trkpt>
      <trkpt lat="40.6936170" lon="-3.3736200">
        <ele>775.3</ele>
        <time>2022-07-31T17:20:13Z</time>
      </trkpt>
      <trkpt lat="40.6936410" lon="-3.3735850">
        <ele>775.7</ele>
        <time>2022-07-31T17:20:14Z</time>
      </trkpt>
      <trkpt lat="40.6936660" lon="-3.3735510">
        <ele>776.1</ele>
        <time>2022-07-31T17:20:15Z</time>
      </trkpt>
      <trkpt lat="40.6936880" lon="-3.3735150">
        <ele>776.6</ele>
        <time>2022-07-31T17:20:16Z</time>
      </trkpt>
      <trkpt lat="40.6937100" lon="-3.3734810">
        <ele>777.0</ele>
        <time>2022-07-31T17:20:17Z</time>
      </trkpt>
      <trkpt lat="40.6937320" lon="-3.3734500">
        <ele>777.4</ele>
        <time>2022-07-31T17:20:18Z</time>
      </trkpt>
      <trkpt lat="40.6937480" lon="-3.3734180">
        <ele>777.8</ele>
        <time>2022-07-31T17:20:19Z</time>
      </trkpt>
      <trkpt lat="40.6937730" lon="-3.3733950">
        <ele>778.2</ele>
        <time>2022-07-31T17:20:20Z</time>
      </trkpt>
      <trkpt lat="40.6937980" lon="-3.3733640">
        <ele>778.6</ele>
        <time>2022-07-31T17:20:21Z</time>
      </trkpt>
      <trkpt lat="40.6938140" lon="-3.3733350">
        <ele>778.9</ele>
        <time>2022-07-31T17:20:22Z</time>
      </trkpt>
      <trkpt lat="40.6938330" lon="-3.3732960">
        <ele>779.4</ele>
        <time>2022-07-31T17:20:23Z</time>
      </trkpt>
      <trkpt lat="40.6938390" lon="-3.3732810">
        <ele>779.6</ele>
        <time>2022-07-31T17:20:24Z</time>
      </trkpt>
      <trkpt lat="40.6938510" lon="-3.3732440">
        <ele>780.0</ele>
        <time>2022-07-31T17:20:25Z</time>
      </trkpt>
      <trkpt lat="40.6938550" lon="-3.3732330">
        <ele>780.1</ele>
        <time>2022-07-31T17:20:26Z</time>
      </trkpt>
      <trkpt lat="40.6938700" lon="-3.3732000">
        <ele>780.5</ele>
        <time>2022-07-31T17:20:27Z</time>
      </trkpt>
      <trkpt lat="40.6938730" lon="-3.3731880">
        <ele>780.7</ele>
        <time>2022-07-31T17:20:28Z</time>
      </trkpt>
      <trkpt lat="40.6938920" lon="-3.3731540">
        <ele>781.1</ele>
        <time>2022-07-31T17:20:29Z</time>
      </trkpt>
      <trkpt lat="40.6938960" lon="-3.3731440">
        <ele>781.2</ele>
        <time>2022-07-31T17:20:30Z</time>
      </trkpt>
      <trkpt lat="40.6939150" lon="-3.3731150">
        <ele>781.7</ele>
        <time>2022-07-31T17:20:31Z</time>
      </trkpt>
      <trkpt lat="40.6939290" lon="-3.3731050">
        <ele>781.9</ele>
        <time>2022-07-31T17:20:32Z</time>
      </trkpt>
      <trkpt lat="40.6939430" lon="-3.3730720">
        <ele>782.2</ele>
        <time>2022-07-31T17:20:33Z</time>
      </trkpt>
      <trkpt lat="40.6939500" lon="-3.3730660">
        <ele>782.4</ele>
        <time>2022-07-31T17:20:34Z</time>
      </trkpt>
      <trkpt lat="40.6939750" lon="-3.3730470">
        <ele>782.8</ele>
        <time>2022-07-31T17:20:35Z</time>
      </trkpt>
      <trkpt lat="40.6939800" lon="-3.3730360">
        <ele>782.9</ele>
        <time>2022-07-31T17:20:36Z</time>
      </trkpt>
      <trkpt lat="40.6939950" lon="-3.3730010">
        <ele>783.3</ele>
        <time>2022-07-31T17:20:37Z</time>
      </trkpt>
      <trkpt lat="40.6939990" lon="-3.3729910">
        <ele>783.4</ele>
        <time>2022-07-31T17:20:38Z</time>
      </trkpt>
      <trkpt lat="40.6940080" lon="-3.3729760">
        <ele>783.6</ele>
        <time>2022-07-31T17:20:39Z</time>
      </trkpt>
      <trkpt lat="40.6940120" lon="-3.3729660">
        <ele>783.7</ele>
        <time>2022-07-31T17:20:40Z</time>
      </trkpt>
      <trkpt lat="40.6940190" lon="-3.3729540">
        <ele>783.9</ele>
        <time>2022-07-31T17:20:41Z</time>
      </trkpt>
      <trkpt lat="40.6940410" lon="-3.3729220">
        <ele>784.3</ele>
        <time>2022-07-31T17:20:42Z</time>
      </trkpt>
      <trkpt lat="40.6940500" lon="-3.3729140">
        <ele>784.5</ele>
        <time>2022-07-31T17:20:43Z</time>
      </trkpt>
      <trkpt lat="40.6940630" lon="-3.3728920">
        <ele>784.7</ele>
        <time>2022-07-31T17:20:44Z</time>
      </trkpt>
      <trkpt lat="40.6940710" lon="-3.3728790">
        <ele>784.9</ele>
        <time>2022-07-31T17:20:45Z</time>
      </trkpt>
      <trkpt lat="40.6940840" lon="-3.3728630">
        <ele>785.1</ele>
        <time>2022-07-31T17:20:46Z</time>
      </trkpt>
      <trkpt lat="40.6940950" lon="-3.3728450">
        <ele>785.3</ele>
        <time>2022-07-31T17:20:47Z</time>
      </trkpt>
      <trkpt lat="40.6941210" lon="-3.3728160">
        <ele>785.8</ele>
        <time>2022-07-31T17:20:48Z</time>
      </trkpt>
      <trkpt lat="40.6941300" lon="-3.3728080">
        <ele>785.9</ele>
        <time>2022-07-31T17:20:49Z</time>
      </trkpt>
      <trkpt lat="40.6941450" lon="-3.3727750">
        <ele>786.3</ele>
        <time>2022-07-31T17:20:50Z</time>
      </trkpt>
      <trkpt lat="40.6941500" lon="-3.3727610">
        <ele>786.5</ele>
        <time>2022-07-31T17:20:51Z</time>
      </trkpt>
      <trkpt lat="40.6941620" lon="-3.3727200">
        <ele>786.9</ele>
        <time>2022-07-31T17:20:52Z</time>
      </trkpt>
      <trkpt lat="40.6941700" lon="-3.3727090">
        <ele>787.1</ele>
        <time>2022-07-31T17:20:53Z</time>
      </trkpt>
      <trkpt lat="40.6941810" lon="-3.3726880">
        <ele>787.3</ele>
        <time>2022-07-31T17:20:54Z</time>
      </trkpt>
      <trkpt lat="40.6941870" lon="-3.3726740">
        <ele>787.5</ele>
        <time>2022-07-31T17:20:55Z</time>
      </trkpt>
      <trkpt lat="40.6942100" lon="-3.3726390">
        <ele>788.0</ele>
        <time>2022-07-31T17:20:56Z</time>
      </trkpt>
      <trkpt lat="40.6942190" lon="-3.3726280">
        <ele>788.1</ele>
        <time>2022-07-31T17:20:57Z</time>
      </trkpt>
      <trkpt lat="40.6942350" lon="-3.3725990">
        <ele>788.5</ele>
        <time>2022-07-31T17:20:58Z</time>
      </trkpt>
      <trkpt lat="40.6942400" lon="-3.3725890">
        <ele>788.6</ele>
        <time>2022-07-31T17:20:59Z</time>
      </trkpt>
      <trkpt lat="40.6942560" lon="-3.3725550">
        <ele>789.0</ele>
        <time>2022-07-31T17:21:00Z</time>
      </trkpt>
      <trkpt lat="40.6942590" lon="-3.3725460">
        <ele>789.0</ele>
        <time>2022-07-31T17:21:01Z</time>
      </trkpt>
      <trkpt lat="40.6942730" lon="-3.3725140">
        <ele>789.4</ele>
        <time>2022-07-31T17:21:02Z</time>
      </trkpt>
      <trkpt lat="40.6942810" lon="-3.3725080">
        <ele>789.5</ele>
        <time>2022-07-31T17:21:03Z</time>
      </trkpt>
      <trkpt lat="40.6942950" lon="-3.3724920">
        <ele>789.7</ele>
        <time>2022-07-31T17:21:04Z</time>
      </trkpt>
      <trkpt lat="40.6943010" lon="-3.3724760">
        <ele>789.9</ele>
        <time>2022-07-31T17:21:05Z</time>
      </trkpt>
      <trkpt lat="40.6943190" lon="-3.3724410">
        <ele>790.2</ele>
        <time>2022-07-31T17:21:06Z</time>
      </trkpt>
      <trkpt lat="40.6943250" lon="-3.3724280">
        <ele>790.4</ele>
        <time>2022-07-31T17:21:07Z</time>
      </trkpt>
      <trkpt lat="40.6943460" lon="-3.3723990">
        <ele>790.7</ele>
        <time>2022-07-31T17:21:08Z</time>
      </trkpt>
      <trkpt lat="40.6943530" lon="-3.3723900">
        <ele>790.9</ele>
        <time>2022-07-31T17:21:09Z</time>
      </trkpt>
      <trkpt lat="40.6943640" lon="-3.3723540">
        <ele>791.2</ele>
        <time>2022-07-31T17:21:10Z</time>
      </trkpt>
      <trkpt lat="40.6943680" lon="-3.3723400">
        <ele>791.4</ele>
        <time>2022-07-31T17:21:11Z</time>
      </trkpt>
      <trkpt lat="40.6943790" lon="-3.3723060">
        <ele>791.7</ele>
        <time>2022-07-31T17:21:12Z</time>
      </trkpt>
      <trkpt lat="40.6943850" lon="-3.3722930">
        <ele>791.9</ele>
        <time>2022-07-31T17:21:13Z</time>
      </trkpt>
      <trkpt lat="40.6943880" lon="-3.3722790">
        <ele>792.0</ele>
        <time>2022-07-31T17:21:14Z</time>
      </trkpt>
      <trkpt lat="40.6944010" lon="-3.3722610">
        <ele>792.3</ele>
        <time>2022-07-31T17:21:15Z</time>
      </trkpt>
      <trkpt lat="40.6944130" lon="-3.3722360">
        <ele>792.6</ele>
        <time>2022-07-31T17:21:16Z</time>
      </trkpt>
      <trkpt lat="40.6944200" lon="-3.3722210">
        <ele>792.7</ele>
        <time>2022-07-31T17:21:17Z</time>
      </trkpt>
      <trkpt lat="40.6944320" lon="-3.3722090">
        <ele>792.9</ele>
        <time>2022-07-31T17:21:18Z</time>
      </trkpt>
      <trkpt lat="40.6944440" lon="-3.3721900">
        <ele>793.1</ele>
        <time>2022-07-31T17:21:19Z</time>
      </trkpt>
      <trkpt lat="40.6944620" lon="-3.3721680">
        <ele>793.4</ele>
        <time>2022-07-31T17:21:20Z</time>
      </trkpt>
      <trkpt lat="40.6944690" lon="-3.3721590">
        <ele>793.5</ele>
        <time>2022-07-31T17:21:21Z</time>
      </trkpt>
      <trkpt lat="40.6944760" lon="-3.3721510">
        <ele>793.6</ele>
        <time>2022-07-31T17:21:22Z</time>
      </trkpt>
      <trkpt lat="40.6944910" lon="-3.3721400">
        <ele>793.8</ele>
        <time>2022-07-31T17:21:23Z</time>
      </trkpt>
      <trkpt lat="40.6944990" lon="-3.3721290">
        <ele>794.0</ele>
        <time>2022-07-31T17:21:24Z</time>
      </trkpt>
      <trkpt lat="40.6945100" lon="-3.3720940">
        <ele>794.3</ele>
        <time>2022-07-31T17:21:25Z</time>
      </trkpt>
      <trkpt lat="40.6945140" lon="-3.3720850">
        <ele>794.4</ele>
        <time>2022-07-31T17:21:26Z</time>
      </trkpt>
      <trkpt lat="40.6945320" lon="-3.3720550">
        <ele>794.7</ele>
        <time>2022-07-31T17:21:27Z</time>
      </trkpt>
      <trkpt lat="40.6945380" lon="-3.3720460">
        <ele>794.8</ele>
        <time>2022-07-31T17:21:28Z</time>
      </trkpt>
      <trkpt lat="40.6945590" lon="-3.3720170">
        <ele>795.1</ele>
        <time>2022-07-31T17:21:29Z</time>
      </trkpt>
      <trkpt lat="40.6945650" lon="-3.3720070">
        <ele>795.2</ele>
        <time>2022-07-31T17:21:30Z</time>
      </trkpt>
      <trkpt lat="40.6945810" lon="-3.3719780">
        <ele>795.5</ele>
        <time>2022-07-31T17:21:31Z</time>
      </trkpt>
      <trkpt lat="40.6945860" lon="-3.3719680">
        <ele>795.6</ele>
        <time>2022-07-31T17:21:32Z</time>
      </trkpt>
      <trkpt lat="40.6945990" lon="-3.3719580">
        <ele>795.7</ele>
        <time>2022-07-31T17:21:33Z</time>
      </trkpt>
      <trkpt lat="40.6946050" lon="-3.3719410">
        <ele>795.8</ele>
        <time>2022-07-31T17:21:34Z</time>
      </trkpt>
      <trkpt lat="40.6946100" lon="-3.3719230">
        <ele>796.0</ele>
        <time>2022-07-31T17:21:35Z</time>
      </trkpt>
      <trkpt lat="40.6946160" lon="-3.3719030">
        <ele>796.1</ele>
        <time>2022-07-31T17:21:36Z</time>
      </trkpt>
      <trkpt lat="40.6946290" lon="-3.3718850">
        <ele>796.2</ele>
        <time>2022-07-31T17:21:37Z</time>
      </trkpt>
      <trkpt lat="40.6946370" lon="-3.3718790">
        <ele>796.3</ele>
        <time>2022-07-31T17:21:38Z</time>
      </trkpt>
      <trkpt lat="40.6946600" lon="-3.3718550">
        <ele>796.5</ele>
        <time>2022-07-31T17:21:39Z</time>
      </trkpt>
      <trkpt lat="40.6946670" lon="-3.3718520">
        <ele>796.5</ele>
        <time>2022-07-31T17:21:40Z</time>
      </trkpt>
      <trkpt lat="40.6946830" lon="-3.3718460">
        <ele>796.5</ele>
        <time>2022-07-31T17:21:41Z</time>
      </trkpt>
      <trkpt lat="40.6947000" lon="-3.3718460">
        <ele>796.5</ele>
        <time>2022-07-31T17:21:42Z</time>
      </trkpt>
      <trkpt lat="40.6947360" lon="-3.3718510">
        <ele>796.5</ele>
        <time>2022-07-31T17:21:43Z</time>
      </trkpt>
      <trkpt lat="40.6947480" lon="-3.3718550">
        <ele>796.5</ele>
        <time>2022-07-31T17:21:44Z</time>
      </trkpt>
      <trkpt lat="40.6947790" lon="-3.3718830">
        <ele>796.5</ele>
        <time>2022-07-31T17:21:45Z</time>
      </trkpt>
      <trkpt lat="40.6947900" lon="-3.3718930">
        <ele>796.5</ele>
        <time>2022-07-31T17:21:46Z</time>
      </trkpt>
      <trkpt lat="40.6948230" lon="-3.3719110">
        <ele>796.4</ele>
        <time>2022-07-31T17:21:47Z</time>
      </trkpt>
      <trkpt lat="40.6948350" lon="-3.3719140">
        <ele>796.4</ele>
        <time>2022-07-31T17:21:48Z</time>
      </trkpt>
      <trkpt lat="40.6948710" lon="-3.3719310">
        <ele>796.4</ele>
        <time>2022-07-31T17:21:49Z</time>
      </trkpt>
      <trkpt lat="40.6948830" lon="-3.3719370">
        <ele>796.4</ele>
        <time>2022-07-31T17:21:50Z</time>
      </trkpt>
      <trkpt lat="40.6949130" lon="-3.3719560">
        <ele>796.4</ele>
        <time>2022-07-31T17:21:51Z</time>
      </trkpt>
      <trkpt lat="40.6949230" lon="-3.3719630">
        <ele>796.4</ele>
        <time>2022-07-31T17:21:52Z</time>
      </trkpt>
      <trkpt lat="40.6949520" lon="-3.3719810">
        <ele>796.3</ele>
        <time>2022-07-31T17:21:53Z</time>
      </trkpt>
      <trkpt lat="40.6949940" lon="-3.3720030">
        <ele>796.3</ele>
        <time>2022-07-31T17:21:54Z</time>
      </trkpt>
      <trkpt lat="40.6950370" lon="-3.3720340">
        <ele>796.3</ele>
        <time>2022-07-31T17:21:55Z</time>
      </trkpt>
      <trkpt lat="40.6950750" lon="-3.3720700">
        <ele>796.3</ele>
        <time>2022-07-31T17:21:56Z</time>
      </trkpt>
      <trkpt lat="40.6951170" lon="-3.3721020">
        <ele>796.3</ele>
        <time>2022-07-31T17:21:57Z</time>
      </trkpt>
      <trkpt lat="40.6951610" lon="-3.3721300">
        <ele>796.3</ele>
        <time>2022-07-31T17:21:58Z</time>
      </trkpt>
      <trkpt lat="40.6952000" lon="-3.3721600">
        <ele>796.3</ele>
        <time>2022-07-31T17:21:59Z</time>
      </trkpt>
      <trkpt lat="40.6952440" lon="-3.3721910">
        <ele>796.3</ele>
        <time>2022-07-31T17:22:00Z</time>
      </trkpt>
      <trkpt lat="40.6952860" lon="-3.3722190">
        <ele>796.3</ele>
        <time>2022-07-31T17:22:01Z</time>
      </trkpt>
      <trkpt lat="40.6953340" lon="-3.3722370">
        <ele>796.3</ele>
        <time>2022-07-31T17:22:02Z</time>
      </trkpt>
      <trkpt lat="40.6953840" lon="-3.3722480">
        <ele>796.3</ele>
        <time>2022-07-31T17:22:03Z</time>
      </trkpt>
      <trkpt lat="40.6954330" lon="-3.3722630">
        <ele>796.3</ele>
        <time>2022-07-31T17:22:04Z</time>
      </trkpt>
      <trkpt lat="40.6954860" lon="-3.3722820">
        <ele>796.3</ele>
        <time>2022-07-31T17:22:05Z</time>
      </trkpt>
      <trkpt lat="40.6955380" lon="-3.3722960">
        <ele>796.3</ele>
        <time>2022-07-31T17:22:06Z</time>
      </trkpt>
      <trkpt lat="40.6955910" lon="-3.3723010">
        <ele>796.3</ele>
        <time>2022-07-31T17:22:07Z</time>
      </trkpt>
      <trkpt lat="40.6956450" lon="-3.3723050">
        <ele>796.3</ele>
        <time>2022-07-31T17:22:08Z</time>
      </trkpt>
      <trkpt lat="40.6956900" lon="-3.3723070">
        <ele>796.3</ele>
        <time>2022-07-31T17:22:09Z</time>
      </trkpt>
      <trkpt lat="40.6957430" lon="-3.3723200">
        <ele>796.3</ele>
        <time>2022-07-31T17:22:10Z</time>
      </trkpt>
      <trkpt lat="40.6957850" lon="-3.3723270">
        <ele>796.3</ele>
        <time>2022-07-31T17:22:11Z</time>
      </trkpt>
      <trkpt lat="40.6958350" lon="-3.3723360">
        <ele>796.4</ele>
        <time>2022-07-31T17:22:12Z</time>
      </trkpt>
      <trkpt lat="40.6958780" lon="-3.3723390">
        <ele>796.4</ele>
        <time>2022-07-31T17:22:13Z</time>
      </trkpt>
      <trkpt lat="40.6959290" lon="-3.3723460">
        <ele>796.4</ele>
        <time>2022-07-31T17:22:14Z</time>
      </trkpt>
      <trkpt lat="40.6959740" lon="-3.3723630">
        <ele>796.5</ele>
        <time>2022-07-31T17:22:15Z</time>
      </trkpt>
      <trkpt lat="40.6960200" lon="-3.3723640">
        <ele>796.5</ele>
        <time>2022-07-31T17:22:16Z</time>
      </trkpt>
      <trkpt lat="40.6960650" lon="-3.3723670">
        <ele>796.6</ele>
        <time>2022-07-31T17:22:17Z</time>
      </trkpt>
      <trkpt lat="40.6961160" lon="-3.3723770">
        <ele>796.7</ele>
        <time>2022-07-31T17:22:18Z</time>
      </trkpt>
      <trkpt lat="40.6961690" lon="-3.3723810">
        <ele>796.8</ele>
        <time>2022-07-31T17:22:19Z</time>
      </trkpt>
      <trkpt lat="40.6962150" lon="-3.3723930">
        <ele>796.9</ele>
        <time>2022-07-31T17:22:20Z</time>
      </trkpt>
      <trkpt lat="40.6962600" lon="-3.3724060">
        <ele>797.0</ele>
        <time>2022-07-31T17:22:21Z</time>
      </trkpt>
      <trkpt lat="40.6963000" lon="-3.3724170">
        <ele>797.1</ele>
        <time>2022-07-31T17:22:22Z</time>
      </trkpt>
      <trkpt lat="40.6963450" lon="-3.3724270">
        <ele>797.1</ele>
        <time>2022-07-31T17:22:23Z</time>
      </trkpt>
      <trkpt lat="40.6963920" lon="-3.3724280">
        <ele>797.1</ele>
        <time>2022-07-31T17:22:24Z</time>
      </trkpt>
      <trkpt lat="40.6964390" lon="-3.3724290">
        <ele>797.2</ele>
        <time>2022-07-31T17:22:25Z</time>
      </trkpt>
      <trkpt lat="40.6964850" lon="-3.3724410">
        <ele>797.4</ele>
        <time>2022-07-31T17:22:26Z</time>
      </trkpt>
      <trkpt lat="40.6965260" lon="-3.3724440">
        <ele>797.5</ele>
        <time>2022-07-31T17:22:27Z</time>
      </trkpt>
      <trkpt lat="40.6965630" lon="-3.3724510">
        <ele>797.7</ele>
        <time>2022-07-31T17:22:28Z</time>
      </trkpt>
      <trkpt lat="40.6966030" lon="-3.3724540">
        <ele>797.8</ele>
        <time>2022-07-31T17:22:29Z</time>
      </trkpt>
      <trkpt lat="40.6966410" lon="-3.3724560">
        <ele>798.0</ele>
        <time>2022-07-31T17:22:30Z</time>
      </trkpt>
      <trkpt lat="40.6966800" lon="-3.3724640">
        <ele>798.1</ele>
        <time>2022-07-31T17:22:31Z</time>
      </trkpt>
      <trkpt lat="40.6967230" lon="-3.3724650">
        <ele>798.3</ele>
        <time>2022-07-31T17:22:32Z</time>
      </trkpt>
      <trkpt lat="40.6967660" lon="-3.3724720">
        <ele>798.4</ele>
        <time>2022-07-31T17:22:33Z</time>
      </trkpt>
      <trkpt lat="40.6968010" lon="-3.3724950">
        <ele>798.6</ele>
        <time>2022-07-31T17:22:34Z</time>
      </trkpt>
      <trkpt lat="40.6968390" lon="-3.3725160">
        <ele>798.7</ele>
        <time>2022-07-31T17:22:35Z</time>
      </trkpt>
      <trkpt lat="40.6968760" lon="-3.3725250">
        <ele>798.9</ele>
        <time>2022-07-31T17:22:36Z</time>
      </trkpt>
      <trkpt lat="40.6969070" lon="-3.3725320">
        <ele>799.0</ele>
        <time>2022-07-31T17:22:37Z</time>
      </trkpt>
      <trkpt lat="40.6969420" lon="-3.3725250">
        <ele>799.2</ele>
        <time>2022-07-31T17:22:38Z</time>
      </trkpt>
      <trkpt lat="40.6969730" lon="-3.3725280">
        <ele>799.3</ele>
        <time>2022-07-31T17:22:39Z</time>
      </trkpt>
      <trkpt lat="40.6970050" lon="-3.3725320">
        <ele>799.4</ele>
        <time>2022-07-31T17:22:40Z</time>
      </trkpt>
      <trkpt lat="40.6970400" lon="-3.3725350">
        <ele>799.6</ele>
        <time>2022-07-31T17:22:41Z</time>
      </trkpt>
      <trkpt lat="40.6970860" lon="-3.3725380">
        <ele>799.8</ele>
        <time>2022-07-31T17:22:42Z</time>
      </trkpt>
      <trkpt lat="40.6971180" lon="-3.3725430">
        <ele>799.9</ele>
        <time>2022-07-31T17:22:43Z</time>
      </trkpt>
      <trkpt lat="40.6971510" lon="-3.3725480">
        <ele>800.0</ele>
        <time>2022-07-31T17:22:44Z</time>
      </trkpt>
      <trkpt lat="40.6971820" lon="-3.3725550">
        <ele>800.2</ele>
        <time>2022-07-31T17:22:45Z</time>
      </trkpt>
      <trkpt lat="40.6972210" lon="-3.3725630">
        <ele>800.3</ele>
        <time>2022-07-31T17:22:46Z</time>
      </trkpt>
      <trkpt lat="40.6972630" lon="-3.3725740">
        <ele>800.5</ele>
        <time>2022-07-31T17:22:47Z</time>
      </trkpt>
      <trkpt lat="40.6972980" lon="-3.3725810">
        <ele>800.7</ele>
        <time>2022-07-31T17:22:48Z</time>
      </trkpt>
      <trkpt lat="40.6973260" lon="-3.3725840">
        <ele>800.8</ele>
        <time>2022-07-31T17:22:49Z</time>
      </trkpt>
      <trkpt lat="40.6973650" lon="-3.3725680">
        <ele>800.9</ele>
        <time>2022-07-31T17:22:50Z</time>
      </trkpt>
      <trkpt lat="40.6973940" lon="-3.3725580">
        <ele>801.0</ele>
        <time>2022-07-31T17:22:51Z</time>
      </trkpt>
      <trkpt lat="40.6974200" lon="-3.3725450">
        <ele>801.1</ele>
        <time>2022-07-31T17:22:52Z</time>
      </trkpt>
      <trkpt lat="40.6974570" lon="-3.3725340">
        <ele>801.3</ele>
        <time>2022-07-31T17:22:53Z</time>
      </trkpt>
      <trkpt lat="40.6974950" lon="-3.3725170">
        <ele>801.4</ele>
        <time>2022-07-31T17:22:54Z</time>
      </trkpt>
      <trkpt lat="40.6975390" lon="-3.3725000">
        <ele>801.5</ele>
        <time>2022-07-31T17:22:55Z</time>
      </trkpt>
      <trkpt lat="40.6975570" lon="-3.3724920">
        <ele>801.6</ele>
        <time>2022-07-31T17:22:56Z</time>
      </trkpt>
      <trkpt lat="40.6975910" lon="-3.3724750">
        <ele>801.7</ele>
        <time>2022-07-31T17:22:57Z</time>
      </trkpt>
      <trkpt lat="40.6976230" lon="-3.3724500">
        <ele>801.8</ele>
        <time>2022-07-31T17:22:58Z</time>
      </trkpt>
      <trkpt lat="40.6976510" lon="-3.3724320">
        <ele>801.9</ele>
        <time>2022-07-31T17:22:59Z</time>
      </trkpt>
      <trkpt lat="40.6976800" lon="-3.3724110">
        <ele>802.0</ele>
        <time>2022-07-31T17:23:00Z</time>
      </trkpt>
      <trkpt lat="40.6977140" lon="-3.3723890">
        <ele>802.2</ele>
        <time>2022-07-31T17:23:01Z</time>
      </trkpt>
      <trkpt lat="40.6977530" lon="-3.3723640">
        <ele>802.3</ele>
        <time>2022-07-31T17:23:02Z</time>
      </trkpt>
      <trkpt lat="40.6977830" lon="-3.3723510">
        <ele>802.4</ele>
        <time>2022-07-31T17:23:03Z</time>
      </trkpt>
      <trkpt lat="40.6978110" lon="-3.3723270">
        <ele>802.5</ele>
        <time>2022-07-31T17:23:04Z</time>
      </trkpt>
      <trkpt lat="40.6978380" lon="-3.3723140">
        <ele>802.6</ele>
        <time>2022-07-31T17:23:05Z</time>
      </trkpt>
      <trkpt lat="40.6978670" lon="-3.3723010">
        <ele>802.7</ele>
        <time>2022-07-31T17:23:06Z</time>
      </trkpt>
      <trkpt lat="40.6978990" lon="-3.3722810">
        <ele>802.8</ele>
        <time>2022-07-31T17:23:07Z</time>
      </trkpt>
      <trkpt lat="40.6979380" lon="-3.3722500">
        <ele>802.9</ele>
        <time>2022-07-31T17:23:08Z</time>
      </trkpt>
      <trkpt lat="40.6979550" lon="-3.3722400">
        <ele>803.0</ele>
        <time>2022-07-31T17:23:09Z</time>
      </trkpt>
      <trkpt lat="40.6979890" lon="-3.3722190">
        <ele>803.1</ele>
        <time>2022-07-31T17:23:10Z</time>
      </trkpt>
      <trkpt lat="40.6980270" lon="-3.3721940">
        <ele>803.2</ele>
        <time>2022-07-31T17:23:11Z</time>
      </trkpt>
      <trkpt lat="40.6980620" lon="-3.3721700">
        <ele>803.2</ele>
        <time>2022-07-31T17:23:12Z</time>
      </trkpt>
      <trkpt lat="40.6980930" lon="-3.3721460">
        <ele>803.3</ele>
        <time>2022-07-31T17:23:13Z</time>
      </trkpt>
      <trkpt lat="40.6981270" lon="-3.3721270">
        <ele>803.4</ele>
        <time>2022-07-31T17:23:14Z</time>
      </trkpt>
      <trkpt lat="40.6981570" lon="-3.3721090">
        <ele>803.4</ele>
        <time>2022-07-31T17:23:15Z</time>
      </trkpt>
      <trkpt lat="40.6981900" lon="-3.3720880">
        <ele>803.5</ele>
        <time>2022-07-31T17:23:16Z</time>
      </trkpt>
      <trkpt lat="40.6982270" lon="-3.3720630">
        <ele>803.6</ele>
        <time>2022-07-31T17:23:17Z</time>
      </trkpt>
      <trkpt lat="40.6982640" lon="-3.3720400">
        <ele>803.6</ele>
        <time>2022-07-31T17:23:18Z</time>
      </trkpt>
      <trkpt lat="40.6982930" lon="-3.3720130">
        <ele>803.7</ele>
        <time>2022-07-31T17:23:19Z</time>
      </trkpt>
      <trkpt lat="40.6983280" lon="-3.3719860">
        <ele>803.7</ele>
        <time>2022-07-31T17:23:20Z</time>
      </trkpt>
      <trkpt lat="40.6983670" lon="-3.3719550">
        <ele>803.7</ele>
        <time>2022-07-31T17:23:21Z</time>
      </trkpt>
      <trkpt lat="40.6984040" lon="-3.3719330">
        <ele>803.7</ele>
        <time>2022-07-31T17:23:22Z</time>
      </trkpt>
      <trkpt lat="40.6984500" lon="-3.3719160">
        <ele>803.7</ele>
        <time>2022-07-31T17:23:23Z</time>
      </trkpt>
      <trkpt lat="40.6984870" lon="-3.3718980">
        <ele>803.7</ele>
        <time>2022-07-31T17:23:24Z</time>
      </trkpt>
      <trkpt lat="40.6985240" lon="-3.3718890">
        <ele>803.7</ele>
        <time>2022-07-31T17:23:25Z</time>
      </trkpt>
      <trkpt lat="40.6985640" lon="-3.3718710">
        <ele>803.7</ele>
        <time>2022-07-31T17:23:26Z</time>
      </trkpt>
      <trkpt lat="40.6986060" lon="-3.3718530">
        <ele>803.8</ele>
        <time>2022-07-31T17:23:27Z</time>
      </trkpt>
      <trkpt lat="40.6986440" lon="-3.3718350">
        <ele>803.8</ele>
        <time>2022-07-31T17:23:28Z</time>
      </trkpt>
      <trkpt lat="40.6986800" lon="-3.3718160">
        <ele>803.8</ele>
        <time>2022-07-31T17:23:29Z</time>
      </trkpt>
      <trkpt lat="40.6987310" lon="-3.3718050">
        <ele>803.8</ele>
        <time>2022-07-31T17:23:30Z</time>
      </trkpt>
      <trkpt lat="40.6987700" lon="-3.3717900">
        <ele>803.9</ele>
        <time>2022-07-31T17:23:31Z</time>
      </trkpt>
      <trkpt lat="40.6988120" lon="-3.3717790">
        <ele>803.9</ele>
        <time>2022-07-31T17:23:32Z</time>
      </trkpt>
      <trkpt lat="40.6988550" lon="-3.3717760">
        <ele>804.0</ele>
        <time>2022-07-31T17:23:33Z</time>
      </trkpt>
      <trkpt lat="40.6988950" lon="-3.3717730">
        <ele>804.1</ele>
        <time>2022-07-31T17:23:34Z</time>
      </trkpt>
      <trkpt lat="40.6989370" lon="-3.3717730">
        <ele>804.1</ele>
        <time>2022-07-31T17:23:35Z</time>
      </trkpt>
      <trkpt lat="40.6989760" lon="-3.3717700">
        <ele>804.2</ele>
        <time>2022-07-31T17:23:36Z</time>
      </trkpt>
      <trkpt lat="40.6990160" lon="-3.3717900">
        <ele>804.3</ele>
        <time>2022-07-31T17:23:37Z</time>
      </trkpt>
      <trkpt lat="40.6990390" lon="-3.3718230">
        <ele>804.3</ele>
        <time>2022-07-31T17:23:38Z</time>
      </trkpt>
      <trkpt lat="40.6990450" lon="-3.3718470">
        <ele>804.3</ele>
        <time>2022-07-31T17:23:39Z</time>
      </trkpt>
      <trkpt lat="40.6990500" lon="-3.3718600">
        <ele>804.4</ele>
        <time>2022-07-31T17:23:40Z</time>
      </trkpt>
      <trkpt lat="40.6990470" lon="-3.3718610">
        <ele>804.4</ele>
        <time>2022-07-31T17:23:41Z</time>
      </trkpt>
      <trkpt lat="40.6990430" lon="-3.3718680">
        <ele>804.4</ele>
        <time>2022-07-31T17:23:42Z</time>
      </trkpt>
      <trkpt lat="40.6990420" lon="-3.3718730">
        <ele>804.4</ele>
        <time>2022-07-31T17:23:43Z</time>
      </trkpt>
      <trkpt lat="40.6990440" lon="-3.3718770">
        <ele>804.4</ele>
        <time>2022-07-31T17:23:44Z</time>
      </trkpt>
      <trkpt lat="40.6990460" lon="-3.3718790">
        <ele>804.4</ele>
        <time>2022-07-31T17:23:45Z</time>
      </trkpt>
      <trkpt lat="40.6990480" lon="-3.3718790">
        <ele>804.4</ele>
        <time>2022-07-31T17:23:46Z</time>
      </trkpt>
      <trkpt lat="40.6990500" lon="-3.3718800">
        <ele>804.4</ele>
        <time>2022-07-31T17:23:47Z</time>
      </trkpt>
      <trkpt lat="40.6990490" lon="-3.3718790">
        <ele>804.4</ele>
        <time>2022-07-31T17:23:48Z</time>
      </trkpt>
      <trkpt lat="40.6990420" lon="-3.3718840">
        <ele>804.4</ele>
        <time>2022-07-31T17:23:49Z</time>
      </trkpt>
      <trkpt lat="40.6990850" lon="-3.3718680">
        <ele>804.5</ele>
        <time>2022-07-31T17:24:16Z</time>
      </trkpt>
      <trkpt lat="40.6991150" lon="-3.3718560">
        <ele>804.5</ele>
        <time>2022-07-31T17:24:17Z</time>
      </trkpt>
      <trkpt lat="40.6991490" lon="-3.3718420">
        <ele>804.6</ele>
        <time>2022-07-31T17:24:18Z</time>
      </trkpt>
      <trkpt lat="40.6991850" lon="-3.3718340">
        <ele>804.6</ele>
        <time>2022-07-31T17:24:19Z</time>
      </trkpt>
      <trkpt lat="40.6992220" lon="-3.3718230">
        <ele>804.6</ele>
        <time>2022-07-31T17:24:20Z</time>
      </trkpt>
      <trkpt lat="40.6992630" lon="-3.3718030">
        <ele>804.7</ele>
        <time>2022-07-31T17:24:21Z</time>
      </trkpt>
      <trkpt lat="40.6993120" lon="-3.3717760">
        <ele>804.7</ele>
        <time>2022-07-31T17:24:22Z</time>
      </trkpt>
      <trkpt lat="40.6993490" lon="-3.3717650">
        <ele>804.8</ele>
        <time>2022-07-31T17:24:23Z</time>
      </trkpt>
      <trkpt lat="40.6993830" lon="-3.3717530">
        <ele>804.8</ele>
        <time>2022-07-31T17:24:24Z</time>
      </trkpt>
      <trkpt lat="40.6994200" lon="-3.3717450">
        <ele>804.9</ele>
        <time>2022-07-31T17:24:25Z</time>
      </trkpt>
      <trkpt lat="40.6994570" lon="-3.3717290">
        <ele>804.9</ele>
        <time>2022-07-31T17:24:26Z</time>
      </trkpt>
      <trkpt lat="40.6994910" lon="-3.3717210">
        <ele>805.0</ele>
        <time>2022-07-31T17:24:27Z</time>
      </trkpt>
      <trkpt lat="40.6995290" lon="-3.3717100">
        <ele>805.1</ele>
        <time>2022-07-31T17:24:28Z</time>
      </trkpt>
      <trkpt lat="40.6995610" lon="-3.3717020">
        <ele>805.1</ele>
        <time>2022-07-31T17:24:29Z</time>
      </trkpt>
      <trkpt lat="40.6995970" lon="-3.3716960">
        <ele>805.2</ele>
        <time>2022-07-31T17:24:30Z</time>
      </trkpt>
      <trkpt lat="40.6996320" lon="-3.3716930">
        <ele>805.2</ele>
        <time>2022-07-31T17:24:31Z</time>
      </trkpt>
      <trkpt lat="40.6996660" lon="-3.3716840">
        <ele>805.3</ele>
        <time>2022-07-31T17:24:32Z</time>
      </trkpt>
      <trkpt lat="40.6997000" lon="-3.3716720">
        <ele>805.3</ele>
        <time>2022-07-31T17:24:33Z</time>
      </trkpt>
      <trkpt lat="40.6997380" lon="-3.3716680">
        <ele>805.4</ele>
        <time>2022-07-31T17:24:34Z</time>
      </trkpt>
      <trkpt lat="40.6997740" lon="-3.3716650">
        <ele>805.4</ele>
        <time>2022-07-31T17:24:35Z</time>
      </trkpt>
      <trkpt lat="40.6998160" lon="-3.3716590">
        <ele>805.5</ele>
        <time>2022-07-31T17:24:36Z</time>
      </trkpt>
      <trkpt lat="40.6998570" lon="-3.3716560">
        <ele>805.6</ele>
        <time>2022-07-31T17:24:37Z</time>
      </trkpt>
      <trkpt lat="40.6998960" lon="-3.3716480">
        <ele>805.6</ele>
        <time>2022-07-31T17:24:38Z</time>
      </trkpt>
      <trkpt lat="40.6999370" lon="-3.3716500">
        <ele>805.7</ele>
        <time>2022-07-31T17:24:39Z</time>
      </trkpt>
      <trkpt lat="40.6999740" lon="-3.3716620">
        <ele>805.7</ele>
        <time>2022-07-31T17:24:40Z</time>
      </trkpt>
      <trkpt lat="40.7000100" lon="-3.3716740">
        <ele>805.8</ele>
        <time>2022-07-31T17:24:41Z</time>
      </trkpt>
      <trkpt lat="40.7000490" lon="-3.3716700">
        <ele>805.8</ele>
        <time>2022-07-31T17:24:42Z</time>
      </trkpt>
      <trkpt lat="40.7000900" lon="-3.3716660">
        <ele>805.9</ele>
        <time>2022-07-31T17:24:43Z</time>
      </trkpt>
      <trkpt lat="40.7001340" lon="-3.3716710">
        <ele>806.0</ele>
        <time>2022-07-31T17:24:44Z</time>
      </trkpt>
      <trkpt lat="40.7001790" lon="-3.3716820">
        <ele>806.0</ele>
        <time>2022-07-31T17:24:45Z</time>
      </trkpt>
      <trkpt lat="40.7002260" lon="-3.3716950">
        <ele>806.1</ele>
        <time>2022-07-31T17:24:46Z</time>
      </trkpt>
      <trkpt lat="40.7002660" lon="-3.3717050">
        <ele>806.2</ele>
        <time>2022-07-31T17:24:47Z</time>
      </trkpt>
      <trkpt lat="40.7003040" lon="-3.3717170">
        <ele>806.3</ele>
        <time>2022-07-31T17:24:48Z</time>
      </trkpt>
      <trkpt lat="40.7003480" lon="-3.3717250">
        <ele>806.4</ele>
        <time>2022-07-31T17:24:49Z</time>
      </trkpt>
      <trkpt lat="40.7003840" lon="-3.3717370">
        <ele>806.5</ele>
        <time>2022-07-31T17:24:50Z</time>
      </trkpt>
      <trkpt lat="40.7004240" lon="-3.3717470">
        <ele>806.6</ele>
        <time>2022-07-31T17:24:51Z</time>
      </trkpt>
      <trkpt lat="40.7004650" lon="-3.3717600">
        <ele>806.8</ele>
        <time>2022-07-31T17:24:52Z</time>
      </trkpt>
      <trkpt lat="40.7005090" lon="-3.3717590">
        <ele>806.9</ele>
        <time>2022-07-31T17:24:53Z</time>
      </trkpt>
      <trkpt lat="40.7005470" lon="-3.3717730">
        <ele>807.0</ele>
        <time>2022-07-31T17:24:54Z</time>
      </trkpt>
      <trkpt lat="40.7005880" lon="-3.3717780">
        <ele>807.1</ele>
        <time>2022-07-31T17:24:55Z</time>
      </trkpt>
      <trkpt lat="40.7006230" lon="-3.3717920">
        <ele>807.2</ele>
        <time>2022-07-31T17:24:56Z</time>
      </trkpt>
      <trkpt lat="40.7006640" lon="-3.3718110">
        <ele>807.3</ele>
        <time>2022-07-31T17:24:57Z</time>
      </trkpt>
      <trkpt lat="40.7006960" lon="-3.3718320">
        <ele>807.4</ele>
        <time>2022-07-31T17:24:58Z</time>
      </trkpt>
      <trkpt lat="40.7007350" lon="-3.3718620">
        <ele>807.6</ele>
        <time>2022-07-31T17:24:59Z</time>
      </trkpt>
      <trkpt lat="40.7007680" lon="-3.3718880">
        <ele>807.7</ele>
        <time>2022-07-31T17:25:00Z</time>
      </trkpt>
      <trkpt lat="40.7008000" lon="-3.3719170">
        <ele>807.8</ele>
        <time>2022-07-31T17:25:01Z</time>
      </trkpt>
      <trkpt lat="40.7008290" lon="-3.3719520">
        <ele>807.9</ele>
        <time>2022-07-31T17:25:02Z</time>
      </trkpt>
      <trkpt lat="40.7008650" lon="-3.3719820">
        <ele>808.0</ele>
        <time>2022-07-31T17:25:03Z</time>
      </trkpt>
      <trkpt lat="40.7009010" lon="-3.3720130">
        <ele>808.1</ele>
        <time>2022-07-31T17:25:04Z</time>
      </trkpt>
      <trkpt lat="40.7009330" lon="-3.3720380">
        <ele>808.3</ele>
        <time>2022-07-31T17:25:05Z</time>
      </trkpt>
      <trkpt lat="40.7009570" lon="-3.3720650">
        <ele>808.3</ele>
        <time>2022-07-31T17:25:06Z</time>
      </trkpt>
      <trkpt lat="40.7009870" lon="-3.3720890">
        <ele>808.4</ele>
        <time>2022-07-31T17:25:07Z</time>
      </trkpt>
      <trkpt lat="40.7010150" lon="-3.3721100">
        <ele>808.5</ele>
        <time>2022-07-31T17:25:08Z</time>
      </trkpt>
      <trkpt lat="40.7010450" lon="-3.3721280">
        <ele>808.6</ele>
        <time>2022-07-31T17:25:09Z</time>
      </trkpt>
      <trkpt lat="40.7010830" lon="-3.3721450">
        <ele>808.6</ele>
        <time>2022-07-31T17:25:10Z</time>
      </trkpt>
      <trkpt lat="40.7011210" lon="-3.3721550">
        <ele>808.7</ele>
        <time>2022-07-31T17:25:11Z</time>
      </trkpt>
      <trkpt lat="40.7011590" lon="-3.3721570">
        <ele>808.8</ele>
        <time>2022-07-31T17:25:12Z</time>
      </trkpt>
      <trkpt lat="40.7012010" lon="-3.3721540">
        <ele>808.9</ele>
        <time>2022-07-31T17:25:13Z</time>
      </trkpt>
      <trkpt lat="40.7012380" lon="-3.3721520">
        <ele>809.2</ele>
        <time>2022-07-31T17:25:14Z</time>
      </trkpt>
      <trkpt lat="40.7012740" lon="-3.3721480">
        <ele>809.4</ele>
        <time>2022-07-31T17:25:15Z</time>
      </trkpt>
      <trkpt lat="40.7013150" lon="-3.3721460">
        <ele>809.6</ele>
        <time>2022-07-31T17:25:16Z</time>
      </trkpt>
      <trkpt lat="40.7013510" lon="-3.3721400">
        <ele>809.9</ele>
        <time>2022-07-31T17:25:17Z</time>
      </trkpt>
      <trkpt lat="40.7013860" lon="-3.3721310">
        <ele>810.1</ele>
        <time>2022-07-31T17:25:18Z</time>
      </trkpt>
      <trkpt lat="40.7014210" lon="-3.3721220">
        <ele>810.3</ele>
        <time>2022-07-31T17:25:19Z</time>
      </trkpt>
      <trkpt lat="40.7014590" lon="-3.3721230">
        <ele>810.6</ele>
        <time>2022-07-31T17:25:20Z</time>
      </trkpt>
      <trkpt lat="40.7014910" lon="-3.3721260">
        <ele>810.8</ele>
        <time>2022-07-31T17:25:21Z</time>
      </trkpt>
      <trkpt lat="40.7015180" lon="-3.3721220">
        <ele>811.0</ele>
        <time>2022-07-31T17:25:22Z</time>
      </trkpt>
      <trkpt lat="40.7015450" lon="-3.3721210">
        <ele>811.2</ele>
        <time>2022-07-31T17:25:23Z</time>
      </trkpt>
      <trkpt lat="40.7015750" lon="-3.3721170">
        <ele>811.4</ele>
        <time>2022-07-31T17:25:24Z</time>
      </trkpt>
      <trkpt lat="40.7015860" lon="-3.3721160">
        <ele>811.5</ele>
        <time>2022-07-31T17:25:25Z</time>
      </trkpt>
      <trkpt lat="40.7016130" lon="-3.3721070">
        <ele>811.8</ele>
        <time>2022-07-31T17:25:26Z</time>
      </trkpt>
      <trkpt lat="40.7016410" lon="-3.3720970">
        <ele>812.0</ele>
        <time>2022-07-31T17:25:27Z</time>
      </trkpt>
      <trkpt lat="40.7016780" lon="-3.3720910">
        <ele>812.3</ele>
        <time>2022-07-31T17:25:28Z</time>
      </trkpt>
      <trkpt lat="40.7016890" lon="-3.3720880">
        <ele>812.5</ele>
        <time>2022-07-31T17:25:29Z</time>
      </trkpt>
      <trkpt lat="40.7017220" lon="-3.3720790">
        <ele>812.8</ele>
        <time>2022-07-31T17:25:30Z</time>
      </trkpt>
      <trkpt lat="40.7017350" lon="-3.3720760">
        <ele>812.9</ele>
        <time>2022-07-31T17:25:31Z</time>
      </trkpt>
      <trkpt lat="40.7017620" lon="-3.3720680">
        <ele>813.2</ele>
        <time>2022-07-31T17:25:32Z</time>
      </trkpt>
      <trkpt lat="40.7017980" lon="-3.3720590">
        <ele>813.5</ele>
        <time>2022-07-31T17:25:33Z</time>
      </trkpt>
      <trkpt lat="40.7018090" lon="-3.3720560">
        <ele>813.6</ele>
        <time>2022-07-31T17:25:34Z</time>
      </trkpt>
      <trkpt lat="40.7018370" lon="-3.3720420">
        <ele>813.9</ele>
        <time>2022-07-31T17:25:35Z</time>
      </trkpt>
      <trkpt lat="40.7018440" lon="-3.3720380">
        <ele>814.0</ele>
        <time>2022-07-31T17:25:36Z</time>
      </trkpt>
      <trkpt lat="40.7018760" lon="-3.3720280">
        <ele>814.3</ele>
        <time>2022-07-31T17:25:37Z</time>
      </trkpt>
      <trkpt lat="40.7018890" lon="-3.3720260">
        <ele>814.4</ele>
        <time>2022-07-31T17:25:38Z</time>
      </trkpt>
      <trkpt lat="40.7019240" lon="-3.3720300">
        <ele>814.8</ele>
        <time>2022-07-31T17:25:39Z</time>
      </trkpt>
      <trkpt lat="40.7019360" lon="-3.3720300">
        <ele>814.9</ele>
        <time>2022-07-31T17:25:40Z</time>
      </trkpt>
      <trkpt lat="40.7019750" lon="-3.3720260">
        <ele>815.2</ele>
        <time>2022-07-31T17:25:41Z</time>
      </trkpt>
      <trkpt lat="40.7019860" lon="-3.3720230">
        <ele>815.3</ele>
        <time>2022-07-31T17:25:42Z</time>
      </trkpt>
      <trkpt lat="40.7020180" lon="-3.3720150">
        <ele>815.6</ele>
        <time>2022-07-31T17:25:43Z</time>
      </trkpt>
      <trkpt lat="40.7020300" lon="-3.3720140">
        <ele>815.7</ele>
        <time>2022-07-31T17:25:44Z</time>
      </trkpt>
      <trkpt lat="40.7020650" lon="-3.3720170">
        <ele>816.0</ele>
        <time>2022-07-31T17:25:45Z</time>
      </trkpt>
      <trkpt lat="40.7020760" lon="-3.3720180">
        <ele>816.1</ele>
        <time>2022-07-31T17:25:46Z</time>
      </trkpt>
      <trkpt lat="40.7021090" lon="-3.3720240">
        <ele>816.4</ele>
        <time>2022-07-31T17:25:47Z</time>
      </trkpt>
      <trkpt lat="40.7021460" lon="-3.3720240">
        <ele>816.7</ele>
        <time>2022-07-31T17:25:48Z</time>
      </trkpt>
      <trkpt lat="40.7021590" lon="-3.3720210">
        <ele>816.8</ele>
        <time>2022-07-31T17:25:49Z</time>
      </trkpt>
      <trkpt lat="40.7021950" lon="-3.3720200">
        <ele>817.1</ele>
        <time>2022-07-31T17:25:50Z</time>
      </trkpt>
      <trkpt lat="40.7022100" lon="-3.3720190">
        <ele>817.2</ele>
        <time>2022-07-31T17:25:51Z</time>
      </trkpt>
      <trkpt lat="40.7022440" lon="-3.3720240">
        <ele>817.5</ele>
        <time>2022-07-31T17:25:52Z</time>
      </trkpt>
      <trkpt lat="40.7022580" lon="-3.3720240">
        <ele>817.7</ele>
        <time>2022-07-31T17:25:53Z</time>
      </trkpt>
      <trkpt lat="40.7022890" lon="-3.3720150">
        <ele>817.9</ele>
        <time>2022-07-31T17:25:54Z</time>
      </trkpt>
      <trkpt lat="40.7023000" lon="-3.3720080">
        <ele>818.0</ele>
        <time>2022-07-31T17:25:55Z</time>
      </trkpt>
      <trkpt lat="40.7023320" lon="-3.3720040">
        <ele>818.3</ele>
        <time>2022-07-31T17:25:56Z</time>
      </trkpt>
      <trkpt lat="40.7023430" lon="-3.3720020">
        <ele>818.4</ele>
        <time>2022-07-31T17:25:57Z</time>
      </trkpt>
      <trkpt lat="40.7023700" lon="-3.3719970">
        <ele>818.7</ele>
        <time>2022-07-31T17:25:58Z</time>
      </trkpt>
      <trkpt lat="40.7023820" lon="-3.3719960">
        <ele>818.8</ele>
        <time>2022-07-31T17:25:59Z</time>
      </trkpt>
      <trkpt lat="40.7024210" lon="-3.3719940">
        <ele>819.1</ele>
        <time>2022-07-31T17:26:00Z</time>
      </trkpt>
      <trkpt lat="40.7024340" lon="-3.3719940">
        <ele>819.2</ele>
        <time>2022-07-31T17:26:01Z</time>
      </trkpt>
      <trkpt lat="40.7024680" lon="-3.3719880">
        <ele>819.5</ele>
        <time>2022-07-31T17:26:02Z</time>
      </trkpt>
      <trkpt lat="40.7024790" lon="-3.3719850">
        <ele>819.6</ele>
        <time>2022-07-31T17:26:03Z</time>
      </trkpt>
      <trkpt lat="40.7025160" lon="-3.3719830">
        <ele>819.9</ele>
        <time>2022-07-31T17:26:04Z</time>
      </trkpt>
      <trkpt lat="40.7025290" lon="-3.3719790">
        <ele>820.1</ele>
        <time>2022-07-31T17:26:05Z</time>
      </trkpt>
      <trkpt lat="40.7025620" lon="-3.3719610">
        <ele>820.3</ele>
        <time>2022-07-31T17:26:06Z</time>
      </trkpt>
      <trkpt lat="40.7025700" lon="-3.3719560">
        <ele>820.4</ele>
        <time>2022-07-31T17:26:07Z</time>
      </trkpt>
      <trkpt lat="40.7026020" lon="-3.3719430">
        <ele>820.7</ele>
        <time>2022-07-31T17:26:08Z</time>
      </trkpt>
      <trkpt lat="40.7026110" lon="-3.3719380">
        <ele>820.7</ele>
        <time>2022-07-31T17:26:09Z</time>
      </trkpt>
      <trkpt lat="40.7026420" lon="-3.3719250">
        <ele>821.0</ele>
        <time>2022-07-31T17:26:10Z</time>
      </trkpt>
      <trkpt lat="40.7026540" lon="-3.3719200">
        <ele>821.1</ele>
        <time>2022-07-31T17:26:11Z</time>
      </trkpt>
      <trkpt lat="40.7026930" lon="-3.3719070">
        <ele>821.3</ele>
        <time>2022-07-31T17:26:12Z</time>
      </trkpt>
      <trkpt lat="40.7027070" lon="-3.3719060">
        <ele>821.4</ele>
        <time>2022-07-31T17:26:13Z</time>
      </trkpt>
      <trkpt lat="40.7027440" lon="-3.3718940">
        <ele>821.6</ele>
        <time>2022-07-31T17:26:14Z</time>
      </trkpt>
      <trkpt lat="40.7027590" lon="-3.3718860">
        <ele>821.7</ele>
        <time>2022-07-31T17:26:15Z</time>
      </trkpt>
      <trkpt lat="40.7027860" lon="-3.3718800">
        <ele>821.9</ele>
        <time>2022-07-31T17:26:16Z</time>
      </trkpt>
      <trkpt lat="40.7028120" lon="-3.3718650">
        <ele>822.0</ele>
        <time>2022-07-31T17:26:17Z</time>
      </trkpt>
      <trkpt lat="40.7028430" lon="-3.3718500">
        <ele>822.2</ele>
        <time>2022-07-31T17:26:18Z</time>
      </trkpt>
      <trkpt lat="40.7028720" lon="-3.3718310">
        <ele>822.4</ele>
        <time>2022-07-31T17:26:19Z</time>
      </trkpt>
      <trkpt lat="40.7029000" lon="-3.3718150">
        <ele>822.5</ele>
        <time>2022-07-31T17:26:20Z</time>
      </trkpt>
      <trkpt lat="40.7029340" lon="-3.3717870">
        <ele>822.7</ele>
        <time>2022-07-31T17:26:21Z</time>
      </trkpt>
      <trkpt lat="40.7029480" lon="-3.3717780">
        <ele>822.7</ele>
        <time>2022-07-31T17:26:22Z</time>
      </trkpt>
      <trkpt lat="40.7029790" lon="-3.3717580">
        <ele>822.9</ele>
        <time>2022-07-31T17:26:23Z</time>
      </trkpt>
      <trkpt lat="40.7030080" lon="-3.3717330">
        <ele>823.0</ele>
        <time>2022-07-31T17:26:24Z</time>
      </trkpt>
      <trkpt lat="40.7030410" lon="-3.3717200">
        <ele>823.2</ele>
        <time>2022-07-31T17:26:25Z</time>
      </trkpt>
      <trkpt lat="40.7030650" lon="-3.3716990">
        <ele>823.3</ele>
        <time>2022-07-31T17:26:26Z</time>
      </trkpt>
      <trkpt lat="40.7030930" lon="-3.3716840">
        <ele>823.4</ele>
        <time>2022-07-31T17:26:27Z</time>
      </trkpt>
      <trkpt lat="40.7031200" lon="-3.3716690">
        <ele>823.5</ele>
        <time>2022-07-31T17:26:28Z</time>
      </trkpt>
      <trkpt lat="40.7031580" lon="-3.3716470">
        <ele>823.7</ele>
        <time>2022-07-31T17:26:29Z</time>
      </trkpt>
      <trkpt lat="40.7031730" lon="-3.3716380">
        <ele>823.8</ele>
        <time>2022-07-31T17:26:30Z</time>
      </trkpt>
      <trkpt lat="40.7032030" lon="-3.3716260">
        <ele>823.9</ele>
        <time>2022-07-31T17:26:31Z</time>
      </trkpt>
      <trkpt lat="40.7032340" lon="-3.3716140">
        <ele>824.0</ele>
        <time>2022-07-31T17:26:32Z</time>
      </trkpt>
      <trkpt lat="40.7032630" lon="-3.3715930">
        <ele>824.1</ele>
        <time>2022-07-31T17:26:33Z</time>
      </trkpt>
      <trkpt lat="40.7033020" lon="-3.3715850">
        <ele>824.2</ele>
        <time>2022-07-31T17:26:34Z</time>
      </trkpt>
      <trkpt lat="40.7033420" lon="-3.3715710">
        <ele>824.3</ele>
        <time>2022-07-31T17:26:35Z</time>
      </trkpt>
      <trkpt lat="40.7033590" lon="-3.3715650">
        <ele>824.4</ele>
        <time>2022-07-31T17:26:36Z</time>
      </trkpt>
      <trkpt lat="40.7033940" lon="-3.3715510">
        <ele>824.5</ele>
        <time>2022-07-31T17:26:37Z</time>
      </trkpt>
      <trkpt lat="40.7034290" lon="-3.3715390">
        <ele>824.6</ele>
        <time>2022-07-31T17:26:38Z</time>
      </trkpt>
      <trkpt lat="40.7034660" lon="-3.3715350">
        <ele>824.7</ele>
        <time>2022-07-31T17:26:39Z</time>
      </trkpt>
      <trkpt lat="40.7035000" lon="-3.3715280">
        <ele>824.8</ele>
        <time>2022-07-31T17:26:40Z</time>
      </trkpt>
      <trkpt lat="40.7035400" lon="-3.3715200">
        <ele>824.9</ele>
        <time>2022-07-31T17:26:41Z</time>
      </trkpt>
      <trkpt lat="40.7035780" lon="-3.3715210">
        <ele>824.9</ele>
        <time>2022-07-31T17:26:42Z</time>
      </trkpt>
      <trkpt lat="40.7036170" lon="-3.3715260">
        <ele>825.0</ele>
        <time>2022-07-31T17:26:43Z</time>
      </trkpt>
      <trkpt lat="40.7036640" lon="-3.3715310">
        <ele>825.1</ele>
        <time>2022-07-31T17:26:44Z</time>
      </trkpt>
      <trkpt lat="40.7037030" lon="-3.3715370">
        <ele>825.2</ele>
        <time>2022-07-31T17:26:45Z</time>
      </trkpt>
      <trkpt lat="40.7037430" lon="-3.3715410">
        <ele>825.3</ele>
        <time>2022-07-31T17:26:46Z</time>
      </trkpt>
      <trkpt lat="40.7037850" lon="-3.3715570">
        <ele>825.4</ele>
        <time>2022-07-31T17:26:47Z</time>
      </trkpt>
      <trkpt lat="40.7038280" lon="-3.3715640">
        <ele>825.4</ele>
        <time>2022-07-31T17:26:48Z</time>
      </trkpt>
      <trkpt lat="40.7038590" lon="-3.3715730">
        <ele>825.5</ele>
        <time>2022-07-31T17:26:49Z</time>
      </trkpt>
      <trkpt lat="40.7039010" lon="-3.3715750">
        <ele>825.6</ele>
        <time>2022-07-31T17:26:50Z</time>
      </trkpt>
      <trkpt lat="40.7039460" lon="-3.3715720">
        <ele>825.6</ele>
        <time>2022-07-31T17:26:51Z</time>
      </trkpt>
      <trkpt lat="40.7039880" lon="-3.3715760">
        <ele>825.7</ele>
        <time>2022-07-31T17:26:52Z</time>
      </trkpt>
      <trkpt lat="40.7040270" lon="-3.3715720">
        <ele>825.8</ele>
        <time>2022-07-31T17:26:53Z</time>
      </trkpt>
      <trkpt lat="40.7040680" lon="-3.3715650">
        <ele>825.9</ele>
        <time>2022-07-31T17:26:54Z</time>
      </trkpt>
      <trkpt lat="40.7041110" lon="-3.3715510">
        <ele>826.0</ele>
        <time>2022-07-31T17:26:55Z</time>
      </trkpt>
      <trkpt lat="40.7041460" lon="-3.3715370">
        <ele>826.1</ele>
        <time>2022-07-31T17:26:56Z</time>
      </trkpt>
      <trkpt lat="40.7041900" lon="-3.3715230">
        <ele>826.2</ele>
        <time>2022-07-31T17:26:57Z</time>
      </trkpt>
      <trkpt lat="40.7042260" lon="-3.3715180">
        <ele>826.2</ele>
        <time>2022-07-31T17:26:58Z</time>
      </trkpt>
      <trkpt lat="40.7042680" lon="-3.3715030">
        <ele>826.3</ele>
        <time>2022-07-31T17:26:59Z</time>
      </trkpt>
      <trkpt lat="40.7043050" lon="-3.3714940">
        <ele>826.4</ele>
        <time>2022-07-31T17:27:00Z</time>
      </trkpt>
      <trkpt lat="40.7043400" lon="-3.3714860">
        <ele>826.5</ele>
        <time>2022-07-31T17:27:01Z</time>
      </trkpt>
      <trkpt lat="40.7043770" lon="-3.3714760">
        <ele>826.5</ele>
        <time>2022-07-31T17:27:02Z</time>
      </trkpt>
      <trkpt lat="40.7044130" lon="-3.3714610">
        <ele>826.6</ele>
        <time>2022-07-31T17:27:03Z</time>
      </trkpt>
      <trkpt lat="40.7044530" lon="-3.3714510">
        <ele>826.6</ele>
        <time>2022-07-31T17:27:04Z</time>
      </trkpt>
      <trkpt lat="40.7044910" lon="-3.3714380">
        <ele>826.7</ele>
        <time>2022-07-31T17:27:05Z</time>
      </trkpt>
      <trkpt lat="40.7045290" lon="-3.3714270">
        <ele>826.7</ele>
        <time>2022-07-31T17:27:06Z</time>
      </trkpt>
      <trkpt lat="40.7045700" lon="-3.3714140">
        <ele>826.7</ele>
        <time>2022-07-31T17:27:07Z</time>
      </trkpt>
      <trkpt lat="40.7046100" lon="-3.3713920">
        <ele>826.8</ele>
        <time>2022-07-31T17:27:08Z</time>
      </trkpt>
      <trkpt lat="40.7046570" lon="-3.3713560">
        <ele>826.8</ele>
        <time>2022-07-31T17:27:09Z</time>
      </trkpt>
      <trkpt lat="40.7047040" lon="-3.3713300">
        <ele>826.8</ele>
        <time>2022-07-31T17:27:10Z</time>
      </trkpt>
      <trkpt lat="40.7047530" lon="-3.3712910">
        <ele>826.7</ele>
        <time>2022-07-31T17:27:11Z</time>
      </trkpt>
      <trkpt lat="40.7048040" lon="-3.3712540">
        <ele>826.7</ele>
        <time>2022-07-31T17:27:12Z</time>
      </trkpt>
      <trkpt lat="40.7048520" lon="-3.3712240">
        <ele>826.7</ele>
        <time>2022-07-31T17:27:13Z</time>
      </trkpt>
      <trkpt lat="40.7048960" lon="-3.3711910">
        <ele>826.8</ele>
        <time>2022-07-31T17:27:14Z</time>
      </trkpt>
      <trkpt lat="40.7049430" lon="-3.3711410">
        <ele>826.8</ele>
        <time>2022-07-31T17:27:15Z</time>
      </trkpt>
      <trkpt lat="40.7049930" lon="-3.3710980">
        <ele>826.9</ele>
        <time>2022-07-31T17:27:16Z</time>
      </trkpt>
      <trkpt lat="40.7050430" lon="-3.3710570">
        <ele>827.0</ele>
        <time>2022-07-31T17:27:17Z</time>
      </trkpt>
      <trkpt lat="40.7050920" lon="-3.3710260">
        <ele>827.0</ele>
        <time>2022-07-31T17:27:18Z</time>
      </trkpt>
      <trkpt lat="40.7051370" lon="-3.3709990">
        <ele>827.1</ele>
        <time>2022-07-31T17:27:19Z</time>
      </trkpt>
      <trkpt lat="40.7051800" lon="-3.3709710">
        <ele>827.2</ele>
        <time>2022-07-31T17:27:20Z</time>
      </trkpt>
      <trkpt lat="40.7052210" lon="-3.3709470">
        <ele>827.2</ele>
        <time>2022-07-31T17:27:21Z</time>
      </trkpt>
      <trkpt lat="40.7052630" lon="-3.3709210">
        <ele>827.3</ele>
        <time>2022-07-31T17:27:22Z</time>
      </trkpt>
      <trkpt lat="40.7053100" lon="-3.3708980">
        <ele>827.3</ele>
        <time>2022-07-31T17:27:23Z</time>
      </trkpt>
      <trkpt lat="40.7053630" lon="-3.3708790">
        <ele>827.3</ele>
        <time>2022-07-31T17:27:24Z</time>
      </trkpt>
      <trkpt lat="40.7054080" lon="-3.3708580">
        <ele>827.3</ele>
        <time>2022-07-31T17:27:25Z</time>
      </trkpt>
      <trkpt lat="40.7054510" lon="-3.3708350">
        <ele>827.4</ele>
        <time>2022-07-31T17:27:26Z</time>
      </trkpt>
      <trkpt lat="40.7054960" lon="-3.3708110">
        <ele>827.4</ele>
        <time>2022-07-31T17:27:27Z</time>
      </trkpt>
      <trkpt lat="40.7055430" lon="-3.3707890">
        <ele>827.4</ele>
        <time>2022-07-31T17:27:28Z</time>
      </trkpt>
      <trkpt lat="40.7055840" lon="-3.3707720">
        <ele>827.4</ele>
        <time>2022-07-31T17:27:29Z</time>
      </trkpt>
      <trkpt lat="40.7056300" lon="-3.3707480">
        <ele>827.3</ele>
        <time>2022-07-31T17:27:30Z</time>
      </trkpt>
      <trkpt lat="40.7056790" lon="-3.3707300">
        <ele>827.3</ele>
        <time>2022-07-31T17:27:31Z</time>
      </trkpt>
      <trkpt lat="40.7057230" lon="-3.3707210">
        <ele>827.3</ele>
        <time>2022-07-31T17:27:32Z</time>
      </trkpt>
      <trkpt lat="40.7057710" lon="-3.3707040">
        <ele>827.3</ele>
        <time>2022-07-31T17:27:33Z</time>
      </trkpt>
      <trkpt lat="40.7058190" lon="-3.3706880">
        <ele>827.3</ele>
        <time>2022-07-31T17:27:34Z</time>
      </trkpt>
      <trkpt lat="40.7058620" lon="-3.3706770">
        <ele>827.3</ele>
        <time>2022-07-31T17:27:35Z</time>
      </trkpt>
      <trkpt lat="40.7059130" lon="-3.3706660">
        <ele>827.2</ele>
        <time>2022-07-31T17:27:36Z</time>
      </trkpt>
      <trkpt lat="40.7059530" lon="-3.3706550">
        <ele>827.2</ele>
        <time>2022-07-31T17:27:37Z</time>
      </trkpt>
      <trkpt lat="40.7059960" lon="-3.3706380">
        <ele>827.1</ele>
        <time>2022-07-31T17:27:38Z</time>
      </trkpt>
      <trkpt lat="40.7060330" lon="-3.3706250">
        <ele>827.0</ele>
        <time>2022-07-31T17:27:39Z</time>
      </trkpt>
      <trkpt lat="40.7060730" lon="-3.3706120">
        <ele>826.9</ele>
        <time>2022-07-31T17:27:40Z</time>
      </trkpt>
      <trkpt lat="40.7061110" lon="-3.3706010">
        <ele>826.8</ele>
        <time>2022-07-31T17:27:41Z</time>
      </trkpt>
      <trkpt lat="40.7061600" lon="-3.3705950">
        <ele>826.7</ele>
        <time>2022-07-31T17:27:42Z</time>
      </trkpt>
      <trkpt lat="40.7062080" lon="-3.3705750">
        <ele>826.5</ele>
        <time>2022-07-31T17:27:43Z</time>
      </trkpt>
      <trkpt lat="40.7062570" lon="-3.3705540">
        <ele>826.3</ele>
        <time>2022-07-31T17:27:44Z</time>
      </trkpt>
      <trkpt lat="40.7063040" lon="-3.3705300">
        <ele>826.1</ele>
        <time>2022-07-31T17:27:45Z</time>
      </trkpt>
      <trkpt lat="40.7063530" lon="-3.3705070">
        <ele>825.9</ele>
        <time>2022-07-31T17:27:46Z</time>
      </trkpt>
      <trkpt lat="40.7064020" lon="-3.3704990">
        <ele>825.7</ele>
        <time>2022-07-31T17:27:47Z</time>
      </trkpt>
      <trkpt lat="40.7064560" lon="-3.3704840">
        <ele>825.4</ele>
        <time>2022-07-31T17:27:48Z</time>
      </trkpt>
      <trkpt lat="40.7065090" lon="-3.3704730">
        <ele>825.1</ele>
        <time>2022-07-31T17:27:49Z</time>
      </trkpt>
      <trkpt lat="40.7065640" lon="-3.3704650">
        <ele>824.8</ele>
        <time>2022-07-31T17:27:50Z</time>
      </trkpt>
      <trkpt lat="40.7066200" lon="-3.3704600">
        <ele>824.5</ele>
        <time>2022-07-31T17:27:51Z</time>
      </trkpt>
      <trkpt lat="40.7066750" lon="-3.3704500">
        <ele>824.1</ele>
        <time>2022-07-31T17:27:52Z</time>
      </trkpt>
      <trkpt lat="40.7067340" lon="-3.3704400">
        <ele>823.6</ele>
        <time>2022-07-31T17:27:53Z</time>
      </trkpt>
      <trkpt lat="40.7067920" lon="-3.3704360">
        <ele>823.1</ele>
        <time>2022-07-31T17:27:54Z</time>
      </trkpt>
      <trkpt lat="40.7068600" lon="-3.3704310">
        <ele>822.5</ele>
        <time>2022-07-31T17:27:55Z</time>
      </trkpt>
      <trkpt lat="40.7069360" lon="-3.3704220">
        <ele>821.7</ele>
        <time>2022-07-31T17:27:56Z</time>
      </trkpt>
      <trkpt lat="40.7070130" lon="-3.3704120">
        <ele>820.9</ele>
        <time>2022-07-31T17:27:57Z</time>
      </trkpt>
      <trkpt lat="40.7071130" lon="-3.3703950">
        <ele>819.9</ele>
        <time>2022-07-31T17:27:58Z</time>
      </trkpt>
      <trkpt lat="40.7072160" lon="-3.3703580">
        <ele>819.0</ele>
        <time>2022-07-31T17:27:59Z</time>
      </trkpt>
      <trkpt lat="40.7073220" lon="-3.3703220">
        <ele>818.2</ele>
        <time>2022-07-31T17:28:00Z</time>
      </trkpt>
      <trkpt lat="40.7074350" lon="-3.3702860">
        <ele>817.6</ele>
        <time>2022-07-31T17:28:01Z</time>
      </trkpt>
      <trkpt lat="40.7075550" lon="-3.3702370">
        <ele>817.2</ele>
        <time>2022-07-31T17:28:02Z</time>
      </trkpt>
      <trkpt lat="40.7076620" lon="-3.3701870">
        <ele>816.8</ele>
        <time>2022-07-31T17:28:03Z</time>
      </trkpt>
      <trkpt lat="40.7077630" lon="-3.3701370">
        <ele>816.6</ele>
        <time>2022-07-31T17:28:04Z</time>
      </trkpt>
      <trkpt lat="40.7078590" lon="-3.3700840">
        <ele>816.5</ele>
        <time>2022-07-31T17:28:05Z</time>
      </trkpt>
      <trkpt lat="40.7079570" lon="-3.3700270">
        <ele>816.3</ele>
        <time>2022-07-31T17:28:06Z</time>
      </trkpt>
      <trkpt lat="40.7080470" lon="-3.3699660">
        <ele>816.3</ele>
        <time>2022-07-31T17:28:07Z</time>
      </trkpt>
      <trkpt lat="40.7081410" lon="-3.3699030">
        <ele>816.4</ele>
        <time>2022-07-31T17:28:08Z</time>
      </trkpt>
      <trkpt lat="40.7082290" lon="-3.3698580">
        <ele>816.5</ele>
        <time>2022-07-31T17:28:09Z</time>
      </trkpt>
      <trkpt lat="40.7083160" lon="-3.3698000">
        <ele>816.7</ele>
        <time>2022-07-31T17:28:10Z</time>
      </trkpt>
      <trkpt lat="40.7083970" lon="-3.3697440">
        <ele>816.9</ele>
        <time>2022-07-31T17:28:11Z</time>
      </trkpt>
      <trkpt lat="40.7084650" lon="-3.3696940">
        <ele>817.1</ele>
        <time>2022-07-31T17:28:12Z</time>
      </trkpt>
      <trkpt lat="40.7085320" lon="-3.3696510">
        <ele>817.3</ele>
        <time>2022-07-31T17:28:13Z</time>
      </trkpt>
      <trkpt lat="40.7085950" lon="-3.3696070">
        <ele>817.4</ele>
        <time>2022-07-31T17:28:14Z</time>
      </trkpt>
      <trkpt lat="40.7086580" lon="-3.3695630">
        <ele>817.6</ele>
        <time>2022-07-31T17:28:15Z</time>
      </trkpt>
      <trkpt lat="40.7087250" lon="-3.3695090">
        <ele>817.7</ele>
        <time>2022-07-31T17:28:16Z</time>
      </trkpt>
      <trkpt lat="40.7087800" lon="-3.3694610">
        <ele>817.8</ele>
        <time>2022-07-31T17:28:17Z</time>
      </trkpt>
      <trkpt lat="40.7088220" lon="-3.3694200">
        <ele>817.9</ele>
        <time>2022-07-31T17:28:18Z</time>
      </trkpt>
      <trkpt lat="40.7088710" lon="-3.3693780">
        <ele>818.0</ele>
        <time>2022-07-31T17:28:19Z</time>
      </trkpt>
      <trkpt lat="40.7089230" lon="-3.3693340">
        <ele>818.0</ele>
        <time>2022-07-31T17:28:20Z</time>
      </trkpt>
      <trkpt lat="40.7089810" lon="-3.3692950">
        <ele>818.1</ele>
        <time>2022-07-31T17:28:21Z</time>
      </trkpt>
      <trkpt lat="40.7090390" lon="-3.3692590">
        <ele>818.1</ele>
        <time>2022-07-31T17:28:22Z</time>
      </trkpt>
      <trkpt lat="40.7090970" lon="-3.3692230">
        <ele>818.2</ele>
        <time>2022-07-31T17:28:23Z</time>
      </trkpt>
      <trkpt lat="40.7091530" lon="-3.3691860">
        <ele>818.3</ele>
        <time>2022-07-31T17:28:24Z</time>
      </trkpt>
      <trkpt lat="40.7092170" lon="-3.3691440">
        <ele>818.4</ele>
        <time>2022-07-31T17:28:25Z</time>
      </trkpt>
      <trkpt lat="40.7092670" lon="-3.3691110">
        <ele>818.5</ele>
        <time>2022-07-31T17:28:26Z</time>
      </trkpt>
      <trkpt lat="40.7093320" lon="-3.3690750">
        <ele>818.6</ele>
        <time>2022-07-31T17:28:27Z</time>
      </trkpt>
      <trkpt lat="40.7093800" lon="-3.3690450">
        <ele>818.7</ele>
        <time>2022-07-31T17:28:28Z</time>
      </trkpt>
      <trkpt lat="40.7094340" lon="-3.3690110">
        <ele>818.9</ele>
        <time>2022-07-31T17:28:29Z</time>
      </trkpt>
      <trkpt lat="40.7094870" lon="-3.3689830">
        <ele>819.0</ele>
        <time>2022-07-31T17:28:30Z</time>
      </trkpt>
      <trkpt lat="40.7095500" lon="-3.3689560">
        <ele>819.2</ele>
        <time>2022-07-31T17:28:31Z</time>
      </trkpt>
      <trkpt lat="40.7096180" lon="-3.3689250">
        <ele>819.4</ele>
        <time>2022-07-31T17:28:32Z</time>
      </trkpt>
      <trkpt lat="40.7096870" lon="-3.3688930">
        <ele>819.7</ele>
        <time>2022-07-31T17:28:33Z</time>
      </trkpt>
      <trkpt lat="40.7097460" lon="-3.3688620">
        <ele>820.0</ele>
        <time>2022-07-31T17:28:34Z</time>
      </trkpt>
      <trkpt lat="40.7097880" lon="-3.3688410">
        <ele>820.3</ele>
        <time>2022-07-31T17:28:35Z</time>
      </trkpt>
      <trkpt lat="40.7098420" lon="-3.3688210">
        <ele>820.6</ele>
        <time>2022-07-31T17:28:36Z</time>
      </trkpt>
      <trkpt lat="40.7098950" lon="-3.3688040">
        <ele>821.0</ele>
        <time>2022-07-31T17:28:37Z</time>
      </trkpt>
      <trkpt lat="40.7099480" lon="-3.3687850">
        <ele>821.4</ele>
        <time>2022-07-31T17:28:38Z</time>
      </trkpt>
      <trkpt lat="40.7099960" lon="-3.3687630">
        <ele>821.8</ele>
        <time>2022-07-31T17:28:39Z</time>
      </trkpt>
      <trkpt lat="40.7100430" lon="-3.3687460">
        <ele>822.1</ele>
        <time>2022-07-31T17:28:40Z</time>
      </trkpt>
      <trkpt lat="40.7100890" lon="-3.3687260">
        <ele>822.4</ele>
        <time>2022-07-31T17:28:41Z</time>
      </trkpt>
      <trkpt lat="40.7101300" lon="-3.3687140">
        <ele>822.7</ele>
        <time>2022-07-31T17:28:42Z</time>
      </trkpt>
      <trkpt lat="40.7101700" lon="-3.3686920">
        <ele>823.1</ele>
        <time>2022-07-31T17:28:43Z</time>
      </trkpt>
      <trkpt lat="40.7102020" lon="-3.3686770">
        <ele>823.3</ele>
        <time>2022-07-31T17:28:44Z</time>
      </trkpt>
      <trkpt lat="40.7102270" lon="-3.3686600">
        <ele>823.6</ele>
        <time>2022-07-31T17:28:45Z</time>
      </trkpt>
      <trkpt lat="40.7102560" lon="-3.3686500">
        <ele>823.8</ele>
        <time>2022-07-31T17:28:46Z</time>
      </trkpt>
      <trkpt lat="40.7102890" lon="-3.3686370">
        <ele>824.1</ele>
        <time>2022-07-31T17:28:47Z</time>
      </trkpt>
      <trkpt lat="40.7103220" lon="-3.3686240">
        <ele>824.5</ele>
        <time>2022-07-31T17:28:48Z</time>
      </trkpt>
      <trkpt lat="40.7103560" lon="-3.3685960">
        <ele>824.9</ele>
        <time>2022-07-31T17:28:49Z</time>
      </trkpt>
      <trkpt lat="40.7103680" lon="-3.3685860">
        <ele>825.0</ele>
        <time>2022-07-31T17:28:50Z</time>
      </trkpt>
      <trkpt lat="40.7103950" lon="-3.3685700">
        <ele>825.3</ele>
        <time>2022-07-31T17:28:51Z</time>
      </trkpt>
      <trkpt lat="40.7104240" lon="-3.3685470">
        <ele>825.6</ele>
        <time>2022-07-31T17:28:52Z</time>
      </trkpt>
      <trkpt lat="40.7104320" lon="-3.3685440">
        <ele>825.7</ele>
        <time>2022-07-31T17:28:53Z</time>
      </trkpt>
      <trkpt lat="40.7104640" lon="-3.3685320">
        <ele>826.1</ele>
        <time>2022-07-31T17:28:54Z</time>
      </trkpt>
      <trkpt lat="40.7104710" lon="-3.3685310">
        <ele>826.1</ele>
        <time>2022-07-31T17:28:55Z</time>
      </trkpt>
      <trkpt lat="40.7105010" lon="-3.3685250">
        <ele>826.5</ele>
        <time>2022-07-31T17:28:56Z</time>
      </trkpt>
      <trkpt lat="40.7105230" lon="-3.3685170">
        <ele>826.7</ele>
        <time>2022-07-31T17:28:57Z</time>
      </trkpt>
      <trkpt lat="40.7105310" lon="-3.3685150">
        <ele>826.8</ele>
        <time>2022-07-31T17:28:58Z</time>
      </trkpt>
      <trkpt lat="40.7105630" lon="-3.3684950">
        <ele>827.1</ele>
        <time>2022-07-31T17:28:59Z</time>
      </trkpt>
      <trkpt lat="40.7105880" lon="-3.3684740">
        <ele>827.4</ele>
        <time>2022-07-31T17:29:00Z</time>
      </trkpt>
      <trkpt lat="40.7105920" lon="-3.3684700">
        <ele>827.5</ele>
        <time>2022-07-31T17:29:01Z</time>
      </trkpt>
      <trkpt lat="40.7105970" lon="-3.3684660">
        <ele>827.6</ele>
        <time>2022-07-31T17:29:02Z</time>
      </trkpt>
      <trkpt lat="40.7106200" lon="-3.3684520">
        <ele>827.8</ele>
        <time>2022-07-31T17:29:03Z</time>
      </trkpt>
      <trkpt lat="40.7106300" lon="-3.3684460">
        <ele>827.9</ele>
        <time>2022-07-31T17:29:04Z</time>
      </trkpt>
      <trkpt lat="40.7106480" lon="-3.3684350">
        <ele>828.1</ele>
        <time>2022-07-31T17:29:05Z</time>
      </trkpt>
      <trkpt lat="40.7106620" lon="-3.3684320">
        <ele>828.3</ele>
        <time>2022-07-31T17:29:06Z</time>
      </trkpt>
      <trkpt lat="40.7106890" lon="-3.3684160">
        <ele>828.6</ele>
        <time>2022-07-31T17:29:07Z</time>
      </trkpt>
      <trkpt lat="40.7106990" lon="-3.3684100">
        <ele>828.7</ele>
        <time>2022-07-31T17:29:08Z</time>
      </trkpt>
      <trkpt lat="40.7107320" lon="-3.3683930">
        <ele>829.0</ele>
        <time>2022-07-31T17:29:09Z</time>
      </trkpt>
      <trkpt lat="40.7107430" lon="-3.3683850">
        <ele>829.2</ele>
        <time>2022-07-31T17:29:10Z</time>
      </trkpt>
      <trkpt lat="40.7107710" lon="-3.3683640">
        <ele>829.5</ele>
        <time>2022-07-31T17:29:11Z</time>
      </trkpt>
      <trkpt lat="40.7107810" lon="-3.3683570">
        <ele>829.6</ele>
        <time>2022-07-31T17:29:12Z</time>
      </trkpt>
      <trkpt lat="40.7108010" lon="-3.3683490">
        <ele>829.8</ele>
        <time>2022-07-31T17:29:13Z</time>
      </trkpt>
      <trkpt lat="40.7108150" lon="-3.3683470">
        <ele>829.9</ele>
        <time>2022-07-31T17:29:14Z</time>
      </trkpt>
      <trkpt lat="40.7108330" lon="-3.3683380">
        <ele>830.0</ele>
        <time>2022-07-31T17:29:15Z</time>
      </trkpt>
      <trkpt lat="40.7108480" lon="-3.3683370">
        <ele>830.2</ele>
        <time>2022-07-31T17:29:16Z</time>
      </trkpt>
      <trkpt lat="40.7108620" lon="-3.3683330">
        <ele>830.3</ele>
        <time>2022-07-31T17:29:17Z</time>
      </trkpt>
      <trkpt lat="40.7108820" lon="-3.3683360">
        <ele>830.5</ele>
        <time>2022-07-31T17:29:18Z</time>
      </trkpt>
      <trkpt lat="40.7109120" lon="-3.3683290">
        <ele>830.7</ele>
        <time>2022-07-31T17:29:19Z</time>
      </trkpt>
      <trkpt lat="40.7109200" lon="-3.3683280">
        <ele>830.7</ele>
        <time>2022-07-31T17:29:20Z</time>
      </trkpt>
      <trkpt lat="40.7109340" lon="-3.3683220">
        <ele>830.8</ele>
        <time>2022-07-31T17:29:21Z</time>
      </trkpt>
      <trkpt lat="40.7109480" lon="-3.3683250">
        <ele>830.9</ele>
        <time>2022-07-31T17:29:22Z</time>
      </trkpt>
      <trkpt lat="40.7109760" lon="-3.3683310">
        <ele>831.1</ele>
        <time>2022-07-31T17:29:23Z</time>
      </trkpt>
      <trkpt lat="40.7109890" lon="-3.3683300">
        <ele>831.2</ele>
        <time>2022-07-31T17:29:24Z</time>
      </trkpt>
      <trkpt lat="40.7110020" lon="-3.3683300">
        <ele>831.3</ele>
        <time>2022-07-31T17:29:25Z</time>
      </trkpt>
      <trkpt lat="40.7110350" lon="-3.3683380">
        <ele>831.5</ele>
        <time>2022-07-31T17:29:26Z</time>
      </trkpt>
      <trkpt lat="40.7110410" lon="-3.3683400">
        <ele>831.5</ele>
        <time>2022-07-31T17:29:27Z</time>
      </trkpt>
      <trkpt lat="40.7110700" lon="-3.3683390">
        <ele>831.7</ele>
        <time>2022-07-31T17:29:28Z</time>
      </trkpt>
      <trkpt lat="40.7110810" lon="-3.3683400">
        <ele>831.7</ele>
        <time>2022-07-31T17:29:29Z</time>
      </trkpt>
      <trkpt lat="40.7110960" lon="-3.3683350">
        <ele>831.8</ele>
        <time>2022-07-31T17:29:30Z</time>
      </trkpt>
      <trkpt lat="40.7111160" lon="-3.3683330">
        <ele>831.9</ele>
        <time>2022-07-31T17:29:31Z</time>
      </trkpt>
      <trkpt lat="40.7111430" lon="-3.3683380">
        <ele>832.0</ele>
        <time>2022-07-31T17:29:32Z</time>
      </trkpt>
      <trkpt lat="40.7111550" lon="-3.3683350">
        <ele>832.0</ele>
        <time>2022-07-31T17:29:33Z</time>
      </trkpt>
      <trkpt lat="40.7111910" lon="-3.3683350">
        <ele>832.1</ele>
        <time>2022-07-31T17:29:34Z</time>
      </trkpt>
      <trkpt lat="40.7112050" lon="-3.3683330">
        <ele>832.2</ele>
        <time>2022-07-31T17:29:35Z</time>
      </trkpt>
      <trkpt lat="40.7112390" lon="-3.3683340">
        <ele>832.3</ele>
        <time>2022-07-31T17:29:36Z</time>
      </trkpt>
      <trkpt lat="40.7112510" lon="-3.3683340">
        <ele>832.3</ele>
        <time>2022-07-31T17:29:37Z</time>
      </trkpt>
      <trkpt lat="40.7112840" lon="-3.3683320">
        <ele>832.3</ele>
        <time>2022-07-31T17:29:38Z</time>
      </trkpt>
      <trkpt lat="40.7112960" lon="-3.3683330">
        <ele>832.3</ele>
        <time>2022-07-31T17:29:39Z</time>
      </trkpt>
      <trkpt lat="40.7113290" lon="-3.3683410">
        <ele>832.4</ele>
        <time>2022-07-31T17:29:40Z</time>
      </trkpt>
      <trkpt lat="40.7113400" lon="-3.3683440">
        <ele>832.4</ele>
        <time>2022-07-31T17:29:41Z</time>
      </trkpt>
      <trkpt lat="40.7113780" lon="-3.3683610">
        <ele>832.4</ele>
        <time>2022-07-31T17:29:42Z</time>
      </trkpt>
      <trkpt lat="40.7113910" lon="-3.3683690">
        <ele>832.4</ele>
        <time>2022-07-31T17:29:43Z</time>
      </trkpt>
      <trkpt lat="40.7114200" lon="-3.3683780">
        <ele>832.5</ele>
        <time>2022-07-31T17:29:44Z</time>
      </trkpt>
      <trkpt lat="40.7114520" lon="-3.3683830">
        <ele>832.5</ele>
        <time>2022-07-31T17:29:45Z</time>
      </trkpt>
      <trkpt lat="40.7114890" lon="-3.3683910">
        <ele>832.5</ele>
        <time>2022-07-31T17:29:46Z</time>
      </trkpt>
      <trkpt lat="40.7115200" lon="-3.3684010">
        <ele>832.5</ele>
        <time>2022-07-31T17:29:47Z</time>
      </trkpt>
      <trkpt lat="40.7115640" lon="-3.3684120">
        <ele>832.5</ele>
        <time>2022-07-31T17:29:48Z</time>
      </trkpt>
      <trkpt lat="40.7116040" lon="-3.3684230">
        <ele>832.5</ele>
        <time>2022-07-31T17:29:49Z</time>
      </trkpt>
      <trkpt lat="40.7116390" lon="-3.3684220">
        <ele>832.5</ele>
        <time>2022-07-31T17:29:50Z</time>
      </trkpt>
      <trkpt lat="40.7116730" lon="-3.3684210">
        <ele>832.5</ele>
        <time>2022-07-31T17:29:51Z</time>
      </trkpt>
      <trkpt lat="40.7117070" lon="-3.3684200">
        <ele>832.4</ele>
        <time>2022-07-31T17:29:52Z</time>
      </trkpt>
      <trkpt lat="40.7117450" lon="-3.3684190">
        <ele>832.4</ele>
        <time>2022-07-31T17:29:53Z</time>
      </trkpt>
      <trkpt lat="40.7117870" lon="-3.3684200">
        <ele>832.3</ele>
        <time>2022-07-31T17:29:54Z</time>
      </trkpt>
      <trkpt lat="40.7118290" lon="-3.3684080">
        <ele>832.2</ele>
        <time>2022-07-31T17:29:55Z</time>
      </trkpt>
      <trkpt lat="40.7118740" lon="-3.3684080">
        <ele>832.1</ele>
        <time>2022-07-31T17:29:56Z</time>
      </trkpt>
      <trkpt lat="40.7119130" lon="-3.3684080">
        <ele>832.0</ele>
        <time>2022-07-31T17:29:57Z</time>
      </trkpt>
      <trkpt lat="40.7119600" lon="-3.3684110">
        <ele>831.9</ele>
        <time>2022-07-31T17:29:58Z</time>
      </trkpt>
      <trkpt lat="40.7120140" lon="-3.3684020">
        <ele>831.7</ele>
        <time>2022-07-31T17:29:59Z</time>
      </trkpt>
      <trkpt lat="40.7120700" lon="-3.3683930">
        <ele>831.6</ele>
        <time>2022-07-31T17:30:00Z</time>
      </trkpt>
      <trkpt lat="40.7121290" lon="-3.3683950">
        <ele>831.4</ele>
        <time>2022-07-31T17:30:01Z</time>
      </trkpt>
      <trkpt lat="40.7121910" lon="-3.3684000">
        <ele>831.1</ele>
        <time>2022-07-31T17:30:02Z</time>
      </trkpt>
      <trkpt lat="40.7122550" lon="-3.3684120">
        <ele>830.9</ele>
        <time>2022-07-31T17:30:03Z</time>
      </trkpt>
      <trkpt lat="40.7123190" lon="-3.3684330">
        <ele>830.7</ele>
        <time>2022-07-31T17:30:04Z</time>
      </trkpt>
      <trkpt lat="40.7123830" lon="-3.3684660">
        <ele>830.4</ele>
        <time>2022-07-31T17:30:05Z</time>
      </trkpt>
      <trkpt lat="40.7124490" lon="-3.3684980">
        <ele>830.1</ele>
        <time>2022-07-31T17:30:06Z</time>
      </trkpt>
      <trkpt lat="40.7125190" lon="-3.3685330">
        <ele>829.9</ele>
        <time>2022-07-31T17:30:07Z</time>
      </trkpt>
      <trkpt lat="40.7125900" lon="-3.3685700">
        <ele>829.6</ele>
        <time>2022-07-31T17:30:08Z</time>
      </trkpt>
      <trkpt lat="40.7126640" lon="-3.3686140">
        <ele>829.4</ele>
        <time>2022-07-31T17:30:09Z</time>
      </trkpt>
      <trkpt lat="40.7127470" lon="-3.3686560">
        <ele>829.1</ele>
        <time>2022-07-31T17:30:10Z</time>
      </trkpt>
      <trkpt lat="40.7128380" lon="-3.3686930">
        <ele>828.9</ele>
        <time>2022-07-31T17:30:11Z</time>
      </trkpt>
      <trkpt lat="40.7129160" lon="-3.3687290">
        <ele>828.6</ele>
        <time>2022-07-31T17:30:12Z</time>
      </trkpt>
      <trkpt lat="40.7129900" lon="-3.3687710">
        <ele>828.8</ele>
        <time>2022-07-31T17:30:13Z</time>
      </trkpt>
      <trkpt lat="40.7130630" lon="-3.3688130">
        <ele>829.2</ele>
        <time>2022-07-31T17:30:14Z</time>
      </trkpt>
      <trkpt lat="40.7131290" lon="-3.3688460">
        <ele>829.5</ele>
        <time>2022-07-31T17:30:15Z</time>
      </trkpt>
      <trkpt lat="40.7131920" lon="-3.3688790">
        <ele>829.8</ele>
        <time>2022-07-31T17:30:16Z</time>
      </trkpt>
      <trkpt lat="40.7132470" lon="-3.3689090">
        <ele>830.1</ele>
        <time>2022-07-31T17:30:17Z</time>
      </trkpt>
      <trkpt lat="40.7132900" lon="-3.3689460">
        <ele>830.4</ele>
        <time>2022-07-31T17:30:18Z</time>
      </trkpt>
      <trkpt lat="40.7133340" lon="-3.3689710">
        <ele>830.7</ele>
        <time>2022-07-31T17:30:19Z</time>
      </trkpt>
      <trkpt lat="40.7133830" lon="-3.3690040">
        <ele>831.1</ele>
        <time>2022-07-31T17:30:20Z</time>
      </trkpt>
      <trkpt lat="40.7134270" lon="-3.3690340">
        <ele>831.5</ele>
        <time>2022-07-31T17:30:21Z</time>
      </trkpt>
      <trkpt lat="40.7134590" lon="-3.3690700">
        <ele>831.8</ele>
        <time>2022-07-31T17:30:22Z</time>
      </trkpt>
      <trkpt lat="40.7134810" lon="-3.3691010">
        <ele>832.1</ele>
        <time>2022-07-31T17:30:23Z</time>
      </trkpt>
      <trkpt lat="40.7135110" lon="-3.3690930">
        <ele>832.4</ele>
        <time>2022-07-31T17:30:24Z</time>
      </trkpt>
      <trkpt lat="40.7135180" lon="-3.3690970">
        <ele>832.4</ele>
        <time>2022-07-31T17:30:25Z</time>
      </trkpt>
      <trkpt lat="40.7135490" lon="-3.3691040">
        <ele>832.8</ele>
        <time>2022-07-31T17:30:26Z</time>
      </trkpt>
      <trkpt lat="40.7135590" lon="-3.3691080">
        <ele>832.9</ele>
        <time>2022-07-31T17:30:27Z</time>
      </trkpt>
      <trkpt lat="40.7135900" lon="-3.3691340">
        <ele>833.2</ele>
        <time>2022-07-31T17:30:28Z</time>
      </trkpt>
      <trkpt lat="40.7135990" lon="-3.3691430">
        <ele>833.4</ele>
        <time>2022-07-31T17:30:29Z</time>
      </trkpt>
      <trkpt lat="40.7136320" lon="-3.3691560">
        <ele>833.7</ele>
        <time>2022-07-31T17:30:30Z</time>
      </trkpt>
      <trkpt lat="40.7136470" lon="-3.3691550">
        <ele>833.9</ele>
        <time>2022-07-31T17:30:31Z</time>
      </trkpt>
      <trkpt lat="40.7136830" lon="-3.3691780">
        <ele>834.3</ele>
        <time>2022-07-31T17:30:32Z</time>
      </trkpt>
      <trkpt lat="40.7136980" lon="-3.3691870">
        <ele>834.5</ele>
        <time>2022-07-31T17:30:33Z</time>
      </trkpt>
      <trkpt lat="40.7137240" lon="-3.3692130">
        <ele>834.9</ele>
        <time>2022-07-31T17:30:34Z</time>
      </trkpt>
      <trkpt lat="40.7137280" lon="-3.3692250">
        <ele>835.0</ele>
        <time>2022-07-31T17:30:35Z</time>
      </trkpt>
      <trkpt lat="40.7137730" lon="-3.3692510">
        <ele>835.6</ele>
        <time>2022-07-31T17:30:36Z</time>
      </trkpt>
      <trkpt lat="40.7138050" lon="-3.3692540">
        <ele>836.0</ele>
        <time>2022-07-31T17:30:37Z</time>
      </trkpt>
      <trkpt lat="40.7138260" lon="-3.3692810">
        <ele>836.4</ele>
        <time>2022-07-31T17:30:38Z</time>
      </trkpt>
      <trkpt lat="40.7138370" lon="-3.3692860">
        <ele>836.5</ele>
        <time>2022-07-31T17:30:39Z</time>
      </trkpt>
      <trkpt lat="40.7138500" lon="-3.3692930">
        <ele>836.7</ele>
        <time>2022-07-31T17:30:40Z</time>
      </trkpt>
      <trkpt lat="40.7138680" lon="-3.3692960">
        <ele>837.0</ele>
        <time>2022-07-31T17:30:41Z</time>
      </trkpt>
      <trkpt lat="40.7138960" lon="-3.3693180">
        <ele>837.4</ele>
        <time>2022-07-31T17:30:42Z</time>
      </trkpt>
      <trkpt lat="40.7139040" lon="-3.3693260">
        <ele>837.5</ele>
        <time>2022-07-31T17:30:43Z</time>
      </trkpt>
      <trkpt lat="40.7139310" lon="-3.3693370">
        <ele>837.9</ele>
        <time>2022-07-31T17:30:44Z</time>
      </trkpt>
      <trkpt lat="40.7139460" lon="-3.3693450">
        <ele>838.1</ele>
        <time>2022-07-31T17:30:45Z</time>
      </trkpt>
      <trkpt lat="40.7139580" lon="-3.3693530">
        <ele>838.3</ele>
        <time>2022-07-31T17:30:46Z</time>
      </trkpt>
      <trkpt lat="40.7139900" lon="-3.3693510">
        <ele>838.8</ele>
        <time>2022-07-31T17:30:47Z</time>
      </trkpt>
      <trkpt lat="40.7140100" lon="-3.3693600">
        <ele>839.0</ele>
        <time>2022-07-31T17:30:48Z</time>
      </trkpt>
      <trkpt lat="40.7140240" lon="-3.3693670">
        <ele>839.2</ele>
        <time>2022-07-31T17:30:49Z</time>
      </trkpt>
      <trkpt lat="40.7140370" lon="-3.3693810">
        <ele>839.4</ele>
        <time>2022-07-31T17:30:50Z</time>
      </trkpt>
      <trkpt lat="40.7140480" lon="-3.3693920">
        <ele>839.6</ele>
        <time>2022-07-31T17:30:51Z</time>
      </trkpt>
      <trkpt lat="40.7140690" lon="-3.3694130">
        <ele>840.0</ele>
        <time>2022-07-31T17:30:52Z</time>
      </trkpt>
      <trkpt lat="40.7140780" lon="-3.3694190">
        <ele>840.1</ele>
        <time>2022-07-31T17:30:53Z</time>
      </trkpt>
      <trkpt lat="40.7141040" lon="-3.3694330">
        <ele>840.5</ele>
        <time>2022-07-31T17:30:54Z</time>
      </trkpt>
      <trkpt lat="40.7141160" lon="-3.3694320">
        <ele>840.6</ele>
        <time>2022-07-31T17:30:55Z</time>
      </trkpt>
      <trkpt lat="40.7141420" lon="-3.3694480">
        <ele>841.0</ele>
        <time>2022-07-31T17:30:56Z</time>
      </trkpt>
      <trkpt lat="40.7141550" lon="-3.3694510">
        <ele>841.1</ele>
        <time>2022-07-31T17:30:57Z</time>
      </trkpt>
      <trkpt lat="40.7141610" lon="-3.3694650">
        <ele>841.3</ele>
        <time>2022-07-31T17:30:58Z</time>
      </trkpt>
      <trkpt lat="40.7141800" lon="-3.3694680">
        <ele>841.5</ele>
        <time>2022-07-31T17:30:59Z</time>
      </trkpt>
      <trkpt lat="40.7142110" lon="-3.3694830">
        <ele>841.8</ele>
        <time>2022-07-31T17:31:00Z</time>
      </trkpt>
      <trkpt lat="40.7142250" lon="-3.3694870">
        <ele>842.0</ele>
        <time>2022-07-31T17:31:01Z</time>
      </trkpt>
      <trkpt lat="40.7142490" lon="-3.3694900">
        <ele>842.3</ele>
        <time>2022-07-31T17:31:02Z</time>
      </trkpt>
      <trkpt lat="40.7142550" lon="-3.3694970">
        <ele>842.3</ele>
        <time>2022-07-31T17:31:03Z</time>
      </trkpt>
      <trkpt lat="40.7142600" lon="-3.3695050">
        <ele>842.4</ele>
        <time>2022-07-31T17:31:04Z</time>
      </trkpt>
      <trkpt lat="40.7142750" lon="-3.3695410">
        <ele>842.7</ele>
        <time>2022-07-31T17:31:05Z</time>
      </trkpt>
      <trkpt lat="40.7142960" lon="-3.3695800">
        <ele>843.1</ele>
        <time>2022-07-31T17:31:06Z</time>
      </trkpt>
      <trkpt lat="40.7143020" lon="-3.3695950">
        <ele>843.2</ele>
        <time>2022-07-31T17:31:07Z</time>
      </trkpt>
      <trkpt lat="40.7143130" lon="-3.3696170">
        <ele>843.3</ele>
        <time>2022-07-31T17:31:08Z</time>
      </trkpt>
      <trkpt lat="40.7143170" lon="-3.3696350">
        <ele>843.5</ele>
        <time>2022-07-31T17:31:09Z</time>
      </trkpt>
      <trkpt lat="40.7143260" lon="-3.3696550">
        <ele>843.6</ele>
        <time>2022-07-31T17:31:10Z</time>
      </trkpt>
      <trkpt lat="40.7143330" lon="-3.3696740">
        <ele>843.7</ele>
        <time>2022-07-31T17:31:11Z</time>
      </trkpt>
      <trkpt lat="40.7143460" lon="-3.3697150">
        <ele>844.0</ele>
        <time>2022-07-31T17:31:12Z</time>
      </trkpt>
      <trkpt lat="40.7143500" lon="-3.3697290">
        <ele>844.0</ele>
        <time>2022-07-31T17:31:13Z</time>
      </trkpt>
      <trkpt lat="40.7143720" lon="-3.3697550">
        <ele>844.2</ele>
        <time>2022-07-31T17:31:14Z</time>
      </trkpt>
      <trkpt lat="40.7143780" lon="-3.3697700">
        <ele>844.3</ele>
        <time>2022-07-31T17:31:15Z</time>
      </trkpt>
      <trkpt lat="40.7143920" lon="-3.3698120">
        <ele>844.5</ele>
        <time>2022-07-31T17:31:16Z</time>
      </trkpt>
      <trkpt lat="40.7143960" lon="-3.3698280">
        <ele>844.6</ele>
        <time>2022-07-31T17:31:17Z</time>
      </trkpt>
      <trkpt lat="40.7144070" lon="-3.3698690">
        <ele>844.8</ele>
        <time>2022-07-31T17:31:18Z</time>
      </trkpt>
      <trkpt lat="40.7144120" lon="-3.3698830">
        <ele>844.8</ele>
        <time>2022-07-31T17:31:19Z</time>
      </trkpt>
      <trkpt lat="40.7144230" lon="-3.3699160">
        <ele>845.0</ele>
        <time>2022-07-31T17:31:20Z</time>
      </trkpt>
      <trkpt lat="40.7144530" lon="-3.3699460">
        <ele>845.2</ele>
        <time>2022-07-31T17:31:21Z</time>
      </trkpt>
      <trkpt lat="40.7144610" lon="-3.3699600">
        <ele>845.2</ele>
        <time>2022-07-31T17:31:22Z</time>
      </trkpt>
      <trkpt lat="40.7144910" lon="-3.3699960">
        <ele>845.4</ele>
        <time>2022-07-31T17:31:23Z</time>
      </trkpt>
      <trkpt lat="40.7145030" lon="-3.3700060">
        <ele>845.5</ele>
        <time>2022-07-31T17:31:24Z</time>
      </trkpt>
      <trkpt lat="40.7145320" lon="-3.3700360">
        <ele>845.7</ele>
        <time>2022-07-31T17:31:25Z</time>
      </trkpt>
      <trkpt lat="40.7145430" lon="-3.3700460">
        <ele>845.7</ele>
        <time>2022-07-31T17:31:26Z</time>
      </trkpt>
      <trkpt lat="40.7145760" lon="-3.3700650">
        <ele>845.9</ele>
        <time>2022-07-31T17:31:27Z</time>
      </trkpt>
      <trkpt lat="40.7145860" lon="-3.3700710">
        <ele>845.9</ele>
        <time>2022-07-31T17:31:28Z</time>
      </trkpt>
      <trkpt lat="40.7146160" lon="-3.3700730">
        <ele>846.1</ele>
        <time>2022-07-31T17:31:29Z</time>
      </trkpt>
      <trkpt lat="40.7146520" lon="-3.3700810">
        <ele>846.3</ele>
        <time>2022-07-31T17:31:30Z</time>
      </trkpt>
      <trkpt lat="40.7146670" lon="-3.3700840">
        <ele>846.4</ele>
        <time>2022-07-31T17:31:31Z</time>
      </trkpt>
      <trkpt lat="40.7147060" lon="-3.3700930">
        <ele>846.7</ele>
        <time>2022-07-31T17:31:32Z</time>
      </trkpt>
      <trkpt lat="40.7147210" lon="-3.3700940">
        <ele>846.8</ele>
        <time>2022-07-31T17:31:33Z</time>
      </trkpt>
      <trkpt lat="40.7147550" lon="-3.3701010">
        <ele>847.0</ele>
        <time>2022-07-31T17:31:34Z</time>
      </trkpt>
      <trkpt lat="40.7147670" lon="-3.3701040">
        <ele>847.1</ele>
        <time>2022-07-31T17:31:35Z</time>
      </trkpt>
      <trkpt lat="40.7147990" lon="-3.3701100">
        <ele>847.3</ele>
        <time>2022-07-31T17:31:36Z</time>
      </trkpt>
      <trkpt lat="40.7148380" lon="-3.3701170">
        <ele>847.6</ele>
        <time>2022-07-31T17:31:37Z</time>
      </trkpt>
      <trkpt lat="40.7148520" lon="-3.3701200">
        <ele>847.7</ele>
        <time>2022-07-31T17:31:38Z</time>
      </trkpt>
      <trkpt lat="40.7148790" lon="-3.3701220">
        <ele>847.9</ele>
        <time>2022-07-31T17:31:39Z</time>
      </trkpt>
      <trkpt lat="40.7149170" lon="-3.3701200">
        <ele>848.1</ele>
        <time>2022-07-31T17:31:40Z</time>
      </trkpt>
      <trkpt lat="40.7149300" lon="-3.3701170">
        <ele>848.2</ele>
        <time>2022-07-31T17:31:41Z</time>
      </trkpt>
      <trkpt lat="40.7149620" lon="-3.3701210">
        <ele>848.5</ele>
        <time>2022-07-31T17:31:42Z</time>
      </trkpt>
      <trkpt lat="40.7149890" lon="-3.3701150">
        <ele>848.7</ele>
        <time>2022-07-31T17:31:43Z</time>
      </trkpt>
      <trkpt lat="40.7150170" lon="-3.3701130">
        <ele>848.9</ele>
        <time>2022-07-31T17:31:44Z</time>
      </trkpt>
      <trkpt lat="40.7150440" lon="-3.3701140">
        <ele>849.0</ele>
        <time>2022-07-31T17:31:45Z</time>
      </trkpt>
      <trkpt lat="40.7150710" lon="-3.3701080">
        <ele>849.2</ele>
        <time>2022-07-31T17:31:46Z</time>
      </trkpt>
      <trkpt lat="40.7151020" lon="-3.3701060">
        <ele>849.5</ele>
        <time>2022-07-31T17:31:47Z</time>
      </trkpt>
      <trkpt lat="40.7151110" lon="-3.3701060">
        <ele>849.5</ele>
        <time>2022-07-31T17:31:48Z</time>
      </trkpt>
      <trkpt lat="40.7151430" lon="-3.3700910">
        <ele>849.8</ele>
        <time>2022-07-31T17:31:49Z</time>
      </trkpt>
      <trkpt lat="40.7151540" lon="-3.3700870">
        <ele>849.8</ele>
        <time>2022-07-31T17:31:50Z</time>
      </trkpt>
      <trkpt lat="40.7151850" lon="-3.3700770">
        <ele>850.1</ele>
        <time>2022-07-31T17:31:51Z</time>
      </trkpt>
      <trkpt lat="40.7151960" lon="-3.3700740">
        <ele>850.1</ele>
        <time>2022-07-31T17:31:52Z</time>
      </trkpt>
      <trkpt lat="40.7152310" lon="-3.3700620">
        <ele>850.4</ele>
        <time>2022-07-31T17:31:53Z</time>
      </trkpt>
      <trkpt lat="40.7152440" lon="-3.3700590">
        <ele>850.5</ele>
        <time>2022-07-31T17:31:54Z</time>
      </trkpt>
      <trkpt lat="40.7152690" lon="-3.3700520">
        <ele>850.6</ele>
        <time>2022-07-31T17:31:55Z</time>
      </trkpt>
      <trkpt lat="40.7152780" lon="-3.3700470">
        <ele>850.7</ele>
        <time>2022-07-31T17:31:56Z</time>
      </trkpt>
      <trkpt lat="40.7153120" lon="-3.3700460">
        <ele>850.9</ele>
        <time>2022-07-31T17:31:57Z</time>
      </trkpt>
      <trkpt lat="40.7153240" lon="-3.3700450">
        <ele>850.9</ele>
        <time>2022-07-31T17:31:58Z</time>
      </trkpt>
      <trkpt lat="40.7153550" lon="-3.3700390">
        <ele>851.1</ele>
        <time>2022-07-31T17:31:59Z</time>
      </trkpt>
      <trkpt lat="40.7153640" lon="-3.3700350">
        <ele>851.1</ele>
        <time>2022-07-31T17:32:00Z</time>
      </trkpt>
      <trkpt lat="40.7153960" lon="-3.3700360">
        <ele>851.2</ele>
        <time>2022-07-31T17:32:01Z</time>
      </trkpt>
      <trkpt lat="40.7154100" lon="-3.3700400">
        <ele>851.3</ele>
        <time>2022-07-31T17:32:02Z</time>
      </trkpt>
      <trkpt lat="40.7154460" lon="-3.3700510">
        <ele>851.4</ele>
        <time>2022-07-31T17:32:03Z</time>
      </trkpt>
      <trkpt lat="40.7154580" lon="-3.3700560">
        <ele>851.5</ele>
        <time>2022-07-31T17:32:04Z</time>
      </trkpt>
      <trkpt lat="40.7154860" lon="-3.3700610">
        <ele>851.5</ele>
        <time>2022-07-31T17:32:05Z</time>
      </trkpt>
      <trkpt lat="40.7155190" lon="-3.3700630">
        <ele>851.6</ele>
        <time>2022-07-31T17:32:06Z</time>
      </trkpt>
      <trkpt lat="40.7155300" lon="-3.3700630">
        <ele>851.7</ele>
        <time>2022-07-31T17:32:07Z</time>
      </trkpt>
      <trkpt lat="40.7155590" lon="-3.3700660">
        <ele>851.7</ele>
        <time>2022-07-31T17:32:08Z</time>
      </trkpt>
      <trkpt lat="40.7155880" lon="-3.3700670">
        <ele>851.8</ele>
        <time>2022-07-31T17:32:09Z</time>
      </trkpt>
      <trkpt lat="40.7156210" lon="-3.3700780">
        <ele>851.8</ele>
        <time>2022-07-31T17:32:10Z</time>
      </trkpt>
      <trkpt lat="40.7156330" lon="-3.3700880">
        <ele>851.8</ele>
        <time>2022-07-31T17:32:11Z</time>
      </trkpt>
      <trkpt lat="40.7156670" lon="-3.3700950">
        <ele>851.9</ele>
        <time>2022-07-31T17:32:12Z</time>
      </trkpt>
      <trkpt lat="40.7156800" lon="-3.3700960">
        <ele>851.9</ele>
        <time>2022-07-31T17:32:13Z</time>
      </trkpt>
      <trkpt lat="40.7157100" lon="-3.3701110">
        <ele>851.9</ele>
        <time>2022-07-31T17:32:14Z</time>
      </trkpt>
      <trkpt lat="40.7157460" lon="-3.3701270">
        <ele>851.8</ele>
        <time>2022-07-31T17:32:15Z</time>
      </trkpt>
      <trkpt lat="40.7157580" lon="-3.3701330">
        <ele>851.8</ele>
        <time>2022-07-31T17:32:16Z</time>
      </trkpt>
      <trkpt lat="40.7157950" lon="-3.3701550">
        <ele>851.8</ele>
        <time>2022-07-31T17:32:17Z</time>
      </trkpt>
      <trkpt lat="40.7158070" lon="-3.3701650">
        <ele>851.8</ele>
        <time>2022-07-31T17:32:18Z</time>
      </trkpt>
      <trkpt lat="40.7158360" lon="-3.3701740">
        <ele>851.8</ele>
        <time>2022-07-31T17:32:19Z</time>
      </trkpt>
      <trkpt lat="40.7158640" lon="-3.3701920">
        <ele>851.7</ele>
        <time>2022-07-31T17:32:20Z</time>
      </trkpt>
      <trkpt lat="40.7159000" lon="-3.3702150">
        <ele>851.7</ele>
        <time>2022-07-31T17:32:21Z</time>
      </trkpt>
      <trkpt lat="40.7159290" lon="-3.3702430">
        <ele>851.6</ele>
        <time>2022-07-31T17:32:22Z</time>
      </trkpt>
      <trkpt lat="40.7159610" lon="-3.3702710">
        <ele>851.5</ele>
        <time>2022-07-31T17:32:23Z</time>
      </trkpt>
      <trkpt lat="40.7159940" lon="-3.3702950">
        <ele>851.5</ele>
        <time>2022-07-31T17:32:24Z</time>
      </trkpt>
      <trkpt lat="40.7160300" lon="-3.3703190">
        <ele>851.4</ele>
        <time>2022-07-31T17:32:25Z</time>
      </trkpt>
      <trkpt lat="40.7160650" lon="-3.3703390">
        <ele>851.3</ele>
        <time>2022-07-31T17:32:26Z</time>
      </trkpt>
      <trkpt lat="40.7161050" lon="-3.3703600">
        <ele>851.3</ele>
        <time>2022-07-31T17:32:27Z</time>
      </trkpt>
      <trkpt lat="40.7161420" lon="-3.3703830">
        <ele>851.2</ele>
        <time>2022-07-31T17:32:28Z</time>
      </trkpt>
      <trkpt lat="40.7161730" lon="-3.3704020">
        <ele>851.2</ele>
        <time>2022-07-31T17:32:29Z</time>
      </trkpt>
      <trkpt lat="40.7162060" lon="-3.3704270">
        <ele>851.2</ele>
        <time>2022-07-31T17:32:30Z</time>
      </trkpt>
      <trkpt lat="40.7162330" lon="-3.3704380">
        <ele>851.1</ele>
        <time>2022-07-31T17:32:31Z</time>
      </trkpt>
      <trkpt lat="40.7162630" lon="-3.3704530">
        <ele>851.1</ele>
        <time>2022-07-31T17:32:32Z</time>
      </trkpt>
      <trkpt lat="40.7162990" lon="-3.3704760">
        <ele>851.0</ele>
        <time>2022-07-31T17:32:33Z</time>
      </trkpt>
      <trkpt lat="40.7163300" lon="-3.3705000">
        <ele>851.0</ele>
        <time>2022-07-31T17:32:34Z</time>
      </trkpt>
      <trkpt lat="40.7163660" lon="-3.3705230">
        <ele>850.9</ele>
        <time>2022-07-31T17:32:35Z</time>
      </trkpt>
      <trkpt lat="40.7163990" lon="-3.3705420">
        <ele>850.9</ele>
        <time>2022-07-31T17:32:36Z</time>
      </trkpt>
      <trkpt lat="40.7164370" lon="-3.3705610">
        <ele>850.8</ele>
        <time>2022-07-31T17:32:37Z</time>
      </trkpt>
      <trkpt lat="40.7164750" lon="-3.3705840">
        <ele>850.7</ele>
        <time>2022-07-31T17:32:38Z</time>
      </trkpt>
      <trkpt lat="40.7165120" lon="-3.3706020">
        <ele>850.7</ele>
        <time>2022-07-31T17:32:39Z</time>
      </trkpt>
      <trkpt lat="40.7165500" lon="-3.3706200">
        <ele>850.6</ele>
        <time>2022-07-31T17:32:40Z</time>
      </trkpt>
      <trkpt lat="40.7165930" lon="-3.3706400">
        <ele>850.5</ele>
        <time>2022-07-31T17:32:41Z</time>
      </trkpt>
      <trkpt lat="40.7166380" lon="-3.3706630">
        <ele>850.4</ele>
        <time>2022-07-31T17:32:42Z</time>
      </trkpt>
      <trkpt lat="40.7166840" lon="-3.3706900">
        <ele>850.2</ele>
        <time>2022-07-31T17:32:43Z</time>
      </trkpt>
      <trkpt lat="40.7167330" lon="-3.3707240">
        <ele>850.1</ele>
        <time>2022-07-31T17:32:44Z</time>
      </trkpt>
      <trkpt lat="40.7167830" lon="-3.3707560">
        <ele>850.0</ele>
        <time>2022-07-31T17:32:45Z</time>
      </trkpt>
      <trkpt lat="40.7168320" lon="-3.3707830">
        <ele>849.9</ele>
        <time>2022-07-31T17:32:46Z</time>
      </trkpt>
      <trkpt lat="40.7168810" lon="-3.3708080">
        <ele>849.8</ele>
        <time>2022-07-31T17:32:47Z</time>
      </trkpt>
      <trkpt lat="40.7169390" lon="-3.3708300">
        <ele>849.7</ele>
        <time>2022-07-31T17:32:48Z</time>
      </trkpt>
      <trkpt lat="40.7169900" lon="-3.3708510">
        <ele>849.6</ele>
        <time>2022-07-31T17:32:49Z</time>
      </trkpt>
      <trkpt lat="40.7170410" lon="-3.3708830">
        <ele>849.6</ele>
        <time>2022-07-31T17:32:50Z</time>
      </trkpt>
      <trkpt lat="40.7171010" lon="-3.3709030">
        <ele>849.5</ele>
        <time>2022-07-31T17:32:51Z</time>
      </trkpt>
      <trkpt lat="40.7171540" lon="-3.3709220">
        <ele>849.5</ele>
        <time>2022-07-31T17:32:52Z</time>
      </trkpt>
      <trkpt lat="40.7172100" lon="-3.3709430">
        <ele>849.6</ele>
        <time>2022-07-31T17:32:53Z</time>
      </trkpt>
      <trkpt lat="40.7172660" lon="-3.3709550">
        <ele>849.6</ele>
        <time>2022-07-31T17:32:54Z</time>
      </trkpt>
      <trkpt lat="40.7173140" lon="-3.3709660">
        <ele>849.6</ele>
        <time>2022-07-31T17:32:55Z</time>
      </trkpt>
      <trkpt lat="40.7173570" lon="-3.3709740">
        <ele>849.6</ele>
        <time>2022-07-31T17:32:56Z</time>
      </trkpt>
      <trkpt lat="40.7173940" lon="-3.3709610">
        <ele>849.6</ele>
        <time>2022-07-31T17:32:57Z</time>
      </trkpt>
      <trkpt lat="40.7174380" lon="-3.3709490">
        <ele>849.6</ele>
        <time>2022-07-31T17:32:58Z</time>
      </trkpt>
      <trkpt lat="40.7174880" lon="-3.3709440">
        <ele>849.6</ele>
        <time>2022-07-31T17:32:59Z</time>
      </trkpt>
      <trkpt lat="40.7175360" lon="-3.3709480">
        <ele>849.6</ele>
        <time>2022-07-31T17:33:00Z</time>
      </trkpt>
      <trkpt lat="40.7175850" lon="-3.3709450">
        <ele>849.5</ele>
        <time>2022-07-31T17:33:01Z</time>
      </trkpt>
      <trkpt lat="40.7176320" lon="-3.3709420">
        <ele>849.5</ele>
        <time>2022-07-31T17:33:02Z</time>
      </trkpt>
      <trkpt lat="40.7176730" lon="-3.3709380">
        <ele>849.4</ele>
        <time>2022-07-31T17:33:03Z</time>
      </trkpt>
      <trkpt lat="40.7177240" lon="-3.3709320">
        <ele>849.2</ele>
        <time>2022-07-31T17:33:04Z</time>
      </trkpt>
      <trkpt lat="40.7177790" lon="-3.3709290">
        <ele>849.0</ele>
        <time>2022-07-31T17:33:05Z</time>
      </trkpt>
      <trkpt lat="40.7178370" lon="-3.3709190">
        <ele>848.8</ele>
        <time>2022-07-31T17:33:06Z</time>
      </trkpt>
      <trkpt lat="40.7178980" lon="-3.3709170">
        <ele>848.5</ele>
        <time>2022-07-31T17:33:07Z</time>
      </trkpt>
      <trkpt lat="40.7179630" lon="-3.3709090">
        <ele>848.2</ele>
        <time>2022-07-31T17:33:08Z</time>
      </trkpt>
      <trkpt lat="40.7180360" lon="-3.3709010">
        <ele>847.9</ele>
        <time>2022-07-31T17:33:09Z</time>
      </trkpt>
      <trkpt lat="40.7181100" lon="-3.3708920">
        <ele>847.7</ele>
        <time>2022-07-31T17:33:10Z</time>
      </trkpt>
      <trkpt lat="40.7181830" lon="-3.3708860">
        <ele>847.5</ele>
        <time>2022-07-31T17:33:11Z</time>
      </trkpt>
      <trkpt lat="40.7182560" lon="-3.3708720">
        <ele>847.3</ele>
        <time>2022-07-31T17:33:12Z</time>
      </trkpt>
      <trkpt lat="40.7183300" lon="-3.3708690">
        <ele>847.2</ele>
        <time>2022-07-31T17:33:13Z</time>
      </trkpt>
      <trkpt lat="40.7184080" lon="-3.3708630">
        <ele>847.1</ele>
        <time>2022-07-31T17:33:14Z</time>
      </trkpt>
      <trkpt lat="40.7184760" lon="-3.3708560">
        <ele>847.0</ele>
        <time>2022-07-31T17:33:15Z</time>
      </trkpt>
      <trkpt lat="40.7185420" lon="-3.3708470">
        <ele>846.9</ele>
        <time>2022-07-31T17:33:16Z</time>
      </trkpt>
      <trkpt lat="40.7186160" lon="-3.3708390">
        <ele>846.9</ele>
        <time>2022-07-31T17:33:17Z</time>
      </trkpt>
      <trkpt lat="40.7186820" lon="-3.3708230">
        <ele>846.8</ele>
        <time>2022-07-31T17:33:18Z</time>
      </trkpt>
      <trkpt lat="40.7187390" lon="-3.3708180">
        <ele>846.8</ele>
        <time>2022-07-31T17:33:19Z</time>
      </trkpt>
      <trkpt lat="40.7188100" lon="-3.3708050">
        <ele>846.9</ele>
        <time>2022-07-31T17:33:20Z</time>
      </trkpt>
      <trkpt lat="40.7188780" lon="-3.3707960">
        <ele>847.0</ele>
        <time>2022-07-31T17:33:21Z</time>
      </trkpt>
      <trkpt lat="40.7189450" lon="-3.3707800">
        <ele>847.1</ele>
        <time>2022-07-31T17:33:22Z</time>
      </trkpt>
      <trkpt lat="40.7190090" lon="-3.3707670">
        <ele>847.2</ele>
        <time>2022-07-31T17:33:23Z</time>
      </trkpt>
      <trkpt lat="40.7190660" lon="-3.3707530">
        <ele>847.4</ele>
        <time>2022-07-31T17:33:24Z</time>
      </trkpt>
      <trkpt lat="40.7191230" lon="-3.3707470">
        <ele>847.6</ele>
        <time>2022-07-31T17:33:25Z</time>
      </trkpt>
      <trkpt lat="40.7191760" lon="-3.3707470">
        <ele>847.8</ele>
        <time>2022-07-31T17:33:26Z</time>
      </trkpt>
      <trkpt lat="40.7192260" lon="-3.3707490">
        <ele>848.1</ele>
        <time>2022-07-31T17:33:27Z</time>
      </trkpt>
      <trkpt lat="40.7192790" lon="-3.3707600">
        <ele>848.4</ele>
        <time>2022-07-31T17:33:28Z</time>
      </trkpt>
      <trkpt lat="40.7193300" lon="-3.3707590">
        <ele>848.7</ele>
        <time>2022-07-31T17:33:29Z</time>
      </trkpt>
      <trkpt lat="40.7193790" lon="-3.3707560">
        <ele>849.0</ele>
        <time>2022-07-31T17:33:30Z</time>
      </trkpt>
      <trkpt lat="40.7194210" lon="-3.3707580">
        <ele>849.3</ele>
        <time>2022-07-31T17:33:31Z</time>
      </trkpt>
      <trkpt lat="40.7194550" lon="-3.3707600">
        <ele>849.6</ele>
        <time>2022-07-31T17:33:32Z</time>
      </trkpt>
      <trkpt lat="40.7194900" lon="-3.3707720">
        <ele>849.9</ele>
        <time>2022-07-31T17:33:33Z</time>
      </trkpt>
      <trkpt lat="40.7195000" lon="-3.3707760">
        <ele>850.0</ele>
        <time>2022-07-31T17:33:34Z</time>
      </trkpt>
      <trkpt lat="40.7195330" lon="-3.3707910">
        <ele>850.2</ele>
        <time>2022-07-31T17:33:35Z</time>
      </trkpt>
      <trkpt lat="40.7195450" lon="-3.3707950">
        <ele>850.3</ele>
        <time>2022-07-31T17:33:36Z</time>
      </trkpt>
      <trkpt lat="40.7195700" lon="-3.3708110">
        <ele>850.6</ele>
        <time>2022-07-31T17:33:37Z</time>
      </trkpt>
      <trkpt lat="40.7195990" lon="-3.3708330">
        <ele>850.8</ele>
        <time>2022-07-31T17:33:38Z</time>
      </trkpt>
      <trkpt lat="40.7196100" lon="-3.3708380">
        <ele>850.9</ele>
        <time>2022-07-31T17:33:39Z</time>
      </trkpt>
      <trkpt lat="40.7196410" lon="-3.3708600">
        <ele>851.2</ele>
        <time>2022-07-31T17:33:40Z</time>
      </trkpt>
      <trkpt lat="40.7196540" lon="-3.3708650">
        <ele>851.4</ele>
        <time>2022-07-31T17:33:41Z</time>
      </trkpt>
      <trkpt lat="40.7196910" lon="-3.3708820">
        <ele>851.7</ele>
        <time>2022-07-31T17:33:42Z</time>
      </trkpt>
      <trkpt lat="40.7197050" lon="-3.3708840">
        <ele>851.8</ele>
        <time>2022-07-31T17:33:43Z</time>
      </trkpt>
      <trkpt lat="40.7197420" lon="-3.3708960">
        <ele>852.2</ele>
        <time>2022-07-31T17:33:44Z</time>
      </trkpt>
      <trkpt lat="40.7197550" lon="-3.3709010">
        <ele>852.3</ele>
        <time>2022-07-31T17:33:45Z</time>
      </trkpt>
      <trkpt lat="40.7197900" lon="-3.3709120">
        <ele>852.6</ele>
        <time>2022-07-31T17:33:46Z</time>
      </trkpt>
      <trkpt lat="40.7198020" lon="-3.3709160">
        <ele>852.8</ele>
        <time>2022-07-31T17:33:47Z</time>
      </trkpt>
      <trkpt lat="40.7198350" lon="-3.3709180">
        <ele>853.1</ele>
        <time>2022-07-31T17:33:48Z</time>
      </trkpt>
      <trkpt lat="40.7198470" lon="-3.3709200">
        <ele>853.2</ele>
        <time>2022-07-31T17:33:49Z</time>
      </trkpt>
      <trkpt lat="40.7198840" lon="-3.3709140">
        <ele>853.5</ele>
        <time>2022-07-31T17:33:50Z</time>
      </trkpt>
      <trkpt lat="40.7198990" lon="-3.3709110">
        <ele>853.6</ele>
        <time>2022-07-31T17:33:51Z</time>
      </trkpt>
      <trkpt lat="40.7199270" lon="-3.3709110">
        <ele>853.8</ele>
        <time>2022-07-31T17:33:52Z</time>
      </trkpt>
      <trkpt lat="40.7199360" lon="-3.3709110">
        <ele>853.9</ele>
        <time>2022-07-31T17:33:53Z</time>
      </trkpt>
      <trkpt lat="40.7199660" lon="-3.3709090">
        <ele>854.2</ele>
        <time>2022-07-31T17:33:54Z</time>
      </trkpt>
      <trkpt lat="40.7199770" lon="-3.3709080">
        <ele>854.2</ele>
        <time>2022-07-31T17:33:55Z</time>
      </trkpt>
      <trkpt lat="40.7200100" lon="-3.3709060">
        <ele>854.5</ele>
        <time>2022-07-31T17:33:56Z</time>
      </trkpt>
      <trkpt lat="40.7200230" lon="-3.3709010">
        <ele>854.6</ele>
        <time>2022-07-31T17:33:57Z</time>
      </trkpt>
      <trkpt lat="40.7200460" lon="-3.3708820">
        <ele>854.7</ele>
        <time>2022-07-31T17:33:58Z</time>
      </trkpt>
      <trkpt lat="40.7200570" lon="-3.3708780">
        <ele>854.8</ele>
        <time>2022-07-31T17:33:59Z</time>
      </trkpt>
      <trkpt lat="40.7200690" lon="-3.3708690">
        <ele>854.8</ele>
        <time>2022-07-31T17:34:00Z</time>
      </trkpt>
      <trkpt lat="40.7200830" lon="-3.3708640">
        <ele>854.9</ele>
        <time>2022-07-31T17:34:01Z</time>
      </trkpt>
      <trkpt lat="40.7200910" lon="-3.3708530">
        <ele>854.9</ele>
        <time>2022-07-31T17:34:02Z</time>
      </trkpt>
      <trkpt lat="40.7200990" lon="-3.3708480">
        <ele>854.9</ele>
        <time>2022-07-31T17:34:03Z</time>
      </trkpt>
      <trkpt lat="40.7201070" lon="-3.3708420">
        <ele>855.0</ele>
        <time>2022-07-31T17:34:04Z</time>
      </trkpt>
      <trkpt lat="40.7201190" lon="-3.3708350">
        <ele>855.0</ele>
        <time>2022-07-31T17:34:05Z</time>
      </trkpt>
      <trkpt lat="40.7201190" lon="-3.3708370">
        <ele>855.0</ele>
        <time>2022-07-31T17:34:06Z</time>
      </trkpt>
      <trkpt lat="40.7201170" lon="-3.3708390">
        <ele>855.0</ele>
        <time>2022-07-31T17:34:07Z</time>
      </trkpt>
      <trkpt lat="40.7201150" lon="-3.3708430">
        <ele>855.0</ele>
        <time>2022-07-31T17:34:08Z</time>
      </trkpt>
      <trkpt lat="40.7201120" lon="-3.3708410">
        <ele>855.0</ele>
        <time>2022-07-31T17:34:09Z</time>
      </trkpt>
      <trkpt lat="40.7201110" lon="-3.3708400">
        <ele>855.0</ele>
        <time>2022-07-31T17:34:10Z</time>
      </trkpt>
      <trkpt lat="40.7201110" lon="-3.3708420">
        <ele>855.0</ele>
        <time>2022-07-31T17:34:11Z</time>
      </trkpt>
      <trkpt lat="40.7201110" lon="-3.3708440">
        <ele>855.0</ele>
        <time>2022-07-31T17:34:12Z</time>
      </trkpt>
      <trkpt lat="40.7201130" lon="-3.3708440">
        <ele>855.0</ele>
        <time>2022-07-31T17:34:13Z</time>
      </trkpt>
      <trkpt lat="40.7201180" lon="-3.3708450">
        <ele>855.0</ele>
        <time>2022-07-31T17:34:14Z</time>
      </trkpt>
      <trkpt lat="40.7201250" lon="-3.3708350">
        <ele>855.0</ele>
        <time>2022-07-31T17:34:15Z</time>
      </trkpt>
      <trkpt lat="40.7201340" lon="-3.3708250">
        <ele>855.0</ele>
        <time>2022-07-31T17:34:16Z</time>
      </trkpt>
      <trkpt lat="40.7201600" lon="-3.3708240">
        <ele>854.9</ele>
        <time>2022-07-31T17:34:17Z</time>
      </trkpt>
      <trkpt lat="40.7201700" lon="-3.3708260">
        <ele>854.9</ele>
        <time>2022-07-31T17:34:18Z</time>
      </trkpt>
      <trkpt lat="40.7202030" lon="-3.3708310">
        <ele>854.7</ele>
        <time>2022-07-31T17:34:19Z</time>
      </trkpt>
      <trkpt lat="40.7202500" lon="-3.3708480">
        <ele>854.4</ele>
        <time>2022-07-31T17:34:20Z</time>
      </trkpt>
      <trkpt lat="40.7202970" lon="-3.3708740">
        <ele>854.0</ele>
        <time>2022-07-31T17:34:21Z</time>
      </trkpt>
      <trkpt lat="40.7203440" lon="-3.3709230">
        <ele>853.5</ele>
        <time>2022-07-31T17:34:22Z</time>
      </trkpt>
      <trkpt lat="40.7203970" lon="-3.3709750">
        <ele>852.9</ele>
        <time>2022-07-31T17:34:23Z</time>
      </trkpt>
      <trkpt lat="40.7204550" lon="-3.3710280">
        <ele>852.3</ele>
        <time>2022-07-31T17:34:24Z</time>
      </trkpt>
      <trkpt lat="40.7205120" lon="-3.3710810">
        <ele>851.7</ele>
        <time>2022-07-31T17:34:25Z</time>
      </trkpt>
      <trkpt lat="40.7205730" lon="-3.3711330">
        <ele>851.2</ele>
        <time>2022-07-31T17:34:26Z</time>
      </trkpt>
      <trkpt lat="40.7206390" lon="-3.3711900">
        <ele>850.6</ele>
        <time>2022-07-31T17:34:27Z</time>
      </trkpt>
      <trkpt lat="40.7207060" lon="-3.3712410">
        <ele>850.1</ele>
        <time>2022-07-31T17:34:28Z</time>
      </trkpt>
      <trkpt lat="40.7207790" lon="-3.3712900">
        <ele>849.5</ele>
        <time>2022-07-31T17:34:29Z</time>
      </trkpt>
      <trkpt lat="40.7208550" lon="-3.3713380">
        <ele>848.9</ele>
        <time>2022-07-31T17:34:30Z</time>
      </trkpt>
      <trkpt lat="40.7209390" lon="-3.3713820">
        <ele>848.3</ele>
        <time>2022-07-31T17:34:31Z</time>
      </trkpt>
      <trkpt lat="40.7210260" lon="-3.3714180">
        <ele>847.6</ele>
        <time>2022-07-31T17:34:32Z</time>
      </trkpt>
      <trkpt lat="40.7211080" lon="-3.3714520">
        <ele>847.0</ele>
        <time>2022-07-31T17:34:33Z</time>
      </trkpt>
      <trkpt lat="40.7211890" lon="-3.3714920">
        <ele>846.3</ele>
        <time>2022-07-31T17:34:34Z</time>
      </trkpt>
      <trkpt lat="40.7212770" lon="-3.3715470">
        <ele>845.7</ele>
        <time>2022-07-31T17:34:35Z</time>
      </trkpt>
      <trkpt lat="40.7213600" lon="-3.3716340">
        <ele>845.0</ele>
        <time>2022-07-31T17:34:36Z</time>
      </trkpt>
      <trkpt lat="40.7214420" lon="-3.3717110">
        <ele>844.3</ele>
        <time>2022-07-31T17:34:37Z</time>
      </trkpt>
      <trkpt lat="40.7215250" lon="-3.3717710">
        <ele>843.8</ele>
        <time>2022-07-31T17:34:38Z</time>
      </trkpt>
      <trkpt lat="40.7216160" lon="-3.3718160">
        <ele>843.2</ele>
        <time>2022-07-31T17:34:39Z</time>
      </trkpt>
      <trkpt lat="40.7217230" lon="-3.3718400">
        <ele>842.7</ele>
        <time>2022-07-31T17:34:40Z</time>
      </trkpt>
      <trkpt lat="40.7218380" lon="-3.3718530">
        <ele>842.2</ele>
        <time>2022-07-31T17:34:41Z</time>
      </trkpt>
      <trkpt lat="40.7219440" lon="-3.3718470">
        <ele>841.8</ele>
        <time>2022-07-31T17:34:42Z</time>
      </trkpt>
      <trkpt lat="40.7220430" lon="-3.3718280">
        <ele>841.6</ele>
        <time>2022-07-31T17:34:43Z</time>
      </trkpt>
      <trkpt lat="40.7221350" lon="-3.3718070">
        <ele>841.5</ele>
        <time>2022-07-31T17:34:44Z</time>
      </trkpt>
      <trkpt lat="40.7222240" lon="-3.3717920">
        <ele>841.4</ele>
        <time>2022-07-31T17:34:45Z</time>
      </trkpt>
      <trkpt lat="40.7223110" lon="-3.3717790">
        <ele>841.4</ele>
        <time>2022-07-31T17:34:46Z</time>
      </trkpt>
      <trkpt lat="40.7223920" lon="-3.3717690">
        <ele>841.4</ele>
        <time>2022-07-31T17:34:47Z</time>
      </trkpt>
      <trkpt lat="40.7224690" lon="-3.3717620">
        <ele>841.5</ele>
        <time>2022-07-31T17:34:48Z</time>
      </trkpt>
      <trkpt lat="40.7225420" lon="-3.3717480">
        <ele>841.6</ele>
        <time>2022-07-31T17:34:49Z</time>
      </trkpt>
      <trkpt lat="40.7226080" lon="-3.3717380">
        <ele>841.7</ele>
        <time>2022-07-31T17:34:50Z</time>
      </trkpt>
      <trkpt lat="40.7226720" lon="-3.3717130">
        <ele>841.8</ele>
        <time>2022-07-31T17:34:51Z</time>
      </trkpt>
      <trkpt lat="40.7227370" lon="-3.3716900">
        <ele>841.9</ele>
        <time>2022-07-31T17:34:52Z</time>
      </trkpt>
      <trkpt lat="40.7228030" lon="-3.3716670">
        <ele>842.1</ele>
        <time>2022-07-31T17:34:53Z</time>
      </trkpt>
      <trkpt lat="40.7228640" lon="-3.3716500">
        <ele>842.2</ele>
        <time>2022-07-31T17:34:54Z</time>
      </trkpt>
      <trkpt lat="40.7229210" lon="-3.3716330">
        <ele>842.4</ele>
        <time>2022-07-31T17:34:55Z</time>
      </trkpt>
      <trkpt lat="40.7229760" lon="-3.3716150">
        <ele>842.6</ele>
        <time>2022-07-31T17:34:56Z</time>
      </trkpt>
      <trkpt lat="40.7230320" lon="-3.3716010">
        <ele>842.7</ele>
        <time>2022-07-31T17:34:57Z</time>
      </trkpt>
      <trkpt lat="40.7230880" lon="-3.3715890">
        <ele>842.9</ele>
        <time>2022-07-31T17:34:58Z</time>
      </trkpt>
      <trkpt lat="40.7231440" lon="-3.3715810">
        <ele>843.2</ele>
        <time>2022-07-31T17:34:59Z</time>
      </trkpt>
      <trkpt lat="40.7232010" lon="-3.3715750">
        <ele>843.4</ele>
        <time>2022-07-31T17:35:00Z</time>
      </trkpt>
      <trkpt lat="40.7232520" lon="-3.3715710">
        <ele>843.7</ele>
        <time>2022-07-31T17:35:01Z</time>
      </trkpt>
      <trkpt lat="40.7233070" lon="-3.3715640">
        <ele>843.9</ele>
        <time>2022-07-31T17:35:02Z</time>
      </trkpt>
      <trkpt lat="40.7233530" lon="-3.3715590">
        <ele>844.2</ele>
        <time>2022-07-31T17:35:03Z</time>
      </trkpt>
      <trkpt lat="40.7234010" lon="-3.3715490">
        <ele>844.4</ele>
        <time>2022-07-31T17:35:04Z</time>
      </trkpt>
      <trkpt lat="40.7234480" lon="-3.3715340">
        <ele>844.7</ele>
        <time>2022-07-31T17:35:05Z</time>
      </trkpt>
      <trkpt lat="40.7234930" lon="-3.3715270">
        <ele>845.0</ele>
        <time>2022-07-31T17:35:06Z</time>
      </trkpt>
      <trkpt lat="40.7235370" lon="-3.3715250">
        <ele>845.3</ele>
        <time>2022-07-31T17:35:07Z</time>
      </trkpt>
      <trkpt lat="40.7235790" lon="-3.3715210">
        <ele>845.6</ele>
        <time>2022-07-31T17:35:08Z</time>
      </trkpt>
      <trkpt lat="40.7236150" lon="-3.3715260">
        <ele>845.9</ele>
        <time>2022-07-31T17:35:09Z</time>
      </trkpt>
      <trkpt lat="40.7236520" lon="-3.3715360">
        <ele>846.2</ele>
        <time>2022-07-31T17:35:10Z</time>
      </trkpt>
      <trkpt lat="40.7236900" lon="-3.3715410">
        <ele>846.5</ele>
        <time>2022-07-31T17:35:11Z</time>
      </trkpt>
      <trkpt lat="40.7237180" lon="-3.3715410">
        <ele>846.7</ele>
        <time>2022-07-31T17:35:12Z</time>
      </trkpt>
      <trkpt lat="40.7237460" lon="-3.3715450">
        <ele>847.0</ele>
        <time>2022-07-31T17:35:13Z</time>
      </trkpt>
      <trkpt lat="40.7237790" lon="-3.3715460">
        <ele>847.3</ele>
        <time>2022-07-31T17:35:14Z</time>
      </trkpt>
      <trkpt lat="40.7238150" lon="-3.3715440">
        <ele>847.7</ele>
        <time>2022-07-31T17:35:15Z</time>
      </trkpt>
      <trkpt lat="40.7238260" lon="-3.3715440">
        <ele>847.8</ele>
        <time>2022-07-31T17:35:16Z</time>
      </trkpt>
      <trkpt lat="40.7238550" lon="-3.3715430">
        <ele>848.1</ele>
        <time>2022-07-31T17:35:17Z</time>
      </trkpt>
      <trkpt lat="40.7238650" lon="-3.3715420">
        <ele>848.2</ele>
        <time>2022-07-31T17:35:18Z</time>
      </trkpt>
      <trkpt lat="40.7238960" lon="-3.3715360">
        <ele>848.6</ele>
        <time>2022-07-31T17:35:19Z</time>
      </trkpt>
      <trkpt lat="40.7239350" lon="-3.3715380">
        <ele>849.0</ele>
        <time>2022-07-31T17:35:20Z</time>
      </trkpt>
      <trkpt lat="40.7239490" lon="-3.3715410">
        <ele>849.1</ele>
        <time>2022-07-31T17:35:21Z</time>
      </trkpt>
      <trkpt lat="40.7239830" lon="-3.3715460">
        <ele>849.4</ele>
        <time>2022-07-31T17:35:22Z</time>
      </trkpt>
      <trkpt lat="40.7239940" lon="-3.3715470">
        <ele>849.6</ele>
        <time>2022-07-31T17:35:23Z</time>
      </trkpt>
      <trkpt lat="40.7240340" lon="-3.3715490">
        <ele>849.9</ele>
        <time>2022-07-31T17:35:24Z</time>
      </trkpt>
      <trkpt lat="40.7240460" lon="-3.3715490">
        <ele>850.1</ele>
        <time>2022-07-31T17:35:25Z</time>
      </trkpt>
      <trkpt lat="40.7240780" lon="-3.3715510">
        <ele>850.4</ele>
        <time>2022-07-31T17:35:26Z</time>
      </trkpt>
      <trkpt lat="40.7240880" lon="-3.3715510">
        <ele>850.5</ele>
        <time>2022-07-31T17:35:27Z</time>
      </trkpt>
      <trkpt lat="40.7241180" lon="-3.3715460">
        <ele>850.8</ele>
        <time>2022-07-31T17:35:28Z</time>
      </trkpt>
      <trkpt lat="40.7241300" lon="-3.3715450">
        <ele>850.9</ele>
        <time>2022-07-31T17:35:29Z</time>
      </trkpt>
      <trkpt lat="40.7241680" lon="-3.3715460">
        <ele>851.3</ele>
        <time>2022-07-31T17:35:30Z</time>
      </trkpt>
      <trkpt lat="40.7241800" lon="-3.3715470">
        <ele>851.4</ele>
        <time>2022-07-31T17:35:31Z</time>
      </trkpt>
      <trkpt lat="40.7242060" lon="-3.3715560">
        <ele>851.7</ele>
        <time>2022-07-31T17:35:32Z</time>
      </trkpt>
      <trkpt lat="40.7242170" lon="-3.3715590">
        <ele>851.8</ele>
        <time>2022-07-31T17:35:33Z</time>
      </trkpt>
      <trkpt lat="40.7242500" lon="-3.3715560">
        <ele>852.1</ele>
        <time>2022-07-31T17:35:34Z</time>
      </trkpt>
      <trkpt lat="40.7242660" lon="-3.3715520">
        <ele>852.3</ele>
        <time>2022-07-31T17:35:35Z</time>
      </trkpt>
      <trkpt lat="40.7242980" lon="-3.3715450">
        <ele>852.7</ele>
        <time>2022-07-31T17:35:36Z</time>
      </trkpt>
      <trkpt lat="40.7243060" lon="-3.3715420">
        <ele>852.8</ele>
        <time>2022-07-31T17:35:37Z</time>
      </trkpt>
      <trkpt lat="40.7243200" lon="-3.3715440">
        <ele>853.0</ele>
        <time>2022-07-31T17:35:38Z</time>
      </trkpt>
      <trkpt lat="40.7243350" lon="-3.3715380">
        <ele>853.1</ele>
        <time>2022-07-31T17:35:39Z</time>
      </trkpt>
      <trkpt lat="40.7243650" lon="-3.3715270">
        <ele>853.5</ele>
        <time>2022-07-31T17:35:40Z</time>
      </trkpt>
      <trkpt lat="40.7243740" lon="-3.3715240">
        <ele>853.7</ele>
        <time>2022-07-31T17:35:41Z</time>
      </trkpt>
      <trkpt lat="40.7243920" lon="-3.3715280">
        <ele>853.9</ele>
        <time>2022-07-31T17:35:42Z</time>
      </trkpt>
      <trkpt lat="40.7244030" lon="-3.3715340">
        <ele>854.1</ele>
        <time>2022-07-31T17:35:43Z</time>
      </trkpt>
      <trkpt lat="40.7244120" lon="-3.3715310">
        <ele>854.2</ele>
        <time>2022-07-31T17:35:44Z</time>
      </trkpt>
      <trkpt lat="40.7244250" lon="-3.3715350">
        <ele>854.4</ele>
        <time>2022-07-31T17:35:45Z</time>
      </trkpt>
      <trkpt lat="40.7244360" lon="-3.3715390">
        <ele>854.5</ele>
        <time>2022-07-31T17:35:46Z</time>
      </trkpt>
      <trkpt lat="40.7244560" lon="-3.3715350">
        <ele>854.8</ele>
        <time>2022-07-31T17:35:47Z</time>
      </trkpt>
      <trkpt lat="40.7244680" lon="-3.3715400">
        <ele>855.0</ele>
        <time>2022-07-31T17:35:48Z</time>
      </trkpt>
      <trkpt lat="40.7244750" lon="-3.3715470">
        <ele>855.1</ele>
        <time>2022-07-31T17:35:49Z</time>
      </trkpt>
      <trkpt lat="40.7244970" lon="-3.3715390">
        <ele>855.4</ele>
        <time>2022-07-31T17:35:50Z</time>
      </trkpt>
      <trkpt lat="40.7245130" lon="-3.3715410">
        <ele>855.6</ele>
        <time>2022-07-31T17:35:51Z</time>
      </trkpt>
      <trkpt lat="40.7245290" lon="-3.3715360">
        <ele>855.8</ele>
        <time>2022-07-31T17:35:52Z</time>
      </trkpt>
      <trkpt lat="40.7245590" lon="-3.3715350">
        <ele>856.2</ele>
        <time>2022-07-31T17:35:53Z</time>
      </trkpt>
      <trkpt lat="40.7245700" lon="-3.3715310">
        <ele>856.4</ele>
        <time>2022-07-31T17:35:54Z</time>
      </trkpt>
      <trkpt lat="40.7245960" lon="-3.3715280">
        <ele>856.7</ele>
        <time>2022-07-31T17:35:55Z</time>
      </trkpt>
      <trkpt lat="40.7246050" lon="-3.3715250">
        <ele>856.8</ele>
        <time>2022-07-31T17:35:56Z</time>
      </trkpt>
      <trkpt lat="40.7246140" lon="-3.3715220">
        <ele>856.9</ele>
        <time>2022-07-31T17:35:57Z</time>
      </trkpt>
      <trkpt lat="40.7246420" lon="-3.3715180">
        <ele>857.2</ele>
        <time>2022-07-31T17:35:58Z</time>
      </trkpt>
      <trkpt lat="40.7246520" lon="-3.3715170">
        <ele>857.3</ele>
        <time>2022-07-31T17:35:59Z</time>
      </trkpt>
      <trkpt lat="40.7246650" lon="-3.3715270">
        <ele>857.5</ele>
        <time>2022-07-31T17:36:00Z</time>
      </trkpt>
      <trkpt lat="40.7246820" lon="-3.3715240">
        <ele>857.7</ele>
        <time>2022-07-31T17:36:01Z</time>
      </trkpt>
      <trkpt lat="40.7247130" lon="-3.3715130">
        <ele>858.0</ele>
        <time>2022-07-31T17:36:02Z</time>
      </trkpt>
      <trkpt lat="40.7247220" lon="-3.3715120">
        <ele>858.0</ele>
        <time>2022-07-31T17:36:03Z</time>
      </trkpt>
      <trkpt lat="40.7247440" lon="-3.3714990">
        <ele>858.3</ele>
        <time>2022-07-31T17:36:04Z</time>
      </trkpt>
      <trkpt lat="40.7247540" lon="-3.3715070">
        <ele>858.3</ele>
        <time>2022-07-31T17:36:05Z</time>
      </trkpt>
      <trkpt lat="40.7247830" lon="-3.3715160">
        <ele>858.6</ele>
        <time>2022-07-31T17:36:06Z</time>
      </trkpt>
      <trkpt lat="40.7247950" lon="-3.3715120">
        <ele>858.6</ele>
        <time>2022-07-31T17:36:07Z</time>
      </trkpt>
      <trkpt lat="40.7248110" lon="-3.3715150">
        <ele>858.7</ele>
        <time>2022-07-31T17:36:08Z</time>
      </trkpt>
      <trkpt lat="40.7248280" lon="-3.3715220">
        <ele>858.9</ele>
        <time>2022-07-31T17:36:09Z</time>
      </trkpt>
      <trkpt lat="40.7248530" lon="-3.3715460">
        <ele>859.0</ele>
        <time>2022-07-31T17:36:10Z</time>
      </trkpt>
      <trkpt lat="40.7248600" lon="-3.3715560">
        <ele>859.1</ele>
        <time>2022-07-31T17:36:11Z</time>
      </trkpt>
      <trkpt lat="40.7248720" lon="-3.3715630">
        <ele>859.1</ele>
        <time>2022-07-31T17:36:12Z</time>
      </trkpt>
      <trkpt lat="40.7248880" lon="-3.3715730">
        <ele>859.2</ele>
        <time>2022-07-31T17:36:13Z</time>
      </trkpt>
      <trkpt lat="40.7249170" lon="-3.3715810">
        <ele>859.3</ele>
        <time>2022-07-31T17:36:14Z</time>
      </trkpt>
      <trkpt lat="40.7249250" lon="-3.3715860">
        <ele>859.4</ele>
        <time>2022-07-31T17:36:15Z</time>
      </trkpt>
      <trkpt lat="40.7249420" lon="-3.3715890">
        <ele>859.4</ele>
        <time>2022-07-31T17:36:16Z</time>
      </trkpt>
      <trkpt lat="40.7249590" lon="-3.3715910">
        <ele>859.5</ele>
        <time>2022-07-31T17:36:17Z</time>
      </trkpt>
      <trkpt lat="40.7250010" lon="-3.3715940">
        <ele>859.6</ele>
        <time>2022-07-31T17:36:18Z</time>
      </trkpt>
      <trkpt lat="40.7250170" lon="-3.3715920">
        <ele>859.7</ele>
        <time>2022-07-31T17:36:19Z</time>
      </trkpt>
      <trkpt lat="40.7250490" lon="-3.3716080">
        <ele>859.8</ele>
        <time>2022-07-31T17:36:20Z</time>
      </trkpt>
      <trkpt lat="40.7250550" lon="-3.3716160">
        <ele>859.8</ele>
        <time>2022-07-31T17:36:21Z</time>
      </trkpt>
      <trkpt lat="40.7250930" lon="-3.3716160">
        <ele>859.9</ele>
        <time>2022-07-31T17:36:22Z</time>
      </trkpt>
      <trkpt lat="40.7251310" lon="-3.3716400">
        <ele>860.0</ele>
        <time>2022-07-31T17:36:23Z</time>
      </trkpt>
      <trkpt lat="40.7251460" lon="-3.3716460">
        <ele>860.0</ele>
        <time>2022-07-31T17:36:24Z</time>
      </trkpt>
      <trkpt lat="40.7251790" lon="-3.3716590">
        <ele>860.0</ele>
        <time>2022-07-31T17:36:25Z</time>
      </trkpt>
      <trkpt lat="40.7252130" lon="-3.3716860">
        <ele>860.1</ele>
        <time>2022-07-31T17:36:26Z</time>
      </trkpt>
      <trkpt lat="40.7252450" lon="-3.3717010">
        <ele>860.2</ele>
        <time>2022-07-31T17:36:27Z</time>
      </trkpt>
      <trkpt lat="40.7252740" lon="-3.3717210">
        <ele>860.2</ele>
        <time>2022-07-31T17:36:28Z</time>
      </trkpt>
      <trkpt lat="40.7253080" lon="-3.3717350">
        <ele>860.3</ele>
        <time>2022-07-31T17:36:29Z</time>
      </trkpt>
      <trkpt lat="40.7253460" lon="-3.3717390">
        <ele>860.3</ele>
        <time>2022-07-31T17:36:30Z</time>
      </trkpt>
      <trkpt lat="40.7253820" lon="-3.3717510">
        <ele>860.3</ele>
        <time>2022-07-31T17:36:31Z</time>
      </trkpt>
      <trkpt lat="40.7254320" lon="-3.3717560">
        <ele>860.4</ele>
        <time>2022-07-31T17:36:32Z</time>
      </trkpt>
      <trkpt lat="40.7254620" lon="-3.3717640">
        <ele>860.4</ele>
        <time>2022-07-31T17:36:33Z</time>
      </trkpt>
      <trkpt lat="40.7255030" lon="-3.3717730">
        <ele>860.4</ele>
        <time>2022-07-31T17:36:34Z</time>
      </trkpt>
      <trkpt lat="40.7255530" lon="-3.3717740">
        <ele>860.5</ele>
        <time>2022-07-31T17:36:35Z</time>
      </trkpt>
      <trkpt lat="40.7255990" lon="-3.3717770">
        <ele>860.5</ele>
        <time>2022-07-31T17:36:36Z</time>
      </trkpt>
      <trkpt lat="40.7256480" lon="-3.3717810">
        <ele>860.5</ele>
        <time>2022-07-31T17:36:37Z</time>
      </trkpt>
      <trkpt lat="40.7256850" lon="-3.3717880">
        <ele>860.6</ele>
        <time>2022-07-31T17:36:38Z</time>
      </trkpt>
      <trkpt lat="40.7257300" lon="-3.3717860">
        <ele>860.6</ele>
        <time>2022-07-31T17:36:39Z</time>
      </trkpt>
      <trkpt lat="40.7257660" lon="-3.3717890">
        <ele>860.6</ele>
        <time>2022-07-31T17:36:40Z</time>
      </trkpt>
      <trkpt lat="40.7258200" lon="-3.3717830">
        <ele>860.6</ele>
        <time>2022-07-31T17:36:41Z</time>
      </trkpt>
      <trkpt lat="40.7258630" lon="-3.3717920">
        <ele>860.7</ele>
        <time>2022-07-31T17:36:42Z</time>
      </trkpt>
      <trkpt lat="40.7259070" lon="-3.3718090">
        <ele>860.7</ele>
        <time>2022-07-31T17:36:43Z</time>
      </trkpt>
      <trkpt lat="40.7259540" lon="-3.3718330">
        <ele>860.7</ele>
        <time>2022-07-31T17:36:44Z</time>
      </trkpt>
      <trkpt lat="40.7259910" lon="-3.3718570">
        <ele>860.8</ele>
        <time>2022-07-31T17:36:45Z</time>
      </trkpt>
      <trkpt lat="40.7260290" lon="-3.3718850">
        <ele>860.8</ele>
        <time>2022-07-31T17:36:46Z</time>
      </trkpt>
      <trkpt lat="40.7260680" lon="-3.3719130">
        <ele>860.9</ele>
        <time>2022-07-31T17:36:47Z</time>
      </trkpt>
      <trkpt lat="40.7261030" lon="-3.3719460">
        <ele>860.9</ele>
        <time>2022-07-31T17:36:48Z</time>
      </trkpt>
      <trkpt lat="40.7261440" lon="-3.3719710">
        <ele>860.9</ele>
        <time>2022-07-31T17:36:49Z</time>
      </trkpt>
      <trkpt lat="40.7261770" lon="-3.3719990">
        <ele>861.0</ele>
        <time>2022-07-31T17:36:50Z</time>
      </trkpt>
      <trkpt lat="40.7262100" lon="-3.3720180">
        <ele>861.0</ele>
        <time>2022-07-31T17:36:51Z</time>
      </trkpt>
      <trkpt lat="40.7262440" lon="-3.3720340">
        <ele>861.0</ele>
        <time>2022-07-31T17:36:52Z</time>
      </trkpt>
      <trkpt lat="40.7262910" lon="-3.3720600">
        <ele>861.1</ele>
        <time>2022-07-31T17:36:53Z</time>
      </trkpt>
      <trkpt lat="40.7263270" lon="-3.3720790">
        <ele>861.1</ele>
        <time>2022-07-31T17:36:54Z</time>
      </trkpt>
      <trkpt lat="40.7263660" lon="-3.3721020">
        <ele>861.1</ele>
        <time>2022-07-31T17:36:55Z</time>
      </trkpt>
      <trkpt lat="40.7264070" lon="-3.3721340">
        <ele>861.2</ele>
        <time>2022-07-31T17:36:56Z</time>
      </trkpt>
      <trkpt lat="40.7264490" lon="-3.3721600">
        <ele>861.2</ele>
        <time>2022-07-31T17:36:57Z</time>
      </trkpt>
      <trkpt lat="40.7264950" lon="-3.3721900">
        <ele>861.2</ele>
        <time>2022-07-31T17:36:58Z</time>
      </trkpt>
      <trkpt lat="40.7265380" lon="-3.3722100">
        <ele>861.2</ele>
        <time>2022-07-31T17:36:59Z</time>
      </trkpt>
      <trkpt lat="40.7265820" lon="-3.3722300">
        <ele>861.2</ele>
        <time>2022-07-31T17:37:00Z</time>
      </trkpt>
      <trkpt lat="40.7266190" lon="-3.3722550">
        <ele>861.2</ele>
        <time>2022-07-31T17:37:01Z</time>
      </trkpt>
      <trkpt lat="40.7266570" lon="-3.3722770">
        <ele>861.2</ele>
        <time>2022-07-31T17:37:02Z</time>
      </trkpt>
      <trkpt lat="40.7266950" lon="-3.3722990">
        <ele>861.2</ele>
        <time>2022-07-31T17:37:03Z</time>
      </trkpt>
      <trkpt lat="40.7267340" lon="-3.3723220">
        <ele>861.2</ele>
        <time>2022-07-31T17:37:04Z</time>
      </trkpt>
      <trkpt lat="40.7267750" lon="-3.3723480">
        <ele>861.2</ele>
        <time>2022-07-31T17:37:05Z</time>
      </trkpt>
      <trkpt lat="40.7268160" lon="-3.3723720">
        <ele>861.2</ele>
        <time>2022-07-31T17:37:06Z</time>
      </trkpt>
      <trkpt lat="40.7268520" lon="-3.3724000">
        <ele>861.1</ele>
        <time>2022-07-31T17:37:07Z</time>
      </trkpt>
      <trkpt lat="40.7268850" lon="-3.3724130">
        <ele>861.1</ele>
        <time>2022-07-31T17:37:08Z</time>
      </trkpt>
      <trkpt lat="40.7269130" lon="-3.3724360">
        <ele>861.1</ele>
        <time>2022-07-31T17:37:09Z</time>
      </trkpt>
      <trkpt lat="40.7269390" lon="-3.3724590">
        <ele>861.1</ele>
        <time>2022-07-31T17:37:10Z</time>
      </trkpt>
      <trkpt lat="40.7269660" lon="-3.3724860">
        <ele>861.1</ele>
        <time>2022-07-31T17:37:11Z</time>
      </trkpt>
      <trkpt lat="40.7269980" lon="-3.3725100">
        <ele>861.1</ele>
        <time>2022-07-31T17:37:12Z</time>
      </trkpt>
      <trkpt lat="40.7270300" lon="-3.3725430">
        <ele>861.0</ele>
        <time>2022-07-31T17:37:13Z</time>
      </trkpt>
      <trkpt lat="40.7270670" lon="-3.3725700">
        <ele>861.0</ele>
        <time>2022-07-31T17:37:14Z</time>
      </trkpt>
      <trkpt lat="40.7271020" lon="-3.3725970">
        <ele>861.0</ele>
        <time>2022-07-31T17:37:15Z</time>
      </trkpt>
      <trkpt lat="40.7271380" lon="-3.3726220">
        <ele>860.9</ele>
        <time>2022-07-31T17:37:16Z</time>
      </trkpt>
      <trkpt lat="40.7271790" lon="-3.3726510">
        <ele>860.9</ele>
        <time>2022-07-31T17:37:17Z</time>
      </trkpt>
      <trkpt lat="40.7272160" lon="-3.3726870">
        <ele>860.8</ele>
        <time>2022-07-31T17:37:18Z</time>
      </trkpt>
      <trkpt lat="40.7272510" lon="-3.3727270">
        <ele>860.8</ele>
        <time>2022-07-31T17:37:19Z</time>
      </trkpt>
      <trkpt lat="40.7272870" lon="-3.3727600">
        <ele>860.8</ele>
        <time>2022-07-31T17:37:20Z</time>
      </trkpt>
      <trkpt lat="40.7273270" lon="-3.3727940">
        <ele>860.7</ele>
        <time>2022-07-31T17:37:21Z</time>
      </trkpt>
      <trkpt lat="40.7273660" lon="-3.3728270">
        <ele>860.7</ele>
        <time>2022-07-31T17:37:22Z</time>
      </trkpt>
      <trkpt lat="40.7274090" lon="-3.3728600">
        <ele>860.7</ele>
        <time>2022-07-31T17:37:23Z</time>
      </trkpt>
      <trkpt lat="40.7274570" lon="-3.3729000">
        <ele>860.7</ele>
        <time>2022-07-31T17:37:24Z</time>
      </trkpt>
      <trkpt lat="40.7274970" lon="-3.3729380">
        <ele>860.7</ele>
        <time>2022-07-31T17:37:25Z</time>
      </trkpt>
      <trkpt lat="40.7275420" lon="-3.3729760">
        <ele>860.7</ele>
        <time>2022-07-31T17:37:26Z</time>
      </trkpt>
      <trkpt lat="40.7275780" lon="-3.3730080">
        <ele>860.7</ele>
        <time>2022-07-31T17:37:27Z</time>
      </trkpt>
      <trkpt lat="40.7276160" lon="-3.3730320">
        <ele>860.7</ele>
        <time>2022-07-31T17:37:28Z</time>
      </trkpt>
      <trkpt lat="40.7276460" lon="-3.3730670">
        <ele>860.8</ele>
        <time>2022-07-31T17:37:29Z</time>
      </trkpt>
      <trkpt lat="40.7276850" lon="-3.3731010">
        <ele>860.8</ele>
        <time>2022-07-31T17:37:30Z</time>
      </trkpt>
      <trkpt lat="40.7277280" lon="-3.3731340">
        <ele>860.8</ele>
        <time>2022-07-31T17:37:31Z</time>
      </trkpt>
      <trkpt lat="40.7277600" lon="-3.3731780">
        <ele>860.8</ele>
        <time>2022-07-31T17:37:32Z</time>
      </trkpt>
      <trkpt lat="40.7277970" lon="-3.3732190">
        <ele>860.9</ele>
        <time>2022-07-31T17:37:33Z</time>
      </trkpt>
      <trkpt lat="40.7278380" lon="-3.3732560">
        <ele>860.9</ele>
        <time>2022-07-31T17:37:34Z</time>
      </trkpt>
      <trkpt lat="40.7278740" lon="-3.3732870">
        <ele>860.9</ele>
        <time>2022-07-31T17:37:35Z</time>
      </trkpt>
      <trkpt lat="40.7279100" lon="-3.3733230">
        <ele>860.9</ele>
        <time>2022-07-31T17:37:36Z</time>
      </trkpt>
      <trkpt lat="40.7279430" lon="-3.3733590">
        <ele>861.0</ele>
        <time>2022-07-31T17:37:37Z</time>
      </trkpt>
      <trkpt lat="40.7279890" lon="-3.3733990">
        <ele>861.0</ele>
        <time>2022-07-31T17:37:38Z</time>
      </trkpt>
      <trkpt lat="40.7280280" lon="-3.3734330">
        <ele>861.1</ele>
        <time>2022-07-31T17:37:39Z</time>
      </trkpt>
      <trkpt lat="40.7280640" lon="-3.3734760">
        <ele>861.1</ele>
        <time>2022-07-31T17:37:40Z</time>
      </trkpt>
      <trkpt lat="40.7281010" lon="-3.3735100">
        <ele>861.2</ele>
        <time>2022-07-31T17:37:41Z</time>
      </trkpt>
      <trkpt lat="40.7281300" lon="-3.3735420">
        <ele>861.2</ele>
        <time>2022-07-31T17:37:42Z</time>
      </trkpt>
      <trkpt lat="40.7281640" lon="-3.3735800">
        <ele>861.2</ele>
        <time>2022-07-31T17:37:43Z</time>
      </trkpt>
      <trkpt lat="40.7281950" lon="-3.3736000">
        <ele>861.3</ele>
        <time>2022-07-31T17:37:44Z</time>
      </trkpt>
      <trkpt lat="40.7282260" lon="-3.3736190">
        <ele>861.3</ele>
        <time>2022-07-31T17:37:45Z</time>
      </trkpt>
      <trkpt lat="40.7282600" lon="-3.3736380">
        <ele>861.3</ele>
        <time>2022-07-31T17:37:46Z</time>
      </trkpt>
      <trkpt lat="40.7282920" lon="-3.3736570">
        <ele>861.4</ele>
        <time>2022-07-31T17:37:47Z</time>
      </trkpt>
      <trkpt lat="40.7283290" lon="-3.3736890">
        <ele>861.4</ele>
        <time>2022-07-31T17:37:48Z</time>
      </trkpt>
      <trkpt lat="40.7283720" lon="-3.3737240">
        <ele>861.5</ele>
        <time>2022-07-31T17:37:49Z</time>
      </trkpt>
      <trkpt lat="40.7284080" lon="-3.3737630">
        <ele>861.5</ele>
        <time>2022-07-31T17:37:50Z</time>
      </trkpt>
      <trkpt lat="40.7284600" lon="-3.3737950">
        <ele>861.5</ele>
        <time>2022-07-31T17:37:51Z</time>
      </trkpt>
      <trkpt lat="40.7284940" lon="-3.3738260">
        <ele>861.6</ele>
        <time>2022-07-31T17:37:52Z</time>
      </trkpt>
      <trkpt lat="40.7285380" lon="-3.3738580">
        <ele>861.6</ele>
        <time>2022-07-31T17:37:53Z</time>
      </trkpt>
      <trkpt lat="40.7285800" lon="-3.3738990">
        <ele>861.7</ele>
        <time>2022-07-31T17:37:54Z</time>
      </trkpt>
      <trkpt lat="40.7286090" lon="-3.3739400">
        <ele>861.7</ele>
        <time>2022-07-31T17:37:55Z</time>
      </trkpt>
      <trkpt lat="40.7286440" lon="-3.3739750">
        <ele>861.8</ele>
        <time>2022-07-31T17:37:56Z</time>
      </trkpt>
      <trkpt lat="40.7286800" lon="-3.3740060">
        <ele>861.8</ele>
        <time>2022-07-31T17:37:57Z</time>
      </trkpt>
      <trkpt lat="40.7287160" lon="-3.3740440">
        <ele>861.9</ele>
        <time>2022-07-31T17:37:58Z</time>
      </trkpt>
      <trkpt lat="40.7287500" lon="-3.3740810">
        <ele>861.9</ele>
        <time>2022-07-31T17:37:59Z</time>
      </trkpt>
      <trkpt lat="40.7287820" lon="-3.3741260">
        <ele>862.0</ele>
        <time>2022-07-31T17:38:00Z</time>
      </trkpt>
      <trkpt lat="40.7288170" lon="-3.3741800">
        <ele>862.0</ele>
        <time>2022-07-31T17:38:01Z</time>
      </trkpt>
      <trkpt lat="40.7288550" lon="-3.3742160">
        <ele>862.0</ele>
        <time>2022-07-31T17:38:02Z</time>
      </trkpt>
      <trkpt lat="40.7288890" lon="-3.3742540">
        <ele>862.0</ele>
        <time>2022-07-31T17:38:03Z</time>
      </trkpt>
      <trkpt lat="40.7289260" lon="-3.3743040">
        <ele>862.0</ele>
        <time>2022-07-31T17:38:04Z</time>
      </trkpt>
      <trkpt lat="40.7289520" lon="-3.3743480">
        <ele>862.1</ele>
        <time>2022-07-31T17:38:05Z</time>
      </trkpt>
      <trkpt lat="40.7289840" lon="-3.3743910">
        <ele>862.1</ele>
        <time>2022-07-31T17:38:06Z</time>
      </trkpt>
      <trkpt lat="40.7290120" lon="-3.3744470">
        <ele>862.1</ele>
        <time>2022-07-31T17:38:07Z</time>
      </trkpt>
      <trkpt lat="40.7290400" lon="-3.3744890">
        <ele>862.1</ele>
        <time>2022-07-31T17:38:08Z</time>
      </trkpt>
      <trkpt lat="40.7290670" lon="-3.3745380">
        <ele>862.0</ele>
        <time>2022-07-31T17:38:09Z</time>
      </trkpt>
      <trkpt lat="40.7290900" lon="-3.3745740">
        <ele>862.0</ele>
        <time>2022-07-31T17:38:10Z</time>
      </trkpt>
      <trkpt lat="40.7291160" lon="-3.3746260">
        <ele>862.0</ele>
        <time>2022-07-31T17:38:11Z</time>
      </trkpt>
      <trkpt lat="40.7291540" lon="-3.3746650">
        <ele>862.1</ele>
        <time>2022-07-31T17:38:12Z</time>
      </trkpt>
      <trkpt lat="40.7291840" lon="-3.3747100">
        <ele>862.1</ele>
        <time>2022-07-31T17:38:13Z</time>
      </trkpt>
      <trkpt lat="40.7292250" lon="-3.3747550">
        <ele>862.1</ele>
        <time>2022-07-31T17:38:14Z</time>
      </trkpt>
      <trkpt lat="40.7292640" lon="-3.3748010">
        <ele>862.1</ele>
        <time>2022-07-31T17:38:15Z</time>
      </trkpt>
      <trkpt lat="40.7292970" lon="-3.3748520">
        <ele>862.1</ele>
        <time>2022-07-31T17:38:16Z</time>
      </trkpt>
      <trkpt lat="40.7293290" lon="-3.3748920">
        <ele>862.0</ele>
        <time>2022-07-31T17:38:17Z</time>
      </trkpt>
      <trkpt lat="40.7293630" lon="-3.3749330">
        <ele>862.0</ele>
        <time>2022-07-31T17:38:18Z</time>
      </trkpt>
      <trkpt lat="40.7293930" lon="-3.3749720">
        <ele>862.0</ele>
        <time>2022-07-31T17:38:19Z</time>
      </trkpt>
      <trkpt lat="40.7294210" lon="-3.3750080">
        <ele>862.0</ele>
        <time>2022-07-31T17:38:20Z</time>
      </trkpt>
      <trkpt lat="40.7294490" lon="-3.3750390">
        <ele>862.0</ele>
        <time>2022-07-31T17:38:21Z</time>
      </trkpt>
      <trkpt lat="40.7294830" lon="-3.3750690">
        <ele>862.0</ele>
        <time>2022-07-31T17:38:22Z</time>
      </trkpt>
      <trkpt lat="40.7295170" lon="-3.3750880">
        <ele>862.0</ele>
        <time>2022-07-31T17:38:23Z</time>
      </trkpt>
      <trkpt lat="40.7295490" lon="-3.3751170">
        <ele>862.0</ele>
        <time>2022-07-31T17:38:24Z</time>
      </trkpt>
      <trkpt lat="40.7295790" lon="-3.3751510">
        <ele>862.0</ele>
        <time>2022-07-31T17:38:25Z</time>
      </trkpt>
      <trkpt lat="40.7296020" lon="-3.3751890">
        <ele>862.0</ele>
        <time>2022-07-31T17:38:26Z</time>
      </trkpt>
      <trkpt lat="40.7296430" lon="-3.3752180">
        <ele>862.0</ele>
        <time>2022-07-31T17:38:27Z</time>
      </trkpt>
      <trkpt lat="40.7296760" lon="-3.3752480">
        <ele>862.0</ele>
        <time>2022-07-31T17:38:28Z</time>
      </trkpt>
      <trkpt lat="40.7297050" lon="-3.3752750">
        <ele>862.1</ele>
        <time>2022-07-31T17:38:29Z</time>
      </trkpt>
      <trkpt lat="40.7297320" lon="-3.3752980">
        <ele>862.1</ele>
        <time>2022-07-31T17:38:30Z</time>
      </trkpt>
      <trkpt lat="40.7297600" lon="-3.3753180">
        <ele>862.1</ele>
        <time>2022-07-31T17:38:31Z</time>
      </trkpt>
      <trkpt lat="40.7297950" lon="-3.3753380">
        <ele>862.1</ele>
        <time>2022-07-31T17:38:32Z</time>
      </trkpt>
      <trkpt lat="40.7298250" lon="-3.3753610">
        <ele>862.2</ele>
        <time>2022-07-31T17:38:33Z</time>
      </trkpt>
      <trkpt lat="40.7298560" lon="-3.3753900">
        <ele>862.2</ele>
        <time>2022-07-31T17:38:34Z</time>
      </trkpt>
      <trkpt lat="40.7298900" lon="-3.3754010">
        <ele>862.2</ele>
        <time>2022-07-31T17:38:35Z</time>
      </trkpt>
      <trkpt lat="40.7299280" lon="-3.3754200">
        <ele>862.2</ele>
        <time>2022-07-31T17:38:36Z</time>
      </trkpt>
      <trkpt lat="40.7299690" lon="-3.3754330">
        <ele>862.3</ele>
        <time>2022-07-31T17:38:37Z</time>
      </trkpt>
      <trkpt lat="40.7300120" lon="-3.3754490">
        <ele>862.3</ele>
        <time>2022-07-31T17:38:38Z</time>
      </trkpt>
      <trkpt lat="40.7300500" lon="-3.3754650">
        <ele>862.3</ele>
        <time>2022-07-31T17:38:39Z</time>
      </trkpt>
      <trkpt lat="40.7300850" lon="-3.3754800">
        <ele>862.3</ele>
        <time>2022-07-31T17:38:40Z</time>
      </trkpt>
      <trkpt lat="40.7301260" lon="-3.3754990">
        <ele>862.4</ele>
        <time>2022-07-31T17:38:41Z</time>
      </trkpt>
      <trkpt lat="40.7301670" lon="-3.3755120">
        <ele>862.4</ele>
        <time>2022-07-31T17:38:42Z</time>
      </trkpt>
      <trkpt lat="40.7302130" lon="-3.3755400">
        <ele>862.4</ele>
        <time>2022-07-31T17:38:43Z</time>
      </trkpt>
      <trkpt lat="40.7302650" lon="-3.3755720">
        <ele>862.5</ele>
        <time>2022-07-31T17:38:44Z</time>
      </trkpt>
      <trkpt lat="40.7303100" lon="-3.3755980">
        <ele>862.5</ele>
        <time>2022-07-31T17:38:45Z</time>
      </trkpt>
      <trkpt lat="40.7303550" lon="-3.3756260">
        <ele>862.5</ele>
        <time>2022-07-31T17:38:46Z</time>
      </trkpt>
      <trkpt lat="40.7304070" lon="-3.3756500">
        <ele>862.6</ele>
        <time>2022-07-31T17:38:47Z</time>
      </trkpt>
      <trkpt lat="40.7304570" lon="-3.3756730">
        <ele>862.6</ele>
        <time>2022-07-31T17:38:48Z</time>
      </trkpt>
      <trkpt lat="40.7305080" lon="-3.3756930">
        <ele>862.6</ele>
        <time>2022-07-31T17:38:49Z</time>
      </trkpt>
      <trkpt lat="40.7305570" lon="-3.3757150">
        <ele>862.6</ele>
        <time>2022-07-31T17:38:50Z</time>
      </trkpt>
      <trkpt lat="40.7306010" lon="-3.3757330">
        <ele>862.6</ele>
        <time>2022-07-31T17:38:51Z</time>
      </trkpt>
      <trkpt lat="40.7306400" lon="-3.3757570">
        <ele>862.6</ele>
        <time>2022-07-31T17:38:52Z</time>
      </trkpt>
      <trkpt lat="40.7306830" lon="-3.3757820">
        <ele>862.7</ele>
        <time>2022-07-31T17:38:53Z</time>
      </trkpt>
      <trkpt lat="40.7307190" lon="-3.3758020">
        <ele>862.7</ele>
        <time>2022-07-31T17:38:54Z</time>
      </trkpt>
      <trkpt lat="40.7307580" lon="-3.3758200">
        <ele>862.7</ele>
        <time>2022-07-31T17:38:55Z</time>
      </trkpt>
      <trkpt lat="40.7307970" lon="-3.3758380">
        <ele>862.7</ele>
        <time>2022-07-31T17:38:56Z</time>
      </trkpt>
      <trkpt lat="40.7308290" lon="-3.3758580">
        <ele>862.7</ele>
        <time>2022-07-31T17:38:57Z</time>
      </trkpt>
      <trkpt lat="40.7308650" lon="-3.3758720">
        <ele>862.7</ele>
        <time>2022-07-31T17:38:58Z</time>
      </trkpt>
      <trkpt lat="40.7308990" lon="-3.3758850">
        <ele>862.7</ele>
        <time>2022-07-31T17:38:59Z</time>
      </trkpt>
      <trkpt lat="40.7309360" lon="-3.3759040">
        <ele>862.7</ele>
        <time>2022-07-31T17:39:00Z</time>
      </trkpt>
      <trkpt lat="40.7309740" lon="-3.3759260">
        <ele>862.7</ele>
        <time>2022-07-31T17:39:01Z</time>
      </trkpt>
      <trkpt lat="40.7310110" lon="-3.3759440">
        <ele>862.7</ele>
        <time>2022-07-31T17:39:02Z</time>
      </trkpt>
      <trkpt lat="40.7310490" lon="-3.3759630">
        <ele>862.7</ele>
        <time>2022-07-31T17:39:03Z</time>
      </trkpt>
      <trkpt lat="40.7310940" lon="-3.3759760">
        <ele>862.7</ele>
        <time>2022-07-31T17:39:04Z</time>
      </trkpt>
      <trkpt lat="40.7311460" lon="-3.3759910">
        <ele>862.7</ele>
        <time>2022-07-31T17:39:05Z</time>
      </trkpt>
      <trkpt lat="40.7311970" lon="-3.3760090">
        <ele>862.7</ele>
        <time>2022-07-31T17:39:06Z</time>
      </trkpt>
      <trkpt lat="40.7312460" lon="-3.3760300">
        <ele>862.7</ele>
        <time>2022-07-31T17:39:07Z</time>
      </trkpt>
      <trkpt lat="40.7312870" lon="-3.3760530">
        <ele>862.7</ele>
        <time>2022-07-31T17:39:08Z</time>
      </trkpt>
      <trkpt lat="40.7313290" lon="-3.3760700">
        <ele>862.7</ele>
        <time>2022-07-31T17:39:09Z</time>
      </trkpt>
      <trkpt lat="40.7313690" lon="-3.3760910">
        <ele>862.7</ele>
        <time>2022-07-31T17:39:10Z</time>
      </trkpt>
      <trkpt lat="40.7314110" lon="-3.3761140">
        <ele>862.7</ele>
        <time>2022-07-31T17:39:11Z</time>
      </trkpt>
      <trkpt lat="40.7314500" lon="-3.3761330">
        <ele>862.7</ele>
        <time>2022-07-31T17:39:12Z</time>
      </trkpt>
      <trkpt lat="40.7314890" lon="-3.3761500">
        <ele>862.7</ele>
        <time>2022-07-31T17:39:13Z</time>
      </trkpt>
      <trkpt lat="40.7315240" lon="-3.3761640">
        <ele>862.7</ele>
        <time>2022-07-31T17:39:14Z</time>
      </trkpt>
      <trkpt lat="40.7315640" lon="-3.3761740">
        <ele>862.7</ele>
        <time>2022-07-31T17:39:15Z</time>
      </trkpt>
      <trkpt lat="40.7316070" lon="-3.3761860">
        <ele>862.7</ele>
        <time>2022-07-31T17:39:16Z</time>
      </trkpt>
      <trkpt lat="40.7316540" lon="-3.3762050">
        <ele>862.7</ele>
        <time>2022-07-31T17:39:17Z</time>
      </trkpt>
      <trkpt lat="40.7316990" lon="-3.3762230">
        <ele>862.8</ele>
        <time>2022-07-31T17:39:18Z</time>
      </trkpt>
      <trkpt lat="40.7317380" lon="-3.3762420">
        <ele>862.8</ele>
        <time>2022-07-31T17:39:19Z</time>
      </trkpt>
      <trkpt lat="40.7317860" lon="-3.3762620">
        <ele>862.8</ele>
        <time>2022-07-31T17:39:20Z</time>
      </trkpt>
      <trkpt lat="40.7318380" lon="-3.3762870">
        <ele>862.8</ele>
        <time>2022-07-31T17:39:21Z</time>
      </trkpt>
      <trkpt lat="40.7318780" lon="-3.3763000">
        <ele>862.8</ele>
        <time>2022-07-31T17:39:22Z</time>
      </trkpt>
      <trkpt lat="40.7319110" lon="-3.3763110">
        <ele>862.8</ele>
        <time>2022-07-31T17:39:23Z</time>
      </trkpt>
      <trkpt lat="40.7319480" lon="-3.3763090">
        <ele>862.8</ele>
        <time>2022-07-31T17:39:24Z</time>
      </trkpt>
      <trkpt lat="40.7319890" lon="-3.3763180">
        <ele>862.8</ele>
        <time>2022-07-31T17:39:25Z</time>
      </trkpt>
      <trkpt lat="40.7320300" lon="-3.3763220">
        <ele>862.8</ele>
        <time>2022-07-31T17:39:26Z</time>
      </trkpt>
      <trkpt lat="40.7320590" lon="-3.3763350">
        <ele>862.8</ele>
        <time>2022-07-31T17:39:27Z</time>
      </trkpt>
      <trkpt lat="40.7320880" lon="-3.3763530">
        <ele>862.7</ele>
        <time>2022-07-31T17:39:28Z</time>
      </trkpt>
      <trkpt lat="40.7321160" lon="-3.3763630">
        <ele>862.7</ele>
        <time>2022-07-31T17:39:29Z</time>
      </trkpt>
      <trkpt lat="40.7321480" lon="-3.3763800">
        <ele>862.7</ele>
        <time>2022-07-31T17:39:30Z</time>
      </trkpt>
      <trkpt lat="40.7321780" lon="-3.3763910">
        <ele>862.7</ele>
        <time>2022-07-31T17:39:31Z</time>
      </trkpt>
      <trkpt lat="40.7322130" lon="-3.3763910">
        <ele>862.7</ele>
        <time>2022-07-31T17:39:32Z</time>
      </trkpt>
      <trkpt lat="40.7322560" lon="-3.3763910">
        <ele>862.6</ele>
        <time>2022-07-31T17:39:33Z</time>
      </trkpt>
      <trkpt lat="40.7323060" lon="-3.3764020">
        <ele>862.5</ele>
        <time>2022-07-31T17:39:34Z</time>
      </trkpt>
      <trkpt lat="40.7323550" lon="-3.3764110">
        <ele>862.5</ele>
        <time>2022-07-31T17:39:35Z</time>
      </trkpt>
      <trkpt lat="40.7324110" lon="-3.3764140">
        <ele>862.4</ele>
        <time>2022-07-31T17:39:36Z</time>
      </trkpt>
      <trkpt lat="40.7324610" lon="-3.3764210">
        <ele>862.3</ele>
        <time>2022-07-31T17:39:37Z</time>
      </trkpt>
      <trkpt lat="40.7325100" lon="-3.3764110">
        <ele>862.2</ele>
        <time>2022-07-31T17:39:38Z</time>
      </trkpt>
      <trkpt lat="40.7325530" lon="-3.3763990">
        <ele>862.2</ele>
        <time>2022-07-31T17:39:39Z</time>
      </trkpt>
      <trkpt lat="40.7325890" lon="-3.3763910">
        <ele>862.2</ele>
        <time>2022-07-31T17:39:40Z</time>
      </trkpt>
      <trkpt lat="40.7326390" lon="-3.3763760">
        <ele>862.1</ele>
        <time>2022-07-31T17:39:41Z</time>
      </trkpt>
      <trkpt lat="40.7326880" lon="-3.3763630">
        <ele>862.1</ele>
        <time>2022-07-31T17:39:42Z</time>
      </trkpt>
      <trkpt lat="40.7327360" lon="-3.3763580">
        <ele>862.1</ele>
        <time>2022-07-31T17:39:43Z</time>
      </trkpt>
      <trkpt lat="40.7327770" lon="-3.3763540">
        <ele>862.1</ele>
        <time>2022-07-31T17:39:44Z</time>
      </trkpt>
      <trkpt lat="40.7328200" lon="-3.3763450">
        <ele>862.1</ele>
        <time>2022-07-31T17:39:45Z</time>
      </trkpt>
      <trkpt lat="40.7328680" lon="-3.3763420">
        <ele>862.1</ele>
        <time>2022-07-31T17:39:46Z</time>
      </trkpt>
      <trkpt lat="40.7329070" lon="-3.3763400">
        <ele>862.1</ele>
        <time>2022-07-31T17:39:47Z</time>
      </trkpt>
      <trkpt lat="40.7329560" lon="-3.3763320">
        <ele>862.1</ele>
        <time>2022-07-31T17:39:48Z</time>
      </trkpt>
      <trkpt lat="40.7330010" lon="-3.3763200">
        <ele>862.1</ele>
        <time>2022-07-31T17:39:49Z</time>
      </trkpt>
      <trkpt lat="40.7330460" lon="-3.3763050">
        <ele>862.1</ele>
        <time>2022-07-31T17:39:50Z</time>
      </trkpt>
      <trkpt lat="40.7330960" lon="-3.3762900">
        <ele>862.1</ele>
        <time>2022-07-31T17:39:51Z</time>
      </trkpt>
      <trkpt lat="40.7331390" lon="-3.3762770">
        <ele>862.1</ele>
        <time>2022-07-31T17:39:52Z</time>
      </trkpt>
      <trkpt lat="40.7331790" lon="-3.3762560">
        <ele>862.1</ele>
        <time>2022-07-31T17:39:53Z</time>
      </trkpt>
      <trkpt lat="40.7332250" lon="-3.3762380">
        <ele>862.1</ele>
        <time>2022-07-31T17:39:54Z</time>
      </trkpt>
      <trkpt lat="40.7332730" lon="-3.3762230">
        <ele>862.1</ele>
        <time>2022-07-31T17:39:55Z</time>
      </trkpt>
      <trkpt lat="40.7333270" lon="-3.3762060">
        <ele>862.2</ele>
        <time>2022-07-31T17:39:56Z</time>
      </trkpt>
      <trkpt lat="40.7333790" lon="-3.3761840">
        <ele>862.2</ele>
        <time>2022-07-31T17:39:57Z</time>
      </trkpt>
      <trkpt lat="40.7334260" lon="-3.3761780">
        <ele>862.3</ele>
        <time>2022-07-31T17:39:58Z</time>
      </trkpt>
      <trkpt lat="40.7334810" lon="-3.3761730">
        <ele>862.3</ele>
        <time>2022-07-31T17:39:59Z</time>
      </trkpt>
      <trkpt lat="40.7335230" lon="-3.3761550">
        <ele>862.4</ele>
        <time>2022-07-31T17:40:00Z</time>
      </trkpt>
      <trkpt lat="40.7335580" lon="-3.3761350">
        <ele>862.4</ele>
        <time>2022-07-31T17:40:01Z</time>
      </trkpt>
      <trkpt lat="40.7335980" lon="-3.3761120">
        <ele>862.4</ele>
        <time>2022-07-31T17:40:02Z</time>
      </trkpt>
      <trkpt lat="40.7336320" lon="-3.3761000">
        <ele>862.5</ele>
        <time>2022-07-31T17:40:03Z</time>
      </trkpt>
      <trkpt lat="40.7336700" lon="-3.3760860">
        <ele>862.5</ele>
        <time>2022-07-31T17:40:04Z</time>
      </trkpt>
      <trkpt lat="40.7337040" lon="-3.3760700">
        <ele>862.6</ele>
        <time>2022-07-31T17:40:05Z</time>
      </trkpt>
      <trkpt lat="40.7337400" lon="-3.3760660">
        <ele>862.6</ele>
        <time>2022-07-31T17:40:06Z</time>
      </trkpt>
      <trkpt lat="40.7337770" lon="-3.3760500">
        <ele>862.7</ele>
        <time>2022-07-31T17:40:07Z</time>
      </trkpt>
      <trkpt lat="40.7338150" lon="-3.3760340">
        <ele>862.7</ele>
        <time>2022-07-31T17:40:08Z</time>
      </trkpt>
      <trkpt lat="40.7338520" lon="-3.3760220">
        <ele>862.8</ele>
        <time>2022-07-31T17:40:09Z</time>
      </trkpt>
      <trkpt lat="40.7338830" lon="-3.3760130">
        <ele>862.9</ele>
        <time>2022-07-31T17:40:10Z</time>
      </trkpt>
      <trkpt lat="40.7339170" lon="-3.3760070">
        <ele>863.0</ele>
        <time>2022-07-31T17:40:11Z</time>
      </trkpt>
      <trkpt lat="40.7339450" lon="-3.3760000">
        <ele>863.1</ele>
        <time>2022-07-31T17:40:12Z</time>
      </trkpt>
      <trkpt lat="40.7339730" lon="-3.3759940">
        <ele>863.2</ele>
        <time>2022-07-31T17:40:13Z</time>
      </trkpt>
      <trkpt lat="40.7340030" lon="-3.3759860">
        <ele>863.3</ele>
        <time>2022-07-31T17:40:14Z</time>
      </trkpt>
      <trkpt lat="40.7340340" lon="-3.3759840">
        <ele>863.4</ele>
        <time>2022-07-31T17:40:15Z</time>
      </trkpt>
      <trkpt lat="40.7340640" lon="-3.3759780">
        <ele>863.5</ele>
        <time>2022-07-31T17:40:16Z</time>
      </trkpt>
      <trkpt lat="40.7340960" lon="-3.3759710">
        <ele>863.6</ele>
        <time>2022-07-31T17:40:17Z</time>
      </trkpt>
      <trkpt lat="40.7341290" lon="-3.3759670">
        <ele>863.7</ele>
        <time>2022-07-31T17:40:18Z</time>
      </trkpt>
      <trkpt lat="40.7341720" lon="-3.3759620">
        <ele>863.8</ele>
        <time>2022-07-31T17:40:19Z</time>
      </trkpt>
      <trkpt lat="40.7342120" lon="-3.3759560">
        <ele>863.9</ele>
        <time>2022-07-31T17:40:20Z</time>
      </trkpt>
      <trkpt lat="40.7342510" lon="-3.3759360">
        <ele>864.0</ele>
        <time>2022-07-31T17:40:21Z</time>
      </trkpt>
      <trkpt lat="40.7342850" lon="-3.3759240">
        <ele>864.1</ele>
        <time>2022-07-31T17:40:22Z</time>
      </trkpt>
      <trkpt lat="40.7343210" lon="-3.3759170">
        <ele>864.1</ele>
        <time>2022-07-31T17:40:23Z</time>
      </trkpt>
      <trkpt lat="40.7343550" lon="-3.3759040">
        <ele>864.2</ele>
        <time>2022-07-31T17:40:24Z</time>
      </trkpt>
      <trkpt lat="40.7344000" lon="-3.3758820">
        <ele>864.3</ele>
        <time>2022-07-31T17:40:25Z</time>
      </trkpt>
      <trkpt lat="40.7344370" lon="-3.3758680">
        <ele>864.3</ele>
        <time>2022-07-31T17:40:26Z</time>
      </trkpt>
      <trkpt lat="40.7344830" lon="-3.3758520">
        <ele>864.4</ele>
        <time>2022-07-31T17:40:27Z</time>
      </trkpt>
      <trkpt lat="40.7345260" lon="-3.3758360">
        <ele>864.4</ele>
        <time>2022-07-31T17:40:28Z</time>
      </trkpt>
      <trkpt lat="40.7345570" lon="-3.3758170">
        <ele>864.5</ele>
        <time>2022-07-31T17:40:29Z</time>
      </trkpt>
      <trkpt lat="40.7345900" lon="-3.3757920">
        <ele>864.5</ele>
        <time>2022-07-31T17:40:30Z</time>
      </trkpt>
      <trkpt lat="40.7346270" lon="-3.3757780">
        <ele>864.6</ele>
        <time>2022-07-31T17:40:31Z</time>
      </trkpt>
      <trkpt lat="40.7346680" lon="-3.3757640">
        <ele>864.6</ele>
        <time>2022-07-31T17:40:32Z</time>
      </trkpt>
      <trkpt lat="40.7347120" lon="-3.3757440">
        <ele>864.7</ele>
        <time>2022-07-31T17:40:33Z</time>
      </trkpt>
      <trkpt lat="40.7347490" lon="-3.3757340">
        <ele>864.7</ele>
        <time>2022-07-31T17:40:34Z</time>
      </trkpt>
      <trkpt lat="40.7347870" lon="-3.3757190">
        <ele>864.7</ele>
        <time>2022-07-31T17:40:35Z</time>
      </trkpt>
      <trkpt lat="40.7348260" lon="-3.3757080">
        <ele>864.7</ele>
        <time>2022-07-31T17:40:36Z</time>
      </trkpt>
      <trkpt lat="40.7348700" lon="-3.3757010">
        <ele>864.8</ele>
        <time>2022-07-31T17:40:37Z</time>
      </trkpt>
      <trkpt lat="40.7349100" lon="-3.3756870">
        <ele>864.8</ele>
        <time>2022-07-31T17:40:38Z</time>
      </trkpt>
      <trkpt lat="40.7349500" lon="-3.3756670">
        <ele>864.8</ele>
        <time>2022-07-31T17:40:39Z</time>
      </trkpt>
      <trkpt lat="40.7349940" lon="-3.3756500">
        <ele>864.8</ele>
        <time>2022-07-31T17:40:40Z</time>
      </trkpt>
      <trkpt lat="40.7350340" lon="-3.3756350">
        <ele>864.9</ele>
        <time>2022-07-31T17:40:41Z</time>
      </trkpt>
      <trkpt lat="40.7350730" lon="-3.3756200">
        <ele>864.9</ele>
        <time>2022-07-31T17:40:42Z</time>
      </trkpt>
      <trkpt lat="40.7351150" lon="-3.3756120">
        <ele>864.9</ele>
        <time>2022-07-31T17:40:43Z</time>
      </trkpt>
      <trkpt lat="40.7351510" lon="-3.3756020">
        <ele>864.9</ele>
        <time>2022-07-31T17:40:44Z</time>
      </trkpt>
      <trkpt lat="40.7351860" lon="-3.3755860">
        <ele>864.9</ele>
        <time>2022-07-31T17:40:45Z</time>
      </trkpt>
      <trkpt lat="40.7352240" lon="-3.3755740">
        <ele>864.9</ele>
        <time>2022-07-31T17:40:46Z</time>
      </trkpt>
      <trkpt lat="40.7352640" lon="-3.3755560">
        <ele>864.9</ele>
        <time>2022-07-31T17:40:47Z</time>
      </trkpt>
      <trkpt lat="40.7352950" lon="-3.3755380">
        <ele>864.9</ele>
        <time>2022-07-31T17:40:48Z</time>
      </trkpt>
      <trkpt lat="40.7353260" lon="-3.3755240">
        <ele>864.8</ele>
        <time>2022-07-31T17:40:49Z</time>
      </trkpt>
      <trkpt lat="40.7353660" lon="-3.3755180">
        <ele>864.8</ele>
        <time>2022-07-31T17:40:50Z</time>
      </trkpt>
      <trkpt lat="40.7354060" lon="-3.3755090">
        <ele>864.7</ele>
        <time>2022-07-31T17:40:51Z</time>
      </trkpt>
      <trkpt lat="40.7354480" lon="-3.3755010">
        <ele>864.7</ele>
        <time>2022-07-31T17:40:52Z</time>
      </trkpt>
      <trkpt lat="40.7354920" lon="-3.3754850">
        <ele>864.6</ele>
        <time>2022-07-31T17:40:53Z</time>
      </trkpt>
      <trkpt lat="40.7355360" lon="-3.3754790">
        <ele>864.5</ele>
        <time>2022-07-31T17:40:54Z</time>
      </trkpt>
      <trkpt lat="40.7355760" lon="-3.3754690">
        <ele>864.5</ele>
        <time>2022-07-31T17:40:55Z</time>
      </trkpt>
      <trkpt lat="40.7356270" lon="-3.3754570">
        <ele>864.3</ele>
        <time>2022-07-31T17:40:56Z</time>
      </trkpt>
      <trkpt lat="40.7356890" lon="-3.3754400">
        <ele>864.2</ele>
        <time>2022-07-31T17:40:57Z</time>
      </trkpt>
      <trkpt lat="40.7357520" lon="-3.3754320">
        <ele>864.0</ele>
        <time>2022-07-31T17:40:58Z</time>
      </trkpt>
      <trkpt lat="40.7358090" lon="-3.3754060">
        <ele>863.9</ele>
        <time>2022-07-31T17:40:59Z</time>
      </trkpt>
      <trkpt lat="40.7358640" lon="-3.3753810">
        <ele>863.8</ele>
        <time>2022-07-31T17:41:00Z</time>
      </trkpt>
      <trkpt lat="40.7359110" lon="-3.3753710">
        <ele>863.8</ele>
        <time>2022-07-31T17:41:01Z</time>
      </trkpt>
      <trkpt lat="40.7359580" lon="-3.3753500">
        <ele>863.8</ele>
        <time>2022-07-31T17:41:02Z</time>
      </trkpt>
      <trkpt lat="40.7360080" lon="-3.3753290">
        <ele>863.8</ele>
        <time>2022-07-31T17:41:03Z</time>
      </trkpt>
      <trkpt lat="40.7360580" lon="-3.3753130">
        <ele>863.8</ele>
        <time>2022-07-31T17:41:04Z</time>
      </trkpt>
      <trkpt lat="40.7361030" lon="-3.3753080">
        <ele>863.9</ele>
        <time>2022-07-31T17:41:05Z</time>
      </trkpt>
      <trkpt lat="40.7361480" lon="-3.3752940">
        <ele>864.0</ele>
        <time>2022-07-31T17:41:06Z</time>
      </trkpt>
      <trkpt lat="40.7361910" lon="-3.3752860">
        <ele>864.1</ele>
        <time>2022-07-31T17:41:07Z</time>
      </trkpt>
      <trkpt lat="40.7362240" lon="-3.3752730">
        <ele>864.2</ele>
        <time>2022-07-31T17:41:08Z</time>
      </trkpt>
      <trkpt lat="40.7362630" lon="-3.3752580">
        <ele>864.2</ele>
        <time>2022-07-31T17:41:09Z</time>
      </trkpt>
      <trkpt lat="40.7363010" lon="-3.3752410">
        <ele>864.3</ele>
        <time>2022-07-31T17:41:10Z</time>
      </trkpt>
      <trkpt lat="40.7363380" lon="-3.3752230">
        <ele>864.4</ele>
        <time>2022-07-31T17:41:11Z</time>
      </trkpt>
      <trkpt lat="40.7363780" lon="-3.3752110">
        <ele>864.4</ele>
        <time>2022-07-31T17:41:12Z</time>
      </trkpt>
      <trkpt lat="40.7364170" lon="-3.3751960">
        <ele>864.5</ele>
        <time>2022-07-31T17:41:13Z</time>
      </trkpt>
      <trkpt lat="40.7364580" lon="-3.3751850">
        <ele>864.5</ele>
        <time>2022-07-31T17:41:14Z</time>
      </trkpt>
      <trkpt lat="40.7365000" lon="-3.3751760">
        <ele>864.5</ele>
        <time>2022-07-31T17:41:15Z</time>
      </trkpt>
      <trkpt lat="40.7365420" lon="-3.3751620">
        <ele>864.6</ele>
        <time>2022-07-31T17:41:16Z</time>
      </trkpt>
      <trkpt lat="40.7365880" lon="-3.3751540">
        <ele>864.6</ele>
        <time>2022-07-31T17:41:17Z</time>
      </trkpt>
      <trkpt lat="40.7366370" lon="-3.3751420">
        <ele>864.6</ele>
        <time>2022-07-31T17:41:18Z</time>
      </trkpt>
      <trkpt lat="40.7366860" lon="-3.3751310">
        <ele>864.6</ele>
        <time>2022-07-31T17:41:19Z</time>
      </trkpt>
      <trkpt lat="40.7367340" lon="-3.3751220">
        <ele>864.6</ele>
        <time>2022-07-31T17:41:20Z</time>
      </trkpt>
      <trkpt lat="40.7367860" lon="-3.3751140">
        <ele>864.5</ele>
        <time>2022-07-31T17:41:21Z</time>
      </trkpt>
      <trkpt lat="40.7368320" lon="-3.3751020">
        <ele>864.5</ele>
        <time>2022-07-31T17:41:22Z</time>
      </trkpt>
      <trkpt lat="40.7368890" lon="-3.3750950">
        <ele>864.4</ele>
        <time>2022-07-31T17:41:23Z</time>
      </trkpt>
      <trkpt lat="40.7369380" lon="-3.3750910">
        <ele>864.4</ele>
        <time>2022-07-31T17:41:24Z</time>
      </trkpt>
      <trkpt lat="40.7369850" lon="-3.3750830">
        <ele>864.4</ele>
        <time>2022-07-31T17:41:25Z</time>
      </trkpt>
      <trkpt lat="40.7370340" lon="-3.3750810">
        <ele>864.4</ele>
        <time>2022-07-31T17:41:26Z</time>
      </trkpt>
      <trkpt lat="40.7370880" lon="-3.3750760">
        <ele>864.4</ele>
        <time>2022-07-31T17:41:27Z</time>
      </trkpt>
      <trkpt lat="40.7371340" lon="-3.3750690">
        <ele>864.5</ele>
        <time>2022-07-31T17:41:28Z</time>
      </trkpt>
      <trkpt lat="40.7371820" lon="-3.3750680">
        <ele>864.6</ele>
        <time>2022-07-31T17:41:29Z</time>
      </trkpt>
      <trkpt lat="40.7372260" lon="-3.3750670">
        <ele>864.6</ele>
        <time>2022-07-31T17:41:30Z</time>
      </trkpt>
      <trkpt lat="40.7372700" lon="-3.3750640">
        <ele>864.7</ele>
        <time>2022-07-31T17:41:31Z</time>
      </trkpt>
      <trkpt lat="40.7373120" lon="-3.3750740">
        <ele>864.8</ele>
        <time>2022-07-31T17:41:32Z</time>
      </trkpt>
      <trkpt lat="40.7373580" lon="-3.3750820">
        <ele>864.9</ele>
        <time>2022-07-31T17:41:33Z</time>
      </trkpt>
      <trkpt lat="40.7373980" lon="-3.3750930">
        <ele>865.0</ele>
        <time>2022-07-31T17:41:34Z</time>
      </trkpt>
      <trkpt lat="40.7374450" lon="-3.3750990">
        <ele>865.1</ele>
        <time>2022-07-31T17:41:35Z</time>
      </trkpt>
      <trkpt lat="40.7374850" lon="-3.3751070">
        <ele>865.1</ele>
        <time>2022-07-31T17:41:36Z</time>
      </trkpt>
      <trkpt lat="40.7375230" lon="-3.3751200">
        <ele>865.2</ele>
        <time>2022-07-31T17:41:37Z</time>
      </trkpt>
      <trkpt lat="40.7375560" lon="-3.3751210">
        <ele>865.3</ele>
        <time>2022-07-31T17:41:38Z</time>
      </trkpt>
      <trkpt lat="40.7375930" lon="-3.3751340">
        <ele>865.3</ele>
        <time>2022-07-31T17:41:39Z</time>
      </trkpt>
      <trkpt lat="40.7376350" lon="-3.3751440">
        <ele>865.3</ele>
        <time>2022-07-31T17:41:40Z</time>
      </trkpt>
      <trkpt lat="40.7376690" lon="-3.3751590">
        <ele>865.4</ele>
        <time>2022-07-31T17:41:41Z</time>
      </trkpt>
      <trkpt lat="40.7377060" lon="-3.3751600">
        <ele>865.4</ele>
        <time>2022-07-31T17:41:42Z</time>
      </trkpt>
      <trkpt lat="40.7377450" lon="-3.3751760">
        <ele>865.4</ele>
        <time>2022-07-31T17:41:43Z</time>
      </trkpt>
      <trkpt lat="40.7377870" lon="-3.3751920">
        <ele>865.5</ele>
        <time>2022-07-31T17:41:44Z</time>
      </trkpt>
      <trkpt lat="40.7378280" lon="-3.3752190">
        <ele>865.5</ele>
        <time>2022-07-31T17:41:45Z</time>
      </trkpt>
      <trkpt lat="40.7378630" lon="-3.3752330">
        <ele>865.6</ele>
        <time>2022-07-31T17:41:46Z</time>
      </trkpt>
      <trkpt lat="40.7378970" lon="-3.3752490">
        <ele>865.6</ele>
        <time>2022-07-31T17:41:47Z</time>
      </trkpt>
      <trkpt lat="40.7379360" lon="-3.3752720">
        <ele>865.6</ele>
        <time>2022-07-31T17:41:48Z</time>
      </trkpt>
      <trkpt lat="40.7379750" lon="-3.3752880">
        <ele>865.6</ele>
        <time>2022-07-31T17:41:49Z</time>
      </trkpt>
      <trkpt lat="40.7380150" lon="-3.3753030">
        <ele>865.7</ele>
        <time>2022-07-31T17:41:50Z</time>
      </trkpt>
      <trkpt lat="40.7380540" lon="-3.3753200">
        <ele>865.7</ele>
        <time>2022-07-31T17:41:51Z</time>
      </trkpt>
      <trkpt lat="40.7381050" lon="-3.3753360">
        <ele>865.7</ele>
        <time>2022-07-31T17:41:52Z</time>
      </trkpt>
      <trkpt lat="40.7381530" lon="-3.3753530">
        <ele>865.8</ele>
        <time>2022-07-31T17:41:53Z</time>
      </trkpt>
      <trkpt lat="40.7381980" lon="-3.3753710">
        <ele>865.8</ele>
        <time>2022-07-31T17:41:54Z</time>
      </trkpt>
      <trkpt lat="40.7382440" lon="-3.3753940">
        <ele>865.8</ele>
        <time>2022-07-31T17:41:55Z</time>
      </trkpt>
      <trkpt lat="40.7382840" lon="-3.3754140">
        <ele>865.8</ele>
        <time>2022-07-31T17:41:56Z</time>
      </trkpt>
      <trkpt lat="40.7383250" lon="-3.3754310">
        <ele>865.9</ele>
        <time>2022-07-31T17:41:57Z</time>
      </trkpt>
      <trkpt lat="40.7383640" lon="-3.3754470">
        <ele>865.9</ele>
        <time>2022-07-31T17:41:58Z</time>
      </trkpt>
      <trkpt lat="40.7384070" lon="-3.3754600">
        <ele>865.9</ele>
        <time>2022-07-31T17:41:59Z</time>
      </trkpt>
      <trkpt lat="40.7384490" lon="-3.3754680">
        <ele>865.9</ele>
        <time>2022-07-31T17:42:00Z</time>
      </trkpt>
      <trkpt lat="40.7384920" lon="-3.3754750">
        <ele>866.0</ele>
        <time>2022-07-31T17:42:01Z</time>
      </trkpt>
      <trkpt lat="40.7385360" lon="-3.3754870">
        <ele>866.0</ele>
        <time>2022-07-31T17:42:02Z</time>
      </trkpt>
      <trkpt lat="40.7385780" lon="-3.3755030">
        <ele>866.0</ele>
        <time>2022-07-31T17:42:03Z</time>
      </trkpt>
      <trkpt lat="40.7386220" lon="-3.3755150">
        <ele>866.1</ele>
        <time>2022-07-31T17:42:04Z</time>
      </trkpt>
      <trkpt lat="40.7386630" lon="-3.3755340">
        <ele>866.1</ele>
        <time>2022-07-31T17:42:05Z</time>
      </trkpt>
      <trkpt lat="40.7387030" lon="-3.3755620">
        <ele>866.1</ele>
        <time>2022-07-31T17:42:06Z</time>
      </trkpt>
      <trkpt lat="40.7387490" lon="-3.3755710">
        <ele>866.2</ele>
        <time>2022-07-31T17:42:07Z</time>
      </trkpt>
      <trkpt lat="40.7388030" lon="-3.3755690">
        <ele>866.2</ele>
        <time>2022-07-31T17:42:08Z</time>
      </trkpt>
      <trkpt lat="40.7388450" lon="-3.3755760">
        <ele>866.3</ele>
        <time>2022-07-31T17:42:09Z</time>
      </trkpt>
      <trkpt lat="40.7388940" lon="-3.3755730">
        <ele>866.3</ele>
        <time>2022-07-31T17:42:10Z</time>
      </trkpt>
      <trkpt lat="40.7389390" lon="-3.3755620">
        <ele>866.3</ele>
        <time>2022-07-31T17:42:11Z</time>
      </trkpt>
      <trkpt lat="40.7389880" lon="-3.3755450">
        <ele>866.3</ele>
        <time>2022-07-31T17:42:12Z</time>
      </trkpt>
      <trkpt lat="40.7390390" lon="-3.3755300">
        <ele>866.4</ele>
        <time>2022-07-31T17:42:13Z</time>
      </trkpt>
      <trkpt lat="40.7390900" lon="-3.3755170">
        <ele>866.4</ele>
        <time>2022-07-31T17:42:14Z</time>
      </trkpt>
      <trkpt lat="40.7391380" lon="-3.3755000">
        <ele>866.4</ele>
        <time>2022-07-31T17:42:15Z</time>
      </trkpt>
      <trkpt lat="40.7391800" lon="-3.3754770">
        <ele>866.4</ele>
        <time>2022-07-31T17:42:16Z</time>
      </trkpt>
      <trkpt lat="40.7392290" lon="-3.3754630">
        <ele>866.4</ele>
        <time>2022-07-31T17:42:17Z</time>
      </trkpt>
      <trkpt lat="40.7392810" lon="-3.3754410">
        <ele>866.4</ele>
        <time>2022-07-31T17:42:18Z</time>
      </trkpt>
      <trkpt lat="40.7393210" lon="-3.3754180">
        <ele>866.4</ele>
        <time>2022-07-31T17:42:19Z</time>
      </trkpt>
      <trkpt lat="40.7393550" lon="-3.3753860">
        <ele>866.5</ele>
        <time>2022-07-31T17:42:20Z</time>
      </trkpt>
      <trkpt lat="40.7393920" lon="-3.3753540">
        <ele>866.5</ele>
        <time>2022-07-31T17:42:21Z</time>
      </trkpt>
      <trkpt lat="40.7394290" lon="-3.3753290">
        <ele>866.5</ele>
        <time>2022-07-31T17:42:22Z</time>
      </trkpt>
      <trkpt lat="40.7394720" lon="-3.3753140">
        <ele>866.5</ele>
        <time>2022-07-31T17:42:23Z</time>
      </trkpt>
      <trkpt lat="40.7395180" lon="-3.3752960">
        <ele>866.5</ele>
        <time>2022-07-31T17:42:24Z</time>
      </trkpt>
      <trkpt lat="40.7395610" lon="-3.3752780">
        <ele>866.6</ele>
        <time>2022-07-31T17:42:25Z</time>
      </trkpt>
      <trkpt lat="40.7396070" lon="-3.3752550">
        <ele>866.6</ele>
        <time>2022-07-31T17:42:26Z</time>
      </trkpt>
      <trkpt lat="40.7396510" lon="-3.3752350">
        <ele>866.6</ele>
        <time>2022-07-31T17:42:27Z</time>
      </trkpt>
      <trkpt lat="40.7397010" lon="-3.3752240">
        <ele>866.6</ele>
        <time>2022-07-31T17:42:28Z</time>
      </trkpt>
      <trkpt lat="40.7397430" lon="-3.3752080">
        <ele>866.7</ele>
        <time>2022-07-31T17:42:29Z</time>
      </trkpt>
      <trkpt lat="40.7397870" lon="-3.3751860">
        <ele>866.7</ele>
        <time>2022-07-31T17:42:30Z</time>
      </trkpt>
      <trkpt lat="40.7398280" lon="-3.3751660">
        <ele>866.7</ele>
        <time>2022-07-31T17:42:31Z</time>
      </trkpt>
      <trkpt lat="40.7398710" lon="-3.3751430">
        <ele>866.7</ele>
        <time>2022-07-31T17:42:32Z</time>
      </trkpt>
      <trkpt lat="40.7399180" lon="-3.3751240">
        <ele>866.8</ele>
        <time>2022-07-31T17:42:33Z</time>
      </trkpt>
      <trkpt lat="40.7399560" lon="-3.3750950">
        <ele>866.8</ele>
        <time>2022-07-31T17:42:34Z</time>
      </trkpt>
      <trkpt lat="40.7400000" lon="-3.3750720">
        <ele>866.8</ele>
        <time>2022-07-31T17:42:35Z</time>
      </trkpt>
      <trkpt lat="40.7400390" lon="-3.3750520">
        <ele>866.9</ele>
        <time>2022-07-31T17:42:36Z</time>
      </trkpt>
      <trkpt lat="40.7400790" lon="-3.3750350">
        <ele>866.9</ele>
        <time>2022-07-31T17:42:37Z</time>
      </trkpt>
      <trkpt lat="40.7401190" lon="-3.3750100">
        <ele>866.9</ele>
        <time>2022-07-31T17:42:38Z</time>
      </trkpt>
      <trkpt lat="40.7401580" lon="-3.3749840">
        <ele>866.9</ele>
        <time>2022-07-31T17:42:39Z</time>
      </trkpt>
      <trkpt lat="40.7401960" lon="-3.3749640">
        <ele>867.0</ele>
        <time>2022-07-31T17:42:40Z</time>
      </trkpt>
      <trkpt lat="40.7402320" lon="-3.3749450">
        <ele>867.0</ele>
        <time>2022-07-31T17:42:41Z</time>
      </trkpt>
      <trkpt lat="40.7402780" lon="-3.3749280">
        <ele>867.0</ele>
        <time>2022-07-31T17:42:42Z</time>
      </trkpt>
      <trkpt lat="40.7403270" lon="-3.3749120">
        <ele>867.0</ele>
        <time>2022-07-31T17:42:43Z</time>
      </trkpt>
      <trkpt lat="40.7403690" lon="-3.3748930">
        <ele>867.0</ele>
        <time>2022-07-31T17:42:44Z</time>
      </trkpt>
      <trkpt lat="40.7404090" lon="-3.3748740">
        <ele>867.1</ele>
        <time>2022-07-31T17:42:45Z</time>
      </trkpt>
      <trkpt lat="40.7404410" lon="-3.3748570">
        <ele>867.1</ele>
        <time>2022-07-31T17:42:46Z</time>
      </trkpt>
      <trkpt lat="40.7404760" lon="-3.3748360">
        <ele>867.1</ele>
        <time>2022-07-31T17:42:47Z</time>
      </trkpt>
      <trkpt lat="40.7405160" lon="-3.3748190">
        <ele>867.1</ele>
        <time>2022-07-31T17:42:48Z</time>
      </trkpt>
      <trkpt lat="40.7405550" lon="-3.3747980">
        <ele>867.1</ele>
        <time>2022-07-31T17:42:49Z</time>
      </trkpt>
      <trkpt lat="40.7405970" lon="-3.3747770">
        <ele>867.1</ele>
        <time>2022-07-31T17:42:50Z</time>
      </trkpt>
      <trkpt lat="40.7406450" lon="-3.3747580">
        <ele>867.2</ele>
        <time>2022-07-31T17:42:51Z</time>
      </trkpt>
      <trkpt lat="40.7406980" lon="-3.3747340">
        <ele>867.2</ele>
        <time>2022-07-31T17:42:52Z</time>
      </trkpt>
      <trkpt lat="40.7407460" lon="-3.3747030">
        <ele>867.2</ele>
        <time>2022-07-31T17:42:53Z</time>
      </trkpt>
      <trkpt lat="40.7407970" lon="-3.3746810">
        <ele>867.2</ele>
        <time>2022-07-31T17:42:54Z</time>
      </trkpt>
      <trkpt lat="40.7408420" lon="-3.3746570">
        <ele>867.2</ele>
        <time>2022-07-31T17:42:55Z</time>
      </trkpt>
      <trkpt lat="40.7408860" lon="-3.3746410">
        <ele>867.3</ele>
        <time>2022-07-31T17:42:56Z</time>
      </trkpt>
      <trkpt lat="40.7409340" lon="-3.3746250">
        <ele>867.3</ele>
        <time>2022-07-31T17:42:57Z</time>
      </trkpt>
      <trkpt lat="40.7409820" lon="-3.3746090">
        <ele>867.3</ele>
        <time>2022-07-31T17:42:58Z</time>
      </trkpt>
      <trkpt lat="40.7410300" lon="-3.3745910">
        <ele>867.3</ele>
        <time>2022-07-31T17:42:59Z</time>
      </trkpt>
      <trkpt lat="40.7410750" lon="-3.3745800">
        <ele>867.3</ele>
        <time>2022-07-31T17:43:00Z</time>
      </trkpt>
      <trkpt lat="40.7411180" lon="-3.3745650">
        <ele>867.3</ele>
        <time>2022-07-31T17:43:01Z</time>
      </trkpt>
      <trkpt lat="40.7411640" lon="-3.3745470">
        <ele>867.3</ele>
        <time>2022-07-31T17:43:02Z</time>
      </trkpt>
      <trkpt lat="40.7412130" lon="-3.3745300">
        <ele>867.3</ele>
        <time>2022-07-31T17:43:03Z</time>
      </trkpt>
      <trkpt lat="40.7412680" lon="-3.3745140">
        <ele>867.2</ele>
        <time>2022-07-31T17:43:04Z</time>
      </trkpt>
      <trkpt lat="40.7413160" lon="-3.3744970">
        <ele>867.2</ele>
        <time>2022-07-31T17:43:05Z</time>
      </trkpt>
      <trkpt lat="40.7413600" lon="-3.3744770">
        <ele>867.2</ele>
        <time>2022-07-31T17:43:06Z</time>
      </trkpt>
      <trkpt lat="40.7414050" lon="-3.3744530">
        <ele>867.2</ele>
        <time>2022-07-31T17:43:07Z</time>
      </trkpt>
      <trkpt lat="40.7414460" lon="-3.3744210">
        <ele>867.2</ele>
        <time>2022-07-31T17:43:08Z</time>
      </trkpt>
      <trkpt lat="40.7414960" lon="-3.3743960">
        <ele>867.2</ele>
        <time>2022-07-31T17:43:09Z</time>
      </trkpt>
      <trkpt lat="40.7415450" lon="-3.3743740">
        <ele>867.2</ele>
        <time>2022-07-31T17:43:10Z</time>
      </trkpt>
      <trkpt lat="40.7415900" lon="-3.3743510">
        <ele>867.1</ele>
        <time>2022-07-31T17:43:11Z</time>
      </trkpt>
      <trkpt lat="40.7416420" lon="-3.3743200">
        <ele>867.1</ele>
        <time>2022-07-31T17:43:12Z</time>
      </trkpt>
      <trkpt lat="40.7416950" lon="-3.3742970">
        <ele>867.1</ele>
        <time>2022-07-31T17:43:13Z</time>
      </trkpt>
      <trkpt lat="40.7417430" lon="-3.3742750">
        <ele>867.0</ele>
        <time>2022-07-31T17:43:14Z</time>
      </trkpt>
      <trkpt lat="40.7417900" lon="-3.3742550">
        <ele>867.0</ele>
        <time>2022-07-31T17:43:15Z</time>
      </trkpt>
      <trkpt lat="40.7418340" lon="-3.3742360">
        <ele>867.0</ele>
        <time>2022-07-31T17:43:16Z</time>
      </trkpt>
      <trkpt lat="40.7418850" lon="-3.3742200">
        <ele>867.0</ele>
        <time>2022-07-31T17:43:17Z</time>
      </trkpt>
      <trkpt lat="40.7419310" lon="-3.3741950">
        <ele>867.1</ele>
        <time>2022-07-31T17:43:18Z</time>
      </trkpt>
      <trkpt lat="40.7419760" lon="-3.3741710">
        <ele>867.1</ele>
        <time>2022-07-31T17:43:19Z</time>
      </trkpt>
      <trkpt lat="40.7420240" lon="-3.3741490">
        <ele>867.1</ele>
        <time>2022-07-31T17:43:20Z</time>
      </trkpt>
      <trkpt lat="40.7420640" lon="-3.3741320">
        <ele>867.1</ele>
        <time>2022-07-31T17:43:21Z</time>
      </trkpt>
      <trkpt lat="40.7421160" lon="-3.3741130">
        <ele>867.0</ele>
        <time>2022-07-31T17:43:22Z</time>
      </trkpt>
      <trkpt lat="40.7421620" lon="-3.3740920">
        <ele>866.9</ele>
        <time>2022-07-31T17:43:23Z</time>
      </trkpt>
      <trkpt lat="40.7422080" lon="-3.3740730">
        <ele>866.9</ele>
        <time>2022-07-31T17:43:24Z</time>
      </trkpt>
      <trkpt lat="40.7422560" lon="-3.3740490">
        <ele>867.0</ele>
        <time>2022-07-31T17:43:25Z</time>
      </trkpt>
      <trkpt lat="40.7423020" lon="-3.3740250">
        <ele>867.0</ele>
        <time>2022-07-31T17:43:26Z</time>
      </trkpt>
      <trkpt lat="40.7423400" lon="-3.3739970">
        <ele>867.0</ele>
        <time>2022-07-31T17:43:27Z</time>
      </trkpt>
      <trkpt lat="40.7423820" lon="-3.3739610">
        <ele>867.0</ele>
        <time>2022-07-31T17:43:28Z</time>
      </trkpt>
      <trkpt lat="40.7424230" lon="-3.3739180">
        <ele>867.0</ele>
        <time>2022-07-31T17:43:29Z</time>
      </trkpt>
      <trkpt lat="40.7424620" lon="-3.3738760">
        <ele>867.0</ele>
        <time>2022-07-31T17:43:30Z</time>
      </trkpt>
      <trkpt lat="40.7425030" lon="-3.3738230">
        <ele>867.0</ele>
        <time>2022-07-31T17:43:31Z</time>
      </trkpt>
      <trkpt lat="40.7425380" lon="-3.3737670">
        <ele>867.0</ele>
        <time>2022-07-31T17:43:32Z</time>
      </trkpt>
      <trkpt lat="40.7425830" lon="-3.3737210">
        <ele>867.1</ele>
        <time>2022-07-31T17:43:33Z</time>
      </trkpt>
      <trkpt lat="40.7426230" lon="-3.3736730">
        <ele>867.1</ele>
        <time>2022-07-31T17:43:34Z</time>
      </trkpt>
      <trkpt lat="40.7426570" lon="-3.3736230">
        <ele>867.1</ele>
        <time>2022-07-31T17:43:35Z</time>
      </trkpt>
      <trkpt lat="40.7426970" lon="-3.3735730">
        <ele>867.1</ele>
        <time>2022-07-31T17:43:36Z</time>
      </trkpt>
      <trkpt lat="40.7427270" lon="-3.3735200">
        <ele>867.2</ele>
        <time>2022-07-31T17:43:37Z</time>
      </trkpt>
      <trkpt lat="40.7427610" lon="-3.3734560">
        <ele>867.2</ele>
        <time>2022-07-31T17:43:38Z</time>
      </trkpt>
      <trkpt lat="40.7427920" lon="-3.3734060">
        <ele>867.2</ele>
        <time>2022-07-31T17:43:39Z</time>
      </trkpt>
      <trkpt lat="40.7428220" lon="-3.3733590">
        <ele>867.3</ele>
        <time>2022-07-31T17:43:40Z</time>
      </trkpt>
      <trkpt lat="40.7428640" lon="-3.3733140">
        <ele>867.3</ele>
        <time>2022-07-31T17:43:41Z</time>
      </trkpt>
      <trkpt lat="40.7428990" lon="-3.3732680">
        <ele>867.4</ele>
        <time>2022-07-31T17:43:42Z</time>
      </trkpt>
      <trkpt lat="40.7429370" lon="-3.3732330">
        <ele>867.4</ele>
        <time>2022-07-31T17:43:43Z</time>
      </trkpt>
      <trkpt lat="40.7429790" lon="-3.3731830">
        <ele>867.5</ele>
        <time>2022-07-31T17:43:44Z</time>
      </trkpt>
      <trkpt lat="40.7430110" lon="-3.3731330">
        <ele>867.6</ele>
        <time>2022-07-31T17:43:45Z</time>
      </trkpt>
      <trkpt lat="40.7430340" lon="-3.3730840">
        <ele>867.7</ele>
        <time>2022-07-31T17:43:46Z</time>
      </trkpt>
      <trkpt lat="40.7430700" lon="-3.3730390">
        <ele>867.8</ele>
        <time>2022-07-31T17:43:47Z</time>
      </trkpt>
      <trkpt lat="40.7430990" lon="-3.3729990">
        <ele>867.8</ele>
        <time>2022-07-31T17:43:48Z</time>
      </trkpt>
      <trkpt lat="40.7431240" lon="-3.3729570">
        <ele>867.9</ele>
        <time>2022-07-31T17:43:49Z</time>
      </trkpt>
      <trkpt lat="40.7431540" lon="-3.3729170">
        <ele>868.0</ele>
        <time>2022-07-31T17:43:50Z</time>
      </trkpt>
      <trkpt lat="40.7431890" lon="-3.3728800">
        <ele>868.1</ele>
        <time>2022-07-31T17:43:51Z</time>
      </trkpt>
      <trkpt lat="40.7432260" lon="-3.3728380">
        <ele>868.2</ele>
        <time>2022-07-31T17:43:52Z</time>
      </trkpt>
      <trkpt lat="40.7432620" lon="-3.3728020">
        <ele>868.3</ele>
        <time>2022-07-31T17:43:53Z</time>
      </trkpt>
      <trkpt lat="40.7432950" lon="-3.3727650">
        <ele>868.4</ele>
        <time>2022-07-31T17:43:54Z</time>
      </trkpt>
      <trkpt lat="40.7433220" lon="-3.3727360">
        <ele>868.5</ele>
        <time>2022-07-31T17:43:55Z</time>
      </trkpt>
      <trkpt lat="40.7433520" lon="-3.3727010">
        <ele>868.6</ele>
        <time>2022-07-31T17:43:56Z</time>
      </trkpt>
      <trkpt lat="40.7433630" lon="-3.3726860">
        <ele>868.6</ele>
        <time>2022-07-31T17:43:57Z</time>
      </trkpt>
      <trkpt lat="40.7433950" lon="-3.3726490">
        <ele>868.7</ele>
        <time>2022-07-31T17:43:58Z</time>
      </trkpt>
      <trkpt lat="40.7434260" lon="-3.3726150">
        <ele>868.8</ele>
        <time>2022-07-31T17:43:59Z</time>
      </trkpt>
      <trkpt lat="40.7434510" lon="-3.3725710">
        <ele>868.8</ele>
        <time>2022-07-31T17:44:00Z</time>
      </trkpt>
      <trkpt lat="40.7434760" lon="-3.3725390">
        <ele>868.9</ele>
        <time>2022-07-31T17:44:01Z</time>
      </trkpt>
      <trkpt lat="40.7435130" lon="-3.3725000">
        <ele>869.0</ele>
        <time>2022-07-31T17:44:02Z</time>
      </trkpt>
      <trkpt lat="40.7435390" lon="-3.3724650">
        <ele>869.0</ele>
        <time>2022-07-31T17:44:03Z</time>
      </trkpt>
      <trkpt lat="40.7435620" lon="-3.3724200">
        <ele>869.1</ele>
        <time>2022-07-31T17:44:04Z</time>
      </trkpt>
      <trkpt lat="40.7435860" lon="-3.3723720">
        <ele>869.1</ele>
        <time>2022-07-31T17:44:05Z</time>
      </trkpt>
      <trkpt lat="40.7436200" lon="-3.3723120">
        <ele>869.1</ele>
        <time>2022-07-31T17:44:06Z</time>
      </trkpt>
      <trkpt lat="40.7436530" lon="-3.3722600">
        <ele>869.2</ele>
        <time>2022-07-31T17:44:07Z</time>
      </trkpt>
      <trkpt lat="40.7436790" lon="-3.3722190">
        <ele>869.2</ele>
        <time>2022-07-31T17:44:08Z</time>
      </trkpt>
      <trkpt lat="40.7436960" lon="-3.3721720">
        <ele>869.2</ele>
        <time>2022-07-31T17:44:09Z</time>
      </trkpt>
      <trkpt lat="40.7437220" lon="-3.3721140">
        <ele>869.2</ele>
        <time>2022-07-31T17:44:10Z</time>
      </trkpt>
      <trkpt lat="40.7437460" lon="-3.3720650">
        <ele>869.3</ele>
        <time>2022-07-31T17:44:11Z</time>
      </trkpt>
      <trkpt lat="40.7437810" lon="-3.3720100">
        <ele>869.3</ele>
        <time>2022-07-31T17:44:12Z</time>
      </trkpt>
      <trkpt lat="40.7438140" lon="-3.3719670">
        <ele>869.3</ele>
        <time>2022-07-31T17:44:13Z</time>
      </trkpt>
      <trkpt lat="40.7438490" lon="-3.3719170">
        <ele>869.3</ele>
        <time>2022-07-31T17:44:14Z</time>
      </trkpt>
      <trkpt lat="40.7438880" lon="-3.3718700">
        <ele>869.4</ele>
        <time>2022-07-31T17:44:15Z</time>
      </trkpt>
      <trkpt lat="40.7439250" lon="-3.3718320">
        <ele>869.5</ele>
        <time>2022-07-31T17:44:16Z</time>
      </trkpt>
      <trkpt lat="40.7439690" lon="-3.3718150">
        <ele>869.6</ele>
        <time>2022-07-31T17:44:17Z</time>
      </trkpt>
      <trkpt lat="40.7440160" lon="-3.3718100">
        <ele>869.7</ele>
        <time>2022-07-31T17:44:18Z</time>
      </trkpt>
      <trkpt lat="40.7440650" lon="-3.3717950">
        <ele>869.8</ele>
        <time>2022-07-31T17:44:19Z</time>
      </trkpt>
      <trkpt lat="40.7441120" lon="-3.3717780">
        <ele>870.0</ele>
        <time>2022-07-31T17:44:20Z</time>
      </trkpt>
      <trkpt lat="40.7441490" lon="-3.3717600">
        <ele>870.1</ele>
        <time>2022-07-31T17:44:21Z</time>
      </trkpt>
      <trkpt lat="40.7441890" lon="-3.3717430">
        <ele>870.2</ele>
        <time>2022-07-31T17:44:22Z</time>
      </trkpt>
      <trkpt lat="40.7442300" lon="-3.3717340">
        <ele>870.3</ele>
        <time>2022-07-31T17:44:23Z</time>
      </trkpt>
      <trkpt lat="40.7442570" lon="-3.3717220">
        <ele>870.4</ele>
        <time>2022-07-31T17:44:24Z</time>
      </trkpt>
      <trkpt lat="40.7442830" lon="-3.3717090">
        <ele>870.5</ele>
        <time>2022-07-31T17:44:25Z</time>
      </trkpt>
      <trkpt lat="40.7443050" lon="-3.3716830">
        <ele>870.6</ele>
        <time>2022-07-31T17:44:26Z</time>
      </trkpt>
      <trkpt lat="40.7443180" lon="-3.3716580">
        <ele>870.7</ele>
        <time>2022-07-31T17:44:27Z</time>
      </trkpt>
      <trkpt lat="40.7443140" lon="-3.3716380">
        <ele>870.8</ele>
        <time>2022-07-31T17:44:28Z</time>
      </trkpt>
      <trkpt lat="40.7443090" lon="-3.3716270">
        <ele>870.8</ele>
        <time>2022-07-31T17:44:29Z</time>
      </trkpt>
      <trkpt lat="40.7443040" lon="-3.3716310">
        <ele>870.8</ele>
        <time>2022-07-31T17:44:30Z</time>
      </trkpt>
      <trkpt lat="40.7443030" lon="-3.3716290">
        <ele>870.8</ele>
        <time>2022-07-31T17:44:31Z</time>
      </trkpt>
      <trkpt lat="40.7443030" lon="-3.3716310">
        <ele>870.8</ele>
        <time>2022-07-31T17:44:32Z</time>
      </trkpt>
      <trkpt lat="40.7442970" lon="-3.3716320">
        <ele>870.8</ele>
        <time>2022-07-31T17:44:33Z</time>
      </trkpt>
      <trkpt lat="40.7442990" lon="-3.3716300">
        <ele>870.8</ele>
        <time>2022-07-31T17:44:34Z</time>
      </trkpt>
      <trkpt lat="40.7442990" lon="-3.3716150">
        <ele>870.8</ele>
        <time>2022-07-31T17:44:35Z</time>
      </trkpt>
      <trkpt lat="40.7442990" lon="-3.3716120">
        <ele>870.8</ele>
        <time>2022-07-31T17:44:36Z</time>
      </trkpt>
      <trkpt lat="40.7443010" lon="-3.3716080">
        <ele>870.8</ele>
        <time>2022-07-31T17:44:37Z</time>
      </trkpt>
      <trkpt lat="40.7442950" lon="-3.3716080">
        <ele>870.8</ele>
        <time>2022-07-31T17:44:38Z</time>
      </trkpt>
      <trkpt lat="40.7442650" lon="-3.3716000">
        <ele>870.9</ele>
        <time>2022-07-31T17:44:39Z</time>
      </trkpt>
      <trkpt lat="40.7442440" lon="-3.3715900">
        <ele>870.9</ele>
        <time>2022-07-31T17:45:03Z</time>
      </trkpt>
      <trkpt lat="40.7442220" lon="-3.3715790">
        <ele>870.9</ele>
        <time>2022-07-31T17:45:04Z</time>
      </trkpt>
      <trkpt lat="40.7442010" lon="-3.3715690">
        <ele>870.9</ele>
        <time>2022-07-31T17:45:05Z</time>
      </trkpt>
      <trkpt lat="40.7441650" lon="-3.3715640">
        <ele>870.8</ele>
        <time>2022-07-31T17:45:06Z</time>
      </trkpt>
      <trkpt lat="40.7441300" lon="-3.3715520">
        <ele>870.8</ele>
        <time>2022-07-31T17:45:07Z</time>
      </trkpt>
      <trkpt lat="40.7440920" lon="-3.3715290">
        <ele>870.8</ele>
        <time>2022-07-31T17:45:08Z</time>
      </trkpt>
      <trkpt lat="40.7440510" lon="-3.3714990">
        <ele>870.8</ele>
        <time>2022-07-31T17:45:09Z</time>
      </trkpt>
      <trkpt lat="40.7440150" lon="-3.3714750">
        <ele>870.8</ele>
        <time>2022-07-31T17:45:10Z</time>
      </trkpt>
      <trkpt lat="40.7439730" lon="-3.3714430">
        <ele>870.8</ele>
        <time>2022-07-31T17:45:11Z</time>
      </trkpt>
      <trkpt lat="40.7439370" lon="-3.3714160">
        <ele>870.8</ele>
        <time>2022-07-31T17:45:12Z</time>
      </trkpt>
      <trkpt lat="40.7439040" lon="-3.3713920">
        <ele>870.8</ele>
        <time>2022-07-31T17:45:13Z</time>
      </trkpt>
      <trkpt lat="40.7438750" lon="-3.3713640">
        <ele>870.9</ele>
        <time>2022-07-31T17:45:14Z</time>
      </trkpt>
      <trkpt lat="40.7438400" lon="-3.3713420">
        <ele>870.9</ele>
        <time>2022-07-31T17:45:15Z</time>
      </trkpt>
      <trkpt lat="40.7438040" lon="-3.3713100">
        <ele>870.9</ele>
        <time>2022-07-31T17:45:16Z</time>
      </trkpt>
      <trkpt lat="40.7437700" lon="-3.3712850">
        <ele>870.9</ele>
        <time>2022-07-31T17:45:17Z</time>
      </trkpt>
      <trkpt lat="40.7437330" lon="-3.3712550">
        <ele>870.9</ele>
        <time>2022-07-31T17:45:18Z</time>
      </trkpt>
      <trkpt lat="40.7436910" lon="-3.3712240">
        <ele>871.0</ele>
        <time>2022-07-31T17:45:19Z</time>
      </trkpt>
      <trkpt lat="40.7436530" lon="-3.3711940">
        <ele>871.0</ele>
        <time>2022-07-31T17:45:20Z</time>
      </trkpt>
      <trkpt lat="40.7436180" lon="-3.3711710">
        <ele>871.0</ele>
        <time>2022-07-31T17:45:21Z</time>
      </trkpt>
      <trkpt lat="40.7435880" lon="-3.3711400">
        <ele>871.0</ele>
        <time>2022-07-31T17:45:22Z</time>
      </trkpt>
      <trkpt lat="40.7435500" lon="-3.3711070">
        <ele>871.0</ele>
        <time>2022-07-31T17:45:23Z</time>
      </trkpt>
      <trkpt lat="40.7435150" lon="-3.3710760">
        <ele>871.0</ele>
        <time>2022-07-31T17:45:24Z</time>
      </trkpt>
      <trkpt lat="40.7434780" lon="-3.3710490">
        <ele>871.0</ele>
        <time>2022-07-31T17:45:25Z</time>
      </trkpt>
      <trkpt lat="40.7434370" lon="-3.3710200">
        <ele>871.0</ele>
        <time>2022-07-31T17:45:26Z</time>
      </trkpt>
      <trkpt lat="40.7433970" lon="-3.3709870">
        <ele>871.0</ele>
        <time>2022-07-31T17:45:27Z</time>
      </trkpt>
      <trkpt lat="40.7433590" lon="-3.3709550">
        <ele>871.0</ele>
        <time>2022-07-31T17:45:28Z</time>
      </trkpt>
      <trkpt lat="40.7433210" lon="-3.3709220">
        <ele>871.0</ele>
        <time>2022-07-31T17:45:29Z</time>
      </trkpt>
      <trkpt lat="40.7432770" lon="-3.3708880">
        <ele>871.0</ele>
        <time>2022-07-31T17:45:30Z</time>
      </trkpt>
      <trkpt lat="40.7432380" lon="-3.3708590">
        <ele>871.0</ele>
        <time>2022-07-31T17:45:31Z</time>
      </trkpt>
      <trkpt lat="40.7432050" lon="-3.3708270">
        <ele>871.0</ele>
        <time>2022-07-31T17:45:32Z</time>
      </trkpt>
      <trkpt lat="40.7431680" lon="-3.3707930">
        <ele>871.0</ele>
        <time>2022-07-31T17:45:33Z</time>
      </trkpt>
      <trkpt lat="40.7431240" lon="-3.3707610">
        <ele>871.1</ele>
        <time>2022-07-31T17:45:34Z</time>
      </trkpt>
      <trkpt lat="40.7430890" lon="-3.3707280">
        <ele>871.1</ele>
        <time>2022-07-31T17:45:35Z</time>
      </trkpt>
      <trkpt lat="40.7430520" lon="-3.3706990">
        <ele>871.1</ele>
        <time>2022-07-31T17:45:36Z</time>
      </trkpt>
      <trkpt lat="40.7430140" lon="-3.3706640">
        <ele>871.1</ele>
        <time>2022-07-31T17:45:37Z</time>
      </trkpt>
      <trkpt lat="40.7429730" lon="-3.3706340">
        <ele>871.2</ele>
        <time>2022-07-31T17:45:38Z</time>
      </trkpt>
      <trkpt lat="40.7429320" lon="-3.3706010">
        <ele>871.2</ele>
        <time>2022-07-31T17:45:39Z</time>
      </trkpt>
      <trkpt lat="40.7428950" lon="-3.3705720">
        <ele>871.2</ele>
        <time>2022-07-31T17:45:40Z</time>
      </trkpt>
      <trkpt lat="40.7428570" lon="-3.3705350">
        <ele>871.2</ele>
        <time>2022-07-31T17:45:41Z</time>
      </trkpt>
      <trkpt lat="40.7428120" lon="-3.3704950">
        <ele>871.2</ele>
        <time>2022-07-31T17:45:42Z</time>
      </trkpt>
      <trkpt lat="40.7427640" lon="-3.3704570">
        <ele>871.2</ele>
        <time>2022-07-31T17:45:43Z</time>
      </trkpt>
      <trkpt lat="40.7427210" lon="-3.3704220">
        <ele>871.1</ele>
        <time>2022-07-31T17:45:44Z</time>
      </trkpt>
      <trkpt lat="40.7426700" lon="-3.3703840">
        <ele>871.2</ele>
        <time>2022-07-31T17:45:45Z</time>
      </trkpt>
      <trkpt lat="40.7426280" lon="-3.3703540">
        <ele>871.2</ele>
        <time>2022-07-31T17:45:46Z</time>
      </trkpt>
      <trkpt lat="40.7425810" lon="-3.3703250">
        <ele>871.3</ele>
        <time>2022-07-31T17:45:47Z</time>
      </trkpt>
      <trkpt lat="40.7425370" lon="-3.3702940">
        <ele>871.3</ele>
        <time>2022-07-31T17:45:48Z</time>
      </trkpt>
      <trkpt lat="40.7424930" lon="-3.3702730">
        <ele>871.3</ele>
        <time>2022-07-31T17:45:49Z</time>
      </trkpt>
      <trkpt lat="40.7424480" lon="-3.3702420">
        <ele>871.3</ele>
        <time>2022-07-31T17:45:50Z</time>
      </trkpt>
      <trkpt lat="40.7424060" lon="-3.3702110">
        <ele>871.3</ele>
        <time>2022-07-31T17:45:51Z</time>
      </trkpt>
      <trkpt lat="40.7423640" lon="-3.3701770">
        <ele>871.4</ele>
        <time>2022-07-31T17:45:52Z</time>
      </trkpt>
      <trkpt lat="40.7423180" lon="-3.3701440">
        <ele>871.4</ele>
        <time>2022-07-31T17:45:53Z</time>
      </trkpt>
      <trkpt lat="40.7422760" lon="-3.3701090">
        <ele>871.4</ele>
        <time>2022-07-31T17:45:54Z</time>
      </trkpt>
      <trkpt lat="40.7422330" lon="-3.3700850">
        <ele>871.4</ele>
        <time>2022-07-31T17:45:55Z</time>
      </trkpt>
      <trkpt lat="40.7421950" lon="-3.3700610">
        <ele>871.4</ele>
        <time>2022-07-31T17:45:56Z</time>
      </trkpt>
      <trkpt lat="40.7421530" lon="-3.3700290">
        <ele>871.4</ele>
        <time>2022-07-31T17:45:57Z</time>
      </trkpt>
      <trkpt lat="40.7421080" lon="-3.3699990">
        <ele>871.4</ele>
        <time>2022-07-31T17:45:58Z</time>
      </trkpt>
      <trkpt lat="40.7420680" lon="-3.3699750">
        <ele>871.3</ele>
        <time>2022-07-31T17:45:59Z</time>
      </trkpt>
      <trkpt lat="40.7420290" lon="-3.3699540">
        <ele>871.3</ele>
        <time>2022-07-31T17:46:00Z</time>
      </trkpt>
      <trkpt lat="40.7419870" lon="-3.3699380">
        <ele>871.3</ele>
        <time>2022-07-31T17:46:01Z</time>
      </trkpt>
      <trkpt lat="40.7419410" lon="-3.3699310">
        <ele>871.3</ele>
        <time>2022-07-31T17:46:02Z</time>
      </trkpt>
      <trkpt lat="40.7419010" lon="-3.3699200">
        <ele>871.3</ele>
        <time>2022-07-31T17:46:03Z</time>
      </trkpt>
      <trkpt lat="40.7418610" lon="-3.3699140">
        <ele>871.3</ele>
        <time>2022-07-31T17:46:04Z</time>
      </trkpt>
      <trkpt lat="40.7418150" lon="-3.3699090">
        <ele>871.3</ele>
        <time>2022-07-31T17:46:05Z</time>
      </trkpt>
      <trkpt lat="40.7417710" lon="-3.3699040">
        <ele>871.3</ele>
        <time>2022-07-31T17:46:06Z</time>
      </trkpt>
      <trkpt lat="40.7417240" lon="-3.3699030">
        <ele>871.4</ele>
        <time>2022-07-31T17:46:07Z</time>
      </trkpt>
      <trkpt lat="40.7416760" lon="-3.3699010">
        <ele>871.4</ele>
        <time>2022-07-31T17:46:08Z</time>
      </trkpt>
      <trkpt lat="40.7416280" lon="-3.3698990">
        <ele>871.5</ele>
        <time>2022-07-31T17:46:09Z</time>
      </trkpt>
      <trkpt lat="40.7415870" lon="-3.3698970">
        <ele>871.5</ele>
        <time>2022-07-31T17:46:10Z</time>
      </trkpt>
      <trkpt lat="40.7415450" lon="-3.3698950">
        <ele>871.5</ele>
        <time>2022-07-31T17:46:11Z</time>
      </trkpt>
      <trkpt lat="40.7415040" lon="-3.3699020">
        <ele>871.5</ele>
        <time>2022-07-31T17:46:12Z</time>
      </trkpt>
      <trkpt lat="40.7414590" lon="-3.3699010">
        <ele>871.5</ele>
        <time>2022-07-31T17:46:13Z</time>
      </trkpt>
      <trkpt lat="40.7414150" lon="-3.3699000">
        <ele>871.5</ele>
        <time>2022-07-31T17:46:14Z</time>
      </trkpt>
      <trkpt lat="40.7413660" lon="-3.3699050">
        <ele>871.5</ele>
        <time>2022-07-31T17:46:15Z</time>
      </trkpt>
      <trkpt lat="40.7413180" lon="-3.3699090">
        <ele>871.6</ele>
        <time>2022-07-31T17:46:16Z</time>
      </trkpt>
      <trkpt lat="40.7412730" lon="-3.3699130">
        <ele>871.6</ele>
        <time>2022-07-31T17:46:17Z</time>
      </trkpt>
      <trkpt lat="40.7412280" lon="-3.3699170">
        <ele>871.7</ele>
        <time>2022-07-31T17:46:18Z</time>
      </trkpt>
      <trkpt lat="40.7411760" lon="-3.3699220">
        <ele>871.8</ele>
        <time>2022-07-31T17:46:19Z</time>
      </trkpt>
      <trkpt lat="40.7411410" lon="-3.3699270">
        <ele>871.8</ele>
        <time>2022-07-31T17:46:20Z</time>
      </trkpt>
      <trkpt lat="40.7410940" lon="-3.3699250">
        <ele>871.8</ele>
        <time>2022-07-31T17:46:21Z</time>
      </trkpt>
      <trkpt lat="40.7410420" lon="-3.3699280">
        <ele>871.8</ele>
        <time>2022-07-31T17:46:22Z</time>
      </trkpt>
      <trkpt lat="40.7409900" lon="-3.3699250">
        <ele>871.8</ele>
        <time>2022-07-31T17:46:23Z</time>
      </trkpt>
      <trkpt lat="40.7409470" lon="-3.3699290">
        <ele>871.8</ele>
        <time>2022-07-31T17:46:24Z</time>
      </trkpt>
      <trkpt lat="40.7408980" lon="-3.3699210">
        <ele>871.7</ele>
        <time>2022-07-31T17:46:25Z</time>
      </trkpt>
      <trkpt lat="40.7408590" lon="-3.3699210">
        <ele>871.7</ele>
        <time>2022-07-31T17:46:26Z</time>
      </trkpt>
      <trkpt lat="40.7408140" lon="-3.3699240">
        <ele>871.7</ele>
        <time>2022-07-31T17:46:27Z</time>
      </trkpt>
      <trkpt lat="40.7407660" lon="-3.3699310">
        <ele>871.6</ele>
        <time>2022-07-31T17:46:28Z</time>
      </trkpt>
      <trkpt lat="40.7407190" lon="-3.3699420">
        <ele>871.5</ele>
        <time>2022-07-31T17:46:29Z</time>
      </trkpt>
      <trkpt lat="40.7406700" lon="-3.3699350">
        <ele>871.3</ele>
        <time>2022-07-31T17:46:30Z</time>
      </trkpt>
      <trkpt lat="40.7406170" lon="-3.3699330">
        <ele>871.1</ele>
        <time>2022-07-31T17:46:31Z</time>
      </trkpt>
      <trkpt lat="40.7405660" lon="-3.3699230">
        <ele>870.8</ele>
        <time>2022-07-31T17:46:32Z</time>
      </trkpt>
      <trkpt lat="40.7405170" lon="-3.3699280">
        <ele>870.6</ele>
        <time>2022-07-31T17:46:33Z</time>
      </trkpt>
      <trkpt lat="40.7404620" lon="-3.3699310">
        <ele>870.3</ele>
        <time>2022-07-31T17:46:34Z</time>
      </trkpt>
      <trkpt lat="40.7404010" lon="-3.3699320">
        <ele>869.9</ele>
        <time>2022-07-31T17:46:35Z</time>
      </trkpt>
      <trkpt lat="40.7403340" lon="-3.3699350">
        <ele>869.4</ele>
        <time>2022-07-31T17:46:36Z</time>
      </trkpt>
      <trkpt lat="40.7402670" lon="-3.3699350">
        <ele>868.8</ele>
        <time>2022-07-31T17:46:37Z</time>
      </trkpt>
      <trkpt lat="40.7401980" lon="-3.3699310">
        <ele>868.2</ele>
        <time>2022-07-31T17:46:38Z</time>
      </trkpt>
      <trkpt lat="40.7401320" lon="-3.3699290">
        <ele>867.6</ele>
        <time>2022-07-31T17:46:39Z</time>
      </trkpt>
      <trkpt lat="40.7400560" lon="-3.3699230">
        <ele>866.9</ele>
        <time>2022-07-31T17:46:40Z</time>
      </trkpt>
      <trkpt lat="40.7399770" lon="-3.3699210">
        <ele>866.2</ele>
        <time>2022-07-31T17:46:41Z</time>
      </trkpt>
      <trkpt lat="40.7398840" lon="-3.3699120">
        <ele>865.5</ele>
        <time>2022-07-31T17:46:42Z</time>
      </trkpt>
      <trkpt lat="40.7398000" lon="-3.3699050">
        <ele>865.0</ele>
        <time>2022-07-31T17:46:43Z</time>
      </trkpt>
      <trkpt lat="40.7397120" lon="-3.3699020">
        <ele>864.3</ele>
        <time>2022-07-31T17:46:44Z</time>
      </trkpt>
      <trkpt lat="40.7396180" lon="-3.3698910">
        <ele>863.5</ele>
        <time>2022-07-31T17:46:45Z</time>
      </trkpt>
      <trkpt lat="40.7395310" lon="-3.3698860">
        <ele>862.6</ele>
        <time>2022-07-31T17:46:46Z</time>
      </trkpt>
      <trkpt lat="40.7394420" lon="-3.3698800">
        <ele>861.6</ele>
        <time>2022-07-31T17:46:47Z</time>
      </trkpt>
      <trkpt lat="40.7393510" lon="-3.3698640">
        <ele>860.7</ele>
        <time>2022-07-31T17:46:48Z</time>
      </trkpt>
      <trkpt lat="40.7392560" lon="-3.3698470">
        <ele>859.9</ele>
        <time>2022-07-31T17:46:49Z</time>
      </trkpt>
      <trkpt lat="40.7391630" lon="-3.3698320">
        <ele>859.3</ele>
        <time>2022-07-31T17:46:50Z</time>
      </trkpt>
      <trkpt lat="40.7390740" lon="-3.3698220">
        <ele>858.8</ele>
        <time>2022-07-31T17:46:51Z</time>
      </trkpt>
      <trkpt lat="40.7389830" lon="-3.3698110">
        <ele>858.2</ele>
        <time>2022-07-31T17:46:52Z</time>
      </trkpt>
      <trkpt lat="40.7388870" lon="-3.3698000">
        <ele>857.6</ele>
        <time>2022-07-31T17:46:53Z</time>
      </trkpt>
      <trkpt lat="40.7387950" lon="-3.3697920">
        <ele>857.1</ele>
        <time>2022-07-31T17:46:54Z</time>
      </trkpt>
      <trkpt lat="40.7387110" lon="-3.3697870">
        <ele>856.6</ele>
        <time>2022-07-31T17:46:55Z</time>
      </trkpt>
      <trkpt lat="40.7386290" lon="-3.3697860">
        <ele>856.3</ele>
        <time>2022-07-31T17:46:56Z</time>
      </trkpt>
      <trkpt lat="40.7385450" lon="-3.3697760">
        <ele>856.0</ele>
        <time>2022-07-31T17:46:57Z</time>
      </trkpt>
      <trkpt lat="40.7384610" lon="-3.3697600">
        <ele>855.8</ele>
        <time>2022-07-31T17:46:58Z</time>
      </trkpt>
      <trkpt lat="40.7383800" lon="-3.3697490">
        <ele>855.8</ele>
        <time>2022-07-31T17:46:59Z</time>
      </trkpt>
      <trkpt lat="40.7383070" lon="-3.3697450">
        <ele>855.8</ele>
        <time>2022-07-31T17:47:00Z</time>
      </trkpt>
      <trkpt lat="40.7382430" lon="-3.3697600">
        <ele>855.9</ele>
        <time>2022-07-31T17:47:01Z</time>
      </trkpt>
      <trkpt lat="40.7381760" lon="-3.3697470">
        <ele>856.0</ele>
        <time>2022-07-31T17:47:02Z</time>
      </trkpt>
      <trkpt lat="40.7381070" lon="-3.3697450">
        <ele>856.1</ele>
        <time>2022-07-31T17:47:03Z</time>
      </trkpt>
      <trkpt lat="40.7380400" lon="-3.3697410">
        <ele>856.3</ele>
        <time>2022-07-31T17:47:04Z</time>
      </trkpt>
      <trkpt lat="40.7379810" lon="-3.3697440">
        <ele>856.3</ele>
        <time>2022-07-31T17:47:05Z</time>
      </trkpt>
      <trkpt lat="40.7379190" lon="-3.3697350">
        <ele>856.4</ele>
        <time>2022-07-31T17:47:06Z</time>
      </trkpt>
      <trkpt lat="40.7378580" lon="-3.3697320">
        <ele>856.5</ele>
        <time>2022-07-31T17:47:07Z</time>
      </trkpt>
      <trkpt lat="40.7377980" lon="-3.3697230">
        <ele>856.5</ele>
        <time>2022-07-31T17:47:08Z</time>
      </trkpt>
      <trkpt lat="40.7377420" lon="-3.3697170">
        <ele>856.5</ele>
        <time>2022-07-31T17:47:09Z</time>
      </trkpt>
      <trkpt lat="40.7376860" lon="-3.3697140">
        <ele>856.5</ele>
        <time>2022-07-31T17:47:10Z</time>
      </trkpt>
      <trkpt lat="40.7376280" lon="-3.3697020">
        <ele>856.4</ele>
        <time>2022-07-31T17:47:11Z</time>
      </trkpt>
      <trkpt lat="40.7375720" lon="-3.3696890">
        <ele>856.4</ele>
        <time>2022-07-31T17:47:12Z</time>
      </trkpt>
      <trkpt lat="40.7375130" lon="-3.3696760">
        <ele>856.2</ele>
        <time>2022-07-31T17:47:13Z</time>
      </trkpt>
      <trkpt lat="40.7374520" lon="-3.3696600">
        <ele>856.1</ele>
        <time>2022-07-31T17:47:14Z</time>
      </trkpt>
      <trkpt lat="40.7373920" lon="-3.3696360">
        <ele>855.9</ele>
        <time>2022-07-31T17:47:15Z</time>
      </trkpt>
      <trkpt lat="40.7373280" lon="-3.3696150">
        <ele>855.6</ele>
        <time>2022-07-31T17:47:16Z</time>
      </trkpt>
      <trkpt lat="40.7372550" lon="-3.3695940">
        <ele>855.2</ele>
        <time>2022-07-31T17:47:17Z</time>
      </trkpt>
      <trkpt lat="40.7371830" lon="-3.3695750">
        <ele>854.6</ele>
        <time>2022-07-31T17:47:18Z</time>
      </trkpt>
      <trkpt lat="40.7371060" lon="-3.3695560">
        <ele>853.8</ele>
        <time>2022-07-31T17:47:19Z</time>
      </trkpt>
      <trkpt lat="40.7370280" lon="-3.3695310">
        <ele>853.1</ele>
        <time>2022-07-31T17:47:20Z</time>
      </trkpt>
      <trkpt lat="40.7369500" lon="-3.3695130">
        <ele>852.5</ele>
        <time>2022-07-31T17:47:21Z</time>
      </trkpt>
      <trkpt lat="40.7368660" lon="-3.3694940">
        <ele>851.9</ele>
        <time>2022-07-31T17:47:22Z</time>
      </trkpt>
      <trkpt lat="40.7367850" lon="-3.3694700">
        <ele>851.4</ele>
        <time>2022-07-31T17:47:23Z</time>
      </trkpt>
      <trkpt lat="40.7366990" lon="-3.3694390">
        <ele>850.8</ele>
        <time>2022-07-31T17:47:24Z</time>
      </trkpt>
      <trkpt lat="40.7366110" lon="-3.3694200">
        <ele>850.2</ele>
        <time>2022-07-31T17:47:25Z</time>
      </trkpt>
      <trkpt lat="40.7365250" lon="-3.3693990">
        <ele>849.5</ele>
        <time>2022-07-31T17:47:26Z</time>
      </trkpt>
      <trkpt lat="40.7364370" lon="-3.3693830">
        <ele>848.8</ele>
        <time>2022-07-31T17:47:27Z</time>
      </trkpt>
      <trkpt lat="40.7363490" lon="-3.3693600">
        <ele>848.2</ele>
        <time>2022-07-31T17:47:28Z</time>
      </trkpt>
      <trkpt lat="40.7362620" lon="-3.3693390">
        <ele>847.7</ele>
        <time>2022-07-31T17:47:29Z</time>
      </trkpt>
      <trkpt lat="40.7361730" lon="-3.3693140">
        <ele>847.0</ele>
        <time>2022-07-31T17:47:30Z</time>
      </trkpt>
      <trkpt lat="40.7360800" lon="-3.3693040">
        <ele>845.7</ele>
        <time>2022-07-31T17:47:31Z</time>
      </trkpt>
      <trkpt lat="40.7359900" lon="-3.3692920">
        <ele>843.3</ele>
        <time>2022-07-31T17:47:32Z</time>
      </trkpt>
      <trkpt lat="40.7359030" lon="-3.3692720">
        <ele>841.1</ele>
        <time>2022-07-31T17:47:33Z</time>
      </trkpt>
      <trkpt lat="40.7358080" lon="-3.3692630">
        <ele>840.3</ele>
        <time>2022-07-31T17:47:34Z</time>
      </trkpt>
      <trkpt lat="40.7357140" lon="-3.3692610">
        <ele>839.6</ele>
        <time>2022-07-31T17:47:35Z</time>
      </trkpt>
      <trkpt lat="40.7356200" lon="-3.3692470">
        <ele>838.8</ele>
        <time>2022-07-31T17:47:36Z</time>
      </trkpt>
      <trkpt lat="40.7355280" lon="-3.3692440">
        <ele>838.1</ele>
        <time>2022-07-31T17:47:37Z</time>
      </trkpt>
      <trkpt lat="40.7354310" lon="-3.3692350">
        <ele>837.3</ele>
        <time>2022-07-31T17:47:38Z</time>
      </trkpt>
      <trkpt lat="40.7353330" lon="-3.3692230">
        <ele>836.6</ele>
        <time>2022-07-31T17:47:39Z</time>
      </trkpt>
      <trkpt lat="40.7352380" lon="-3.3692030">
        <ele>835.9</ele>
        <time>2022-07-31T17:47:40Z</time>
      </trkpt>
      <trkpt lat="40.7351480" lon="-3.3691760">
        <ele>835.2</ele>
        <time>2022-07-31T17:47:41Z</time>
      </trkpt>
      <trkpt lat="40.7350660" lon="-3.3691200">
        <ele>834.5</ele>
        <time>2022-07-31T17:47:42Z</time>
      </trkpt>
      <trkpt lat="40.7349880" lon="-3.3690530">
        <ele>833.8</ele>
        <time>2022-07-31T17:47:43Z</time>
      </trkpt>
      <trkpt lat="40.7349190" lon="-3.3689550">
        <ele>833.0</ele>
        <time>2022-07-31T17:47:44Z</time>
      </trkpt>
      <trkpt lat="40.7348430" lon="-3.3688760">
        <ele>832.2</ele>
        <time>2022-07-31T17:47:45Z</time>
      </trkpt>
      <trkpt lat="40.7347680" lon="-3.3687790">
        <ele>831.4</ele>
        <time>2022-07-31T17:47:46Z</time>
      </trkpt>
      <trkpt lat="40.7346920" lon="-3.3686740">
        <ele>830.5</ele>
        <time>2022-07-31T17:47:47Z</time>
      </trkpt>
      <trkpt lat="40.7346090" lon="-3.3685870">
        <ele>829.8</ele>
        <time>2022-07-31T17:47:48Z</time>
      </trkpt>
      <trkpt lat="40.7345330" lon="-3.3684910">
        <ele>828.9</ele>
        <time>2022-07-31T17:47:49Z</time>
      </trkpt>
      <trkpt lat="40.7344530" lon="-3.3683970">
        <ele>828.0</ele>
        <time>2022-07-31T17:47:50Z</time>
      </trkpt>
      <trkpt lat="40.7343700" lon="-3.3683020">
        <ele>827.3</ele>
        <time>2022-07-31T17:47:51Z</time>
      </trkpt>
      <trkpt lat="40.7342880" lon="-3.3682120">
        <ele>826.7</ele>
        <time>2022-07-31T17:47:52Z</time>
      </trkpt>
      <trkpt lat="40.7342030" lon="-3.3681380">
        <ele>826.2</ele>
        <time>2022-07-31T17:47:53Z</time>
      </trkpt>
      <trkpt lat="40.7341150" lon="-3.3680640">
        <ele>825.8</ele>
        <time>2022-07-31T17:47:54Z</time>
      </trkpt>
      <trkpt lat="40.7340230" lon="-3.3680050">
        <ele>825.5</ele>
        <time>2022-07-31T17:47:55Z</time>
      </trkpt>
      <trkpt lat="40.7339260" lon="-3.3679650">
        <ele>825.2</ele>
        <time>2022-07-31T17:47:56Z</time>
      </trkpt>
      <trkpt lat="40.7338380" lon="-3.3679440">
        <ele>825.1</ele>
        <time>2022-07-31T17:47:57Z</time>
      </trkpt>
      <trkpt lat="40.7337700" lon="-3.3679350">
        <ele>825.0</ele>
        <time>2022-07-31T17:47:58Z</time>
      </trkpt>
      <trkpt lat="40.7337250" lon="-3.3679450">
        <ele>825.0</ele>
        <time>2022-07-31T17:47:59Z</time>
      </trkpt>
      <trkpt lat="40.7336920" lon="-3.3679660">
        <ele>824.9</ele>
        <time>2022-07-31T17:48:00Z</time>
      </trkpt>
      <trkpt lat="40.7336690" lon="-3.3679890">
        <ele>824.9</ele>
        <time>2022-07-31T17:48:01Z</time>
      </trkpt>
      <trkpt lat="40.7336430" lon="-3.3680160">
        <ele>824.9</ele>
        <time>2022-07-31T17:48:02Z</time>
      </trkpt>
      <trkpt lat="40.7336350" lon="-3.3680240">
        <ele>824.8</ele>
        <time>2022-07-31T17:48:03Z</time>
      </trkpt>
      <trkpt lat="40.7336100" lon="-3.3680530">
        <ele>824.8</ele>
        <time>2022-07-31T17:48:04Z</time>
      </trkpt>
      <trkpt lat="40.7336020" lon="-3.3680650">
        <ele>824.8</ele>
        <time>2022-07-31T17:48:05Z</time>
      </trkpt>
      <trkpt lat="40.7335760" lon="-3.3681000">
        <ele>824.7</ele>
        <time>2022-07-31T17:48:06Z</time>
      </trkpt>
      <trkpt lat="40.7335670" lon="-3.3681130">
        <ele>824.7</ele>
        <time>2022-07-31T17:48:07Z</time>
      </trkpt>
      <trkpt lat="40.7335420" lon="-3.3681530">
        <ele>824.6</ele>
        <time>2022-07-31T17:48:08Z</time>
      </trkpt>
      <trkpt lat="40.7335310" lon="-3.3681640">
        <ele>824.5</ele>
        <time>2022-07-31T17:48:09Z</time>
      </trkpt>
      <trkpt lat="40.7335010" lon="-3.3681870">
        <ele>824.4</ele>
        <time>2022-07-31T17:48:10Z</time>
      </trkpt>
      <trkpt lat="40.7334900" lon="-3.3681940">
        <ele>824.3</ele>
        <time>2022-07-31T17:48:11Z</time>
      </trkpt>
      <trkpt lat="40.7334490" lon="-3.3682090">
        <ele>824.1</ele>
        <time>2022-07-31T17:48:12Z</time>
      </trkpt>
      <trkpt lat="40.7334330" lon="-3.3682130">
        <ele>824.0</ele>
        <time>2022-07-31T17:48:13Z</time>
      </trkpt>
      <trkpt lat="40.7333930" lon="-3.3682110">
        <ele>823.8</ele>
        <time>2022-07-31T17:48:14Z</time>
      </trkpt>
      <trkpt lat="40.7333520" lon="-3.3681920">
        <ele>823.5</ele>
        <time>2022-07-31T17:48:15Z</time>
      </trkpt>
      <trkpt lat="40.7333040" lon="-3.3681660">
        <ele>823.1</ele>
        <time>2022-07-31T17:48:16Z</time>
      </trkpt>
      <trkpt lat="40.7332490" lon="-3.3681310">
        <ele>822.7</ele>
        <time>2022-07-31T17:48:17Z</time>
      </trkpt>
      <trkpt lat="40.7331920" lon="-3.3680920">
        <ele>822.2</ele>
        <time>2022-07-31T17:48:18Z</time>
      </trkpt>
      <trkpt lat="40.7331280" lon="-3.3680390">
        <ele>821.7</ele>
        <time>2022-07-31T17:48:19Z</time>
      </trkpt>
      <trkpt lat="40.7330650" lon="-3.3679880">
        <ele>821.4</ele>
        <time>2022-07-31T17:48:20Z</time>
      </trkpt>
      <trkpt lat="40.7330040" lon="-3.3679360">
        <ele>821.1</ele>
        <time>2022-07-31T17:48:21Z</time>
      </trkpt>
      <trkpt lat="40.7329410" lon="-3.3678790">
        <ele>820.8</ele>
        <time>2022-07-31T17:48:22Z</time>
      </trkpt>
      <trkpt lat="40.7328790" lon="-3.3678290">
        <ele>820.6</ele>
        <time>2022-07-31T17:48:23Z</time>
      </trkpt>
      <trkpt lat="40.7328130" lon="-3.3677760">
        <ele>820.4</ele>
        <time>2022-07-31T17:48:24Z</time>
      </trkpt>
      <trkpt lat="40.7327500" lon="-3.3677250">
        <ele>820.3</ele>
        <time>2022-07-31T17:48:25Z</time>
      </trkpt>
      <trkpt lat="40.7326820" lon="-3.3676730">
        <ele>820.1</ele>
        <time>2022-07-31T17:48:26Z</time>
      </trkpt>
      <trkpt lat="40.7326120" lon="-3.3676340">
        <ele>819.9</ele>
        <time>2022-07-31T17:48:27Z</time>
      </trkpt>
      <trkpt lat="40.7325410" lon="-3.3676030">
        <ele>819.7</ele>
        <time>2022-07-31T17:48:28Z</time>
      </trkpt>
      <trkpt lat="40.7324730" lon="-3.3675760">
        <ele>819.4</ele>
        <time>2022-07-31T17:48:29Z</time>
      </trkpt>
      <trkpt lat="40.7324070" lon="-3.3675460">
        <ele>819.0</ele>
        <time>2022-07-31T17:48:30Z</time>
      </trkpt>
      <trkpt lat="40.7323430" lon="-3.3675150">
        <ele>818.7</ele>
        <time>2022-07-31T17:48:31Z</time>
      </trkpt>
      <trkpt lat="40.7322850" lon="-3.3674810">
        <ele>818.4</ele>
        <time>2022-07-31T17:48:32Z</time>
      </trkpt>
      <trkpt lat="40.7322260" lon="-3.3674460">
        <ele>818.0</ele>
        <time>2022-07-31T17:48:33Z</time>
      </trkpt>
      <trkpt lat="40.7321730" lon="-3.3674070">
        <ele>817.8</ele>
        <time>2022-07-31T17:48:34Z</time>
      </trkpt>
      <trkpt lat="40.7321180" lon="-3.3673640">
        <ele>817.5</ele>
        <time>2022-07-31T17:48:35Z</time>
      </trkpt>
      <trkpt lat="40.7320610" lon="-3.3673150">
        <ele>817.2</ele>
        <time>2022-07-31T17:48:36Z</time>
      </trkpt>
      <trkpt lat="40.7320010" lon="-3.3672650">
        <ele>816.9</ele>
        <time>2022-07-31T17:48:37Z</time>
      </trkpt>
      <trkpt lat="40.7319430" lon="-3.3672120">
        <ele>816.6</ele>
        <time>2022-07-31T17:48:38Z</time>
      </trkpt>
      <trkpt lat="40.7318780" lon="-3.3671670">
        <ele>816.4</ele>
        <time>2022-07-31T17:48:39Z</time>
      </trkpt>
      <trkpt lat="40.7318130" lon="-3.3671230">
        <ele>816.1</ele>
        <time>2022-07-31T17:48:40Z</time>
      </trkpt>
      <trkpt lat="40.7317450" lon="-3.3670670">
        <ele>815.8</ele>
        <time>2022-07-31T17:48:41Z</time>
      </trkpt>
      <trkpt lat="40.7316780" lon="-3.3670160">
        <ele>815.6</ele>
        <time>2022-07-31T17:48:42Z</time>
      </trkpt>
      <trkpt lat="40.7316100" lon="-3.3669570">
        <ele>815.3</ele>
        <time>2022-07-31T17:48:43Z</time>
      </trkpt>
      <trkpt lat="40.7315430" lon="-3.3669040">
        <ele>815.0</ele>
        <time>2022-07-31T17:48:44Z</time>
      </trkpt>
      <trkpt lat="40.7314770" lon="-3.3668510">
        <ele>814.7</ele>
        <time>2022-07-31T17:48:45Z</time>
      </trkpt>
      <trkpt lat="40.7314090" lon="-3.3667910">
        <ele>814.3</ele>
        <time>2022-07-31T17:48:46Z</time>
      </trkpt>
      <trkpt lat="40.7313410" lon="-3.3667310">
        <ele>813.9</ele>
        <time>2022-07-31T17:48:47Z</time>
      </trkpt>
      <trkpt lat="40.7312750" lon="-3.3666710">
        <ele>813.5</ele>
        <time>2022-07-31T17:48:48Z</time>
      </trkpt>
      <trkpt lat="40.7312050" lon="-3.3666170">
        <ele>813.1</ele>
        <time>2022-07-31T17:48:49Z</time>
      </trkpt>
      <trkpt lat="40.7311360" lon="-3.3665650">
        <ele>812.8</ele>
        <time>2022-07-31T17:48:50Z</time>
      </trkpt>
      <trkpt lat="40.7310660" lon="-3.3665060">
        <ele>812.4</ele>
        <time>2022-07-31T17:48:51Z</time>
      </trkpt>
      <trkpt lat="40.7309990" lon="-3.3664510">
        <ele>812.0</ele>
        <time>2022-07-31T17:48:52Z</time>
      </trkpt>
      <trkpt lat="40.7309360" lon="-3.3663830">
        <ele>811.6</ele>
        <time>2022-07-31T17:48:53Z</time>
      </trkpt>
      <trkpt lat="40.7308810" lon="-3.3663210">
        <ele>811.3</ele>
        <time>2022-07-31T17:48:54Z</time>
      </trkpt>
      <trkpt lat="40.7308370" lon="-3.3662430">
        <ele>810.9</ele>
        <time>2022-07-31T17:48:55Z</time>
      </trkpt>
      <trkpt lat="40.7308000" lon="-3.3661570">
        <ele>810.4</ele>
        <time>2022-07-31T17:48:56Z</time>
      </trkpt>
      <trkpt lat="40.7307770" lon="-3.3660670">
        <ele>809.9</ele>
        <time>2022-07-31T17:48:57Z</time>
      </trkpt>
      <trkpt lat="40.7307730" lon="-3.3659720">
        <ele>809.4</ele>
        <time>2022-07-31T17:48:58Z</time>
      </trkpt>
      <trkpt lat="40.7307890" lon="-3.3658740">
        <ele>808.8</ele>
        <time>2022-07-31T17:48:59Z</time>
      </trkpt>
      <trkpt lat="40.7308100" lon="-3.3657760">
        <ele>808.3</ele>
        <time>2022-07-31T17:49:00Z</time>
      </trkpt>
      <trkpt lat="40.7308370" lon="-3.3656870">
        <ele>807.8</ele>
        <time>2022-07-31T17:49:01Z</time>
      </trkpt>
      <trkpt lat="40.7308710" lon="-3.3656010">
        <ele>807.3</ele>
        <time>2022-07-31T17:49:02Z</time>
      </trkpt>
      <trkpt lat="40.7309140" lon="-3.3655260">
        <ele>806.9</ele>
        <time>2022-07-31T17:49:03Z</time>
      </trkpt>
      <trkpt lat="40.7309580" lon="-3.3654550">
        <ele>806.5</ele>
        <time>2022-07-31T17:49:04Z</time>
      </trkpt>
      <trkpt lat="40.7310070" lon="-3.3653870">
        <ele>806.1</ele>
        <time>2022-07-31T17:49:05Z</time>
      </trkpt>
      <trkpt lat="40.7310610" lon="-3.3653350">
        <ele>805.9</ele>
        <time>2022-07-31T17:49:06Z</time>
      </trkpt>
      <trkpt lat="40.7311040" lon="-3.3652870">
        <ele>805.7</ele>
        <time>2022-07-31T17:49:07Z</time>
      </trkpt>
      <trkpt lat="40.7311550" lon="-3.3652590">
        <ele>805.5</ele>
        <time>2022-07-31T17:49:08Z</time>
      </trkpt>
      <trkpt lat="40.7311940" lon="-3.3652140">
        <ele>805.3</ele>
        <time>2022-07-31T17:49:09Z</time>
      </trkpt>
      <trkpt lat="40.7312280" lon="-3.3651590">
        <ele>805.1</ele>
        <time>2022-07-31T17:49:10Z</time>
      </trkpt>
      <trkpt lat="40.7312410" lon="-3.3650930">
        <ele>804.9</ele>
        <time>2022-07-31T17:49:11Z</time>
      </trkpt>
      <trkpt lat="40.7312410" lon="-3.3650380">
        <ele>804.7</ele>
        <time>2022-07-31T17:49:12Z</time>
      </trkpt>
      <trkpt lat="40.7312280" lon="-3.3649980">
        <ele>804.6</ele>
        <time>2022-07-31T17:49:13Z</time>
      </trkpt>
      <trkpt lat="40.7312090" lon="-3.3649720">
        <ele>804.5</ele>
        <time>2022-07-31T17:49:14Z</time>
      </trkpt>
      <trkpt lat="40.7311840" lon="-3.3649860">
        <ele>804.5</ele>
        <time>2022-07-31T17:49:15Z</time>
      </trkpt>
      <trkpt lat="40.7311460" lon="-3.3650020">
        <ele>804.4</ele>
        <time>2022-07-31T17:49:16Z</time>
      </trkpt>
      <trkpt lat="40.7311320" lon="-3.3650020">
        <ele>804.4</ele>
        <time>2022-07-31T17:49:17Z</time>
      </trkpt>
      <trkpt lat="40.7311090" lon="-3.3649620">
        <ele>804.4</ele>
        <time>2022-07-31T17:49:18Z</time>
      </trkpt>
      <trkpt lat="40.7310910" lon="-3.3649130">
        <ele>804.5</ele>
        <time>2022-07-31T17:49:19Z</time>
      </trkpt>
      <trkpt lat="40.7310860" lon="-3.3648650">
        <ele>804.5</ele>
        <time>2022-07-31T17:49:20Z</time>
      </trkpt>
      <trkpt lat="40.7310920" lon="-3.3648120">
        <ele>804.6</ele>
        <time>2022-07-31T17:49:21Z</time>
      </trkpt>
      <trkpt lat="40.7311140" lon="-3.3647730">
        <ele>804.7</ele>
        <time>2022-07-31T17:49:22Z</time>
      </trkpt>
      <trkpt lat="40.7311270" lon="-3.3647350">
        <ele>804.8</ele>
        <time>2022-07-31T17:49:23Z</time>
      </trkpt>
      <trkpt lat="40.7311480" lon="-3.3646940">
        <ele>804.9</ele>
        <time>2022-07-31T17:49:24Z</time>
      </trkpt>
      <trkpt lat="40.7311550" lon="-3.3646850">
        <ele>805.0</ele>
        <time>2022-07-31T17:49:25Z</time>
      </trkpt>
      <trkpt lat="40.7311810" lon="-3.3646520">
        <ele>805.1</ele>
        <time>2022-07-31T17:49:26Z</time>
      </trkpt>
      <trkpt lat="40.7311870" lon="-3.3646380">
        <ele>805.2</ele>
        <time>2022-07-31T17:49:27Z</time>
      </trkpt>
      <trkpt lat="40.7312010" lon="-3.3645960">
        <ele>805.3</ele>
        <time>2022-07-31T17:49:28Z</time>
      </trkpt>
      <trkpt lat="40.7312060" lon="-3.3645810">
        <ele>805.4</ele>
        <time>2022-07-31T17:49:29Z</time>
      </trkpt>
      <trkpt lat="40.7312200" lon="-3.3645410">
        <ele>805.6</ele>
        <time>2022-07-31T17:49:30Z</time>
      </trkpt>
      <trkpt lat="40.7312220" lon="-3.3645220">
        <ele>805.7</ele>
        <time>2022-07-31T17:49:31Z</time>
      </trkpt>
      <trkpt lat="40.7312320" lon="-3.3644780">
        <ele>806.0</ele>
        <time>2022-07-31T17:49:32Z</time>
      </trkpt>
      <trkpt lat="40.7312360" lon="-3.3644630">
        <ele>806.1</ele>
        <time>2022-07-31T17:49:33Z</time>
      </trkpt>
      <trkpt lat="40.7312350" lon="-3.3644240">
        <ele>806.3</ele>
        <time>2022-07-31T17:49:34Z</time>
      </trkpt>
      <trkpt lat="40.7312340" lon="-3.3644040">
        <ele>806.5</ele>
        <time>2022-07-31T17:49:35Z</time>
      </trkpt>
      <trkpt lat="40.7312320" lon="-3.3643850">
        <ele>806.6</ele>
        <time>2022-07-31T17:49:36Z</time>
      </trkpt>
      <trkpt lat="40.7312320" lon="-3.3643470">
        <ele>806.8</ele>
        <time>2022-07-31T17:49:37Z</time>
      </trkpt>
      <trkpt lat="40.7312370" lon="-3.3643290">
        <ele>807.0</ele>
        <time>2022-07-31T17:49:38Z</time>
      </trkpt>
      <trkpt lat="40.7312410" lon="-3.3643040">
        <ele>807.2</ele>
        <time>2022-07-31T17:49:39Z</time>
      </trkpt>
      <trkpt lat="40.7312480" lon="-3.3642790">
        <ele>807.4</ele>
        <time>2022-07-31T17:49:40Z</time>
      </trkpt>
      <trkpt lat="40.7312460" lon="-3.3642610">
        <ele>807.5</ele>
        <time>2022-07-31T17:49:41Z</time>
      </trkpt>
      <trkpt lat="40.7312450" lon="-3.3642170">
        <ele>807.8</ele>
        <time>2022-07-31T17:49:42Z</time>
      </trkpt>
      <trkpt lat="40.7312460" lon="-3.3641910">
        <ele>808.0</ele>
        <time>2022-07-31T17:49:43Z</time>
      </trkpt>
      <trkpt lat="40.7312440" lon="-3.3641770">
        <ele>808.1</ele>
        <time>2022-07-31T17:49:44Z</time>
      </trkpt>
      <trkpt lat="40.7312510" lon="-3.3641420">
        <ele>808.4</ele>
        <time>2022-07-31T17:49:45Z</time>
      </trkpt>
      <trkpt lat="40.7312550" lon="-3.3641300">
        <ele>808.5</ele>
        <time>2022-07-31T17:49:46Z</time>
      </trkpt>
      <trkpt lat="40.7312550" lon="-3.3641090">
        <ele>808.7</ele>
        <time>2022-07-31T17:49:47Z</time>
      </trkpt>
      <trkpt lat="40.7312580" lon="-3.3640880">
        <ele>808.8</ele>
        <time>2022-07-31T17:49:48Z</time>
      </trkpt>
      <trkpt lat="40.7312650" lon="-3.3640400">
        <ele>809.2</ele>
        <time>2022-07-31T17:49:49Z</time>
      </trkpt>
      <trkpt lat="40.7312690" lon="-3.3640250">
        <ele>809.3</ele>
        <time>2022-07-31T17:49:50Z</time>
      </trkpt>
      <trkpt lat="40.7312780" lon="-3.3640130">
        <ele>809.4</ele>
        <time>2022-07-31T17:49:51Z</time>
      </trkpt>
      <trkpt lat="40.7312800" lon="-3.3639810">
        <ele>809.7</ele>
        <time>2022-07-31T17:49:52Z</time>
      </trkpt>
      <trkpt lat="40.7312850" lon="-3.3639540">
        <ele>809.9</ele>
        <time>2022-07-31T17:49:53Z</time>
      </trkpt>
      <trkpt lat="40.7312840" lon="-3.3639370">
        <ele>810.0</ele>
        <time>2022-07-31T17:49:54Z</time>
      </trkpt>
      <trkpt lat="40.7312840" lon="-3.3639150">
        <ele>810.2</ele>
        <time>2022-07-31T17:49:55Z</time>
      </trkpt>
      <trkpt lat="40.7312870" lon="-3.3638930">
        <ele>810.3</ele>
        <time>2022-07-31T17:49:56Z</time>
      </trkpt>
      <trkpt lat="40.7312940" lon="-3.3638540">
        <ele>810.6</ele>
        <time>2022-07-31T17:49:57Z</time>
      </trkpt>
      <trkpt lat="40.7312960" lon="-3.3638370">
        <ele>810.7</ele>
        <time>2022-07-31T17:49:58Z</time>
      </trkpt>
      <trkpt lat="40.7313070" lon="-3.3638020">
        <ele>811.0</ele>
        <time>2022-07-31T17:49:59Z</time>
      </trkpt>
      <trkpt lat="40.7313080" lon="-3.3637870">
        <ele>811.1</ele>
        <time>2022-07-31T17:50:00Z</time>
      </trkpt>
      <trkpt lat="40.7313200" lon="-3.3637390">
        <ele>811.5</ele>
        <time>2022-07-31T17:50:01Z</time>
      </trkpt>
      <trkpt lat="40.7313230" lon="-3.3637150">
        <ele>811.6</ele>
        <time>2022-07-31T17:50:02Z</time>
      </trkpt>
      <trkpt lat="40.7313250" lon="-3.3636860">
        <ele>811.8</ele>
        <time>2022-07-31T17:50:03Z</time>
      </trkpt>
      <trkpt lat="40.7313260" lon="-3.3636470">
        <ele>812.1</ele>
        <time>2022-07-31T17:50:04Z</time>
      </trkpt>
      <trkpt lat="40.7313240" lon="-3.3636340">
        <ele>812.2</ele>
        <time>2022-07-31T17:50:05Z</time>
      </trkpt>
      <trkpt lat="40.7313250" lon="-3.3635910">
        <ele>812.5</ele>
        <time>2022-07-31T17:50:06Z</time>
      </trkpt>
      <trkpt lat="40.7313270" lon="-3.3635770">
        <ele>812.5</ele>
        <time>2022-07-31T17:50:07Z</time>
      </trkpt>
      <trkpt lat="40.7313340" lon="-3.3635350">
        <ele>812.8</ele>
        <time>2022-07-31T17:50:08Z</time>
      </trkpt>
      <trkpt lat="40.7313350" lon="-3.3635210">
        <ele>812.9</ele>
        <time>2022-07-31T17:50:09Z</time>
      </trkpt>
      <trkpt lat="40.7313320" lon="-3.3634830">
        <ele>813.1</ele>
        <time>2022-07-31T17:50:10Z</time>
      </trkpt>
      <trkpt lat="40.7313310" lon="-3.3634710">
        <ele>813.2</ele>
        <time>2022-07-31T17:50:11Z</time>
      </trkpt>
      <trkpt lat="40.7313320" lon="-3.3634250">
        <ele>813.4</ele>
        <time>2022-07-31T17:50:12Z</time>
      </trkpt>
      <trkpt lat="40.7313320" lon="-3.3634100">
        <ele>813.5</ele>
        <time>2022-07-31T17:50:13Z</time>
      </trkpt>
      <trkpt lat="40.7313400" lon="-3.3633720">
        <ele>813.7</ele>
        <time>2022-07-31T17:50:14Z</time>
      </trkpt>
      <trkpt lat="40.7313420" lon="-3.3633580">
        <ele>813.8</ele>
        <time>2022-07-31T17:50:15Z</time>
      </trkpt>
      <trkpt lat="40.7313470" lon="-3.3633180">
        <ele>814.0</ele>
        <time>2022-07-31T17:50:16Z</time>
      </trkpt>
      <trkpt lat="40.7313480" lon="-3.3633040">
        <ele>814.1</ele>
        <time>2022-07-31T17:50:17Z</time>
      </trkpt>
      <trkpt lat="40.7313490" lon="-3.3632590">
        <ele>814.3</ele>
        <time>2022-07-31T17:50:18Z</time>
      </trkpt>
      <trkpt lat="40.7313490" lon="-3.3632430">
        <ele>814.4</ele>
        <time>2022-07-31T17:50:19Z</time>
      </trkpt>
      <trkpt lat="40.7313570" lon="-3.3632080">
        <ele>814.6</ele>
        <time>2022-07-31T17:50:20Z</time>
      </trkpt>
      <trkpt lat="40.7313590" lon="-3.3631950">
        <ele>814.7</ele>
        <time>2022-07-31T17:50:21Z</time>
      </trkpt>
      <trkpt lat="40.7313600" lon="-3.3631460">
        <ele>814.9</ele>
        <time>2022-07-31T17:50:22Z</time>
      </trkpt>
      <trkpt lat="40.7313610" lon="-3.3631280">
        <ele>815.0</ele>
        <time>2022-07-31T17:50:23Z</time>
      </trkpt>
      <trkpt lat="40.7313560" lon="-3.3630750">
        <ele>815.3</ele>
        <time>2022-07-31T17:50:24Z</time>
      </trkpt>
      <trkpt lat="40.7313530" lon="-3.3630570">
        <ele>815.4</ele>
        <time>2022-07-31T17:50:25Z</time>
      </trkpt>
      <trkpt lat="40.7313490" lon="-3.3630070">
        <ele>815.6</ele>
        <time>2022-07-31T17:50:26Z</time>
      </trkpt>
      <trkpt lat="40.7313480" lon="-3.3629910">
        <ele>815.7</ele>
        <time>2022-07-31T17:50:27Z</time>
      </trkpt>
      <trkpt lat="40.7313420" lon="-3.3629420">
        <ele>815.9</ele>
        <time>2022-07-31T17:50:28Z</time>
      </trkpt>
      <trkpt lat="40.7313400" lon="-3.3629230">
        <ele>816.0</ele>
        <time>2022-07-31T17:50:29Z</time>
      </trkpt>
      <trkpt lat="40.7313360" lon="-3.3628750">
        <ele>816.3</ele>
        <time>2022-07-31T17:50:30Z</time>
      </trkpt>
      <trkpt lat="40.7313320" lon="-3.3628600">
        <ele>816.3</ele>
        <time>2022-07-31T17:50:31Z</time>
      </trkpt>
      <trkpt lat="40.7313280" lon="-3.3628100">
        <ele>816.6</ele>
        <time>2022-07-31T17:50:32Z</time>
      </trkpt>
      <trkpt lat="40.7313290" lon="-3.3627950">
        <ele>816.7</ele>
        <time>2022-07-31T17:50:33Z</time>
      </trkpt>
      <trkpt lat="40.7313340" lon="-3.3627500">
        <ele>816.9</ele>
        <time>2022-07-31T17:50:34Z</time>
      </trkpt>
      <trkpt lat="40.7313340" lon="-3.3627370">
        <ele>817.0</ele>
        <time>2022-07-31T17:50:35Z</time>
      </trkpt>
      <trkpt lat="40.7313360" lon="-3.3626970">
        <ele>817.1</ele>
        <time>2022-07-31T17:50:36Z</time>
      </trkpt>
      <trkpt lat="40.7313380" lon="-3.3626850">
        <ele>817.2</ele>
        <time>2022-07-31T17:50:37Z</time>
      </trkpt>
      <trkpt lat="40.7313600" lon="-3.3626580">
        <ele>817.4</ele>
        <time>2022-07-31T17:50:38Z</time>
      </trkpt>
      <trkpt lat="40.7313670" lon="-3.3626480">
        <ele>817.5</ele>
        <time>2022-07-31T17:50:39Z</time>
      </trkpt>
      <trkpt lat="40.7313800" lon="-3.3626090">
        <ele>817.7</ele>
        <time>2022-07-31T17:50:40Z</time>
      </trkpt>
      <trkpt lat="40.7313840" lon="-3.3625940">
        <ele>817.8</ele>
        <time>2022-07-31T17:50:41Z</time>
      </trkpt>
      <trkpt lat="40.7313870" lon="-3.3625600">
        <ele>817.9</ele>
        <time>2022-07-31T17:50:42Z</time>
      </trkpt>
      <trkpt lat="40.7313870" lon="-3.3625470">
        <ele>818.0</ele>
        <time>2022-07-31T17:50:43Z</time>
      </trkpt>
      <trkpt lat="40.7313960" lon="-3.3625240">
        <ele>818.1</ele>
        <time>2022-07-31T17:50:44Z</time>
      </trkpt>
      <trkpt lat="40.7314080" lon="-3.3625110">
        <ele>818.2</ele>
        <time>2022-07-31T17:50:45Z</time>
      </trkpt>
      <trkpt lat="40.7314110" lon="-3.3624970">
        <ele>818.3</ele>
        <time>2022-07-31T17:50:46Z</time>
      </trkpt>
      <trkpt lat="40.7314120" lon="-3.3624830">
        <ele>818.4</ele>
        <time>2022-07-31T17:50:47Z</time>
      </trkpt>
      <trkpt lat="40.7314130" lon="-3.3624820">
        <ele>818.4</ele>
        <time>2022-07-31T17:50:48Z</time>
      </trkpt>
      <trkpt lat="40.7314180" lon="-3.3624700">
        <ele>818.4</ele>
        <time>2022-07-31T17:50:49Z</time>
      </trkpt>
      <trkpt lat="40.7314230" lon="-3.3624720">
        <ele>818.5</ele>
        <time>2022-07-31T17:50:50Z</time>
      </trkpt>
      <trkpt lat="40.7314180" lon="-3.3624830">
        <ele>818.5</ele>
        <time>2022-07-31T17:50:51Z</time>
      </trkpt>
      <trkpt lat="40.7314140" lon="-3.3624940">
        <ele>818.6</ele>
        <time>2022-07-31T17:50:52Z</time>
      </trkpt>
      <trkpt lat="40.7314110" lon="-3.3624950">
        <ele>818.6</ele>
        <time>2022-07-31T17:50:53Z</time>
      </trkpt>
      <trkpt lat="40.7314080" lon="-3.3624960">
        <ele>818.6</ele>
        <time>2022-07-31T17:50:54Z</time>
      </trkpt>
      <trkpt lat="40.7314050" lon="-3.3624960">
        <ele>818.7</ele>
        <time>2022-07-31T17:50:55Z</time>
      </trkpt>
      <trkpt lat="40.7314030" lon="-3.3624970">
        <ele>818.7</ele>
        <time>2022-07-31T17:50:56Z</time>
      </trkpt>
      <trkpt lat="40.7314030" lon="-3.3625030">
        <ele>818.7</ele>
        <time>2022-07-31T17:50:57Z</time>
      </trkpt>
      <trkpt lat="40.7313900" lon="-3.3625020">
        <ele>818.8</ele>
        <time>2022-07-31T17:50:58Z</time>
      </trkpt>
      <trkpt lat="40.7313820" lon="-3.3624890">
        <ele>818.9</ele>
        <time>2022-07-31T17:50:59Z</time>
      </trkpt>
      <trkpt lat="40.7313740" lon="-3.3624770">
        <ele>819.0</ele>
        <time>2022-07-31T17:51:00Z</time>
      </trkpt>
      <trkpt lat="40.7313670" lon="-3.3624650">
        <ele>819.0</ele>
        <time>2022-07-31T17:51:14Z</time>
      </trkpt>
      <trkpt lat="40.7313590" lon="-3.3624520">
        <ele>819.1</ele>
        <time>2022-07-31T17:51:15Z</time>
      </trkpt>
      <trkpt lat="40.7313510" lon="-3.3624400">
        <ele>819.2</ele>
        <time>2022-07-31T17:51:16Z</time>
      </trkpt>
      <trkpt lat="40.7313200" lon="-3.3624160">
        <ele>819.1</ele>
        <time>2022-07-31T17:51:17Z</time>
      </trkpt>
      <trkpt lat="40.7313050" lon="-3.3624120">
        <ele>819.0</ele>
        <time>2022-07-31T17:51:18Z</time>
      </trkpt>
      <trkpt lat="40.7312710" lon="-3.3624030">
        <ele>819.0</ele>
        <time>2022-07-31T17:51:19Z</time>
      </trkpt>
      <trkpt lat="40.7312010" lon="-3.3623770">
        <ele>818.9</ele>
        <time>2022-07-31T17:51:20Z</time>
      </trkpt>
      <trkpt lat="40.7311670" lon="-3.3623640">
        <ele>818.9</ele>
        <time>2022-07-31T17:51:21Z</time>
      </trkpt>
      <trkpt lat="40.7311360" lon="-3.3623530">
        <ele>818.8</ele>
        <time>2022-07-31T17:51:22Z</time>
      </trkpt>
      <trkpt lat="40.7310970" lon="-3.3623320">
        <ele>818.8</ele>
        <time>2022-07-31T17:51:23Z</time>
      </trkpt>
      <trkpt lat="40.7310610" lon="-3.3623170">
        <ele>818.7</ele>
        <time>2022-07-31T17:51:24Z</time>
      </trkpt>
      <trkpt lat="40.7310230" lon="-3.3622970">
        <ele>818.6</ele>
        <time>2022-07-31T17:51:25Z</time>
      </trkpt>
      <trkpt lat="40.7309810" lon="-3.3622830">
        <ele>818.5</ele>
        <time>2022-07-31T17:51:26Z</time>
      </trkpt>
      <trkpt lat="40.7309340" lon="-3.3622600">
        <ele>818.4</ele>
        <time>2022-07-31T17:51:27Z</time>
      </trkpt>
      <trkpt lat="40.7308810" lon="-3.3622450">
        <ele>818.3</ele>
        <time>2022-07-31T17:51:28Z</time>
      </trkpt>
      <trkpt lat="40.7308310" lon="-3.3622320">
        <ele>818.1</ele>
        <time>2022-07-31T17:51:29Z</time>
      </trkpt>
      <trkpt lat="40.7307820" lon="-3.3622190">
        <ele>818.0</ele>
        <time>2022-07-31T17:51:30Z</time>
      </trkpt>
      <trkpt lat="40.7307250" lon="-3.3622130">
        <ele>817.9</ele>
        <time>2022-07-31T17:51:31Z</time>
      </trkpt>
      <trkpt lat="40.7306670" lon="-3.3622120">
        <ele>817.7</ele>
        <time>2022-07-31T17:51:32Z</time>
      </trkpt>
      <trkpt lat="40.7306110" lon="-3.3621950">
        <ele>817.6</ele>
        <time>2022-07-31T17:51:33Z</time>
      </trkpt>
      <trkpt lat="40.7305520" lon="-3.3621770">
        <ele>817.5</ele>
        <time>2022-07-31T17:51:34Z</time>
      </trkpt>
      <trkpt lat="40.7304910" lon="-3.3621640">
        <ele>817.3</ele>
        <time>2022-07-31T17:51:35Z</time>
      </trkpt>
      <trkpt lat="40.7304340" lon="-3.3621540">
        <ele>817.2</ele>
        <time>2022-07-31T17:51:36Z</time>
      </trkpt>
      <trkpt lat="40.7303740" lon="-3.3621440">
        <ele>817.0</ele>
        <time>2022-07-31T17:51:37Z</time>
      </trkpt>
      <trkpt lat="40.7303170" lon="-3.3621340">
        <ele>816.9</ele>
        <time>2022-07-31T17:51:38Z</time>
      </trkpt>
      <trkpt lat="40.7302610" lon="-3.3621190">
        <ele>816.8</ele>
        <time>2022-07-31T17:51:39Z</time>
      </trkpt>
      <trkpt lat="40.7302020" lon="-3.3621120">
        <ele>816.7</ele>
        <time>2022-07-31T17:51:40Z</time>
      </trkpt>
      <trkpt lat="40.7301440" lon="-3.3620960">
        <ele>816.6</ele>
        <time>2022-07-31T17:51:41Z</time>
      </trkpt>
      <trkpt lat="40.7300890" lon="-3.3620890">
        <ele>816.5</ele>
        <time>2022-07-31T17:51:42Z</time>
      </trkpt>
      <trkpt lat="40.7300300" lon="-3.3620790">
        <ele>816.4</ele>
        <time>2022-07-31T17:51:43Z</time>
      </trkpt>
      <trkpt lat="40.7299750" lon="-3.3620680">
        <ele>816.4</ele>
        <time>2022-07-31T17:51:44Z</time>
      </trkpt>
      <trkpt lat="40.7299230" lon="-3.3620590">
        <ele>816.3</ele>
        <time>2022-07-31T17:51:45Z</time>
      </trkpt>
      <trkpt lat="40.7298690" lon="-3.3620500">
        <ele>816.2</ele>
        <time>2022-07-31T17:51:46Z</time>
      </trkpt>
      <trkpt lat="40.7298130" lon="-3.3620410">
        <ele>816.2</ele>
        <time>2022-07-31T17:51:47Z</time>
      </trkpt>
      <trkpt lat="40.7297600" lon="-3.3620280">
        <ele>816.2</ele>
        <time>2022-07-31T17:51:48Z</time>
      </trkpt>
      <trkpt lat="40.7297080" lon="-3.3620200">
        <ele>816.1</ele>
        <time>2022-07-31T17:51:50Z</time>
      </trkpt>
      <trkpt lat="40.7296540" lon="-3.3620120">
        <ele>816.0</ele>
        <time>2022-07-31T17:51:51Z</time>
      </trkpt>
      <trkpt lat="40.7295990" lon="-3.3619960">
        <ele>816.0</ele>
        <time>2022-07-31T17:51:52Z</time>
      </trkpt>
      <trkpt lat="40.7295330" lon="-3.3619970">
        <ele>815.9</ele>
        <time>2022-07-31T17:51:53Z</time>
      </trkpt>
      <trkpt lat="40.7294750" lon="-3.3619940">
        <ele>815.8</ele>
        <time>2022-07-31T17:51:54Z</time>
      </trkpt>
      <trkpt lat="40.7294220" lon="-3.3619850">
        <ele>815.8</ele>
        <time>2022-07-31T17:51:55Z</time>
      </trkpt>
      <trkpt lat="40.7293650" lon="-3.3619800">
        <ele>815.7</ele>
        <time>2022-07-31T17:51:56Z</time>
      </trkpt>
      <trkpt lat="40.7293100" lon="-3.3619630">
        <ele>815.6</ele>
        <time>2022-07-31T17:51:57Z</time>
      </trkpt>
      <trkpt lat="40.7292520" lon="-3.3619550">
        <ele>815.5</ele>
        <time>2022-07-31T17:51:58Z</time>
      </trkpt>
      <trkpt lat="40.7291960" lon="-3.3619440">
        <ele>815.4</ele>
        <time>2022-07-31T17:51:59Z</time>
      </trkpt>
      <trkpt lat="40.7291380" lon="-3.3619250">
        <ele>815.3</ele>
        <time>2022-07-31T17:52:00Z</time>
      </trkpt>
      <trkpt lat="40.7290830" lon="-3.3619010">
        <ele>815.2</ele>
        <time>2022-07-31T17:52:01Z</time>
      </trkpt>
      <trkpt lat="40.7290190" lon="-3.3618850">
        <ele>815.1</ele>
        <time>2022-07-31T17:52:02Z</time>
      </trkpt>
      <trkpt lat="40.7289580" lon="-3.3618640">
        <ele>815.1</ele>
        <time>2022-07-31T17:52:03Z</time>
      </trkpt>
      <trkpt lat="40.7288920" lon="-3.3618530">
        <ele>815.1</ele>
        <time>2022-07-31T17:52:04Z</time>
      </trkpt>
      <trkpt lat="40.7288310" lon="-3.3618490">
        <ele>815.1</ele>
        <time>2022-07-31T17:52:05Z</time>
      </trkpt>
      <trkpt lat="40.7287740" lon="-3.3618430">
        <ele>815.1</ele>
        <time>2022-07-31T17:52:06Z</time>
      </trkpt>
      <trkpt lat="40.7287160" lon="-3.3618270">
        <ele>815.1</ele>
        <time>2022-07-31T17:52:07Z</time>
      </trkpt>
      <trkpt lat="40.7286550" lon="-3.3618130">
        <ele>815.1</ele>
        <time>2022-07-31T17:52:08Z</time>
      </trkpt>
      <trkpt lat="40.7285970" lon="-3.3618010">
        <ele>815.1</ele>
        <time>2022-07-31T17:52:09Z</time>
      </trkpt>
      <trkpt lat="40.7285470" lon="-3.3617900">
        <ele>815.1</ele>
        <time>2022-07-31T17:52:10Z</time>
      </trkpt>
      <trkpt lat="40.7284830" lon="-3.3617720">
        <ele>815.1</ele>
        <time>2022-07-31T17:52:11Z</time>
      </trkpt>
      <trkpt lat="40.7284380" lon="-3.3617730">
        <ele>815.2</ele>
        <time>2022-07-31T17:52:12Z</time>
      </trkpt>
      <trkpt lat="40.7283910" lon="-3.3617730">
        <ele>815.2</ele>
        <time>2022-07-31T17:52:13Z</time>
      </trkpt>
      <trkpt lat="40.7283480" lon="-3.3617740">
        <ele>815.2</ele>
        <time>2022-07-31T17:52:14Z</time>
      </trkpt>
      <trkpt lat="40.7283080" lon="-3.3617710">
        <ele>815.3</ele>
        <time>2022-07-31T17:52:15Z</time>
      </trkpt>
      <trkpt lat="40.7282690" lon="-3.3617710">
        <ele>815.3</ele>
        <time>2022-07-31T17:52:16Z</time>
      </trkpt>
      <trkpt lat="40.7282290" lon="-3.3617720">
        <ele>815.3</ele>
        <time>2022-07-31T17:52:17Z</time>
      </trkpt>
      <trkpt lat="40.7281920" lon="-3.3617740">
        <ele>815.3</ele>
        <time>2022-07-31T17:52:18Z</time>
      </trkpt>
      <trkpt lat="40.7281620" lon="-3.3617750">
        <ele>815.2</ele>
        <time>2022-07-31T17:52:19Z</time>
      </trkpt>
      <trkpt lat="40.7281290" lon="-3.3617650">
        <ele>815.2</ele>
        <time>2022-07-31T17:52:20Z</time>
      </trkpt>
      <trkpt lat="40.7280890" lon="-3.3617480">
        <ele>815.1</ele>
        <time>2022-07-31T17:52:21Z</time>
      </trkpt>
      <trkpt lat="40.7280530" lon="-3.3617400">
        <ele>815.0</ele>
        <time>2022-07-31T17:52:22Z</time>
      </trkpt>
      <trkpt lat="40.7280150" lon="-3.3617350">
        <ele>814.9</ele>
        <time>2022-07-31T17:52:23Z</time>
      </trkpt>
      <trkpt lat="40.7279710" lon="-3.3617230">
        <ele>814.8</ele>
        <time>2022-07-31T17:52:24Z</time>
      </trkpt>
      <trkpt lat="40.7279290" lon="-3.3617110">
        <ele>814.7</ele>
        <time>2022-07-31T17:52:25Z</time>
      </trkpt>
      <trkpt lat="40.7278820" lon="-3.3617040">
        <ele>814.6</ele>
        <time>2022-07-31T17:52:26Z</time>
      </trkpt>
      <trkpt lat="40.7278300" lon="-3.3616900">
        <ele>814.4</ele>
        <time>2022-07-31T17:52:27Z</time>
      </trkpt>
      <trkpt lat="40.7277810" lon="-3.3616820">
        <ele>814.2</ele>
        <time>2022-07-31T17:52:28Z</time>
      </trkpt>
      <trkpt lat="40.7277310" lon="-3.3616660">
        <ele>813.9</ele>
        <time>2022-07-31T17:52:29Z</time>
      </trkpt>
      <trkpt lat="40.7276700" lon="-3.3616550">
        <ele>813.7</ele>
        <time>2022-07-31T17:52:30Z</time>
      </trkpt>
      <trkpt lat="40.7276120" lon="-3.3616510">
        <ele>813.4</ele>
        <time>2022-07-31T17:52:31Z</time>
      </trkpt>
      <trkpt lat="40.7275530" lon="-3.3616380">
        <ele>813.1</ele>
        <time>2022-07-31T17:52:32Z</time>
      </trkpt>
      <trkpt lat="40.7274950" lon="-3.3616240">
        <ele>812.8</ele>
        <time>2022-07-31T17:52:33Z</time>
      </trkpt>
      <trkpt lat="40.7274340" lon="-3.3616120">
        <ele>812.5</ele>
        <time>2022-07-31T17:52:34Z</time>
      </trkpt>
      <trkpt lat="40.7273740" lon="-3.3615940">
        <ele>812.2</ele>
        <time>2022-07-31T17:52:35Z</time>
      </trkpt>
      <trkpt lat="40.7273190" lon="-3.3615720">
        <ele>812.0</ele>
        <time>2022-07-31T17:52:36Z</time>
      </trkpt>
      <trkpt lat="40.7272550" lon="-3.3615580">
        <ele>811.7</ele>
        <time>2022-07-31T17:52:37Z</time>
      </trkpt>
      <trkpt lat="40.7271980" lon="-3.3615350">
        <ele>811.4</ele>
        <time>2022-07-31T17:52:38Z</time>
      </trkpt>
      <trkpt lat="40.7271360" lon="-3.3615180">
        <ele>811.1</ele>
        <time>2022-07-31T17:52:39Z</time>
      </trkpt>
      <trkpt lat="40.7270760" lon="-3.3614910">
        <ele>810.8</ele>
        <time>2022-07-31T17:52:40Z</time>
      </trkpt>
      <trkpt lat="40.7270120" lon="-3.3614550">
        <ele>810.5</ele>
        <time>2022-07-31T17:52:41Z</time>
      </trkpt>
      <trkpt lat="40.7269430" lon="-3.3614320">
        <ele>810.2</ele>
        <time>2022-07-31T17:52:42Z</time>
      </trkpt>
      <trkpt lat="40.7268760" lon="-3.3614240">
        <ele>810.0</ele>
        <time>2022-07-31T17:52:43Z</time>
      </trkpt>
      <trkpt lat="40.7268030" lon="-3.3613940">
        <ele>809.7</ele>
        <time>2022-07-31T17:52:44Z</time>
      </trkpt>
      <trkpt lat="40.7267330" lon="-3.3613720">
        <ele>809.5</ele>
        <time>2022-07-31T17:52:45Z</time>
      </trkpt>
      <trkpt lat="40.7266650" lon="-3.3613440">
        <ele>809.3</ele>
        <time>2022-07-31T17:52:46Z</time>
      </trkpt>
      <trkpt lat="40.7266050" lon="-3.3613220">
        <ele>809.1</ele>
        <time>2022-07-31T17:52:47Z</time>
      </trkpt>
      <trkpt lat="40.7265480" lon="-3.3612980">
        <ele>809.0</ele>
        <time>2022-07-31T17:52:48Z</time>
      </trkpt>
      <trkpt lat="40.7264830" lon="-3.3612780">
        <ele>808.9</ele>
        <time>2022-07-31T17:52:49Z</time>
      </trkpt>
      <trkpt lat="40.7264150" lon="-3.3612540">
        <ele>808.8</ele>
        <time>2022-07-31T17:52:50Z</time>
      </trkpt>
      <trkpt lat="40.7263550" lon="-3.3612280">
        <ele>808.7</ele>
        <time>2022-07-31T17:52:51Z</time>
      </trkpt>
      <trkpt lat="40.7262940" lon="-3.3612070">
        <ele>808.6</ele>
        <time>2022-07-31T17:52:52Z</time>
      </trkpt>
      <trkpt lat="40.7262360" lon="-3.3611810">
        <ele>808.5</ele>
        <time>2022-07-31T17:52:53Z</time>
      </trkpt>
      <trkpt lat="40.7261820" lon="-3.3611580">
        <ele>808.4</ele>
        <time>2022-07-31T17:52:54Z</time>
      </trkpt>
      <trkpt lat="40.7261240" lon="-3.3611400">
        <ele>808.3</ele>
        <time>2022-07-31T17:52:55Z</time>
      </trkpt>
      <trkpt lat="40.7260600" lon="-3.3611140">
        <ele>808.2</ele>
        <time>2022-07-31T17:52:56Z</time>
      </trkpt>
      <trkpt lat="40.7260030" lon="-3.3610910">
        <ele>808.0</ele>
        <time>2022-07-31T17:52:57Z</time>
      </trkpt>
      <trkpt lat="40.7259390" lon="-3.3610630">
        <ele>807.9</ele>
        <time>2022-07-31T17:52:58Z</time>
      </trkpt>
      <trkpt lat="40.7258770" lon="-3.3610410">
        <ele>807.7</ele>
        <time>2022-07-31T17:52:59Z</time>
      </trkpt>
      <trkpt lat="40.7258120" lon="-3.3610180">
        <ele>807.6</ele>
        <time>2022-07-31T17:53:00Z</time>
      </trkpt>
      <trkpt lat="40.7257490" lon="-3.3609960">
        <ele>807.5</ele>
        <time>2022-07-31T17:53:01Z</time>
      </trkpt>
      <trkpt lat="40.7256870" lon="-3.3609850">
        <ele>807.3</ele>
        <time>2022-07-31T17:53:02Z</time>
      </trkpt>
      <trkpt lat="40.7256230" lon="-3.3609630">
        <ele>807.2</ele>
        <time>2022-07-31T17:53:03Z</time>
      </trkpt>
      <trkpt lat="40.7255670" lon="-3.3609400">
        <ele>807.1</ele>
        <time>2022-07-31T17:53:04Z</time>
      </trkpt>
      <trkpt lat="40.7255070" lon="-3.3609140">
        <ele>806.9</ele>
        <time>2022-07-31T17:53:05Z</time>
      </trkpt>
      <trkpt lat="40.7254510" lon="-3.3608890">
        <ele>806.8</ele>
        <time>2022-07-31T17:53:06Z</time>
      </trkpt>
      <trkpt lat="40.7253890" lon="-3.3608630">
        <ele>806.6</ele>
        <time>2022-07-31T17:53:07Z</time>
      </trkpt>
      <trkpt lat="40.7253320" lon="-3.3608390">
        <ele>806.5</ele>
        <time>2022-07-31T17:53:08Z</time>
      </trkpt>
      <trkpt lat="40.7252750" lon="-3.3608100">
        <ele>806.3</ele>
        <time>2022-07-31T17:53:09Z</time>
      </trkpt>
      <trkpt lat="40.7252170" lon="-3.3607680">
        <ele>806.1</ele>
        <time>2022-07-31T17:53:10Z</time>
      </trkpt>
      <trkpt lat="40.7251660" lon="-3.3607290">
        <ele>805.9</ele>
        <time>2022-07-31T17:53:11Z</time>
      </trkpt>
      <trkpt lat="40.7251230" lon="-3.3606900">
        <ele>805.7</ele>
        <time>2022-07-31T17:53:12Z</time>
      </trkpt>
      <trkpt lat="40.7250750" lon="-3.3606570">
        <ele>805.5</ele>
        <time>2022-07-31T17:53:13Z</time>
      </trkpt>
      <trkpt lat="40.7250290" lon="-3.3606190">
        <ele>805.3</ele>
        <time>2022-07-31T17:53:14Z</time>
      </trkpt>
      <trkpt lat="40.7249820" lon="-3.3605750">
        <ele>805.1</ele>
        <time>2022-07-31T17:53:15Z</time>
      </trkpt>
      <trkpt lat="40.7249320" lon="-3.3605360">
        <ele>804.8</ele>
        <time>2022-07-31T17:53:16Z</time>
      </trkpt>
      <trkpt lat="40.7248830" lon="-3.3604870">
        <ele>804.4</ele>
        <time>2022-07-31T17:53:17Z</time>
      </trkpt>
      <trkpt lat="40.7248340" lon="-3.3604370">
        <ele>804.1</ele>
        <time>2022-07-31T17:53:18Z</time>
      </trkpt>
      <trkpt lat="40.7247830" lon="-3.3603930">
        <ele>803.7</ele>
        <time>2022-07-31T17:53:19Z</time>
      </trkpt>
      <trkpt lat="40.7247350" lon="-3.3603330">
        <ele>803.3</ele>
        <time>2022-07-31T17:53:20Z</time>
      </trkpt>
      <trkpt lat="40.7246930" lon="-3.3602750">
        <ele>802.9</ele>
        <time>2022-07-31T17:53:21Z</time>
      </trkpt>
      <trkpt lat="40.7246530" lon="-3.3602180">
        <ele>802.5</ele>
        <time>2022-07-31T17:53:22Z</time>
      </trkpt>
      <trkpt lat="40.7246120" lon="-3.3601580">
        <ele>802.1</ele>
        <time>2022-07-31T17:53:23Z</time>
      </trkpt>
      <trkpt lat="40.7245670" lon="-3.3600890">
        <ele>801.6</ele>
        <time>2022-07-31T17:53:24Z</time>
      </trkpt>
      <trkpt lat="40.7245170" lon="-3.3600270">
        <ele>801.1</ele>
        <time>2022-07-31T17:53:25Z</time>
      </trkpt>
      <trkpt lat="40.7244600" lon="-3.3599670">
        <ele>800.5</ele>
        <time>2022-07-31T17:53:26Z</time>
      </trkpt>
      <trkpt lat="40.7243980" lon="-3.3598980">
        <ele>799.8</ele>
        <time>2022-07-31T17:53:27Z</time>
      </trkpt>
      <trkpt lat="40.7243200" lon="-3.3598390">
        <ele>799.1</ele>
        <time>2022-07-31T17:53:28Z</time>
      </trkpt>
      <trkpt lat="40.7242420" lon="-3.3597830">
        <ele>798.4</ele>
        <time>2022-07-31T17:53:29Z</time>
      </trkpt>
      <trkpt lat="40.7241600" lon="-3.3597300">
        <ele>797.7</ele>
        <time>2022-07-31T17:53:30Z</time>
      </trkpt>
      <trkpt lat="40.7240750" lon="-3.3596820">
        <ele>797.0</ele>
        <time>2022-07-31T17:53:31Z</time>
      </trkpt>
      <trkpt lat="40.7239930" lon="-3.3596450">
        <ele>796.3</ele>
        <time>2022-07-31T17:53:32Z</time>
      </trkpt>
      <trkpt lat="40.7239100" lon="-3.3596060">
        <ele>795.7</ele>
        <time>2022-07-31T17:53:33Z</time>
      </trkpt>
      <trkpt lat="40.7238200" lon="-3.3595650">
        <ele>795.0</ele>
        <time>2022-07-31T17:53:34Z</time>
      </trkpt>
      <trkpt lat="40.7237290" lon="-3.3595250">
        <ele>794.3</ele>
        <time>2022-07-31T17:53:35Z</time>
      </trkpt>
      <trkpt lat="40.7236410" lon="-3.3594890">
        <ele>793.7</ele>
        <time>2022-07-31T17:53:36Z</time>
      </trkpt>
      <trkpt lat="40.7235490" lon="-3.3594600">
        <ele>793.2</ele>
        <time>2022-07-31T17:53:37Z</time>
      </trkpt>
      <trkpt lat="40.7234620" lon="-3.3594300">
        <ele>792.7</ele>
        <time>2022-07-31T17:53:38Z</time>
      </trkpt>
      <trkpt lat="40.7233690" lon="-3.3594080">
        <ele>792.1</ele>
        <time>2022-07-31T17:53:39Z</time>
      </trkpt>
      <trkpt lat="40.7232790" lon="-3.3593850">
        <ele>791.6</ele>
        <time>2022-07-31T17:53:40Z</time>
      </trkpt>
      <trkpt lat="40.7231930" lon="-3.3593690">
        <ele>791.1</ele>
        <time>2022-07-31T17:53:41Z</time>
      </trkpt>
      <trkpt lat="40.7231070" lon="-3.3593430">
        <ele>790.7</ele>
        <time>2022-07-31T17:53:42Z</time>
      </trkpt>
      <trkpt lat="40.7230200" lon="-3.3593200">
        <ele>790.3</ele>
        <time>2022-07-31T17:53:43Z</time>
      </trkpt>
      <trkpt lat="40.7229320" lon="-3.3592900">
        <ele>789.9</ele>
        <time>2022-07-31T17:53:44Z</time>
      </trkpt>
      <trkpt lat="40.7228460" lon="-3.3592540">
        <ele>789.6</ele>
        <time>2022-07-31T17:53:45Z</time>
      </trkpt>
      <trkpt lat="40.7227600" lon="-3.3592320">
        <ele>789.4</ele>
        <time>2022-07-31T17:53:46Z</time>
      </trkpt>
      <trkpt lat="40.7226750" lon="-3.3592070">
        <ele>789.2</ele>
        <time>2022-07-31T17:53:47Z</time>
      </trkpt>
      <trkpt lat="40.7225940" lon="-3.3591820">
        <ele>789.0</ele>
        <time>2022-07-31T17:53:48Z</time>
      </trkpt>
      <trkpt lat="40.7225160" lon="-3.3591720">
        <ele>788.8</ele>
        <time>2022-07-31T17:53:49Z</time>
      </trkpt>
      <trkpt lat="40.7224470" lon="-3.3591710">
        <ele>788.6</ele>
        <time>2022-07-31T17:53:50Z</time>
      </trkpt>
      <trkpt lat="40.7223860" lon="-3.3591960">
        <ele>788.3</ele>
        <time>2022-07-31T17:53:51Z</time>
      </trkpt>
      <trkpt lat="40.7223320" lon="-3.3592390">
        <ele>787.9</ele>
        <time>2022-07-31T17:53:52Z</time>
      </trkpt>
      <trkpt lat="40.7222830" lon="-3.3592890">
        <ele>787.5</ele>
        <time>2022-07-31T17:53:53Z</time>
      </trkpt>
      <trkpt lat="40.7222370" lon="-3.3593420">
        <ele>786.9</ele>
        <time>2022-07-31T17:53:54Z</time>
      </trkpt>
      <trkpt lat="40.7221890" lon="-3.3593810">
        <ele>786.4</ele>
        <time>2022-07-31T17:53:55Z</time>
      </trkpt>
      <trkpt lat="40.7221310" lon="-3.3594060">
        <ele>785.7</ele>
        <time>2022-07-31T17:53:56Z</time>
      </trkpt>
      <trkpt lat="40.7220600" lon="-3.3594100">
        <ele>784.9</ele>
        <time>2022-07-31T17:53:57Z</time>
      </trkpt>
      <trkpt lat="40.7219880" lon="-3.3594080">
        <ele>784.1</ele>
        <time>2022-07-31T17:53:58Z</time>
      </trkpt>
      <trkpt lat="40.7219220" lon="-3.3594060">
        <ele>783.4</ele>
        <time>2022-07-31T17:53:59Z</time>
      </trkpt>
      <trkpt lat="40.7218550" lon="-3.3594040">
        <ele>782.7</ele>
        <time>2022-07-31T17:54:00Z</time>
      </trkpt>
      <trkpt lat="40.7217810" lon="-3.3593790">
        <ele>781.9</ele>
        <time>2022-07-31T17:54:01Z</time>
      </trkpt>
      <trkpt lat="40.7217020" lon="-3.3593440">
        <ele>781.2</ele>
        <time>2022-07-31T17:54:02Z</time>
      </trkpt>
      <trkpt lat="40.7216230" lon="-3.3592950">
        <ele>780.6</ele>
        <time>2022-07-31T17:54:03Z</time>
      </trkpt>
      <trkpt lat="40.7215530" lon="-3.3592250">
        <ele>780.2</ele>
        <time>2022-07-31T17:54:04Z</time>
      </trkpt>
      <trkpt lat="40.7214920" lon="-3.3591440">
        <ele>779.8</ele>
        <time>2022-07-31T17:54:05Z</time>
      </trkpt>
      <trkpt lat="40.7214490" lon="-3.3590510">
        <ele>779.6</ele>
        <time>2022-07-31T17:54:06Z</time>
      </trkpt>
      <trkpt lat="40.7214070" lon="-3.3589590">
        <ele>779.5</ele>
        <time>2022-07-31T17:54:07Z</time>
      </trkpt>
      <trkpt lat="40.7213910" lon="-3.3588580">
        <ele>779.5</ele>
        <time>2022-07-31T17:54:08Z</time>
      </trkpt>
      <trkpt lat="40.7213720" lon="-3.3587570">
        <ele>779.5</ele>
        <time>2022-07-31T17:54:09Z</time>
      </trkpt>
      <trkpt lat="40.7213560" lon="-3.3586650">
        <ele>779.5</ele>
        <time>2022-07-31T17:54:10Z</time>
      </trkpt>
      <trkpt lat="40.7213450" lon="-3.3585810">
        <ele>779.6</ele>
        <time>2022-07-31T17:54:11Z</time>
      </trkpt>
      <trkpt lat="40.7213480" lon="-3.3585070">
        <ele>779.6</ele>
        <time>2022-07-31T17:54:12Z</time>
      </trkpt>
      <trkpt lat="40.7213750" lon="-3.3584380">
        <ele>779.7</ele>
        <time>2022-07-31T17:54:13Z</time>
      </trkpt>
      <trkpt lat="40.7213960" lon="-3.3583730">
        <ele>779.7</ele>
        <time>2022-07-31T17:54:14Z</time>
      </trkpt>
      <trkpt lat="40.7214110" lon="-3.3583180">
        <ele>779.8</ele>
        <time>2022-07-31T17:54:15Z</time>
      </trkpt>
      <trkpt lat="40.7214030" lon="-3.3582670">
        <ele>779.8</ele>
        <time>2022-07-31T17:54:16Z</time>
      </trkpt>
      <trkpt lat="40.7213850" lon="-3.3582220">
        <ele>779.8</ele>
        <time>2022-07-31T17:54:17Z</time>
      </trkpt>
      <trkpt lat="40.7213640" lon="-3.3581880">
        <ele>779.8</ele>
        <time>2022-07-31T17:54:18Z</time>
      </trkpt>
      <trkpt lat="40.7213390" lon="-3.3581680">
        <ele>779.8</ele>
        <time>2022-07-31T17:54:19Z</time>
      </trkpt>
      <trkpt lat="40.7213040" lon="-3.3581610">
        <ele>779.8</ele>
        <time>2022-07-31T17:54:20Z</time>
      </trkpt>
      <trkpt lat="40.7212670" lon="-3.3581560">
        <ele>779.8</ele>
        <time>2022-07-31T17:54:21Z</time>
      </trkpt>
      <trkpt lat="40.7212300" lon="-3.3581450">
        <ele>779.8</ele>
        <time>2022-07-31T17:54:22Z</time>
      </trkpt>
      <trkpt lat="40.7211910" lon="-3.3581280">
        <ele>779.8</ele>
        <time>2022-07-31T17:54:23Z</time>
      </trkpt>
      <trkpt lat="40.7211520" lon="-3.3581030">
        <ele>779.8</ele>
        <time>2022-07-31T17:54:24Z</time>
      </trkpt>
      <trkpt lat="40.7211130" lon="-3.3580750">
        <ele>779.7</ele>
        <time>2022-07-31T17:54:25Z</time>
      </trkpt>
      <trkpt lat="40.7210730" lon="-3.3580430">
        <ele>779.7</ele>
        <time>2022-07-31T17:54:26Z</time>
      </trkpt>
      <trkpt lat="40.7210330" lon="-3.3580090">
        <ele>779.7</ele>
        <time>2022-07-31T17:54:27Z</time>
      </trkpt>
      <trkpt lat="40.7209970" lon="-3.3579670">
        <ele>779.7</ele>
        <time>2022-07-31T17:54:28Z</time>
      </trkpt>
      <trkpt lat="40.7209570" lon="-3.3579250">
        <ele>779.8</ele>
        <time>2022-07-31T17:54:29Z</time>
      </trkpt>
      <trkpt lat="40.7209170" lon="-3.3578820">
        <ele>779.8</ele>
        <time>2022-07-31T17:54:30Z</time>
      </trkpt>
      <trkpt lat="40.7208760" lon="-3.3578330">
        <ele>779.9</ele>
        <time>2022-07-31T17:54:31Z</time>
      </trkpt>
      <trkpt lat="40.7208360" lon="-3.3577880">
        <ele>779.9</ele>
        <time>2022-07-31T17:54:32Z</time>
      </trkpt>
      <trkpt lat="40.7208000" lon="-3.3577360">
        <ele>779.9</ele>
        <time>2022-07-31T17:54:33Z</time>
      </trkpt>
      <trkpt lat="40.7207700" lon="-3.3576950">
        <ele>780.0</ele>
        <time>2022-07-31T17:54:34Z</time>
      </trkpt>
      <trkpt lat="40.7207330" lon="-3.3576520">
        <ele>780.0</ele>
        <time>2022-07-31T17:54:35Z</time>
      </trkpt>
      <trkpt lat="40.7206940" lon="-3.3576050">
        <ele>780.0</ele>
        <time>2022-07-31T17:54:36Z</time>
      </trkpt>
      <trkpt lat="40.7206530" lon="-3.3575520">
        <ele>780.0</ele>
        <time>2022-07-31T17:54:37Z</time>
      </trkpt>
      <trkpt lat="40.7206230" lon="-3.3575020">
        <ele>780.0</ele>
        <time>2022-07-31T17:54:38Z</time>
      </trkpt>
      <trkpt lat="40.7205460" lon="-3.3574010">
        <ele>780.0</ele>
        <time>2022-07-31T17:54:39Z</time>
      </trkpt>
      <trkpt lat="40.7205050" lon="-3.3573490">
        <ele>780.0</ele>
        <time>2022-07-31T17:54:40Z</time>
      </trkpt>
      <trkpt lat="40.7204680" lon="-3.3573000">
        <ele>779.9</ele>
        <time>2022-07-31T17:54:41Z</time>
      </trkpt>
      <trkpt lat="40.7204360" lon="-3.3572510">
        <ele>779.8</ele>
        <time>2022-07-31T17:54:42Z</time>
      </trkpt>
      <trkpt lat="40.7203970" lon="-3.3571990">
        <ele>779.7</ele>
        <time>2022-07-31T17:54:43Z</time>
      </trkpt>
      <trkpt lat="40.7203560" lon="-3.3571520">
        <ele>779.6</ele>
        <time>2022-07-31T17:54:44Z</time>
      </trkpt>
      <trkpt lat="40.7203200" lon="-3.3571120">
        <ele>779.5</ele>
        <time>2022-07-31T17:54:45Z</time>
      </trkpt>
      <trkpt lat="40.7202740" lon="-3.3570670">
        <ele>779.4</ele>
        <time>2022-07-31T17:54:46Z</time>
      </trkpt>
      <trkpt lat="40.7202310" lon="-3.3570220">
        <ele>779.2</ele>
        <time>2022-07-31T17:54:47Z</time>
      </trkpt>
      <trkpt lat="40.7201850" lon="-3.3569830">
        <ele>779.1</ele>
        <time>2022-07-31T17:54:48Z</time>
      </trkpt>
      <trkpt lat="40.7201380" lon="-3.3569780">
        <ele>778.9</ele>
        <time>2022-07-31T17:54:49Z</time>
      </trkpt>
      <trkpt lat="40.7200850" lon="-3.3569740">
        <ele>778.7</ele>
        <time>2022-07-31T17:54:50Z</time>
      </trkpt>
      <trkpt lat="40.7200390" lon="-3.3569760">
        <ele>778.6</ele>
        <time>2022-07-31T17:54:51Z</time>
      </trkpt>
      <trkpt lat="40.7199860" lon="-3.3569870">
        <ele>778.4</ele>
        <time>2022-07-31T17:54:52Z</time>
      </trkpt>
      <trkpt lat="40.7199180" lon="-3.3569970">
        <ele>778.2</ele>
        <time>2022-07-31T17:54:53Z</time>
      </trkpt>
      <trkpt lat="40.7198450" lon="-3.3570030">
        <ele>778.1</ele>
        <time>2022-07-31T17:54:54Z</time>
      </trkpt>
      <trkpt lat="40.7197730" lon="-3.3570080">
        <ele>778.0</ele>
        <time>2022-07-31T17:54:55Z</time>
      </trkpt>
      <trkpt lat="40.7197110" lon="-3.3570030">
        <ele>777.9</ele>
        <time>2022-07-31T17:54:56Z</time>
      </trkpt>
      <trkpt lat="40.7196510" lon="-3.3569940">
        <ele>777.9</ele>
        <time>2022-07-31T17:54:57Z</time>
      </trkpt>
      <trkpt lat="40.7195870" lon="-3.3569870">
        <ele>777.8</ele>
        <time>2022-07-31T17:54:58Z</time>
      </trkpt>
      <trkpt lat="40.7195210" lon="-3.3569790">
        <ele>777.7</ele>
        <time>2022-07-31T17:54:59Z</time>
      </trkpt>
      <trkpt lat="40.7194640" lon="-3.3569660">
        <ele>777.7</ele>
        <time>2022-07-31T17:55:00Z</time>
      </trkpt>
      <trkpt lat="40.7194060" lon="-3.3569510">
        <ele>777.6</ele>
        <time>2022-07-31T17:55:01Z</time>
      </trkpt>
      <trkpt lat="40.7193520" lon="-3.3569380">
        <ele>777.5</ele>
        <time>2022-07-31T17:55:02Z</time>
      </trkpt>
      <trkpt lat="40.7193040" lon="-3.3569340">
        <ele>777.4</ele>
        <time>2022-07-31T17:55:03Z</time>
      </trkpt>
      <trkpt lat="40.7192470" lon="-3.3569350">
        <ele>777.3</ele>
        <time>2022-07-31T17:55:04Z</time>
      </trkpt>
      <trkpt lat="40.7191890" lon="-3.3569410">
        <ele>777.2</ele>
        <time>2022-07-31T17:55:05Z</time>
      </trkpt>
      <trkpt lat="40.7191350" lon="-3.3569440">
        <ele>777.1</ele>
        <time>2022-07-31T17:55:06Z</time>
      </trkpt>
      <trkpt lat="40.7190790" lon="-3.3569480">
        <ele>776.9</ele>
        <time>2022-07-31T17:55:07Z</time>
      </trkpt>
      <trkpt lat="40.7190160" lon="-3.3569550">
        <ele>776.8</ele>
        <time>2022-07-31T17:55:08Z</time>
      </trkpt>
      <trkpt lat="40.7189520" lon="-3.3569600">
        <ele>776.6</ele>
        <time>2022-07-31T17:55:09Z</time>
      </trkpt>
      <trkpt lat="40.7188850" lon="-3.3569610">
        <ele>776.4</ele>
        <time>2022-07-31T17:55:10Z</time>
      </trkpt>
      <trkpt lat="40.7188220" lon="-3.3569590">
        <ele>776.2</ele>
        <time>2022-07-31T17:55:11Z</time>
      </trkpt>
      <trkpt lat="40.7187710" lon="-3.3569530">
        <ele>776.1</ele>
        <time>2022-07-31T17:55:12Z</time>
      </trkpt>
      <trkpt lat="40.7187150" lon="-3.3569420">
        <ele>775.9</ele>
        <time>2022-07-31T17:55:13Z</time>
      </trkpt>
      <trkpt lat="40.7186500" lon="-3.3569330">
        <ele>775.7</ele>
        <time>2022-07-31T17:55:14Z</time>
      </trkpt>
      <trkpt lat="40.7185910" lon="-3.3569160">
        <ele>775.5</ele>
        <time>2022-07-31T17:55:15Z</time>
      </trkpt>
      <trkpt lat="40.7185210" lon="-3.3568980">
        <ele>775.4</ele>
        <time>2022-07-31T17:55:16Z</time>
      </trkpt>
      <trkpt lat="40.7184500" lon="-3.3568800">
        <ele>775.2</ele>
        <time>2022-07-31T17:55:17Z</time>
      </trkpt>
      <trkpt lat="40.7183760" lon="-3.3568630">
        <ele>775.0</ele>
        <time>2022-07-31T17:55:18Z</time>
      </trkpt>
      <trkpt lat="40.7183060" lon="-3.3568490">
        <ele>774.9</ele>
        <time>2022-07-31T17:55:19Z</time>
      </trkpt>
      <trkpt lat="40.7182450" lon="-3.3568400">
        <ele>774.8</ele>
        <time>2022-07-31T17:55:20Z</time>
      </trkpt>
      <trkpt lat="40.7181940" lon="-3.3568350">
        <ele>774.7</ele>
        <time>2022-07-31T17:55:21Z</time>
      </trkpt>
      <trkpt lat="40.7181400" lon="-3.3568280">
        <ele>774.6</ele>
        <time>2022-07-31T17:55:22Z</time>
      </trkpt>
      <trkpt lat="40.7180850" lon="-3.3568280">
        <ele>774.4</ele>
        <time>2022-07-31T17:55:23Z</time>
      </trkpt>
      <trkpt lat="40.7180160" lon="-3.3568290">
        <ele>774.2</ele>
        <time>2022-07-31T17:55:24Z</time>
      </trkpt>
      <trkpt lat="40.7179590" lon="-3.3568330">
        <ele>774.0</ele>
        <time>2022-07-31T17:55:25Z</time>
      </trkpt>
      <trkpt lat="40.7178960" lon="-3.3568300">
        <ele>773.8</ele>
        <time>2022-07-31T17:55:26Z</time>
      </trkpt>
      <trkpt lat="40.7178310" lon="-3.3568260">
        <ele>773.6</ele>
        <time>2022-07-31T17:55:27Z</time>
      </trkpt>
      <trkpt lat="40.7177640" lon="-3.3568190">
        <ele>773.4</ele>
        <time>2022-07-31T17:55:28Z</time>
      </trkpt>
      <trkpt lat="40.7176970" lon="-3.3568090">
        <ele>773.3</ele>
        <time>2022-07-31T17:55:29Z</time>
      </trkpt>
      <trkpt lat="40.7176350" lon="-3.3567880">
        <ele>773.3</ele>
        <time>2022-07-31T17:55:30Z</time>
      </trkpt>
      <trkpt lat="40.7175730" lon="-3.3567740">
        <ele>773.2</ele>
        <time>2022-07-31T17:55:31Z</time>
      </trkpt>
      <trkpt lat="40.7175300" lon="-3.3567580">
        <ele>773.2</ele>
        <time>2022-07-31T17:55:32Z</time>
      </trkpt>
      <trkpt lat="40.7174950" lon="-3.3567440">
        <ele>773.1</ele>
        <time>2022-07-31T17:55:33Z</time>
      </trkpt>
      <trkpt lat="40.7174680" lon="-3.3567420">
        <ele>773.1</ele>
        <time>2022-07-31T17:55:34Z</time>
      </trkpt>
      <trkpt lat="40.7174380" lon="-3.3567350">
        <ele>773.1</ele>
        <time>2022-07-31T17:55:35Z</time>
      </trkpt>
      <trkpt lat="40.7174250" lon="-3.3567320">
        <ele>773.1</ele>
        <time>2022-07-31T17:55:36Z</time>
      </trkpt>
      <trkpt lat="40.7174210" lon="-3.3567360">
        <ele>773.1</ele>
        <time>2022-07-31T17:55:37Z</time>
      </trkpt>
      <trkpt lat="40.7174030" lon="-3.3567370">
        <ele>773.1</ele>
        <time>2022-07-31T17:55:38Z</time>
      </trkpt>
      <trkpt lat="40.7173960" lon="-3.3567340">
        <ele>773.1</ele>
        <time>2022-07-31T17:55:39Z</time>
      </trkpt>
      <trkpt lat="40.7173960" lon="-3.3567310">
        <ele>773.1</ele>
        <time>2022-07-31T17:55:40Z</time>
      </trkpt>
      <trkpt lat="40.7173950" lon="-3.3567280">
        <ele>773.1</ele>
        <time>2022-07-31T17:55:41Z</time>
      </trkpt>
      <trkpt lat="40.7173940" lon="-3.3567250">
        <ele>773.1</ele>
        <time>2022-07-31T17:55:42Z</time>
      </trkpt>
      <trkpt lat="40.7173930" lon="-3.3567220">
        <ele>773.1</ele>
        <time>2022-07-31T17:55:43Z</time>
      </trkpt>
      <trkpt lat="40.7173930" lon="-3.3567190">
        <ele>773.1</ele>
        <time>2022-07-31T17:55:44Z</time>
      </trkpt>
      <trkpt lat="40.7173920" lon="-3.3567160">
        <ele>773.1</ele>
        <time>2022-07-31T17:55:45Z</time>
      </trkpt>
      <trkpt lat="40.7173910" lon="-3.3567130">
        <ele>773.1</ele>
        <time>2022-07-31T17:55:46Z</time>
      </trkpt>
      <trkpt lat="40.7173900" lon="-3.3567100">
        <ele>773.1</ele>
        <time>2022-07-31T17:55:47Z</time>
      </trkpt>
      <trkpt lat="40.7173900" lon="-3.3567070">
        <ele>773.2</ele>
        <time>2022-07-31T17:55:48Z</time>
      </trkpt>
      <trkpt lat="40.7173890" lon="-3.3567030">
        <ele>773.2</ele>
        <time>2022-07-31T17:56:06Z</time>
      </trkpt>
      <trkpt lat="40.7173880" lon="-3.3567000">
        <ele>773.2</ele>
        <time>2022-07-31T17:56:07Z</time>
      </trkpt>
      <trkpt lat="40.7173870" lon="-3.3566970">
        <ele>773.2</ele>
        <time>2022-07-31T17:56:08Z</time>
      </trkpt>
      <trkpt lat="40.7173530" lon="-3.3566940">
        <ele>773.2</ele>
        <time>2022-07-31T17:56:09Z</time>
      </trkpt>
      <trkpt lat="40.7173190" lon="-3.3566790">
        <ele>773.2</ele>
        <time>2022-07-31T17:56:10Z</time>
      </trkpt>
      <trkpt lat="40.7172810" lon="-3.3566650">
        <ele>773.2</ele>
        <time>2022-07-31T17:56:11Z</time>
      </trkpt>
      <trkpt lat="40.7172660" lon="-3.3566550">
        <ele>773.2</ele>
        <time>2022-07-31T17:56:12Z</time>
      </trkpt>
      <trkpt lat="40.7172320" lon="-3.3566300">
        <ele>773.2</ele>
        <time>2022-07-31T17:56:13Z</time>
      </trkpt>
      <trkpt lat="40.7171990" lon="-3.3566100">
        <ele>773.3</ele>
        <time>2022-07-31T17:56:14Z</time>
      </trkpt>
      <trkpt lat="40.7171660" lon="-3.3565850">
        <ele>773.3</ele>
        <time>2022-07-31T17:56:15Z</time>
      </trkpt>
      <trkpt lat="40.7171340" lon="-3.3565690">
        <ele>773.2</ele>
        <time>2022-07-31T17:56:16Z</time>
      </trkpt>
      <trkpt lat="40.7171020" lon="-3.3565430">
        <ele>773.2</ele>
        <time>2022-07-31T17:56:17Z</time>
      </trkpt>
      <trkpt lat="40.7170660" lon="-3.3565220">
        <ele>773.1</ele>
        <time>2022-07-31T17:56:18Z</time>
      </trkpt>
      <trkpt lat="40.7170340" lon="-3.3565030">
        <ele>773.1</ele>
        <time>2022-07-31T17:56:19Z</time>
      </trkpt>
      <trkpt lat="40.7169960" lon="-3.3564860">
        <ele>773.0</ele>
        <time>2022-07-31T17:56:20Z</time>
      </trkpt>
      <trkpt lat="40.7169570" lon="-3.3564680">
        <ele>772.9</ele>
        <time>2022-07-31T17:56:21Z</time>
      </trkpt>
      <trkpt lat="40.7169130" lon="-3.3564570">
        <ele>772.7</ele>
        <time>2022-07-31T17:56:22Z</time>
      </trkpt>
      <trkpt lat="40.7168650" lon="-3.3564470">
        <ele>772.6</ele>
        <time>2022-07-31T17:56:23Z</time>
      </trkpt>
      <trkpt lat="40.7168160" lon="-3.3564350">
        <ele>772.4</ele>
        <time>2022-07-31T17:56:24Z</time>
      </trkpt>
      <trkpt lat="40.7167650" lon="-3.3564390">
        <ele>772.2</ele>
        <time>2022-07-31T17:56:25Z</time>
      </trkpt>
      <trkpt lat="40.7167020" lon="-3.3564400">
        <ele>772.0</ele>
        <time>2022-07-31T17:56:26Z</time>
      </trkpt>
      <trkpt lat="40.7166350" lon="-3.3564330">
        <ele>771.7</ele>
        <time>2022-07-31T17:56:27Z</time>
      </trkpt>
      <trkpt lat="40.7165760" lon="-3.3564060">
        <ele>771.4</ele>
        <time>2022-07-31T17:56:28Z</time>
      </trkpt>
      <trkpt lat="40.7165190" lon="-3.3563980">
        <ele>771.1</ele>
        <time>2022-07-31T17:56:29Z</time>
      </trkpt>
      <trkpt lat="40.7164580" lon="-3.3563710">
        <ele>770.9</ele>
        <time>2022-07-31T17:56:30Z</time>
      </trkpt>
      <trkpt lat="40.7164020" lon="-3.3563410">
        <ele>770.7</ele>
        <time>2022-07-31T17:56:31Z</time>
      </trkpt>
      <trkpt lat="40.7163440" lon="-3.3563060">
        <ele>770.6</ele>
        <time>2022-07-31T17:56:32Z</time>
      </trkpt>
      <trkpt lat="40.7162790" lon="-3.3562740">
        <ele>770.4</ele>
        <time>2022-07-31T17:56:33Z</time>
      </trkpt>
      <trkpt lat="40.7162210" lon="-3.3562400">
        <ele>770.3</ele>
        <time>2022-07-31T17:56:34Z</time>
      </trkpt>
      <trkpt lat="40.7161580" lon="-3.3562050">
        <ele>770.1</ele>
        <time>2022-07-31T17:56:35Z</time>
      </trkpt>
      <trkpt lat="40.7160980" lon="-3.3561590">
        <ele>770.0</ele>
        <time>2022-07-31T17:56:36Z</time>
      </trkpt>
      <trkpt lat="40.7160470" lon="-3.3561200">
        <ele>769.9</ele>
        <time>2022-07-31T17:56:37Z</time>
      </trkpt>
      <trkpt lat="40.7159960" lon="-3.3560760">
        <ele>769.7</ele>
        <time>2022-07-31T17:56:38Z</time>
      </trkpt>
      <trkpt lat="40.7159450" lon="-3.3560240">
        <ele>769.6</ele>
        <time>2022-07-31T17:56:39Z</time>
      </trkpt>
      <trkpt lat="40.7158900" lon="-3.3559600">
        <ele>769.4</ele>
        <time>2022-07-31T17:56:40Z</time>
      </trkpt>
      <trkpt lat="40.7158480" lon="-3.3558960">
        <ele>769.2</ele>
        <time>2022-07-31T17:56:41Z</time>
      </trkpt>
      <trkpt lat="40.7158100" lon="-3.3558390">
        <ele>769.1</ele>
        <time>2022-07-31T17:56:42Z</time>
      </trkpt>
      <trkpt lat="40.7157670" lon="-3.3557890">
        <ele>768.9</ele>
        <time>2022-07-31T17:56:43Z</time>
      </trkpt>
      <trkpt lat="40.7157210" lon="-3.3557300">
        <ele>768.8</ele>
        <time>2022-07-31T17:56:44Z</time>
      </trkpt>
      <trkpt lat="40.7156800" lon="-3.3556700">
        <ele>768.7</ele>
        <time>2022-07-31T17:56:45Z</time>
      </trkpt>
      <trkpt lat="40.7156450" lon="-3.3556080">
        <ele>768.6</ele>
        <time>2022-07-31T17:56:46Z</time>
      </trkpt>
      <trkpt lat="40.7156080" lon="-3.3555370">
        <ele>768.5</ele>
        <time>2022-07-31T17:56:47Z</time>
      </trkpt>
      <trkpt lat="40.7155720" lon="-3.3554790">
        <ele>768.5</ele>
        <time>2022-07-31T17:56:48Z</time>
      </trkpt>
      <trkpt lat="40.7155350" lon="-3.3554000">
        <ele>768.4</ele>
        <time>2022-07-31T17:56:49Z</time>
      </trkpt>
      <trkpt lat="40.7155060" lon="-3.3553480">
        <ele>768.4</ele>
        <time>2022-07-31T17:56:50Z</time>
      </trkpt>
      <trkpt lat="40.7154680" lon="-3.3553040">
        <ele>768.4</ele>
        <time>2022-07-31T17:56:51Z</time>
      </trkpt>
      <trkpt lat="40.7154270" lon="-3.3552610">
        <ele>768.4</ele>
        <time>2022-07-31T17:56:52Z</time>
      </trkpt>
      <trkpt lat="40.7153810" lon="-3.3552130">
        <ele>768.4</ele>
        <time>2022-07-31T17:56:53Z</time>
      </trkpt>
      <trkpt lat="40.7153440" lon="-3.3551780">
        <ele>768.3</ele>
        <time>2022-07-31T17:56:54Z</time>
      </trkpt>
      <trkpt lat="40.7153020" lon="-3.3551400">
        <ele>768.3</ele>
        <time>2022-07-31T17:56:55Z</time>
      </trkpt>
      <trkpt lat="40.7152600" lon="-3.3551030">
        <ele>768.3</ele>
        <time>2022-07-31T17:56:56Z</time>
      </trkpt>
      <trkpt lat="40.7152090" lon="-3.3550560">
        <ele>768.3</ele>
        <time>2022-07-31T17:56:57Z</time>
      </trkpt>
      <trkpt lat="40.7151590" lon="-3.3550180">
        <ele>768.3</ele>
        <time>2022-07-31T17:56:58Z</time>
      </trkpt>
      <trkpt lat="40.7151120" lon="-3.3549630">
        <ele>768.4</ele>
        <time>2022-07-31T17:56:59Z</time>
      </trkpt>
      <trkpt lat="40.7150740" lon="-3.3549230">
        <ele>768.5</ele>
        <time>2022-07-31T17:57:00Z</time>
      </trkpt>
      <trkpt lat="40.7150240" lon="-3.3548770">
        <ele>768.6</ele>
        <time>2022-07-31T17:57:01Z</time>
      </trkpt>
      <trkpt lat="40.7149780" lon="-3.3548440">
        <ele>768.8</ele>
        <time>2022-07-31T17:57:02Z</time>
      </trkpt>
      <trkpt lat="40.7149310" lon="-3.3548030">
        <ele>768.9</ele>
        <time>2022-07-31T17:57:03Z</time>
      </trkpt>
      <trkpt lat="40.7148910" lon="-3.3547670">
        <ele>769.0</ele>
        <time>2022-07-31T17:57:04Z</time>
      </trkpt>
      <trkpt lat="40.7148530" lon="-3.3547250">
        <ele>769.1</ele>
        <time>2022-07-31T17:57:05Z</time>
      </trkpt>
      <trkpt lat="40.7148120" lon="-3.3546660">
        <ele>769.3</ele>
        <time>2022-07-31T17:57:06Z</time>
      </trkpt>
      <trkpt lat="40.7147760" lon="-3.3546090">
        <ele>769.4</ele>
        <time>2022-07-31T17:57:07Z</time>
      </trkpt>
      <trkpt lat="40.7147420" lon="-3.3545430">
        <ele>769.6</ele>
        <time>2022-07-31T17:57:08Z</time>
      </trkpt>
      <trkpt lat="40.7147110" lon="-3.3544970">
        <ele>769.8</ele>
        <time>2022-07-31T17:57:09Z</time>
      </trkpt>
      <trkpt lat="40.7146870" lon="-3.3544480">
        <ele>769.9</ele>
        <time>2022-07-31T17:57:10Z</time>
      </trkpt>
      <trkpt lat="40.7146570" lon="-3.3543950">
        <ele>770.1</ele>
        <time>2022-07-31T17:57:11Z</time>
      </trkpt>
      <trkpt lat="40.7146320" lon="-3.3543570">
        <ele>770.2</ele>
        <time>2022-07-31T17:57:12Z</time>
      </trkpt>
      <trkpt lat="40.7146040" lon="-3.3543200">
        <ele>770.4</ele>
        <time>2022-07-31T17:57:13Z</time>
      </trkpt>
      <trkpt lat="40.7145780" lon="-3.3542800">
        <ele>770.6</ele>
        <time>2022-07-31T17:57:14Z</time>
      </trkpt>
      <trkpt lat="40.7145530" lon="-3.3542300">
        <ele>770.8</ele>
        <time>2022-07-31T17:57:15Z</time>
      </trkpt>
      <trkpt lat="40.7145320" lon="-3.3541830">
        <ele>771.1</ele>
        <time>2022-07-31T17:57:16Z</time>
      </trkpt>
      <trkpt lat="40.7145030" lon="-3.3541310">
        <ele>771.4</ele>
        <time>2022-07-31T17:57:17Z</time>
      </trkpt>
      <trkpt lat="40.7144730" lon="-3.3540800">
        <ele>771.7</ele>
        <time>2022-07-31T17:57:18Z</time>
      </trkpt>
      <trkpt lat="40.7144500" lon="-3.3540530">
        <ele>772.0</ele>
        <time>2022-07-31T17:57:19Z</time>
      </trkpt>
      <trkpt lat="40.7144220" lon="-3.3540290">
        <ele>772.3</ele>
        <time>2022-07-31T17:57:20Z</time>
      </trkpt>
      <trkpt lat="40.7143900" lon="-3.3539920">
        <ele>772.6</ele>
        <time>2022-07-31T17:57:21Z</time>
      </trkpt>
      <trkpt lat="40.7143620" lon="-3.3539620">
        <ele>773.0</ele>
        <time>2022-07-31T17:57:22Z</time>
      </trkpt>
      <trkpt lat="40.7143520" lon="-3.3539510">
        <ele>773.1</ele>
        <time>2022-07-31T17:57:23Z</time>
      </trkpt>
      <trkpt lat="40.7143240" lon="-3.3539130">
        <ele>773.5</ele>
        <time>2022-07-31T17:57:24Z</time>
      </trkpt>
      <trkpt lat="40.7143140" lon="-3.3539020">
        <ele>773.6</ele>
        <time>2022-07-31T17:57:25Z</time>
      </trkpt>
      <trkpt lat="40.7142980" lon="-3.3538960">
        <ele>773.8</ele>
        <time>2022-07-31T17:57:26Z</time>
      </trkpt>
      <trkpt lat="40.7142910" lon="-3.3538760">
        <ele>773.9</ele>
        <time>2022-07-31T17:57:27Z</time>
      </trkpt>
      <trkpt lat="40.7142630" lon="-3.3538500">
        <ele>774.2</ele>
        <time>2022-07-31T17:57:28Z</time>
      </trkpt>
      <trkpt lat="40.7142520" lon="-3.3538440">
        <ele>774.3</ele>
        <time>2022-07-31T17:57:29Z</time>
      </trkpt>
      <trkpt lat="40.7142240" lon="-3.3538320">
        <ele>774.6</ele>
        <time>2022-07-31T17:57:30Z</time>
      </trkpt>
      <trkpt lat="40.7142050" lon="-3.3538010">
        <ele>774.8</ele>
        <time>2022-07-31T17:57:31Z</time>
      </trkpt>
      <trkpt lat="40.7141760" lon="-3.3537730">
        <ele>775.1</ele>
        <time>2022-07-31T17:57:32Z</time>
      </trkpt>
      <trkpt lat="40.7141670" lon="-3.3537620">
        <ele>775.2</ele>
        <time>2022-07-31T17:57:33Z</time>
      </trkpt>
      <trkpt lat="40.7141410" lon="-3.3537270">
        <ele>775.5</ele>
        <time>2022-07-31T17:57:34Z</time>
      </trkpt>
      <trkpt lat="40.7141330" lon="-3.3537120">
        <ele>775.6</ele>
        <time>2022-07-31T17:57:35Z</time>
      </trkpt>
      <trkpt lat="40.7141130" lon="-3.3536760">
        <ele>775.8</ele>
        <time>2022-07-31T17:57:36Z</time>
      </trkpt>
      <trkpt lat="40.7141110" lon="-3.3536610">
        <ele>775.9</ele>
        <time>2022-07-31T17:57:37Z</time>
      </trkpt>
      <trkpt lat="40.7140920" lon="-3.3536230">
        <ele>776.1</ele>
        <time>2022-07-31T17:57:38Z</time>
      </trkpt>
      <trkpt lat="40.7140850" lon="-3.3536080">
        <ele>776.1</ele>
        <time>2022-07-31T17:57:39Z</time>
      </trkpt>
      <trkpt lat="40.7140770" lon="-3.3535640">
        <ele>776.3</ele>
        <time>2022-07-31T17:57:40Z</time>
      </trkpt>
      <trkpt lat="40.7140750" lon="-3.3535500">
        <ele>776.4</ele>
        <time>2022-07-31T17:57:41Z</time>
      </trkpt>
      <trkpt lat="40.7140660" lon="-3.3534960">
        <ele>776.5</ele>
        <time>2022-07-31T17:57:42Z</time>
      </trkpt>
      <trkpt lat="40.7140610" lon="-3.3534770">
        <ele>776.6</ele>
        <time>2022-07-31T17:57:43Z</time>
      </trkpt>
      <trkpt lat="40.7140450" lon="-3.3534240">
        <ele>776.7</ele>
        <time>2022-07-31T17:57:44Z</time>
      </trkpt>
      <trkpt lat="40.7140420" lon="-3.3534010">
        <ele>776.8</ele>
        <time>2022-07-31T17:57:45Z</time>
      </trkpt>
      <trkpt lat="40.7140260" lon="-3.3533680">
        <ele>776.9</ele>
        <time>2022-07-31T17:57:46Z</time>
      </trkpt>
      <trkpt lat="40.7140110" lon="-3.3533260">
        <ele>777.0</ele>
        <time>2022-07-31T17:57:47Z</time>
      </trkpt>
      <trkpt lat="40.7140010" lon="-3.3532750">
        <ele>777.2</ele>
        <time>2022-07-31T17:57:48Z</time>
      </trkpt>
      <trkpt lat="40.7139850" lon="-3.3532250">
        <ele>777.4</ele>
        <time>2022-07-31T17:57:49Z</time>
      </trkpt>
      <trkpt lat="40.7139670" lon="-3.3531770">
        <ele>777.5</ele>
        <time>2022-07-31T17:57:50Z</time>
      </trkpt>
      <trkpt lat="40.7139530" lon="-3.3531340">
        <ele>777.7</ele>
        <time>2022-07-31T17:57:51Z</time>
      </trkpt>
      <trkpt lat="40.7139350" lon="-3.3530860">
        <ele>778.0</ele>
        <time>2022-07-31T17:57:52Z</time>
      </trkpt>
      <trkpt lat="40.7139210" lon="-3.3530420">
        <ele>778.2</ele>
        <time>2022-07-31T17:57:53Z</time>
      </trkpt>
      <trkpt lat="40.7139040" lon="-3.3530050">
        <ele>778.4</ele>
        <time>2022-07-31T17:57:54Z</time>
      </trkpt>
      <trkpt lat="40.7138880" lon="-3.3529600">
        <ele>778.7</ele>
        <time>2022-07-31T17:57:55Z</time>
      </trkpt>
      <trkpt lat="40.7138770" lon="-3.3529200">
        <ele>778.9</ele>
        <time>2022-07-31T17:57:56Z</time>
      </trkpt>
      <trkpt lat="40.7138670" lon="-3.3528800">
        <ele>779.2</ele>
        <time>2022-07-31T17:57:57Z</time>
      </trkpt>
      <trkpt lat="40.7138420" lon="-3.3528470">
        <ele>779.5</ele>
        <time>2022-07-31T17:57:58Z</time>
      </trkpt>
      <trkpt lat="40.7138370" lon="-3.3528320">
        <ele>779.6</ele>
        <time>2022-07-31T17:57:59Z</time>
      </trkpt>
      <trkpt lat="40.7138340" lon="-3.3527910">
        <ele>779.8</ele>
        <time>2022-07-31T17:58:00Z</time>
      </trkpt>
      <trkpt lat="40.7138340" lon="-3.3527750">
        <ele>779.9</ele>
        <time>2022-07-31T17:58:01Z</time>
      </trkpt>
      <trkpt lat="40.7138350" lon="-3.3527340">
        <ele>780.2</ele>
        <time>2022-07-31T17:58:02Z</time>
      </trkpt>
      <trkpt lat="40.7138240" lon="-3.3526940">
        <ele>780.5</ele>
        <time>2022-07-31T17:58:03Z</time>
      </trkpt>
      <trkpt lat="40.7138190" lon="-3.3526800">
        <ele>780.6</ele>
        <time>2022-07-31T17:58:04Z</time>
      </trkpt>
      <trkpt lat="40.7138140" lon="-3.3526420">
        <ele>780.9</ele>
        <time>2022-07-31T17:58:05Z</time>
      </trkpt>
      <trkpt lat="40.7138010" lon="-3.3525990">
        <ele>781.3</ele>
        <time>2022-07-31T17:58:06Z</time>
      </trkpt>
      <trkpt lat="40.7137970" lon="-3.3525860">
        <ele>781.4</ele>
        <time>2022-07-31T17:58:07Z</time>
      </trkpt>
      <trkpt lat="40.7137880" lon="-3.3525430">
        <ele>781.7</ele>
        <time>2022-07-31T17:58:08Z</time>
      </trkpt>
      <trkpt lat="40.7137870" lon="-3.3525260">
        <ele>781.9</ele>
        <time>2022-07-31T17:58:09Z</time>
      </trkpt>
      <trkpt lat="40.7137820" lon="-3.3524890">
        <ele>782.1</ele>
        <time>2022-07-31T17:58:10Z</time>
      </trkpt>
      <trkpt lat="40.7137730" lon="-3.3524390">
        <ele>782.5</ele>
        <time>2022-07-31T17:58:11Z</time>
      </trkpt>
      <trkpt lat="40.7137700" lon="-3.3524220">
        <ele>782.6</ele>
        <time>2022-07-31T17:58:12Z</time>
      </trkpt>
      <trkpt lat="40.7137640" lon="-3.3523740">
        <ele>783.0</ele>
        <time>2022-07-31T17:58:13Z</time>
      </trkpt>
      <trkpt lat="40.7137620" lon="-3.3523580">
        <ele>783.1</ele>
        <time>2022-07-31T17:58:14Z</time>
      </trkpt>
      <trkpt lat="40.7137460" lon="-3.3523190">
        <ele>783.4</ele>
        <time>2022-07-31T17:58:15Z</time>
      </trkpt>
      <trkpt lat="40.7137390" lon="-3.3523050">
        <ele>783.5</ele>
        <time>2022-07-31T17:58:16Z</time>
      </trkpt>
      <trkpt lat="40.7137200" lon="-3.3522640">
        <ele>783.8</ele>
        <time>2022-07-31T17:58:17Z</time>
      </trkpt>
      <trkpt lat="40.7137130" lon="-3.3522490">
        <ele>783.9</ele>
        <time>2022-07-31T17:58:18Z</time>
      </trkpt>
      <trkpt lat="40.7137020" lon="-3.3522140">
        <ele>784.2</ele>
        <time>2022-07-31T17:58:19Z</time>
      </trkpt>
      <trkpt lat="40.7136980" lon="-3.3522020">
        <ele>784.2</ele>
        <time>2022-07-31T17:58:20Z</time>
      </trkpt>
      <trkpt lat="40.7136810" lon="-3.3521680">
        <ele>784.5</ele>
        <time>2022-07-31T17:58:21Z</time>
      </trkpt>
      <trkpt lat="40.7136740" lon="-3.3521570">
        <ele>784.5</ele>
        <time>2022-07-31T17:58:22Z</time>
      </trkpt>
      <trkpt lat="40.7136750" lon="-3.3521090">
        <ele>784.8</ele>
        <time>2022-07-31T17:58:23Z</time>
      </trkpt>
      <trkpt lat="40.7136500" lon="-3.3520890">
        <ele>785.0</ele>
        <time>2022-07-31T17:58:24Z</time>
      </trkpt>
      <trkpt lat="40.7136450" lon="-3.3520780">
        <ele>785.0</ele>
        <time>2022-07-31T17:58:25Z</time>
      </trkpt>
      <trkpt lat="40.7136190" lon="-3.3520570">
        <ele>785.1</ele>
        <time>2022-07-31T17:58:26Z</time>
      </trkpt>
      <trkpt lat="40.7136110" lon="-3.3520510">
        <ele>785.2</ele>
        <time>2022-07-31T17:58:27Z</time>
      </trkpt>
      <trkpt lat="40.713338" lon="-3.351796">
        <ele>781.695</ele>
        <time>2022-08-01T08:18:09Z</time>
      </trkpt>
      <trkpt lat="40.712281" lon="-3.350401">
        <ele>779.649</ele>
        <time>2022-08-01T08:18:19Z</time>
      </trkpt>
      <trkpt lat="40.712004" lon="-3.349757">
        <ele>775.823</ele>
        <time>2022-08-01T08:18:29Z</time>
      </trkpt>
      <trkpt lat="40.711516" lon="-3.349264">
        <ele>771.909</ele>
        <time>2022-08-01T08:18:39Z</time>
      </trkpt>
      <trkpt lat="40.711126" lon="-3.348792">
        <ele>771.020</ele>
        <time>2022-08-01T08:18:49Z</time>
      </trkpt>
      <trkpt lat="40.710670" lon="-3.348083">
        <ele>768.919</ele>
        <time>2022-08-01T08:18:59Z</time>
      </trkpt>
      <trkpt lat="40.710069" lon="-3.347547">
        <ele>765.588</ele>
        <time>2022-08-01T08:19:09Z</time>
      </trkpt>
      <trkpt lat="40.709548" lon="-3.346989">
        <ele>761.442</ele>
        <time>2022-08-01T08:19:19Z</time>
      </trkpt>
      <trkpt lat="40.708995" lon="-3.346496">
        <ele>760.486</ele>
        <time>2022-08-01T08:19:29Z</time>
      </trkpt>
      <trkpt lat="40.708767" lon="-3.346324">
        <ele>760.083</ele>
        <time>2022-08-01T08:19:39Z</time>
      </trkpt>
      <trkpt lat="40.708003" lon="-3.345315">
        <ele>760.013</ele>
        <time>2022-08-01T08:19:49Z</time>
      </trkpt>
      <trkpt lat="40.707401" lon="-3.344436">
        <ele>760.012</ele>
        <time>2022-08-01T08:19:59Z</time>
      </trkpt>
      <trkpt lat="40.706750" lon="-3.343728">
        <ele>760.086</ele>
        <time>2022-08-01T08:20:09Z</time>
      </trkpt>
      <trkpt lat="40.705807" lon="-3.342698">
        <ele>755.969</ele>
        <time>2022-08-01T08:20:19Z</time>
      </trkpt>
      <trkpt lat="40.705530" lon="-3.342462">
        <ele>754.804</ele>
        <time>2022-08-01T08:20:29Z</time>
      </trkpt>
      <trkpt lat="40.704912" lon="-3.342118">
        <ele>752.324</ele>
        <time>2022-08-01T08:20:39Z</time>
      </trkpt>
      <trkpt lat="40.704506" lon="-3.341732">
        <ele>752.009</ele>
        <time>2022-08-01T08:20:49Z</time>
      </trkpt>
      <trkpt lat="40.704310" lon="-3.341367">
        <ele>752.077</ele>
        <time>2022-08-01T08:20:59Z</time>
      </trkpt>
      <trkpt lat="40.704148" lon="-3.340809">
        <ele>752.046</ele>
        <time>2022-08-01T08:21:09Z</time>
      </trkpt>
      <trkpt lat="40.703237" lon="-3.340745">
        <ele>750.615</ele>
        <time>2022-08-01T08:21:19Z</time>
      </trkpt>
      <trkpt lat="40.702928" lon="-3.340595">
        <ele>750.559</ele>
        <time>2022-08-01T08:21:29Z</time>
      </trkpt>
      <trkpt lat="40.701350" lon="-3.339221">
        <ele>750.013</ele>
        <time>2022-08-01T08:21:39Z</time>
      </trkpt>
      <trkpt lat="40.699707" lon="-3.338921">
        <ele>742.180</ele>
        <time>2022-08-01T08:21:49Z</time>
      </trkpt>
      <trkpt lat="40.698844" lon="-3.338749">
        <ele>740.440</ele>
        <time>2022-08-01T08:21:59Z</time>
      </trkpt>
      <trkpt lat="40.698121" lon="-3.338481">
        <ele>740.019</ele>
        <time>2022-08-01T08:22:09Z</time>
      </trkpt>
      <trkpt lat="40.697372" lon="-3.338116">
        <ele>740.033</ele>
        <time>2022-08-01T08:22:19Z</time>
      </trkpt>
      <trkpt lat="40.696949" lon="-3.338127">
        <ele>740.024</ele>
        <time>2022-08-01T08:22:29Z</time>
      </trkpt>
      <trkpt lat="40.696778" lon="-3.338020">
        <ele>739.104</ele>
        <time>2022-08-01T08:22:39Z</time>
      </trkpt>
      <trkpt lat="40.696242" lon="-3.338234">
        <ele>736.314</ele>
        <time>2022-08-01T08:22:49Z</time>
      </trkpt>
      <trkpt lat="40.695827" lon="-3.338417">
        <ele>734.309</ele>
        <time>2022-08-01T08:22:59Z</time>
      </trkpt>
      <trkpt lat="40.696307" lon="-3.338782">
        <ele>738.183</ele>
        <time>2022-08-01T08:23:09Z</time>
      </trkpt>
      <trkpt lat="40.695583" lon="-3.338706">
        <ele>733.552</ele>
        <time>2022-08-01T08:23:19Z</time>
      </trkpt>
      <trkpt lat="40.695314" lon="-3.338342">
        <ele>731.381</ele>
        <time>2022-08-01T08:23:29Z</time>
      </trkpt>
      <trkpt lat="40.695339" lon="-3.338524">
        <ele>731.475</ele>
        <time>2022-08-01T08:23:39Z</time>
      </trkpt>
      <trkpt lat="40.694940" lon="-3.338889">
        <ele>731.239</ele>
        <time>2022-08-01T08:23:49Z</time>
      </trkpt>
      <trkpt lat="40.694224" lon="-3.339447">
        <ele>734.066</ele>
        <time>2022-08-01T08:23:59Z</time>
      </trkpt>
      <trkpt lat="40.693695" lon="-3.340123">
        <ele>735.756</ele>
        <time>2022-08-01T08:24:09Z</time>
      </trkpt>
      <trkpt lat="40.693207" lon="-3.340734">
        <ele>734.585</ele>
        <time>2022-08-01T08:24:19Z</time>
      </trkpt>
      <trkpt lat="40.692744" lon="-3.341421">
        <ele>734.089</ele>
        <time>2022-08-01T08:24:29Z</time>
      </trkpt>
      <trkpt lat="40.692321" lon="-3.342097">
        <ele>733.914</ele>
        <time>2022-08-01T08:24:39Z</time>
      </trkpt>
      <trkpt lat="40.691361" lon="-3.343062">
        <ele>731.954</ele>
        <time>2022-08-01T08:24:49Z</time>
      </trkpt>
      <trkpt lat="40.690938" lon="-3.343309">
        <ele>730.909</ele>
        <time>2022-08-01T08:24:59Z</time>
      </trkpt>
      <trkpt lat="40.689067" lon="-3.344489">
        <ele>730.609</ele>
        <time>2022-08-01T08:25:09Z</time>
      </trkpt>
      <trkpt lat="40.688831" lon="-3.344629">
        <ele>730.062</ele>
        <time>2022-08-01T08:25:19Z</time>
      </trkpt>
      <trkpt lat="40.686659" lon="-3.344650">
        <ele>723.751</ele>
        <time>2022-08-01T08:25:29Z</time>
      </trkpt>
      <trkpt lat="40.685544" lon="-3.344629">
        <ele>721.630</ele>
        <time>2022-08-01T08:25:39Z</time>
      </trkpt>
      <trkpt lat="40.684852" lon="-3.344607">
        <ele>720.624</ele>
        <time>2022-08-01T08:25:49Z</time>
      </trkpt>
      <trkpt lat="40.684633" lon="-3.344661">
        <ele>720.558</ele>
        <time>2022-08-01T08:25:59Z</time>
      </trkpt>
      <trkpt lat="40.684006" lon="-3.345112">
        <ele>720.065</ele>
        <time>2022-08-01T08:26:09Z</time>
      </trkpt>
      <trkpt lat="40.683445" lon="-3.345476">
        <ele>720.075</ele>
        <time>2022-08-01T08:26:19Z</time>
      </trkpt>
      <trkpt lat="40.682404" lon="-3.346217">
        <ele>719.054</ele>
        <time>2022-08-01T08:26:29Z</time>
      </trkpt>
      <trkpt lat="40.681403" lon="-3.346914">
        <ele>717.038</ele>
        <time>2022-08-01T08:26:39Z</time>
      </trkpt>
      <trkpt lat="40.680671" lon="-3.347440">
        <ele>717.341</ele>
        <time>2022-08-01T08:26:49Z</time>
      </trkpt>
      <trkpt lat="40.680345" lon="-3.347611">
        <ele>717.181</ele>
        <time>2022-08-01T08:26:59Z</time>
      </trkpt>
      <trkpt lat="40.679914" lon="-3.347665">
        <ele>716.409</ele>
        <time>2022-08-01T08:27:09Z</time>
      </trkpt>
      <trkpt lat="40.678498" lon="-3.347622">
        <ele>713.809</ele>
        <time>2022-08-01T08:27:19Z</time>
      </trkpt>
      <trkpt lat="40.677538" lon="-3.347590">
        <ele>714.095</ele>
        <time>2022-08-01T08:27:29Z</time>
      </trkpt>
      <trkpt lat="40.677115" lon="-3.347633">
        <ele>713.584</ele>
        <time>2022-08-01T08:27:39Z</time>
      </trkpt>
      <trkpt lat="40.674991" lon="-3.347869">
        <ele>710.023</ele>
        <time>2022-08-01T08:27:49Z</time>
      </trkpt>
      <trkpt lat="40.673518" lon="-3.348051">
        <ele>710.067</ele>
        <time>2022-08-01T08:27:59Z</time>
      </trkpt>
      <trkpt lat="40.673225" lon="-3.348116">
        <ele>710.061</ele>
        <time>2022-08-01T08:28:09Z</time>
      </trkpt>
      <trkpt lat="40.673079" lon="-3.348202">
        <ele>710.038</ele>
        <time>2022-08-01T08:28:19Z</time>
      </trkpt>
      <trkpt lat="40.672867" lon="-3.348395">
        <ele>710.048</ele>
        <time>2022-08-01T08:28:29Z</time>
      </trkpt>
      <trkpt lat="40.672355" lon="-3.349006">
        <ele>710.077</ele>
        <time>2022-08-01T08:28:39Z</time>
      </trkpt>
      <trkpt lat="40.671924" lon="-3.349510">
        <ele>710.091</ele>
        <time>2022-08-01T08:28:49Z</time>
      </trkpt>
      <trkpt lat="40.671053" lon="-3.350573">
        <ele>709.889</ele>
        <time>2022-08-01T08:28:59Z</time>
      </trkpt>
      <trkpt lat="40.670833" lon="-3.350798">
        <ele>709.006</ele>
        <time>2022-08-01T08:29:09Z</time>
      </trkpt>
      <trkpt lat="40.669889" lon="-3.351603">
        <ele>707.926</ele>
        <time>2022-08-01T08:29:19Z</time>
      </trkpt>
      <trkpt lat="40.668872" lon="-3.352482">
        <ele>707.009</ele>
        <time>2022-08-01T08:29:29Z</time>
      </trkpt>
      <trkpt lat="40.668685" lon="-3.352611">
        <ele>707.169</ele>
        <time>2022-08-01T08:29:39Z</time>
      </trkpt>
      <trkpt lat="40.668587" lon="-3.352922">
        <ele>707.468</ele>
        <time>2022-08-01T08:29:49Z</time>
      </trkpt>
      <trkpt lat="40.668441" lon="-3.353126">
        <ele>707.427</ele>
        <time>2022-08-01T08:29:59Z</time>
      </trkpt>
      <trkpt lat="40.668335" lon="-3.353748">
        <ele>708.061</ele>
        <time>2022-08-01T08:30:09Z</time>
      </trkpt>
      <trkpt lat="40.668107" lon="-3.355197">
        <ele>710.145</ele>
        <time>2022-08-01T08:30:19Z</time>
      </trkpt>
      <trkpt lat="40.667887" lon="-3.356634">
        <ele>712.342</ele>
        <time>2022-08-01T08:30:29Z</time>
      </trkpt>
      <trkpt lat="40.667643" lon="-3.358061">
        <ele>713.532</ele>
        <time>2022-08-01T08:30:39Z</time>
      </trkpt>
      <trkpt lat="40.667423" lon="-3.359252">
        <ele>714.231</ele>
        <time>2022-08-01T08:30:49Z</time>
      </trkpt>
      <trkpt lat="40.667179" lon="-3.360872">
        <ele>716.085</ele>
        <time>2022-08-01T08:30:59Z</time>
      </trkpt>
      <trkpt lat="40.667065" lon="-3.361570">
        <ele>716.896</ele>
        <time>2022-08-01T08:31:09Z</time>
      </trkpt>
      <trkpt lat="40.666789" lon="-3.363072">
        <ele>718.531</ele>
        <time>2022-08-01T08:31:19Z</time>
      </trkpt>
      <trkpt lat="40.666601" lon="-3.364413">
        <ele>720.024</ele>
        <time>2022-08-01T08:31:29Z</time>
      </trkpt>
      <trkpt lat="40.666365" lon="-3.365636">
        <ele>720.009</ele>
        <time>2022-08-01T08:31:39Z</time>
      </trkpt>
      <trkpt lat="40.666170" lon="-3.366956">
        <ele>720.090</ele>
        <time>2022-08-01T08:31:49Z</time>
      </trkpt>
      <trkpt lat="40.666056" lon="-3.367642">
        <ele>720.029</ele>
        <time>2022-08-01T08:31:59Z</time>
      </trkpt>
      <trkpt lat="40.665934" lon="-3.368618">
        <ele>720.028</ele>
        <time>2022-08-01T08:32:09Z</time>
      </trkpt>
      <trkpt lat="40.665804" lon="-3.369563">
        <ele>720.022</ele>
        <time>2022-08-01T08:32:19Z</time>
      </trkpt>
      <trkpt lat="40.666040" lon="-3.370539">
        <ele>720.016</ele>
        <time>2022-08-01T08:32:29Z</time>
      </trkpt>
      <trkpt lat="40.666479" lon="-3.372256">
        <ele>726.783</ele>
        <time>2022-08-01T08:32:39Z</time>
      </trkpt>
      <trkpt lat="40.666829" lon="-3.373725">
        <ele>731.663</ele>
        <time>2022-08-01T08:32:49Z</time>
      </trkpt>
      <trkpt lat="40.667000" lon="-3.374348">
        <ele>734.182</ele>
        <time>2022-08-01T08:32:59Z</time>
      </trkpt>
      <trkpt lat="40.667220" lon="-3.375206">
        <ele>734.896</ele>
        <time>2022-08-01T08:33:09Z</time>
      </trkpt>
      <trkpt lat="40.667383" lon="-3.375968">
        <ele>736.372</ele>
        <time>2022-08-01T08:33:19Z</time>
      </trkpt>
      <trkpt lat="40.667651" lon="-3.376880">
        <ele>738.913</ele>
        <time>2022-08-01T08:33:29Z</time>
      </trkpt>
      <trkpt lat="40.667944" lon="-3.378049">
        <ele>743.214</ele>
        <time>2022-08-01T08:33:39Z</time>
      </trkpt>
      <trkpt lat="40.668156" lon="-3.379025">
        <ele>748.409</ele>
        <time>2022-08-01T08:33:49Z</time>
      </trkpt>
      <trkpt lat="40.668424" lon="-3.380023">
        <ele>750.388</ele>
        <time>2022-08-01T08:33:59Z</time>
      </trkpt>
      <trkpt lat="40.668750" lon="-3.381214">
        <ele>753.747</ele>
        <time>2022-08-01T08:34:09Z</time>
      </trkpt>
      <trkpt lat="40.668978" lon="-3.382190">
        <ele>761.516</ele>
        <time>2022-08-01T08:34:19Z</time>
      </trkpt>
      <trkpt lat="40.669140" lon="-3.382845">
        <ele>767.310</ele>
        <time>2022-08-01T08:34:29Z</time>
      </trkpt>
      <trkpt lat="40.669336" lon="-3.383585">
        <ele>770.614</ele>
        <time>2022-08-01T08:34:39Z</time>
      </trkpt>
      <trkpt lat="40.669474" lon="-3.384143">
        <ele>771.051</ele>
        <time>2022-08-01T08:34:49Z</time>
      </trkpt>
      <trkpt lat="40.669678" lon="-3.384959">
        <ele>772.741</ele>
        <time>2022-08-01T08:34:59Z</time>
      </trkpt>
      <trkpt lat="40.669792" lon="-3.385377">
        <ele>773.430</ele>
        <time>2022-08-01T08:35:09Z</time>
      </trkpt>
      <trkpt lat="40.670068" lon="-3.386461">
        <ele>773.054</ele>
        <time>2022-08-01T08:35:19Z</time>
      </trkpt>
      <trkpt lat="40.670288" lon="-3.387394">
        <ele>770.335</ele>
        <time>2022-08-01T08:35:29Z</time>
      </trkpt>
      <trkpt lat="40.670418" lon="-3.387877">
        <ele>764.486</ele>
        <time>2022-08-01T08:35:39Z</time>
      </trkpt>
      <trkpt lat="40.670524" lon="-3.388327">
        <ele>759.114</ele>
        <time>2022-08-01T08:35:49Z</time>
      </trkpt>
      <trkpt lat="40.670638" lon="-3.388671">
        <ele>755.909</ele>
        <time>2022-08-01T08:35:59Z</time>
      </trkpt>
      <trkpt lat="40.670687" lon="-3.388950">
        <ele>755.394</ele>
        <time>2022-08-01T08:36:09Z</time>
      </trkpt>
      <trkpt lat="40.670711" lon="-3.389218">
        <ele>757.023</ele>
        <time>2022-08-01T08:36:19Z</time>
      </trkpt>
      <trkpt lat="40.670589" lon="-3.389368">
        <ele>756.282</ele>
        <time>2022-08-01T08:36:29Z</time>
      </trkpt>
      <trkpt lat="40.669857" lon="-3.389572">
        <ele>757.626</ele>
        <time>2022-08-01T08:36:39Z</time>
      </trkpt>
      <trkpt lat="40.669165" lon="-3.389829">
        <ele>753.840</ele>
        <time>2022-08-01T08:36:49Z</time>
      </trkpt>
      <trkpt lat="40.668685" lon="-3.390033">
        <ele>756.357</ele>
        <time>2022-08-01T08:36:59Z</time>
      </trkpt>
      <trkpt lat="40.668213" lon="-3.390194">
        <ele>757.137</ele>
        <time>2022-08-01T08:37:09Z</time>
      </trkpt>
      <trkpt lat="40.667871" lon="-3.390366">
        <ele>755.426</ele>
        <time>2022-08-01T08:37:19Z</time>
      </trkpt>
      <trkpt lat="40.667163" lon="-3.390645">
        <ele>753.460</ele>
        <time>2022-08-01T08:37:29Z</time>
      </trkpt>
      <trkpt lat="40.666927" lon="-3.390763">
        <ele>753.414</ele>
        <time>2022-08-01T08:37:39Z</time>
      </trkpt>
      <trkpt lat="40.666927" lon="-3.390924">
        <ele>754.654</ele>
        <time>2022-08-01T08:37:49Z</time>
      </trkpt>
      <trkpt lat="40.666740" lon="-3.391203">
        <ele>756.909</ele>
        <time>2022-08-01T08:37:59Z</time>
      </trkpt>
      <trkpt lat="40.666398" lon="-3.391718">
        <ele>760.009</ele>
        <time>2022-08-01T08:38:09Z</time>
      </trkpt>
      <trkpt lat="40.666374" lon="-3.391804">
        <ele>759.952</ele>
        <time>2022-08-01T08:38:19Z</time>
      </trkpt>
      <trkpt lat="40.666683" lon="-3.392050">
        <ele>760.461</ele>
        <time>2022-08-01T08:38:29Z</time>
      </trkpt>
      <trkpt lat="40.666732" lon="-3.392190">
        <ele>760.930</ele>
        <time>2022-08-01T08:38:39Z</time>
      </trkpt>
      <trkpt lat="40.666675" lon="-3.392383">
        <ele>760.494</ele>
        <time>2022-08-01T08:38:49Z</time>
      </trkpt>
      <trkpt lat="40.666764" lon="-3.392555">
        <ele>760.488</ele>
        <time>2022-08-01T08:38:59Z</time>
      </trkpt>
      <trkpt lat="40.666789" lon="-3.393016">
        <ele>759.615</ele>
        <time>2022-08-01T08:39:09Z</time>
      </trkpt>
      <trkpt lat="40.666992" lon="-3.393434">
        <ele>760.175</ele>
        <time>2022-08-01T08:39:19Z</time>
      </trkpt>
      <trkpt lat="40.667204" lon="-3.393799">
        <ele>760.044</ele>
        <time>2022-08-01T08:39:29Z</time>
      </trkpt>
      <trkpt lat="40.667399" lon="-3.394067">
        <ele>756.678</ele>
        <time>2022-08-01T08:39:39Z</time>
      </trkpt>
      <trkpt lat="40.667977" lon="-3.394561">
        <ele>752.884</ele>
        <time>2022-08-01T08:39:49Z</time>
      </trkpt>
      <trkpt lat="40.668359" lon="-3.394936">
        <ele>752.607</ele>
        <time>2022-08-01T08:39:59Z</time>
      </trkpt>
      <trkpt lat="40.668782" lon="-3.395323">
        <ele>753.017</ele>
        <time>2022-08-01T08:40:09Z</time>
      </trkpt>
      <trkpt lat="40.669360" lon="-3.395687">
        <ele>754.409</ele>
        <time>2022-08-01T08:40:19Z</time>
      </trkpt>
      <trkpt lat="40.669743" lon="-3.396041">
        <ele>753.319</ele>
        <time>2022-08-01T08:40:29Z</time>
      </trkpt>
      <trkpt lat="40.670174" lon="-3.396310">
        <ele>752.648</ele>
        <time>2022-08-01T08:40:39Z</time>
      </trkpt>
      <trkpt lat="40.670443" lon="-3.396471">
        <ele>752.077</ele>
        <time>2022-08-01T08:40:49Z</time>
      </trkpt>
      <trkpt lat="40.670760" lon="-3.396707">
        <ele>751.521</ele>
        <time>2022-08-01T08:40:59Z</time>
      </trkpt>
      <trkpt lat="40.671142" lon="-3.396900">
        <ele>752.595</ele>
        <time>2022-08-01T08:41:09Z</time>
      </trkpt>
      <trkpt lat="40.671386" lon="-3.397039">
        <ele>755.342</ele>
        <time>2022-08-01T08:41:19Z</time>
      </trkpt>
      <trkpt lat="40.671826" lon="-3.397211">
        <ele>758.142</ele>
        <time>2022-08-01T08:41:29Z</time>
      </trkpt>
      <trkpt lat="40.672143" lon="-3.397683">
        <ele>760.641</ele>
        <time>2022-08-01T08:41:39Z</time>
      </trkpt>
      <trkpt lat="40.672477" lon="-3.398230">
        <ele>766.145</ele>
        <time>2022-08-01T08:41:49Z</time>
      </trkpt>
      <trkpt lat="40.672688" lon="-3.398509">
        <ele>768.945</ele>
        <time>2022-08-01T08:41:59Z</time>
      </trkpt>
      <trkpt lat="40.672981" lon="-3.398895">
        <ele>771.747</ele>
        <time>2022-08-01T08:42:09Z</time>
      </trkpt>
      <trkpt lat="40.673185" lon="-3.399453">
        <ele>775.011</ele>
        <time>2022-08-01T08:42:19Z</time>
      </trkpt>
      <trkpt lat="40.673437" lon="-3.399829">
        <ele>777.409</ele>
        <time>2022-08-01T08:42:29Z</time>
      </trkpt>
      <trkpt lat="40.673771" lon="-3.400258">
        <ele>778.195</ele>
        <time>2022-08-01T08:42:39Z</time>
      </trkpt>
      <trkpt lat="40.673974" lon="-3.400569">
        <ele>778.964</ele>
        <time>2022-08-01T08:42:49Z</time>
      </trkpt>
      <trkpt lat="40.674145" lon="-3.400880">
        <ele>778.653</ele>
        <time>2022-08-01T08:42:59Z</time>
      </trkpt>
      <trkpt lat="40.674348" lon="-3.401288">
        <ele>780.657</ele>
        <time>2022-08-01T08:43:09Z</time>
      </trkpt>
      <trkpt lat="40.674495" lon="-3.401577">
        <ele>782.991</ele>
        <time>2022-08-01T08:43:19Z</time>
      </trkpt>
      <trkpt lat="40.674682" lon="-3.401856">
        <ele>785.888</ele>
        <time>2022-08-01T08:43:29Z</time>
      </trkpt>
      <trkpt lat="40.674902" lon="-3.402135">
        <ele>788.068</ele>
        <time>2022-08-01T08:43:39Z</time>
      </trkpt>
      <trkpt lat="40.675268" lon="-3.402447">
        <ele>791.597</ele>
        <time>2022-08-01T08:43:49Z</time>
      </trkpt>
      <trkpt lat="40.675658" lon="-3.402833">
        <ele>795.261</ele>
        <time>2022-08-01T08:43:59Z</time>
      </trkpt>
      <trkpt lat="40.675951" lon="-3.403144">
        <ele>799.124</ele>
        <time>2022-08-01T08:44:09Z</time>
      </trkpt>
      <trkpt lat="40.676220" lon="-3.403423">
        <ele>801.004</ele>
        <time>2022-08-01T08:44:19Z</time>
      </trkpt>
      <trkpt lat="40.676562" lon="-3.403723">
        <ele>808.014</ele>
        <time>2022-08-01T08:44:29Z</time>
      </trkpt>
      <trkpt lat="40.676887" lon="-3.404034">
        <ele>813.909</ele>
        <time>2022-08-01T08:44:39Z</time>
      </trkpt>
      <trkpt lat="40.677091" lon="-3.404217">
        <ele>817.683</ele>
        <time>2022-08-01T08:44:49Z</time>
      </trkpt>
      <trkpt lat="40.677278" lon="-3.404410">
        <ele>819.922</ele>
        <time>2022-08-01T08:44:59Z</time>
      </trkpt>
      <trkpt lat="40.677546" lon="-3.404571">
        <ele>820.041</ele>
        <time>2022-08-01T08:45:09Z</time>
      </trkpt>
      <trkpt lat="40.677864" lon="-3.404742">
        <ele>820.065</ele>
        <time>2022-08-01T08:45:19Z</time>
      </trkpt>
      <trkpt lat="40.678352" lon="-3.404968">
        <ele>820.079</ele>
        <time>2022-08-01T08:45:29Z</time>
      </trkpt>
      <trkpt lat="40.678787" lon="-3.405188">
        <ele>820.016</ele>
        <time>2022-08-01T08:45:39Z</time>
      </trkpt>
      <trkpt lat="40.679479" lon="-3.405510">
        <ele>820.036</ele>
        <time>2022-08-01T08:45:49Z</time>
      </trkpt>
      <trkpt lat="40.679987" lon="-3.405746">
        <ele>820.025</ele>
        <time>2022-08-01T08:45:59Z</time>
      </trkpt>
      <trkpt lat="40.680382" lon="-3.405955">
        <ele>820.059</ele>
        <time>2022-08-01T08:46:09Z</time>
      </trkpt>
      <trkpt lat="40.680744" lon="-3.406228">
        <ele>820.059</ele>
        <time>2022-08-01T08:46:19Z</time>
      </trkpt>
      <trkpt lat="40.681297" lon="-3.406717">
        <ele>820.003</ele>
        <time>2022-08-01T08:46:29Z</time>
      </trkpt>
      <trkpt lat="40.681980" lon="-3.407333">
        <ele>820.023</ele>
        <time>2022-08-01T08:46:39Z</time>
      </trkpt>
      <trkpt lat="40.682473" lon="-3.407784">
        <ele>820.009</ele>
        <time>2022-08-01T08:46:49Z</time>
      </trkpt>
      <trkpt lat="40.683059" lon="-3.408272">
        <ele>820.066</ele>
        <time>2022-08-01T08:46:59Z</time>
      </trkpt>
      <trkpt lat="40.683543" lon="-3.408701">
        <ele>820.085</ele>
        <time>2022-08-01T08:47:09Z</time>
      </trkpt>
      <trkpt lat="40.684014" lon="-3.409136">
        <ele>820.094</ele>
        <time>2022-08-01T08:47:19Z</time>
      </trkpt>
      <trkpt lat="40.684385" lon="-3.409447">
        <ele>820.018</ele>
        <time>2022-08-01T08:47:29Z</time>
      </trkpt>
      <trkpt lat="40.684588" lon="-3.409597">
        <ele>820.532</ele>
        <time>2022-08-01T08:47:39Z</time>
      </trkpt>
      <trkpt lat="40.684564" lon="-3.409790">
        <ele>820.489</ele>
        <time>2022-08-01T08:47:49Z</time>
      </trkpt>
      <trkpt lat="40.684035" lon="-3.409849">
        <ele>820.099</ele>
        <time>2022-08-01T08:47:59Z</time>
      </trkpt>
      <trkpt lat="40.683567" lon="-3.409882">
        <ele>820.088</ele>
        <time>2022-08-01T08:48:09Z</time>
      </trkpt>
      <trkpt lat="40.683246" lon="-3.409871">
        <ele>820.082</ele>
        <time>2022-08-01T08:48:19Z</time>
      </trkpt>
      <trkpt lat="40.682892" lon="-3.409865">
        <ele>820.015</ele>
        <time>2022-08-01T08:48:29Z</time>
      </trkpt>
      <trkpt lat="40.682583" lon="-3.409914">
        <ele>820.065</ele>
        <time>2022-08-01T08:48:39Z</time>
      </trkpt>
      <trkpt lat="40.682261" lon="-3.410016">
        <ele>820.011</ele>
        <time>2022-08-01T08:48:49Z</time>
      </trkpt>
      <trkpt lat="40.682261" lon="-3.410085">
        <ele>820.009</ele>
        <time>2022-08-01T08:48:59Z</time>
      </trkpt>
      <trkpt lat="40.682485" lon="-3.410429">
        <ele>820.082</ele>
        <time>2022-08-01T08:49:09Z</time>
      </trkpt>
      <trkpt lat="40.682908" lon="-3.410987">
        <ele>820.051</ele>
        <time>2022-08-01T08:49:19Z</time>
      </trkpt>
    </trkseg>
  </trk>
</gpx>
